<?xml version="1.0" encoding="utf-8"?>
<gpx xmlns:xsi="http://www.w3.org/2001/XMLSchema-instance" xmlns:xsd="http://www.w3.org/2001/XMLSchema" version="1.1" creator="Shapelink.com" xmlns="http://www.topografix.com/GPX/1/1" xmlns:gpxtpx="http://www.garmin.com/xmlschemas/TrackPointExtension/v1">
  <metadata>
    <name>Ciclismo 21.53 km, 2020-02-13</name>
    <desc></desc>
    <author><name>Peter Littke</name></author> 
    <time>2020-02-13T15:56:01Z</time>
  </metadata>
  <trk>
    <name>Ciclismo 21.53 km, 2020-02-13</name>
    <trkseg>
      <trkpt lat="59.173519" lon="18.143401">
        <ele>0</ele>
        <time>2020-02-13T15:56:01Z</time>
      </trkpt>
      <trkpt lat="59.173549" lon="18.143444">
        <ele>0</ele>
        <time>2020-02-13T15:56:07Z</time>
      </trkpt>
      <trkpt lat="59.173579" lon="18.143478">
        <ele>63</ele>
        <time>2020-02-13T15:56:09Z</time>
      </trkpt>
      <trkpt lat="59.173601" lon="18.143495">
        <ele>63</ele>
        <time>2020-02-13T15:56:10Z</time>
      </trkpt>
      <trkpt lat="59.173624" lon="18.143504">
        <ele>63</ele>
        <time>2020-02-13T15:56:11Z</time>
      </trkpt>
      <trkpt lat="59.173665" lon="18.143518">
        <ele>64</ele>
        <time>2020-02-13T15:56:13Z</time>
      </trkpt>
      <trkpt lat="59.173698" lon="18.143531">
        <ele>65</ele>
        <time>2020-02-13T15:56:14Z</time>
      </trkpt>
      <trkpt lat="59.173737" lon="18.143555">
        <ele>65</ele>
        <time>2020-02-13T15:56:15Z</time>
      </trkpt>
      <trkpt lat="59.173771" lon="18.143582">
        <ele>65</ele>
        <time>2020-02-13T15:56:16Z</time>
      </trkpt>
      <trkpt lat="59.173806" lon="18.143591">
        <ele>65</ele>
        <time>2020-02-13T15:56:17Z</time>
      </trkpt>
      <trkpt lat="59.17383" lon="18.143571">
        <ele>64</ele>
        <time>2020-02-13T15:56:18Z</time>
      </trkpt>
      <trkpt lat="59.173847" lon="18.14347">
        <ele>64</ele>
        <time>2020-02-13T15:56:19Z</time>
      </trkpt>
      <trkpt lat="59.173855" lon="18.143361">
        <ele>64</ele>
        <time>2020-02-13T15:56:20Z</time>
      </trkpt>
      <trkpt lat="59.173865" lon="18.143272">
        <ele>63</ele>
        <time>2020-02-13T15:56:22Z</time>
      </trkpt>
      <trkpt lat="59.173882" lon="18.143183">
        <ele>63</ele>
        <time>2020-02-13T15:56:22Z</time>
      </trkpt>
      <trkpt lat="59.173907" lon="18.143102">
        <ele>62</ele>
        <time>2020-02-13T15:56:23Z</time>
      </trkpt>
      <trkpt lat="59.173936" lon="18.143038">
        <ele>61</ele>
        <time>2020-02-13T15:56:24Z</time>
      </trkpt>
      <trkpt lat="59.173971" lon="18.143014">
        <ele>61</ele>
        <time>2020-02-13T15:56:25Z</time>
      </trkpt>
      <trkpt lat="59.174015" lon="18.143007">
        <ele>60</ele>
        <time>2020-02-13T15:56:27Z</time>
      </trkpt>
      <trkpt lat="59.174065" lon="18.143012">
        <ele>60</ele>
        <time>2020-02-13T15:56:27Z</time>
      </trkpt>
      <trkpt lat="59.174121" lon="18.143018">
        <ele>59</ele>
        <time>2020-02-13T15:56:28Z</time>
      </trkpt>
      <trkpt lat="59.174188" lon="18.143023">
        <ele>59</ele>
        <time>2020-02-13T15:56:29Z</time>
      </trkpt>
      <trkpt lat="59.174255" lon="18.143032">
        <ele>58</ele>
        <time>2020-02-13T15:56:30Z</time>
      </trkpt>
      <trkpt lat="59.174323" lon="18.14305">
        <ele>58</ele>
        <time>2020-02-13T15:56:32Z</time>
      </trkpt>
      <trkpt lat="59.174389" lon="18.14307">
        <ele>57</ele>
        <time>2020-02-13T15:56:32Z</time>
      </trkpt>
      <trkpt lat="59.174458" lon="18.143093">
        <ele>57</ele>
        <time>2020-02-13T15:56:33Z</time>
      </trkpt>
      <trkpt lat="59.174526" lon="18.143115">
        <ele>57</ele>
        <time>2020-02-13T15:56:34Z</time>
      </trkpt>
      <trkpt lat="59.174588" lon="18.143115">
        <ele>56</ele>
        <time>2020-02-13T15:56:35Z</time>
      </trkpt>
      <trkpt lat="59.17464" lon="18.143071">
        <ele>56</ele>
        <time>2020-02-13T15:56:36Z</time>
      </trkpt>
      <trkpt lat="59.17468" lon="18.142988">
        <ele>55</ele>
        <time>2020-02-13T15:56:37Z</time>
      </trkpt>
      <trkpt lat="59.174709" lon="18.14289">
        <ele>55</ele>
        <time>2020-02-13T15:56:38Z</time>
      </trkpt>
      <trkpt lat="59.174746" lon="18.142807">
        <ele>55</ele>
        <time>2020-02-13T15:56:40Z</time>
      </trkpt>
      <trkpt lat="59.174792" lon="18.142755">
        <ele>54</ele>
        <time>2020-02-13T15:56:40Z</time>
      </trkpt>
      <trkpt lat="59.174842" lon="18.14273">
        <ele>54</ele>
        <time>2020-02-13T15:56:41Z</time>
      </trkpt>
      <trkpt lat="59.174895" lon="18.142712">
        <ele>53</ele>
        <time>2020-02-13T15:56:42Z</time>
      </trkpt>
      <trkpt lat="59.174948" lon="18.142688">
        <ele>53</ele>
        <time>2020-02-13T15:56:43Z</time>
      </trkpt>
      <trkpt lat="59.174998" lon="18.142659">
        <ele>53</ele>
        <time>2020-02-13T15:56:44Z</time>
      </trkpt>
      <trkpt lat="59.175043" lon="18.14262">
        <ele>53</ele>
        <time>2020-02-13T15:56:46Z</time>
      </trkpt>
      <trkpt lat="59.17508" lon="18.142566">
        <ele>53</ele>
        <time>2020-02-13T15:56:46Z</time>
      </trkpt>
      <trkpt lat="59.175109" lon="18.142502">
        <ele>53</ele>
        <time>2020-02-13T15:56:47Z</time>
      </trkpt>
      <trkpt lat="59.175128" lon="18.142441">
        <ele>53</ele>
        <time>2020-02-13T15:56:48Z</time>
      </trkpt>
      <trkpt lat="59.175144" lon="18.142391">
        <ele>53</ele>
        <time>2020-02-13T15:56:49Z</time>
      </trkpt>
      <trkpt lat="59.175156" lon="18.142342">
        <ele>53</ele>
        <time>2020-02-13T15:56:51Z</time>
      </trkpt>
      <trkpt lat="59.175162" lon="18.142271">
        <ele>53</ele>
        <time>2020-02-13T15:56:51Z</time>
      </trkpt>
      <trkpt lat="59.175182" lon="18.142198">
        <ele>53</ele>
        <time>2020-02-13T15:56:52Z</time>
      </trkpt>
      <trkpt lat="59.175209" lon="18.142125">
        <ele>53</ele>
        <time>2020-02-13T15:56:53Z</time>
      </trkpt>
      <trkpt lat="59.175244" lon="18.142053">
        <ele>53</ele>
        <time>2020-02-13T15:56:54Z</time>
      </trkpt>
      <trkpt lat="59.175284" lon="18.141993">
        <ele>53</ele>
        <time>2020-02-13T15:56:55Z</time>
      </trkpt>
      <trkpt lat="59.175316" lon="18.141928">
        <ele>53</ele>
        <time>2020-02-13T15:56:56Z</time>
      </trkpt>
      <trkpt lat="59.175344" lon="18.141866">
        <ele>53</ele>
        <time>2020-02-13T15:56:57Z</time>
      </trkpt>
      <trkpt lat="59.175369" lon="18.141809">
        <ele>52</ele>
        <time>2020-02-13T15:56:58Z</time>
      </trkpt>
      <trkpt lat="59.175393" lon="18.14176">
        <ele>52</ele>
        <time>2020-02-13T15:56:59Z</time>
      </trkpt>
      <trkpt lat="59.175413" lon="18.141714">
        <ele>52</ele>
        <time>2020-02-13T15:57:00Z</time>
      </trkpt>
      <trkpt lat="59.175433" lon="18.141673">
        <ele>52</ele>
        <time>2020-02-13T15:57:01Z</time>
      </trkpt>
      <trkpt lat="59.175446" lon="18.141648">
        <ele>52</ele>
        <time>2020-02-13T15:57:02Z</time>
      </trkpt>
      <trkpt lat="59.175462" lon="18.141622">
        <ele>52</ele>
        <time>2020-02-13T15:57:05Z</time>
      </trkpt>
      <trkpt lat="59.175479" lon="18.14159">
        <ele>52</ele>
        <time>2020-02-13T15:57:07Z</time>
      </trkpt>
      <trkpt lat="59.175492" lon="18.141551">
        <ele>52</ele>
        <time>2020-02-13T15:57:09Z</time>
      </trkpt>
      <trkpt lat="59.17551" lon="18.141501">
        <ele>51</ele>
        <time>2020-02-13T15:57:11Z</time>
      </trkpt>
      <trkpt lat="59.175521" lon="18.141472">
        <ele>51</ele>
        <time>2020-02-13T15:57:12Z</time>
      </trkpt>
      <trkpt lat="59.175535" lon="18.14143">
        <ele>51</ele>
        <time>2020-02-13T15:57:13Z</time>
      </trkpt>
      <trkpt lat="59.175558" lon="18.141372">
        <ele>51</ele>
        <time>2020-02-13T15:57:14Z</time>
      </trkpt>
      <trkpt lat="59.175587" lon="18.141314">
        <ele>51</ele>
        <time>2020-02-13T15:57:15Z</time>
      </trkpt>
      <trkpt lat="59.175622" lon="18.141263">
        <ele>51</ele>
        <time>2020-02-13T15:57:16Z</time>
      </trkpt>
      <trkpt lat="59.175664" lon="18.141227">
        <ele>51</ele>
        <time>2020-02-13T15:57:17Z</time>
      </trkpt>
      <trkpt lat="59.175711" lon="18.141203">
        <ele>50</ele>
        <time>2020-02-13T15:57:18Z</time>
      </trkpt>
      <trkpt lat="59.175762" lon="18.141195">
        <ele>50</ele>
        <time>2020-02-13T15:57:19Z</time>
      </trkpt>
      <trkpt lat="59.175814" lon="18.141202">
        <ele>49</ele>
        <time>2020-02-13T15:57:20Z</time>
      </trkpt>
      <trkpt lat="59.175864" lon="18.141215">
        <ele>49</ele>
        <time>2020-02-13T15:57:22Z</time>
      </trkpt>
      <trkpt lat="59.175915" lon="18.141231">
        <ele>49</ele>
        <time>2020-02-13T15:57:22Z</time>
      </trkpt>
      <trkpt lat="59.175966" lon="18.141249">
        <ele>48</ele>
        <time>2020-02-13T15:57:24Z</time>
      </trkpt>
      <trkpt lat="59.176018" lon="18.141269">
        <ele>48</ele>
        <time>2020-02-13T15:57:24Z</time>
      </trkpt>
      <trkpt lat="59.176073" lon="18.141284">
        <ele>48</ele>
        <time>2020-02-13T15:57:25Z</time>
      </trkpt>
      <trkpt lat="59.176129" lon="18.141295">
        <ele>48</ele>
        <time>2020-02-13T15:57:26Z</time>
      </trkpt>
      <trkpt lat="59.176187" lon="18.1413">
        <ele>47</ele>
        <time>2020-02-13T15:57:27Z</time>
      </trkpt>
      <trkpt lat="59.176246" lon="18.141304">
        <ele>47</ele>
        <time>2020-02-13T15:57:28Z</time>
      </trkpt>
      <trkpt lat="59.176305" lon="18.141305">
        <ele>47</ele>
        <time>2020-02-13T15:57:29Z</time>
      </trkpt>
      <trkpt lat="59.176369" lon="18.141306">
        <ele>46</ele>
        <time>2020-02-13T15:57:31Z</time>
      </trkpt>
      <trkpt lat="59.176433" lon="18.141309">
        <ele>46</ele>
        <time>2020-02-13T15:57:31Z</time>
      </trkpt>
      <trkpt lat="59.176498" lon="18.141318">
        <ele>46</ele>
        <time>2020-02-13T15:57:32Z</time>
      </trkpt>
      <trkpt lat="59.176565" lon="18.141336">
        <ele>45</ele>
        <time>2020-02-13T15:57:33Z</time>
      </trkpt>
      <trkpt lat="59.176631" lon="18.141359">
        <ele>45</ele>
        <time>2020-02-13T15:57:34Z</time>
      </trkpt>
      <trkpt lat="59.176699" lon="18.141387">
        <ele>45</ele>
        <time>2020-02-13T15:57:35Z</time>
      </trkpt>
      <trkpt lat="59.176767" lon="18.141415">
        <ele>45</ele>
        <time>2020-02-13T15:57:36Z</time>
      </trkpt>
      <trkpt lat="59.176835" lon="18.141445">
        <ele>45</ele>
        <time>2020-02-13T15:57:38Z</time>
      </trkpt>
      <trkpt lat="59.176902" lon="18.141477">
        <ele>44</ele>
        <time>2020-02-13T15:57:38Z</time>
      </trkpt>
      <trkpt lat="59.176967" lon="18.141507">
        <ele>44</ele>
        <time>2020-02-13T15:57:39Z</time>
      </trkpt>
      <trkpt lat="59.177032" lon="18.141537">
        <ele>44</ele>
        <time>2020-02-13T15:57:40Z</time>
      </trkpt>
      <trkpt lat="59.177091" lon="18.14157">
        <ele>44</ele>
        <time>2020-02-13T15:57:41Z</time>
      </trkpt>
      <trkpt lat="59.177144" lon="18.141592">
        <ele>44</ele>
        <time>2020-02-13T15:57:43Z</time>
      </trkpt>
      <trkpt lat="59.177193" lon="18.141597">
        <ele>43</ele>
        <time>2020-02-13T15:57:43Z</time>
      </trkpt>
      <trkpt lat="59.177235" lon="18.141588">
        <ele>43</ele>
        <time>2020-02-13T15:57:44Z</time>
      </trkpt>
      <trkpt lat="59.177278" lon="18.14159">
        <ele>43</ele>
        <time>2020-02-13T15:57:45Z</time>
      </trkpt>
      <trkpt lat="59.177325" lon="18.141606">
        <ele>43</ele>
        <time>2020-02-13T15:57:47Z</time>
      </trkpt>
      <trkpt lat="59.177374" lon="18.141631">
        <ele>42</ele>
        <time>2020-02-13T15:57:47Z</time>
      </trkpt>
      <trkpt lat="59.177427" lon="18.141654">
        <ele>42</ele>
        <time>2020-02-13T15:57:48Z</time>
      </trkpt>
      <trkpt lat="59.177488" lon="18.14167">
        <ele>42</ele>
        <time>2020-02-13T15:57:49Z</time>
      </trkpt>
      <trkpt lat="59.177554" lon="18.141684">
        <ele>42</ele>
        <time>2020-02-13T15:57:51Z</time>
      </trkpt>
      <trkpt lat="59.177624" lon="18.141703">
        <ele>42</ele>
        <time>2020-02-13T15:57:51Z</time>
      </trkpt>
      <trkpt lat="59.177698" lon="18.141733">
        <ele>41</ele>
        <time>2020-02-13T15:57:52Z</time>
      </trkpt>
      <trkpt lat="59.177778" lon="18.141775">
        <ele>41</ele>
        <time>2020-02-13T15:57:53Z</time>
      </trkpt>
      <trkpt lat="59.17786" lon="18.141827">
        <ele>41</ele>
        <time>2020-02-13T15:57:55Z</time>
      </trkpt>
      <trkpt lat="59.177942" lon="18.141883">
        <ele>41</ele>
        <time>2020-02-13T15:57:55Z</time>
      </trkpt>
      <trkpt lat="59.178018" lon="18.141938">
        <ele>41</ele>
        <time>2020-02-13T15:57:56Z</time>
      </trkpt>
      <trkpt lat="59.178088" lon="18.141994">
        <ele>41</ele>
        <time>2020-02-13T15:57:57Z</time>
      </trkpt>
      <trkpt lat="59.178161" lon="18.142052">
        <ele>40</ele>
        <time>2020-02-13T15:57:58Z</time>
      </trkpt>
      <trkpt lat="59.178232" lon="18.14211">
        <ele>40</ele>
        <time>2020-02-13T15:57:59Z</time>
      </trkpt>
      <trkpt lat="59.178298" lon="18.142171">
        <ele>40</ele>
        <time>2020-02-13T15:58:01Z</time>
      </trkpt>
      <trkpt lat="59.17836" lon="18.142241">
        <ele>39</ele>
        <time>2020-02-13T15:58:02Z</time>
      </trkpt>
      <trkpt lat="59.17842" lon="18.142312">
        <ele>39</ele>
        <time>2020-02-13T15:58:02Z</time>
      </trkpt>
      <trkpt lat="59.178482" lon="18.142369">
        <ele>38</ele>
        <time>2020-02-13T15:58:03Z</time>
      </trkpt>
      <trkpt lat="59.178548" lon="18.142411">
        <ele>38</ele>
        <time>2020-02-13T15:58:04Z</time>
      </trkpt>
      <trkpt lat="59.178614" lon="18.142452">
        <ele>38</ele>
        <time>2020-02-13T15:58:05Z</time>
      </trkpt>
      <trkpt lat="59.178679" lon="18.142493">
        <ele>38</ele>
        <time>2020-02-13T15:58:06Z</time>
      </trkpt>
      <trkpt lat="59.178742" lon="18.142535">
        <ele>37</ele>
        <time>2020-02-13T15:58:08Z</time>
      </trkpt>
      <trkpt lat="59.178797" lon="18.142572">
        <ele>37</ele>
        <time>2020-02-13T15:58:08Z</time>
      </trkpt>
      <trkpt lat="59.178838" lon="18.142602">
        <ele>37</ele>
        <time>2020-02-13T15:58:09Z</time>
      </trkpt>
      <trkpt lat="59.17887" lon="18.142624">
        <ele>37</ele>
        <time>2020-02-13T15:58:10Z</time>
      </trkpt>
      <trkpt lat="59.178902" lon="18.142643">
        <ele>36</ele>
        <time>2020-02-13T15:58:11Z</time>
      </trkpt>
      <trkpt lat="59.178936" lon="18.142665">
        <ele>36</ele>
        <time>2020-02-13T15:58:12Z</time>
      </trkpt>
      <trkpt lat="59.178976" lon="18.142691">
        <ele>36</ele>
        <time>2020-02-13T15:58:13Z</time>
      </trkpt>
      <trkpt lat="59.179022" lon="18.142721">
        <ele>36</ele>
        <time>2020-02-13T15:58:15Z</time>
      </trkpt>
      <trkpt lat="59.179067" lon="18.142754">
        <ele>36</ele>
        <time>2020-02-13T15:58:15Z</time>
      </trkpt>
      <trkpt lat="59.179118" lon="18.14279">
        <ele>35</ele>
        <time>2020-02-13T15:58:16Z</time>
      </trkpt>
      <trkpt lat="59.179169" lon="18.142828">
        <ele>35</ele>
        <time>2020-02-13T15:58:17Z</time>
      </trkpt>
      <trkpt lat="59.179224" lon="18.142865">
        <ele>35</ele>
        <time>2020-02-13T15:58:19Z</time>
      </trkpt>
      <trkpt lat="59.179278" lon="18.142904">
        <ele>35</ele>
        <time>2020-02-13T15:58:19Z</time>
      </trkpt>
      <trkpt lat="59.179333" lon="18.142948">
        <ele>35</ele>
        <time>2020-02-13T15:58:21Z</time>
      </trkpt>
      <trkpt lat="59.179388" lon="18.14299">
        <ele>35</ele>
        <time>2020-02-13T15:58:21Z</time>
      </trkpt>
      <trkpt lat="59.179441" lon="18.143035">
        <ele>35</ele>
        <time>2020-02-13T15:58:22Z</time>
      </trkpt>
      <trkpt lat="59.179495" lon="18.143086">
        <ele>35</ele>
        <time>2020-02-13T15:58:23Z</time>
      </trkpt>
      <trkpt lat="59.179548" lon="18.143141">
        <ele>34</ele>
        <time>2020-02-13T15:58:24Z</time>
      </trkpt>
      <trkpt lat="59.179602" lon="18.143196">
        <ele>34</ele>
        <time>2020-02-13T15:58:25Z</time>
      </trkpt>
      <trkpt lat="59.179654" lon="18.143251">
        <ele>34</ele>
        <time>2020-02-13T15:58:27Z</time>
      </trkpt>
      <trkpt lat="59.179706" lon="18.143308">
        <ele>34</ele>
        <time>2020-02-13T15:58:27Z</time>
      </trkpt>
      <trkpt lat="59.179757" lon="18.143365">
        <ele>34</ele>
        <time>2020-02-13T15:58:28Z</time>
      </trkpt>
      <trkpt lat="59.179808" lon="18.143422">
        <ele>34</ele>
        <time>2020-02-13T15:58:29Z</time>
      </trkpt>
      <trkpt lat="59.179858" lon="18.143479">
        <ele>34</ele>
        <time>2020-02-13T15:58:30Z</time>
      </trkpt>
      <trkpt lat="59.179904" lon="18.143538">
        <ele>35</ele>
        <time>2020-02-13T15:58:31Z</time>
      </trkpt>
      <trkpt lat="59.179948" lon="18.143602">
        <ele>34</ele>
        <time>2020-02-13T15:58:32Z</time>
      </trkpt>
      <trkpt lat="59.179992" lon="18.143662">
        <ele>34</ele>
        <time>2020-02-13T15:58:33Z</time>
      </trkpt>
      <trkpt lat="59.180034" lon="18.143719">
        <ele>34</ele>
        <time>2020-02-13T15:58:34Z</time>
      </trkpt>
      <trkpt lat="59.180078" lon="18.143777">
        <ele>34</ele>
        <time>2020-02-13T15:58:35Z</time>
      </trkpt>
      <trkpt lat="59.180124" lon="18.143833">
        <ele>35</ele>
        <time>2020-02-13T15:58:37Z</time>
      </trkpt>
      <trkpt lat="59.18017" lon="18.143887">
        <ele>35</ele>
        <time>2020-02-13T15:58:37Z</time>
      </trkpt>
      <trkpt lat="59.180215" lon="18.143942">
        <ele>35</ele>
        <time>2020-02-13T15:58:38Z</time>
      </trkpt>
      <trkpt lat="59.180255" lon="18.143997">
        <ele>35</ele>
        <time>2020-02-13T15:58:40Z</time>
      </trkpt>
      <trkpt lat="59.180288" lon="18.144066">
        <ele>35</ele>
        <time>2020-02-13T15:58:40Z</time>
      </trkpt>
      <trkpt lat="59.180317" lon="18.144154">
        <ele>35</ele>
        <time>2020-02-13T15:58:41Z</time>
      </trkpt>
      <trkpt lat="59.180348" lon="18.144242">
        <ele>35</ele>
        <time>2020-02-13T15:58:42Z</time>
      </trkpt>
      <trkpt lat="59.180381" lon="18.14432">
        <ele>35</ele>
        <time>2020-02-13T15:58:43Z</time>
      </trkpt>
      <trkpt lat="59.180421" lon="18.144382">
        <ele>35</ele>
        <time>2020-02-13T15:58:45Z</time>
      </trkpt>
      <trkpt lat="59.180465" lon="18.144437">
        <ele>35</ele>
        <time>2020-02-13T15:58:46Z</time>
      </trkpt>
      <trkpt lat="59.18051" lon="18.144492">
        <ele>35</ele>
        <time>2020-02-13T15:58:46Z</time>
      </trkpt>
      <trkpt lat="59.180557" lon="18.144554">
        <ele>36</ele>
        <time>2020-02-13T15:58:47Z</time>
      </trkpt>
      <trkpt lat="59.180602" lon="18.144621">
        <ele>36</ele>
        <time>2020-02-13T15:58:48Z</time>
      </trkpt>
      <trkpt lat="59.180646" lon="18.144691">
        <ele>36</ele>
        <time>2020-02-13T15:58:49Z</time>
      </trkpt>
      <trkpt lat="59.180692" lon="18.144761">
        <ele>36</ele>
        <time>2020-02-13T15:58:50Z</time>
      </trkpt>
      <trkpt lat="59.180741" lon="18.144825">
        <ele>36</ele>
        <time>2020-02-13T15:58:51Z</time>
      </trkpt>
      <trkpt lat="59.180794" lon="18.144881">
        <ele>36</ele>
        <time>2020-02-13T15:58:53Z</time>
      </trkpt>
      <trkpt lat="59.180844" lon="18.144939">
        <ele>36</ele>
        <time>2020-02-13T15:58:53Z</time>
      </trkpt>
      <trkpt lat="59.180894" lon="18.145003">
        <ele>36</ele>
        <time>2020-02-13T15:58:55Z</time>
      </trkpt>
      <trkpt lat="59.180944" lon="18.145061">
        <ele>36</ele>
        <time>2020-02-13T15:58:55Z</time>
      </trkpt>
      <trkpt lat="59.180995" lon="18.145113">
        <ele>36</ele>
        <time>2020-02-13T15:58:56Z</time>
      </trkpt>
      <trkpt lat="59.181046" lon="18.145164">
        <ele>36</ele>
        <time>2020-02-13T15:58:57Z</time>
      </trkpt>
      <trkpt lat="59.181099" lon="18.145216">
        <ele>36</ele>
        <time>2020-02-13T15:58:59Z</time>
      </trkpt>
      <trkpt lat="59.181152" lon="18.14527">
        <ele>36</ele>
        <time>2020-02-13T15:58:59Z</time>
      </trkpt>
      <trkpt lat="59.181205" lon="18.145328">
        <ele>36</ele>
        <time>2020-02-13T15:59:00Z</time>
      </trkpt>
      <trkpt lat="59.181257" lon="18.145388">
        <ele>37</ele>
        <time>2020-02-13T15:59:01Z</time>
      </trkpt>
      <trkpt lat="59.181311" lon="18.145444">
        <ele>37</ele>
        <time>2020-02-13T15:59:03Z</time>
      </trkpt>
      <trkpt lat="59.181362" lon="18.145502">
        <ele>37</ele>
        <time>2020-02-13T15:59:03Z</time>
      </trkpt>
      <trkpt lat="59.181415" lon="18.145562">
        <ele>37</ele>
        <time>2020-02-13T15:59:04Z</time>
      </trkpt>
      <trkpt lat="59.181469" lon="18.14562">
        <ele>37</ele>
        <time>2020-02-13T15:59:05Z</time>
      </trkpt>
      <trkpt lat="59.181524" lon="18.145678">
        <ele>37</ele>
        <time>2020-02-13T15:59:06Z</time>
      </trkpt>
      <trkpt lat="59.181581" lon="18.14574">
        <ele>37</ele>
        <time>2020-02-13T15:59:07Z</time>
      </trkpt>
      <trkpt lat="59.181637" lon="18.145804">
        <ele>37</ele>
        <time>2020-02-13T15:59:08Z</time>
      </trkpt>
      <trkpt lat="59.181697" lon="18.145874">
        <ele>37</ele>
        <time>2020-02-13T15:59:09Z</time>
      </trkpt>
      <trkpt lat="59.181757" lon="18.145945">
        <ele>37</ele>
        <time>2020-02-13T15:59:11Z</time>
      </trkpt>
      <trkpt lat="59.181817" lon="18.146018">
        <ele>37</ele>
        <time>2020-02-13T15:59:11Z</time>
      </trkpt>
      <trkpt lat="59.181878" lon="18.146086">
        <ele>37</ele>
        <time>2020-02-13T15:59:12Z</time>
      </trkpt>
      <trkpt lat="59.181939" lon="18.146154">
        <ele>37</ele>
        <time>2020-02-13T15:59:13Z</time>
      </trkpt>
      <trkpt lat="59.182001" lon="18.146228">
        <ele>37</ele>
        <time>2020-02-13T15:59:14Z</time>
      </trkpt>
      <trkpt lat="59.182065" lon="18.1463">
        <ele>37</ele>
        <time>2020-02-13T15:59:15Z</time>
      </trkpt>
      <trkpt lat="59.182127" lon="18.146374">
        <ele>37</ele>
        <time>2020-02-13T15:59:16Z</time>
      </trkpt>
      <trkpt lat="59.182188" lon="18.146444">
        <ele>0</ele>
        <time>2020-02-13T15:59:17Z</time>
      </trkpt>
      <trkpt lat="59.182246" lon="18.146512">
        <ele>38</ele>
        <time>2020-02-13T15:59:18Z</time>
      </trkpt>
      <trkpt lat="59.182305" lon="18.146582">
        <ele>37</ele>
        <time>2020-02-13T15:59:19Z</time>
      </trkpt>
      <trkpt lat="59.182371" lon="18.146646">
        <ele>37</ele>
        <time>2020-02-13T15:59:20Z</time>
      </trkpt>
      <trkpt lat="59.182438" lon="18.146707">
        <ele>37</ele>
        <time>2020-02-13T15:59:21Z</time>
      </trkpt>
      <trkpt lat="59.182504" lon="18.146764">
        <ele>37</ele>
        <time>2020-02-13T15:59:22Z</time>
      </trkpt>
      <trkpt lat="59.182571" lon="18.14682">
        <ele>37</ele>
        <time>2020-02-13T15:59:23Z</time>
      </trkpt>
      <trkpt lat="59.182638" lon="18.146868">
        <ele>37</ele>
        <time>2020-02-13T15:59:25Z</time>
      </trkpt>
      <trkpt lat="59.182704" lon="18.14692">
        <ele>37</ele>
        <time>2020-02-13T15:59:25Z</time>
      </trkpt>
      <trkpt lat="59.182772" lon="18.146966">
        <ele>37</ele>
        <time>2020-02-13T15:59:26Z</time>
      </trkpt>
      <trkpt lat="59.182839" lon="18.14701">
        <ele>37</ele>
        <time>2020-02-13T15:59:27Z</time>
      </trkpt>
      <trkpt lat="59.182908" lon="18.147048">
        <ele>37</ele>
        <time>2020-02-13T15:59:28Z</time>
      </trkpt>
      <trkpt lat="59.182975" lon="18.147082">
        <ele>37</ele>
        <time>2020-02-13T15:59:29Z</time>
      </trkpt>
      <trkpt lat="59.183042" lon="18.147114">
        <ele>37</ele>
        <time>2020-02-13T15:59:30Z</time>
      </trkpt>
      <trkpt lat="59.18311" lon="18.147136">
        <ele>37</ele>
        <time>2020-02-13T15:59:32Z</time>
      </trkpt>
      <trkpt lat="59.183175" lon="18.14716">
        <ele>37</ele>
        <time>2020-02-13T15:59:32Z</time>
      </trkpt>
      <trkpt lat="59.18324" lon="18.147184">
        <ele>37</ele>
        <time>2020-02-13T15:59:33Z</time>
      </trkpt>
      <trkpt lat="59.1833" lon="18.147214">
        <ele>37</ele>
        <time>2020-02-13T15:59:34Z</time>
      </trkpt>
      <trkpt lat="59.183355" lon="18.147254">
        <ele>37</ele>
        <time>2020-02-13T15:59:35Z</time>
      </trkpt>
      <trkpt lat="59.183407" lon="18.147298">
        <ele>37</ele>
        <time>2020-02-13T15:59:37Z</time>
      </trkpt>
      <trkpt lat="59.183463" lon="18.147324">
        <ele>37</ele>
        <time>2020-02-13T15:59:37Z</time>
      </trkpt>
      <trkpt lat="59.183523" lon="18.147331">
        <ele>37</ele>
        <time>2020-02-13T15:59:38Z</time>
      </trkpt>
      <trkpt lat="59.183584" lon="18.147314">
        <ele>37</ele>
        <time>2020-02-13T15:59:40Z</time>
      </trkpt>
      <trkpt lat="59.183646" lon="18.14728">
        <ele>37</ele>
        <time>2020-02-13T15:59:40Z</time>
      </trkpt>
      <trkpt lat="59.183709" lon="18.147258">
        <ele>37</ele>
        <time>2020-02-13T15:59:41Z</time>
      </trkpt>
      <trkpt lat="59.183775" lon="18.147246">
        <ele>36</ele>
        <time>2020-02-13T15:59:42Z</time>
      </trkpt>
      <trkpt lat="59.183841" lon="18.147239">
        <ele>36</ele>
        <time>2020-02-13T15:59:43Z</time>
      </trkpt>
      <trkpt lat="59.183909" lon="18.147233">
        <ele>36</ele>
        <time>2020-02-13T15:59:44Z</time>
      </trkpt>
      <trkpt lat="59.183979" lon="18.147223">
        <ele>36</ele>
        <time>2020-02-13T15:59:45Z</time>
      </trkpt>
      <trkpt lat="59.184051" lon="18.147212">
        <ele>36</ele>
        <time>2020-02-13T15:59:47Z</time>
      </trkpt>
      <trkpt lat="59.184126" lon="18.147198">
        <ele>35</ele>
        <time>2020-02-13T15:59:47Z</time>
      </trkpt>
      <trkpt lat="59.184204" lon="18.147182">
        <ele>35</ele>
        <time>2020-02-13T15:59:48Z</time>
      </trkpt>
      <trkpt lat="59.184284" lon="18.147163">
        <ele>35</ele>
        <time>2020-02-13T15:59:49Z</time>
      </trkpt>
      <trkpt lat="59.184366" lon="18.147146">
        <ele>35</ele>
        <time>2020-02-13T15:59:50Z</time>
      </trkpt>
      <trkpt lat="59.184449" lon="18.147126">
        <ele>34</ele>
        <time>2020-02-13T15:59:51Z</time>
      </trkpt>
      <trkpt lat="59.184533" lon="18.147108">
        <ele>34</ele>
        <time>2020-02-13T15:59:53Z</time>
      </trkpt>
      <trkpt lat="59.184617" lon="18.147086">
        <ele>34</ele>
        <time>2020-02-13T15:59:53Z</time>
      </trkpt>
      <trkpt lat="59.184702" lon="18.147063">
        <ele>33</ele>
        <time>2020-02-13T15:59:54Z</time>
      </trkpt>
      <trkpt lat="59.184784" lon="18.14704">
        <ele>33</ele>
        <time>2020-02-13T15:59:56Z</time>
      </trkpt>
      <trkpt lat="59.184864" lon="18.14701">
        <ele>33</ele>
        <time>2020-02-13T15:59:56Z</time>
      </trkpt>
      <trkpt lat="59.18494" lon="18.146966">
        <ele>32</ele>
        <time>2020-02-13T15:59:57Z</time>
      </trkpt>
      <trkpt lat="59.185011" lon="18.146914">
        <ele>32</ele>
        <time>2020-02-13T15:59:58Z</time>
      </trkpt>
      <trkpt lat="59.185077" lon="18.146856">
        <ele>32</ele>
        <time>2020-02-13T16:00:00Z</time>
      </trkpt>
      <trkpt lat="59.185141" lon="18.146803">
        <ele>32</ele>
        <time>2020-02-13T16:00:01Z</time>
      </trkpt>
      <trkpt lat="59.185204" lon="18.146763">
        <ele>31</ele>
        <time>2020-02-13T16:00:02Z</time>
      </trkpt>
      <trkpt lat="59.185261" lon="18.146741">
        <ele>31</ele>
        <time>2020-02-13T16:00:02Z</time>
      </trkpt>
      <trkpt lat="59.185314" lon="18.146746">
        <ele>30</ele>
        <time>2020-02-13T16:00:03Z</time>
      </trkpt>
      <trkpt lat="59.185359" lon="18.14679">
        <ele>29</ele>
        <time>2020-02-13T16:00:04Z</time>
      </trkpt>
      <trkpt lat="59.185389" lon="18.146859">
        <ele>29</ele>
        <time>2020-02-13T16:00:05Z</time>
      </trkpt>
      <trkpt lat="59.185419" lon="18.146916">
        <ele>29</ele>
        <time>2020-02-13T16:00:06Z</time>
      </trkpt>
      <trkpt lat="59.185456" lon="18.146937">
        <ele>29</ele>
        <time>2020-02-13T16:00:07Z</time>
      </trkpt>
      <trkpt lat="59.185495" lon="18.146932">
        <ele>28</ele>
        <time>2020-02-13T16:00:08Z</time>
      </trkpt>
      <trkpt lat="59.18554" lon="18.146923">
        <ele>28</ele>
        <time>2020-02-13T16:00:10Z</time>
      </trkpt>
      <trkpt lat="59.18559" lon="18.146918">
        <ele>28</ele>
        <time>2020-02-13T16:00:10Z</time>
      </trkpt>
      <trkpt lat="59.185646" lon="18.14691">
        <ele>28</ele>
        <time>2020-02-13T16:00:11Z</time>
      </trkpt>
      <trkpt lat="59.185707" lon="18.1469">
        <ele>28</ele>
        <time>2020-02-13T16:00:12Z</time>
      </trkpt>
      <trkpt lat="59.18577" lon="18.146888">
        <ele>28</ele>
        <time>2020-02-13T16:00:14Z</time>
      </trkpt>
      <trkpt lat="59.185832" lon="18.146875">
        <ele>28</ele>
        <time>2020-02-13T16:00:15Z</time>
      </trkpt>
      <trkpt lat="59.185895" lon="18.146864">
        <ele>28</ele>
        <time>2020-02-13T16:00:15Z</time>
      </trkpt>
      <trkpt lat="59.185957" lon="18.146853">
        <ele>28</ele>
        <time>2020-02-13T16:00:16Z</time>
      </trkpt>
      <trkpt lat="59.186019" lon="18.146846">
        <ele>27</ele>
        <time>2020-02-13T16:00:18Z</time>
      </trkpt>
      <trkpt lat="59.186083" lon="18.146841">
        <ele>27</ele>
        <time>2020-02-13T16:00:18Z</time>
      </trkpt>
      <trkpt lat="59.186148" lon="18.146834">
        <ele>27</ele>
        <time>2020-02-13T16:00:19Z</time>
      </trkpt>
      <trkpt lat="59.186215" lon="18.146824">
        <ele>27</ele>
        <time>2020-02-13T16:00:20Z</time>
      </trkpt>
      <trkpt lat="59.186283" lon="18.146812">
        <ele>27</ele>
        <time>2020-02-13T16:00:21Z</time>
      </trkpt>
      <trkpt lat="59.186351" lon="18.146796">
        <ele>27</ele>
        <time>2020-02-13T16:00:22Z</time>
      </trkpt>
      <trkpt lat="59.186419" lon="18.146778">
        <ele>27</ele>
        <time>2020-02-13T16:00:23Z</time>
      </trkpt>
      <trkpt lat="59.186488" lon="18.14676">
        <ele>27</ele>
        <time>2020-02-13T16:00:25Z</time>
      </trkpt>
      <trkpt lat="59.186557" lon="18.146743">
        <ele>27</ele>
        <time>2020-02-13T16:00:25Z</time>
      </trkpt>
      <trkpt lat="59.186626" lon="18.146723">
        <ele>27</ele>
        <time>2020-02-13T16:00:26Z</time>
      </trkpt>
      <trkpt lat="59.186695" lon="18.146704">
        <ele>27</ele>
        <time>2020-02-13T16:00:27Z</time>
      </trkpt>
      <trkpt lat="59.186764" lon="18.146688">
        <ele>27</ele>
        <time>2020-02-13T16:00:28Z</time>
      </trkpt>
      <trkpt lat="59.186833" lon="18.146672">
        <ele>27</ele>
        <time>2020-02-13T16:00:29Z</time>
      </trkpt>
      <trkpt lat="59.186903" lon="18.146654">
        <ele>27</ele>
        <time>2020-02-13T16:00:30Z</time>
      </trkpt>
      <trkpt lat="59.186972" lon="18.146634">
        <ele>27</ele>
        <time>2020-02-13T16:00:32Z</time>
      </trkpt>
      <trkpt lat="59.187042" lon="18.146612">
        <ele>27</ele>
        <time>2020-02-13T16:00:32Z</time>
      </trkpt>
      <trkpt lat="59.187113" lon="18.146592">
        <ele>27</ele>
        <time>2020-02-13T16:00:34Z</time>
      </trkpt>
      <trkpt lat="59.187185" lon="18.146575">
        <ele>27</ele>
        <time>2020-02-13T16:00:34Z</time>
      </trkpt>
      <trkpt lat="59.187256" lon="18.146554">
        <ele>27</ele>
        <time>2020-02-13T16:00:35Z</time>
      </trkpt>
      <trkpt lat="59.187328" lon="18.14653">
        <ele>27</ele>
        <time>2020-02-13T16:00:36Z</time>
      </trkpt>
      <trkpt lat="59.1874" lon="18.146505">
        <ele>27</ele>
        <time>2020-02-13T16:00:37Z</time>
      </trkpt>
      <trkpt lat="59.187472" lon="18.146479">
        <ele>27</ele>
        <time>2020-02-13T16:00:39Z</time>
      </trkpt>
      <trkpt lat="59.187542" lon="18.146451">
        <ele>27</ele>
        <time>2020-02-13T16:00:39Z</time>
      </trkpt>
      <trkpt lat="59.187612" lon="18.146424">
        <ele>27</ele>
        <time>2020-02-13T16:00:40Z</time>
      </trkpt>
      <trkpt lat="59.18768" lon="18.146392">
        <ele>27</ele>
        <time>2020-02-13T16:00:41Z</time>
      </trkpt>
      <trkpt lat="59.187745" lon="18.146351">
        <ele>27</ele>
        <time>2020-02-13T16:00:42Z</time>
      </trkpt>
      <trkpt lat="59.187808" lon="18.146307">
        <ele>27</ele>
        <time>2020-02-13T16:00:43Z</time>
      </trkpt>
      <trkpt lat="59.187871" lon="18.146258">
        <ele>27</ele>
        <time>2020-02-13T16:00:44Z</time>
      </trkpt>
      <trkpt lat="59.187932" lon="18.146206">
        <ele>27</ele>
        <time>2020-02-13T16:00:45Z</time>
      </trkpt>
      <trkpt lat="59.187993" lon="18.146157">
        <ele>27</ele>
        <time>2020-02-13T16:00:47Z</time>
      </trkpt>
      <trkpt lat="59.188054" lon="18.146111">
        <ele>28</ele>
        <time>2020-02-13T16:00:47Z</time>
      </trkpt>
      <trkpt lat="59.188113" lon="18.146072">
        <ele>28</ele>
        <time>2020-02-13T16:00:48Z</time>
      </trkpt>
      <trkpt lat="59.188173" lon="18.146031">
        <ele>28</ele>
        <time>2020-02-13T16:00:49Z</time>
      </trkpt>
      <trkpt lat="59.188229" lon="18.145988">
        <ele>28</ele>
        <time>2020-02-13T16:00:50Z</time>
      </trkpt>
      <trkpt lat="59.188285" lon="18.145943">
        <ele>28</ele>
        <time>2020-02-13T16:00:51Z</time>
      </trkpt>
      <trkpt lat="59.188341" lon="18.145902">
        <ele>28</ele>
        <time>2020-02-13T16:00:53Z</time>
      </trkpt>
      <trkpt lat="59.188398" lon="18.145862">
        <ele>28</ele>
        <time>2020-02-13T16:00:53Z</time>
      </trkpt>
      <trkpt lat="59.188456" lon="18.145821">
        <ele>29</ele>
        <time>2020-02-13T16:00:55Z</time>
      </trkpt>
      <trkpt lat="59.188512" lon="18.14578">
        <ele>29</ele>
        <time>2020-02-13T16:00:55Z</time>
      </trkpt>
      <trkpt lat="59.188569" lon="18.145737">
        <ele>29</ele>
        <time>2020-02-13T16:00:56Z</time>
      </trkpt>
      <trkpt lat="59.188624" lon="18.145689">
        <ele>29</ele>
        <time>2020-02-13T16:00:57Z</time>
      </trkpt>
      <trkpt lat="59.188677" lon="18.145637">
        <ele>29</ele>
        <time>2020-02-13T16:00:58Z</time>
      </trkpt>
      <trkpt lat="59.188728" lon="18.145583">
        <ele>29</ele>
        <time>2020-02-13T16:00:59Z</time>
      </trkpt>
      <trkpt lat="59.188776" lon="18.145526">
        <ele>30</ele>
        <time>2020-02-13T16:01:00Z</time>
      </trkpt>
      <trkpt lat="59.188823" lon="18.145466">
        <ele>30</ele>
        <time>2020-02-13T16:01:01Z</time>
      </trkpt>
      <trkpt lat="59.188869" lon="18.145405">
        <ele>30</ele>
        <time>2020-02-13T16:01:03Z</time>
      </trkpt>
      <trkpt lat="59.188915" lon="18.145343">
        <ele>30</ele>
        <time>2020-02-13T16:01:03Z</time>
      </trkpt>
      <trkpt lat="59.188963" lon="18.14528">
        <ele>30</ele>
        <time>2020-02-13T16:01:04Z</time>
      </trkpt>
      <trkpt lat="59.189008" lon="18.145216">
        <ele>30</ele>
        <time>2020-02-13T16:01:05Z</time>
      </trkpt>
      <trkpt lat="59.18905" lon="18.145152">
        <ele>30</ele>
        <time>2020-02-13T16:01:06Z</time>
      </trkpt>
      <trkpt lat="59.189093" lon="18.145087">
        <ele>30</ele>
        <time>2020-02-13T16:01:07Z</time>
      </trkpt>
      <trkpt lat="59.189137" lon="18.145021">
        <ele>30</ele>
        <time>2020-02-13T16:01:08Z</time>
      </trkpt>
      <trkpt lat="59.18918" lon="18.144956">
        <ele>30</ele>
        <time>2020-02-13T16:01:09Z</time>
      </trkpt>
      <trkpt lat="59.189227" lon="18.144897">
        <ele>30</ele>
        <time>2020-02-13T16:01:10Z</time>
      </trkpt>
      <trkpt lat="59.189276" lon="18.144843">
        <ele>30</ele>
        <time>2020-02-13T16:01:12Z</time>
      </trkpt>
      <trkpt lat="59.189326" lon="18.144791">
        <ele>30</ele>
        <time>2020-02-13T16:01:12Z</time>
      </trkpt>
      <trkpt lat="59.189379" lon="18.14474">
        <ele>30</ele>
        <time>2020-02-13T16:01:13Z</time>
      </trkpt>
      <trkpt lat="59.189433" lon="18.144692">
        <ele>30</ele>
        <time>2020-02-13T16:01:14Z</time>
      </trkpt>
      <trkpt lat="59.189489" lon="18.144648">
        <ele>30</ele>
        <time>2020-02-13T16:01:15Z</time>
      </trkpt>
      <trkpt lat="59.189546" lon="18.144604">
        <ele>30</ele>
        <time>2020-02-13T16:01:16Z</time>
      </trkpt>
      <trkpt lat="59.189606" lon="18.144562">
        <ele>30</ele>
        <time>2020-02-13T16:01:17Z</time>
      </trkpt>
      <trkpt lat="59.18967" lon="18.144519">
        <ele>30</ele>
        <time>2020-02-13T16:01:18Z</time>
      </trkpt>
      <trkpt lat="59.189735" lon="18.144478">
        <ele>30</ele>
        <time>2020-02-13T16:01:20Z</time>
      </trkpt>
      <trkpt lat="59.1898" lon="18.144441">
        <ele>30</ele>
        <time>2020-02-13T16:01:20Z</time>
      </trkpt>
      <trkpt lat="59.189866" lon="18.144401">
        <ele>30</ele>
        <time>2020-02-13T16:01:21Z</time>
      </trkpt>
      <trkpt lat="59.189931" lon="18.144356">
        <ele>30</ele>
        <time>2020-02-13T16:01:22Z</time>
      </trkpt>
      <trkpt lat="59.19" lon="18.144313">
        <ele>30</ele>
        <time>2020-02-13T16:01:23Z</time>
      </trkpt>
      <trkpt lat="59.190146" lon="18.144194">
        <ele>30</ele>
        <time>2020-02-13T16:01:25Z</time>
      </trkpt>
      <trkpt lat="59.190283" lon="18.144152">
        <ele>30</ele>
        <time>2020-02-13T16:01:27Z</time>
      </trkpt>
      <trkpt lat="59.190342" lon="18.144198">
        <ele>30</ele>
        <time>2020-02-13T16:01:28Z</time>
      </trkpt>
      <trkpt lat="59.190407" lon="18.144221">
        <ele>31</ele>
        <time>2020-02-13T16:01:29Z</time>
      </trkpt>
      <trkpt lat="59.190531" lon="18.144224">
        <ele>31</ele>
        <time>2020-02-13T16:01:31Z</time>
      </trkpt>
      <trkpt lat="59.190588" lon="18.144204">
        <ele>30</ele>
        <time>2020-02-13T16:01:32Z</time>
      </trkpt>
      <trkpt lat="59.190646" lon="18.144185">
        <ele>30</ele>
        <time>2020-02-13T16:01:33Z</time>
      </trkpt>
      <trkpt lat="59.190701" lon="18.144167">
        <ele>30</ele>
        <time>2020-02-13T16:01:34Z</time>
      </trkpt>
      <trkpt lat="59.190755" lon="18.144155">
        <ele>30</ele>
        <time>2020-02-13T16:01:36Z</time>
      </trkpt>
      <trkpt lat="59.190806" lon="18.144149">
        <ele>30</ele>
        <time>2020-02-13T16:01:36Z</time>
      </trkpt>
      <trkpt lat="59.190853" lon="18.144144">
        <ele>30</ele>
        <time>2020-02-13T16:01:37Z</time>
      </trkpt>
      <trkpt lat="59.190896" lon="18.144138">
        <ele>31</ele>
        <time>2020-02-13T16:01:38Z</time>
      </trkpt>
      <trkpt lat="59.190931" lon="18.144131">
        <ele>31</ele>
        <time>2020-02-13T16:01:39Z</time>
      </trkpt>
      <trkpt lat="59.190962" lon="18.144126">
        <ele>31</ele>
        <time>2020-02-13T16:01:40Z</time>
      </trkpt>
      <trkpt lat="59.190992" lon="18.144118">
        <ele>31</ele>
        <time>2020-02-13T16:01:41Z</time>
      </trkpt>
      <trkpt lat="59.191027" lon="18.144113">
        <ele>31</ele>
        <time>2020-02-13T16:01:42Z</time>
      </trkpt>
      <trkpt lat="59.191053" lon="18.144106">
        <ele>31</ele>
        <time>2020-02-13T16:01:43Z</time>
      </trkpt>
      <trkpt lat="59.191078" lon="18.1441">
        <ele>31</ele>
        <time>2020-02-13T16:01:44Z</time>
      </trkpt>
      <trkpt lat="59.191109" lon="18.144092">
        <ele>31</ele>
        <time>2020-02-13T16:01:45Z</time>
      </trkpt>
      <trkpt lat="59.191143" lon="18.144078">
        <ele>32</ele>
        <time>2020-02-13T16:01:46Z</time>
      </trkpt>
      <trkpt lat="59.191184" lon="18.144062">
        <ele>32</ele>
        <time>2020-02-13T16:01:47Z</time>
      </trkpt>
      <trkpt lat="59.191228" lon="18.14405">
        <ele>32</ele>
        <time>2020-02-13T16:01:49Z</time>
      </trkpt>
      <trkpt lat="59.191268" lon="18.144037">
        <ele>32</ele>
        <time>2020-02-13T16:01:50Z</time>
      </trkpt>
      <trkpt lat="59.191301" lon="18.14402">
        <ele>33</ele>
        <time>2020-02-13T16:01:50Z</time>
      </trkpt>
      <trkpt lat="59.191331" lon="18.144005">
        <ele>33</ele>
        <time>2020-02-13T16:01:51Z</time>
      </trkpt>
      <trkpt lat="59.19136" lon="18.143991">
        <ele>33</ele>
        <time>2020-02-13T16:01:52Z</time>
      </trkpt>
      <trkpt lat="59.191392" lon="18.143977">
        <ele>33</ele>
        <time>2020-02-13T16:01:53Z</time>
      </trkpt>
      <trkpt lat="59.191421" lon="18.143963">
        <ele>33</ele>
        <time>2020-02-13T16:01:54Z</time>
      </trkpt>
      <trkpt lat="59.19145" lon="18.143945">
        <ele>33</ele>
        <time>2020-02-13T16:01:55Z</time>
      </trkpt>
      <trkpt lat="59.19148" lon="18.143929">
        <ele>34</ele>
        <time>2020-02-13T16:01:56Z</time>
      </trkpt>
      <trkpt lat="59.191508" lon="18.143912">
        <ele>34</ele>
        <time>2020-02-13T16:01:57Z</time>
      </trkpt>
      <trkpt lat="59.191535" lon="18.143896">
        <ele>34</ele>
        <time>2020-02-13T16:01:58Z</time>
      </trkpt>
      <trkpt lat="59.191568" lon="18.143883">
        <ele>34</ele>
        <time>2020-02-13T16:01:59Z</time>
      </trkpt>
      <trkpt lat="59.191596" lon="18.14387">
        <ele>34</ele>
        <time>2020-02-13T16:02:00Z</time>
      </trkpt>
      <trkpt lat="59.191622" lon="18.143854">
        <ele>34</ele>
        <time>2020-02-13T16:02:01Z</time>
      </trkpt>
      <trkpt lat="59.19165" lon="18.14384">
        <ele>35</ele>
        <time>2020-02-13T16:02:02Z</time>
      </trkpt>
      <trkpt lat="59.191684" lon="18.143823">
        <ele>35</ele>
        <time>2020-02-13T16:02:03Z</time>
      </trkpt>
      <trkpt lat="59.191715" lon="18.143805">
        <ele>35</ele>
        <time>2020-02-13T16:02:05Z</time>
      </trkpt>
      <trkpt lat="59.191745" lon="18.143783">
        <ele>35</ele>
        <time>2020-02-13T16:02:05Z</time>
      </trkpt>
      <trkpt lat="59.191771" lon="18.143757">
        <ele>35</ele>
        <time>2020-02-13T16:02:06Z</time>
      </trkpt>
      <trkpt lat="59.191795" lon="18.143732">
        <ele>35</ele>
        <time>2020-02-13T16:02:07Z</time>
      </trkpt>
      <trkpt lat="59.19182" lon="18.143704">
        <ele>36</ele>
        <time>2020-02-13T16:02:09Z</time>
      </trkpt>
      <trkpt lat="59.191849" lon="18.143677">
        <ele>36</ele>
        <time>2020-02-13T16:02:09Z</time>
      </trkpt>
      <trkpt lat="59.191873" lon="18.143657">
        <ele>36</ele>
        <time>2020-02-13T16:02:10Z</time>
      </trkpt>
      <trkpt lat="59.191897" lon="18.143627">
        <ele>36</ele>
        <time>2020-02-13T16:02:11Z</time>
      </trkpt>
      <trkpt lat="59.191927" lon="18.143598">
        <ele>36</ele>
        <time>2020-02-13T16:02:12Z</time>
      </trkpt>
      <trkpt lat="59.19196" lon="18.143573">
        <ele>36</ele>
        <time>2020-02-13T16:02:13Z</time>
      </trkpt>
      <trkpt lat="59.19199" lon="18.14354">
        <ele>36</ele>
        <time>2020-02-13T16:02:14Z</time>
      </trkpt>
      <trkpt lat="59.192023" lon="18.143506">
        <ele>37</ele>
        <time>2020-02-13T16:02:15Z</time>
      </trkpt>
      <trkpt lat="59.192053" lon="18.143469">
        <ele>37</ele>
        <time>2020-02-13T16:02:16Z</time>
      </trkpt>
      <trkpt lat="59.192081" lon="18.143434">
        <ele>37</ele>
        <time>2020-02-13T16:02:17Z</time>
      </trkpt>
      <trkpt lat="59.192109" lon="18.143395">
        <ele>37</ele>
        <time>2020-02-13T16:02:18Z</time>
      </trkpt>
      <trkpt lat="59.192132" lon="18.143358">
        <ele>38</ele>
        <time>2020-02-13T16:02:19Z</time>
      </trkpt>
      <trkpt lat="59.192153" lon="18.143323">
        <ele>38</ele>
        <time>2020-02-13T16:02:21Z</time>
      </trkpt>
      <trkpt lat="59.192178" lon="18.14329">
        <ele>39</ele>
        <time>2020-02-13T16:02:21Z</time>
      </trkpt>
      <trkpt lat="59.192207" lon="18.143254">
        <ele>39</ele>
        <time>2020-02-13T16:02:22Z</time>
      </trkpt>
      <trkpt lat="59.192237" lon="18.143223">
        <ele>40</ele>
        <time>2020-02-13T16:02:23Z</time>
      </trkpt>
      <trkpt lat="59.192265" lon="18.143189">
        <ele>40</ele>
        <time>2020-02-13T16:02:24Z</time>
      </trkpt>
      <trkpt lat="59.1923" lon="18.143156">
        <ele>40</ele>
        <time>2020-02-13T16:02:25Z</time>
      </trkpt>
      <trkpt lat="59.192334" lon="18.143121">
        <ele>40</ele>
        <time>2020-02-13T16:02:26Z</time>
      </trkpt>
      <trkpt lat="59.19237" lon="18.143084">
        <ele>40</ele>
        <time>2020-02-13T16:02:28Z</time>
      </trkpt>
      <trkpt lat="59.192401" lon="18.143049">
        <ele>41</ele>
        <time>2020-02-13T16:02:28Z</time>
      </trkpt>
      <trkpt lat="59.192436" lon="18.143014">
        <ele>41</ele>
        <time>2020-02-13T16:02:29Z</time>
      </trkpt>
      <trkpt lat="59.192472" lon="18.142981">
        <ele>41</ele>
        <time>2020-02-13T16:02:30Z</time>
      </trkpt>
      <trkpt lat="59.192506" lon="18.142948">
        <ele>41</ele>
        <time>2020-02-13T16:02:31Z</time>
      </trkpt>
      <trkpt lat="59.192542" lon="18.142913">
        <ele>42</ele>
        <time>2020-02-13T16:02:32Z</time>
      </trkpt>
      <trkpt lat="59.192582" lon="18.142882">
        <ele>42</ele>
        <time>2020-02-13T16:02:34Z</time>
      </trkpt>
      <trkpt lat="59.192634" lon="18.142857">
        <ele>42</ele>
        <time>2020-02-13T16:02:34Z</time>
      </trkpt>
      <trkpt lat="59.192677" lon="18.142829">
        <ele>43</ele>
        <time>2020-02-13T16:02:35Z</time>
      </trkpt>
      <trkpt lat="59.192719" lon="18.142804">
        <ele>43</ele>
        <time>2020-02-13T16:02:36Z</time>
      </trkpt>
      <trkpt lat="59.192761" lon="18.142777">
        <ele>43</ele>
        <time>2020-02-13T16:02:37Z</time>
      </trkpt>
      <trkpt lat="59.192803" lon="18.14275">
        <ele>43</ele>
        <time>2020-02-13T16:02:38Z</time>
      </trkpt>
      <trkpt lat="59.192842" lon="18.142718">
        <ele>43</ele>
        <time>2020-02-13T16:02:39Z</time>
      </trkpt>
      <trkpt lat="59.192873" lon="18.142682">
        <ele>44</ele>
        <time>2020-02-13T16:02:40Z</time>
      </trkpt>
      <trkpt lat="59.192907" lon="18.142644">
        <ele>44</ele>
        <time>2020-02-13T16:02:41Z</time>
      </trkpt>
      <trkpt lat="59.192941" lon="18.142607">
        <ele>44</ele>
        <time>2020-02-13T16:02:42Z</time>
      </trkpt>
      <trkpt lat="59.192977" lon="18.142566">
        <ele>45</ele>
        <time>2020-02-13T16:02:43Z</time>
      </trkpt>
      <trkpt lat="59.193016" lon="18.142526">
        <ele>45</ele>
        <time>2020-02-13T16:02:44Z</time>
      </trkpt>
      <trkpt lat="59.193054" lon="18.142484">
        <ele>45</ele>
        <time>2020-02-13T16:02:46Z</time>
      </trkpt>
      <trkpt lat="59.193089" lon="18.142443">
        <ele>45</ele>
        <time>2020-02-13T16:02:47Z</time>
      </trkpt>
      <trkpt lat="59.193125" lon="18.142404">
        <ele>45</ele>
        <time>2020-02-13T16:02:47Z</time>
      </trkpt>
      <trkpt lat="59.193163" lon="18.142369">
        <ele>45</ele>
        <time>2020-02-13T16:02:48Z</time>
      </trkpt>
      <trkpt lat="59.193202" lon="18.142337">
        <ele>46</ele>
        <time>2020-02-13T16:02:49Z</time>
      </trkpt>
      <trkpt lat="59.193243" lon="18.142306">
        <ele>46</ele>
        <time>2020-02-13T16:02:50Z</time>
      </trkpt>
      <trkpt lat="59.193281" lon="18.142272">
        <ele>46</ele>
        <time>2020-02-13T16:02:51Z</time>
      </trkpt>
      <trkpt lat="59.19332" lon="18.142241">
        <ele>46</ele>
        <time>2020-02-13T16:02:52Z</time>
      </trkpt>
      <trkpt lat="59.19336" lon="18.142212">
        <ele>46</ele>
        <time>2020-02-13T16:02:54Z</time>
      </trkpt>
      <trkpt lat="59.193403" lon="18.142181">
        <ele>46</ele>
        <time>2020-02-13T16:02:54Z</time>
      </trkpt>
      <trkpt lat="59.193447" lon="18.142147">
        <ele>46</ele>
        <time>2020-02-13T16:02:55Z</time>
      </trkpt>
      <trkpt lat="59.19349" lon="18.142112">
        <ele>46</ele>
        <time>2020-02-13T16:02:57Z</time>
      </trkpt>
      <trkpt lat="59.193535" lon="18.142079">
        <ele>46</ele>
        <time>2020-02-13T16:02:57Z</time>
      </trkpt>
      <trkpt lat="59.193579" lon="18.142045">
        <ele>46</ele>
        <time>2020-02-13T16:02:58Z</time>
      </trkpt>
      <trkpt lat="59.19362" lon="18.142005">
        <ele>46</ele>
        <time>2020-02-13T16:02:59Z</time>
      </trkpt>
      <trkpt lat="59.193662" lon="18.141964">
        <ele>46</ele>
        <time>2020-02-13T16:03:00Z</time>
      </trkpt>
      <trkpt lat="59.193706" lon="18.141921">
        <ele>46</ele>
        <time>2020-02-13T16:03:01Z</time>
      </trkpt>
      <trkpt lat="59.193749" lon="18.141876">
        <ele>46</ele>
        <time>2020-02-13T16:03:02Z</time>
      </trkpt>
      <trkpt lat="59.193792" lon="18.141831">
        <ele>46</ele>
        <time>2020-02-13T16:03:03Z</time>
      </trkpt>
      <trkpt lat="59.193835" lon="18.14179">
        <ele>46</ele>
        <time>2020-02-13T16:03:04Z</time>
      </trkpt>
      <trkpt lat="59.193878" lon="18.141742">
        <ele>46</ele>
        <time>2020-02-13T16:03:06Z</time>
      </trkpt>
      <trkpt lat="59.193925" lon="18.141692">
        <ele>46</ele>
        <time>2020-02-13T16:03:07Z</time>
      </trkpt>
      <trkpt lat="59.193979" lon="18.14165">
        <ele>46</ele>
        <time>2020-02-13T16:03:07Z</time>
      </trkpt>
      <trkpt lat="59.194034" lon="18.141611">
        <ele>46</ele>
        <time>2020-02-13T16:03:08Z</time>
      </trkpt>
      <trkpt lat="59.194094" lon="18.141572">
        <ele>46</ele>
        <time>2020-02-13T16:03:09Z</time>
      </trkpt>
      <trkpt lat="59.194155" lon="18.14153">
        <ele>45</ele>
        <time>2020-02-13T16:03:10Z</time>
      </trkpt>
      <trkpt lat="59.194213" lon="18.141483">
        <ele>45</ele>
        <time>2020-02-13T16:03:11Z</time>
      </trkpt>
      <trkpt lat="59.194271" lon="18.141432">
        <ele>46</ele>
        <time>2020-02-13T16:03:12Z</time>
      </trkpt>
      <trkpt lat="59.19433" lon="18.141379">
        <ele>45</ele>
        <time>2020-02-13T16:03:13Z</time>
      </trkpt>
      <trkpt lat="59.194383" lon="18.141328">
        <ele>45</ele>
        <time>2020-02-13T16:03:15Z</time>
      </trkpt>
      <trkpt lat="59.194435" lon="18.141283">
        <ele>45</ele>
        <time>2020-02-13T16:03:15Z</time>
      </trkpt>
      <trkpt lat="59.194485" lon="18.141231">
        <ele>45</ele>
        <time>2020-02-13T16:03:16Z</time>
      </trkpt>
      <trkpt lat="59.194533" lon="18.141181">
        <ele>45</ele>
        <time>2020-02-13T16:03:17Z</time>
      </trkpt>
      <trkpt lat="59.194587" lon="18.14113">
        <ele>45</ele>
        <time>2020-02-13T16:03:18Z</time>
      </trkpt>
      <trkpt lat="59.194646" lon="18.141084">
        <ele>45</ele>
        <time>2020-02-13T16:03:19Z</time>
      </trkpt>
      <trkpt lat="59.194704" lon="18.141036">
        <ele>45</ele>
        <time>2020-02-13T16:03:20Z</time>
      </trkpt>
      <trkpt lat="59.194769" lon="18.140983">
        <ele>45</ele>
        <time>2020-02-13T16:03:22Z</time>
      </trkpt>
      <trkpt lat="59.194837" lon="18.140927">
        <ele>45</ele>
        <time>2020-02-13T16:03:23Z</time>
      </trkpt>
      <trkpt lat="59.19491" lon="18.140868">
        <ele>44</ele>
        <time>2020-02-13T16:03:23Z</time>
      </trkpt>
      <trkpt lat="59.19499" lon="18.140808">
        <ele>44</ele>
        <time>2020-02-13T16:03:25Z</time>
      </trkpt>
      <trkpt lat="59.195077" lon="18.14076">
        <ele>44</ele>
        <time>2020-02-13T16:03:25Z</time>
      </trkpt>
      <trkpt lat="59.195168" lon="18.14073">
        <ele>44</ele>
        <time>2020-02-13T16:03:26Z</time>
      </trkpt>
      <trkpt lat="59.195264" lon="18.140714">
        <ele>43</ele>
        <time>2020-02-13T16:03:27Z</time>
      </trkpt>
      <trkpt lat="59.195356" lon="18.140714">
        <ele>42</ele>
        <time>2020-02-13T16:03:29Z</time>
      </trkpt>
      <trkpt lat="59.195448" lon="18.140719">
        <ele>42</ele>
        <time>2020-02-13T16:03:29Z</time>
      </trkpt>
      <trkpt lat="59.195542" lon="18.140729">
        <ele>41</ele>
        <time>2020-02-13T16:03:30Z</time>
      </trkpt>
      <trkpt lat="59.195636" lon="18.140743">
        <ele>41</ele>
        <time>2020-02-13T16:03:31Z</time>
      </trkpt>
      <trkpt lat="59.195731" lon="18.140755">
        <ele>40</ele>
        <time>2020-02-13T16:03:32Z</time>
      </trkpt>
      <trkpt lat="59.195825" lon="18.140771">
        <ele>40</ele>
        <time>2020-02-13T16:03:34Z</time>
      </trkpt>
      <trkpt lat="59.195917" lon="18.140789">
        <ele>39</ele>
        <time>2020-02-13T16:03:34Z</time>
      </trkpt>
      <trkpt lat="59.19601" lon="18.140808">
        <ele>39</ele>
        <time>2020-02-13T16:03:35Z</time>
      </trkpt>
      <trkpt lat="59.196101" lon="18.140832">
        <ele>38</ele>
        <time>2020-02-13T16:03:36Z</time>
      </trkpt>
      <trkpt lat="59.196192" lon="18.140855">
        <ele>38</ele>
        <time>2020-02-13T16:03:37Z</time>
      </trkpt>
      <trkpt lat="59.196283" lon="18.140882">
        <ele>38</ele>
        <time>2020-02-13T16:03:39Z</time>
      </trkpt>
      <trkpt lat="59.196373" lon="18.140918">
        <ele>38</ele>
        <time>2020-02-13T16:03:39Z</time>
      </trkpt>
      <trkpt lat="59.196461" lon="18.140961">
        <ele>37</ele>
        <time>2020-02-13T16:03:40Z</time>
      </trkpt>
      <trkpt lat="59.196547" lon="18.141019">
        <ele>37</ele>
        <time>2020-02-13T16:03:41Z</time>
      </trkpt>
      <trkpt lat="59.196632" lon="18.141096">
        <ele>36</ele>
        <time>2020-02-13T16:03:42Z</time>
      </trkpt>
      <trkpt lat="59.196714" lon="18.141184">
        <ele>36</ele>
        <time>2020-02-13T16:03:44Z</time>
      </trkpt>
      <trkpt lat="59.196795" lon="18.14128">
        <ele>35</ele>
        <time>2020-02-13T16:03:45Z</time>
      </trkpt>
      <trkpt lat="59.196874" lon="18.141385">
        <ele>35</ele>
        <time>2020-02-13T16:03:45Z</time>
      </trkpt>
      <trkpt lat="59.196954" lon="18.141499">
        <ele>34</ele>
        <time>2020-02-13T16:03:46Z</time>
      </trkpt>
      <trkpt lat="59.19703" lon="18.141625">
        <ele>34</ele>
        <time>2020-02-13T16:03:47Z</time>
      </trkpt>
      <trkpt lat="59.197105" lon="18.141755">
        <ele>33</ele>
        <time>2020-02-13T16:03:48Z</time>
      </trkpt>
      <trkpt lat="59.197184" lon="18.141878">
        <ele>33</ele>
        <time>2020-02-13T16:03:50Z</time>
      </trkpt>
      <trkpt lat="59.197264" lon="18.141999">
        <ele>32</ele>
        <time>2020-02-13T16:03:50Z</time>
      </trkpt>
      <trkpt lat="59.197349" lon="18.142116">
        <ele>32</ele>
        <time>2020-02-13T16:03:51Z</time>
      </trkpt>
      <trkpt lat="59.197438" lon="18.142211">
        <ele>31</ele>
        <time>2020-02-13T16:03:52Z</time>
      </trkpt>
      <trkpt lat="59.197532" lon="18.142292">
        <ele>31</ele>
        <time>2020-02-13T16:03:53Z</time>
      </trkpt>
      <trkpt lat="59.197626" lon="18.142365">
        <ele>30</ele>
        <time>2020-02-13T16:03:55Z</time>
      </trkpt>
      <trkpt lat="59.197717" lon="18.142434">
        <ele>30</ele>
        <time>2020-02-13T16:03:55Z</time>
      </trkpt>
      <trkpt lat="59.197811" lon="18.1425">
        <ele>30</ele>
        <time>2020-02-13T16:03:56Z</time>
      </trkpt>
      <trkpt lat="59.1979" lon="18.142566">
        <ele>29</ele>
        <time>2020-02-13T16:03:57Z</time>
      </trkpt>
      <trkpt lat="59.197986" lon="18.14263">
        <ele>29</ele>
        <time>2020-02-13T16:03:58Z</time>
      </trkpt>
      <trkpt lat="59.198069" lon="18.142696">
        <ele>29</ele>
        <time>2020-02-13T16:04:00Z</time>
      </trkpt>
      <trkpt lat="59.19815" lon="18.142758">
        <ele>28</ele>
        <time>2020-02-13T16:04:00Z</time>
      </trkpt>
      <trkpt lat="59.19823" lon="18.142818">
        <ele>28</ele>
        <time>2020-02-13T16:04:01Z</time>
      </trkpt>
      <trkpt lat="59.198309" lon="18.142874">
        <ele>28</ele>
        <time>2020-02-13T16:04:03Z</time>
      </trkpt>
      <trkpt lat="59.198387" lon="18.142926">
        <ele>28</ele>
        <time>2020-02-13T16:04:03Z</time>
      </trkpt>
      <trkpt lat="59.198463" lon="18.142973">
        <ele>28</ele>
        <time>2020-02-13T16:04:04Z</time>
      </trkpt>
      <trkpt lat="59.198539" lon="18.143012">
        <ele>27</ele>
        <time>2020-02-13T16:04:06Z</time>
      </trkpt>
      <trkpt lat="59.198615" lon="18.14304">
        <ele>27</ele>
        <time>2020-02-13T16:04:06Z</time>
      </trkpt>
      <trkpt lat="59.19869" lon="18.143055">
        <ele>27</ele>
        <time>2020-02-13T16:04:07Z</time>
      </trkpt>
      <trkpt lat="59.198767" lon="18.143062">
        <ele>27</ele>
        <time>2020-02-13T16:04:08Z</time>
      </trkpt>
      <trkpt lat="59.198842" lon="18.143066">
        <ele>27</ele>
        <time>2020-02-13T16:04:09Z</time>
      </trkpt>
      <trkpt lat="59.198916" lon="18.14307">
        <ele>27</ele>
        <time>2020-02-13T16:04:10Z</time>
      </trkpt>
      <trkpt lat="59.198992" lon="18.143074">
        <ele>27</ele>
        <time>2020-02-13T16:04:11Z</time>
      </trkpt>
      <trkpt lat="59.199065" lon="18.143077">
        <ele>27</ele>
        <time>2020-02-13T16:04:13Z</time>
      </trkpt>
      <trkpt lat="59.199137" lon="18.143077">
        <ele>27</ele>
        <time>2020-02-13T16:04:13Z</time>
      </trkpt>
      <trkpt lat="59.199208" lon="18.143078">
        <ele>27</ele>
        <time>2020-02-13T16:04:14Z</time>
      </trkpt>
      <trkpt lat="59.19928" lon="18.14308">
        <ele>27</ele>
        <time>2020-02-13T16:04:15Z</time>
      </trkpt>
      <trkpt lat="59.19935" lon="18.14308">
        <ele>27</ele>
        <time>2020-02-13T16:04:16Z</time>
      </trkpt>
      <trkpt lat="59.19942" lon="18.143069">
        <ele>26</ele>
        <time>2020-02-13T16:04:17Z</time>
      </trkpt>
      <trkpt lat="59.199488" lon="18.143043">
        <ele>26</ele>
        <time>2020-02-13T16:04:18Z</time>
      </trkpt>
      <trkpt lat="59.199552" lon="18.142994">
        <ele>26</ele>
        <time>2020-02-13T16:04:20Z</time>
      </trkpt>
      <trkpt lat="59.19961" lon="18.142921">
        <ele>26</ele>
        <time>2020-02-13T16:04:20Z</time>
      </trkpt>
      <trkpt lat="59.199659" lon="18.142828">
        <ele>26</ele>
        <time>2020-02-13T16:04:22Z</time>
      </trkpt>
      <trkpt lat="59.199701" lon="18.142726">
        <ele>26</ele>
        <time>2020-02-13T16:04:22Z</time>
      </trkpt>
      <trkpt lat="59.199741" lon="18.142621">
        <ele>26</ele>
        <time>2020-02-13T16:04:23Z</time>
      </trkpt>
      <trkpt lat="59.199778" lon="18.142519">
        <ele>26</ele>
        <time>2020-02-13T16:04:24Z</time>
      </trkpt>
      <trkpt lat="59.19981" lon="18.142422">
        <ele>26</ele>
        <time>2020-02-13T16:04:25Z</time>
      </trkpt>
      <trkpt lat="59.199845" lon="18.142335">
        <ele>26</ele>
        <time>2020-02-13T16:04:26Z</time>
      </trkpt>
      <trkpt lat="59.199889" lon="18.142256">
        <ele>26</ele>
        <time>2020-02-13T16:04:28Z</time>
      </trkpt>
      <trkpt lat="59.199934" lon="18.142185">
        <ele>26</ele>
        <time>2020-02-13T16:04:28Z</time>
      </trkpt>
      <trkpt lat="59.19998" lon="18.142123">
        <ele>26</ele>
        <time>2020-02-13T16:04:29Z</time>
      </trkpt>
      <trkpt lat="59.200025" lon="18.142069">
        <ele>26</ele>
        <time>2020-02-13T16:04:30Z</time>
      </trkpt>
      <trkpt lat="59.200068" lon="18.142017">
        <ele>26</ele>
        <time>2020-02-13T16:04:31Z</time>
      </trkpt>
      <trkpt lat="59.20011" lon="18.141966">
        <ele>26</ele>
        <time>2020-02-13T16:04:32Z</time>
      </trkpt>
      <trkpt lat="59.200153" lon="18.141916">
        <ele>26</ele>
        <time>2020-02-13T16:04:33Z</time>
      </trkpt>
      <trkpt lat="59.200195" lon="18.14187">
        <ele>27</ele>
        <time>2020-02-13T16:04:35Z</time>
      </trkpt>
      <trkpt lat="59.200236" lon="18.141827">
        <ele>27</ele>
        <time>2020-02-13T16:04:36Z</time>
      </trkpt>
      <trkpt lat="59.200315" lon="18.141743">
        <ele>27</ele>
        <time>2020-02-13T16:04:38Z</time>
      </trkpt>
      <trkpt lat="59.200355" lon="18.141705">
        <ele>27</ele>
        <time>2020-02-13T16:04:38Z</time>
      </trkpt>
      <trkpt lat="59.200393" lon="18.141666">
        <ele>27</ele>
        <time>2020-02-13T16:04:39Z</time>
      </trkpt>
      <trkpt lat="59.200429" lon="18.141624">
        <ele>28</ele>
        <time>2020-02-13T16:04:41Z</time>
      </trkpt>
      <trkpt lat="59.200467" lon="18.141584">
        <ele>28</ele>
        <time>2020-02-13T16:04:41Z</time>
      </trkpt>
      <trkpt lat="59.200505" lon="18.141545">
        <ele>28</ele>
        <time>2020-02-13T16:04:42Z</time>
      </trkpt>
      <trkpt lat="59.200543" lon="18.141505">
        <ele>28</ele>
        <time>2020-02-13T16:04:43Z</time>
      </trkpt>
      <trkpt lat="59.20058" lon="18.141464">
        <ele>28</ele>
        <time>2020-02-13T16:04:44Z</time>
      </trkpt>
      <trkpt lat="59.200616" lon="18.141422">
        <ele>28</ele>
        <time>2020-02-13T16:04:45Z</time>
      </trkpt>
      <trkpt lat="59.200654" lon="18.141387">
        <ele>29</ele>
        <time>2020-02-13T16:04:46Z</time>
      </trkpt>
      <trkpt lat="59.200694" lon="18.141364">
        <ele>29</ele>
        <time>2020-02-13T16:04:47Z</time>
      </trkpt>
      <trkpt lat="59.200734" lon="18.141354">
        <ele>29</ele>
        <time>2020-02-13T16:04:48Z</time>
      </trkpt>
      <trkpt lat="59.200774" lon="18.141357">
        <ele>29</ele>
        <time>2020-02-13T16:04:50Z</time>
      </trkpt>
      <trkpt lat="59.200814" lon="18.141372">
        <ele>29</ele>
        <time>2020-02-13T16:04:50Z</time>
      </trkpt>
      <trkpt lat="59.200851" lon="18.14139">
        <ele>29</ele>
        <time>2020-02-13T16:04:51Z</time>
      </trkpt>
      <trkpt lat="59.200888" lon="18.141416">
        <ele>30</ele>
        <time>2020-02-13T16:04:52Z</time>
      </trkpt>
      <trkpt lat="59.200925" lon="18.141447">
        <ele>30</ele>
        <time>2020-02-13T16:04:53Z</time>
      </trkpt>
      <trkpt lat="59.200964" lon="18.141476">
        <ele>30</ele>
        <time>2020-02-13T16:04:55Z</time>
      </trkpt>
      <trkpt lat="59.201003" lon="18.141509">
        <ele>30</ele>
        <time>2020-02-13T16:04:55Z</time>
      </trkpt>
      <trkpt lat="59.201041" lon="18.141542">
        <ele>30</ele>
        <time>2020-02-13T16:04:56Z</time>
      </trkpt>
      <trkpt lat="59.201079" lon="18.141574">
        <ele>30</ele>
        <time>2020-02-13T16:04:57Z</time>
      </trkpt>
      <trkpt lat="59.201117" lon="18.141607">
        <ele>31</ele>
        <time>2020-02-13T16:04:58Z</time>
      </trkpt>
      <trkpt lat="59.201154" lon="18.141641">
        <ele>31</ele>
        <time>2020-02-13T16:05:00Z</time>
      </trkpt>
      <trkpt lat="59.201191" lon="18.141673">
        <ele>31</ele>
        <time>2020-02-13T16:05:00Z</time>
      </trkpt>
      <trkpt lat="59.201228" lon="18.141706">
        <ele>31</ele>
        <time>2020-02-13T16:05:02Z</time>
      </trkpt>
      <trkpt lat="59.201266" lon="18.14174">
        <ele>31</ele>
        <time>2020-02-13T16:05:02Z</time>
      </trkpt>
      <trkpt lat="59.201304" lon="18.141773">
        <ele>31</ele>
        <time>2020-02-13T16:05:03Z</time>
      </trkpt>
      <trkpt lat="59.20134" lon="18.141804">
        <ele>31</ele>
        <time>2020-02-13T16:05:04Z</time>
      </trkpt>
      <trkpt lat="59.201377" lon="18.141833">
        <ele>31</ele>
        <time>2020-02-13T16:05:05Z</time>
      </trkpt>
      <trkpt lat="59.201413" lon="18.141859">
        <ele>31</ele>
        <time>2020-02-13T16:05:06Z</time>
      </trkpt>
      <trkpt lat="59.201451" lon="18.141885">
        <ele>31</ele>
        <time>2020-02-13T16:05:07Z</time>
      </trkpt>
      <trkpt lat="59.201489" lon="18.141909">
        <ele>31</ele>
        <time>2020-02-13T16:05:08Z</time>
      </trkpt>
      <trkpt lat="59.201528" lon="18.141931">
        <ele>32</ele>
        <time>2020-02-13T16:05:09Z</time>
      </trkpt>
      <trkpt lat="59.201567" lon="18.141952">
        <ele>32</ele>
        <time>2020-02-13T16:05:10Z</time>
      </trkpt>
      <trkpt lat="59.201607" lon="18.141975">
        <ele>32</ele>
        <time>2020-02-13T16:05:11Z</time>
      </trkpt>
      <trkpt lat="59.201646" lon="18.142001">
        <ele>32</ele>
        <time>2020-02-13T16:05:12Z</time>
      </trkpt>
      <trkpt lat="59.201687" lon="18.142023">
        <ele>32</ele>
        <time>2020-02-13T16:05:14Z</time>
      </trkpt>
      <trkpt lat="59.201729" lon="18.14204">
        <ele>32</ele>
        <time>2020-02-13T16:05:14Z</time>
      </trkpt>
      <trkpt lat="59.201769" lon="18.142059">
        <ele>32</ele>
        <time>2020-02-13T16:05:15Z</time>
      </trkpt>
      <trkpt lat="59.20181" lon="18.142077">
        <ele>33</ele>
        <time>2020-02-13T16:05:16Z</time>
      </trkpt>
      <trkpt lat="59.201852" lon="18.142094">
        <ele>33</ele>
        <time>2020-02-13T16:05:17Z</time>
      </trkpt>
      <trkpt lat="59.201895" lon="18.142111">
        <ele>33</ele>
        <time>2020-02-13T16:05:19Z</time>
      </trkpt>
      <trkpt lat="59.201937" lon="18.142128">
        <ele>33</ele>
        <time>2020-02-13T16:05:19Z</time>
      </trkpt>
      <trkpt lat="59.201978" lon="18.142145">
        <ele>33</ele>
        <time>2020-02-13T16:05:20Z</time>
      </trkpt>
      <trkpt lat="59.202019" lon="18.142164">
        <ele>33</ele>
        <time>2020-02-13T16:05:21Z</time>
      </trkpt>
      <trkpt lat="59.20206" lon="18.142183">
        <ele>34</ele>
        <time>2020-02-13T16:05:22Z</time>
      </trkpt>
      <trkpt lat="59.202102" lon="18.142201">
        <ele>34</ele>
        <time>2020-02-13T16:05:23Z</time>
      </trkpt>
      <trkpt lat="59.202145" lon="18.142219">
        <ele>34</ele>
        <time>2020-02-13T16:05:24Z</time>
      </trkpt>
      <trkpt lat="59.202187" lon="18.142236">
        <ele>34</ele>
        <time>2020-02-13T16:05:26Z</time>
      </trkpt>
      <trkpt lat="59.202229" lon="18.142252">
        <ele>34</ele>
        <time>2020-02-13T16:05:26Z</time>
      </trkpt>
      <trkpt lat="59.202271" lon="18.142267">
        <ele>34</ele>
        <time>2020-02-13T16:05:27Z</time>
      </trkpt>
      <trkpt lat="59.202312" lon="18.142278">
        <ele>34</ele>
        <time>2020-02-13T16:05:28Z</time>
      </trkpt>
      <trkpt lat="59.202351" lon="18.142285">
        <ele>34</ele>
        <time>2020-02-13T16:05:29Z</time>
      </trkpt>
      <trkpt lat="59.202391" lon="18.142285">
        <ele>34</ele>
        <time>2020-02-13T16:05:30Z</time>
      </trkpt>
      <trkpt lat="59.202431" lon="18.142277">
        <ele>35</ele>
        <time>2020-02-13T16:05:31Z</time>
      </trkpt>
      <trkpt lat="59.202473" lon="18.142269">
        <ele>35</ele>
        <time>2020-02-13T16:05:32Z</time>
      </trkpt>
      <trkpt lat="59.202514" lon="18.142262">
        <ele>35</ele>
        <time>2020-02-13T16:05:33Z</time>
      </trkpt>
      <trkpt lat="59.202556" lon="18.142256">
        <ele>35</ele>
        <time>2020-02-13T16:05:34Z</time>
      </trkpt>
      <trkpt lat="59.202596" lon="18.142248">
        <ele>35</ele>
        <time>2020-02-13T16:05:35Z</time>
      </trkpt>
      <trkpt lat="59.202636" lon="18.142241">
        <ele>35</ele>
        <time>2020-02-13T16:05:36Z</time>
      </trkpt>
      <trkpt lat="59.202677" lon="18.142236">
        <ele>0</ele>
        <time>2020-02-13T16:05:37Z</time>
      </trkpt>
      <trkpt lat="59.202718" lon="18.142234">
        <ele>35</ele>
        <time>2020-02-13T16:05:38Z</time>
      </trkpt>
      <trkpt lat="59.202759" lon="18.142237">
        <ele>36</ele>
        <time>2020-02-13T16:05:39Z</time>
      </trkpt>
      <trkpt lat="59.202799" lon="18.142241">
        <ele>36</ele>
        <time>2020-02-13T16:05:40Z</time>
      </trkpt>
      <trkpt lat="59.202841" lon="18.142243">
        <ele>36</ele>
        <time>2020-02-13T16:05:41Z</time>
      </trkpt>
      <trkpt lat="59.202885" lon="18.142243">
        <ele>36</ele>
        <time>2020-02-13T16:05:42Z</time>
      </trkpt>
      <trkpt lat="59.20293" lon="18.142243">
        <ele>36</ele>
        <time>2020-02-13T16:05:43Z</time>
      </trkpt>
      <trkpt lat="59.202977" lon="18.142248">
        <ele>36</ele>
        <time>2020-02-13T16:05:44Z</time>
      </trkpt>
      <trkpt lat="59.203024" lon="18.142259">
        <ele>36</ele>
        <time>2020-02-13T16:05:45Z</time>
      </trkpt>
      <trkpt lat="59.203071" lon="18.142268">
        <ele>36</ele>
        <time>2020-02-13T16:05:46Z</time>
      </trkpt>
      <trkpt lat="59.203119" lon="18.142273">
        <ele>36</ele>
        <time>2020-02-13T16:05:47Z</time>
      </trkpt>
      <trkpt lat="59.203167" lon="18.142274">
        <ele>36</ele>
        <time>2020-02-13T16:05:49Z</time>
      </trkpt>
      <trkpt lat="59.203216" lon="18.142274">
        <ele>36</ele>
        <time>2020-02-13T16:05:49Z</time>
      </trkpt>
      <trkpt lat="59.203267" lon="18.142281">
        <ele>36</ele>
        <time>2020-02-13T16:05:50Z</time>
      </trkpt>
      <trkpt lat="59.203316" lon="18.142291">
        <ele>36</ele>
        <time>2020-02-13T16:05:51Z</time>
      </trkpt>
      <trkpt lat="59.203365" lon="18.142297">
        <ele>36</ele>
        <time>2020-02-13T16:05:52Z</time>
      </trkpt>
      <trkpt lat="59.203414" lon="18.142303">
        <ele>37</ele>
        <time>2020-02-13T16:05:53Z</time>
      </trkpt>
      <trkpt lat="59.203463" lon="18.142308">
        <ele>37</ele>
        <time>2020-02-13T16:05:54Z</time>
      </trkpt>
      <trkpt lat="59.203513" lon="18.142308">
        <ele>36</ele>
        <time>2020-02-13T16:05:55Z</time>
      </trkpt>
      <trkpt lat="59.203563" lon="18.142301">
        <ele>36</ele>
        <time>2020-02-13T16:05:57Z</time>
      </trkpt>
      <trkpt lat="59.203614" lon="18.142294">
        <ele>36</ele>
        <time>2020-02-13T16:05:57Z</time>
      </trkpt>
      <trkpt lat="59.203665" lon="18.142284">
        <ele>36</ele>
        <time>2020-02-13T16:05:59Z</time>
      </trkpt>
      <trkpt lat="59.203718" lon="18.142274">
        <ele>36</ele>
        <time>2020-02-13T16:05:59Z</time>
      </trkpt>
      <trkpt lat="59.203771" lon="18.142262">
        <ele>36</ele>
        <time>2020-02-13T16:06:00Z</time>
      </trkpt>
      <trkpt lat="59.203826" lon="18.142245">
        <ele>35</ele>
        <time>2020-02-13T16:06:01Z</time>
      </trkpt>
      <trkpt lat="59.20388" lon="18.142226">
        <ele>35</ele>
        <time>2020-02-13T16:06:02Z</time>
      </trkpt>
      <trkpt lat="59.203937" lon="18.142206">
        <ele>35</ele>
        <time>2020-02-13T16:06:03Z</time>
      </trkpt>
      <trkpt lat="59.203994" lon="18.142187">
        <ele>35</ele>
        <time>2020-02-13T16:06:04Z</time>
      </trkpt>
      <trkpt lat="59.20405" lon="18.142167">
        <ele>35</ele>
        <time>2020-02-13T16:06:05Z</time>
      </trkpt>
      <trkpt lat="59.204104" lon="18.142145">
        <ele>34</ele>
        <time>2020-02-13T16:06:06Z</time>
      </trkpt>
      <trkpt lat="59.204159" lon="18.142124">
        <ele>34</ele>
        <time>2020-02-13T16:06:08Z</time>
      </trkpt>
      <trkpt lat="59.204213" lon="18.142101">
        <ele>34</ele>
        <time>2020-02-13T16:06:08Z</time>
      </trkpt>
      <trkpt lat="59.204267" lon="18.142077">
        <ele>34</ele>
        <time>2020-02-13T16:06:09Z</time>
      </trkpt>
      <trkpt lat="59.204321" lon="18.142052">
        <ele>34</ele>
        <time>2020-02-13T16:06:10Z</time>
      </trkpt>
      <trkpt lat="59.204374" lon="18.142028">
        <ele>34</ele>
        <time>2020-02-13T16:06:11Z</time>
      </trkpt>
      <trkpt lat="59.204426" lon="18.142002">
        <ele>34</ele>
        <time>2020-02-13T16:06:12Z</time>
      </trkpt>
      <trkpt lat="59.204479" lon="18.141975">
        <ele>34</ele>
        <time>2020-02-13T16:06:13Z</time>
      </trkpt>
      <trkpt lat="59.20453" lon="18.141946">
        <ele>34</ele>
        <time>2020-02-13T16:06:14Z</time>
      </trkpt>
      <trkpt lat="59.20458" lon="18.141918">
        <ele>34</ele>
        <time>2020-02-13T16:06:16Z</time>
      </trkpt>
      <trkpt lat="59.20463" lon="18.141891">
        <ele>34</ele>
        <time>2020-02-13T16:06:17Z</time>
      </trkpt>
      <trkpt lat="59.204679" lon="18.141864">
        <ele>34</ele>
        <time>2020-02-13T16:06:17Z</time>
      </trkpt>
      <trkpt lat="59.204728" lon="18.141835">
        <ele>34</ele>
        <time>2020-02-13T16:06:18Z</time>
      </trkpt>
      <trkpt lat="59.204774" lon="18.141808">
        <ele>34</ele>
        <time>2020-02-13T16:06:19Z</time>
      </trkpt>
      <trkpt lat="59.204816" lon="18.141781">
        <ele>35</ele>
        <time>2020-02-13T16:06:20Z</time>
      </trkpt>
      <trkpt lat="59.20486" lon="18.141756">
        <ele>35</ele>
        <time>2020-02-13T16:06:21Z</time>
      </trkpt>
      <trkpt lat="59.204908" lon="18.14173">
        <ele>35</ele>
        <time>2020-02-13T16:06:22Z</time>
      </trkpt>
      <trkpt lat="59.204959" lon="18.141699">
        <ele>35</ele>
        <time>2020-02-13T16:06:23Z</time>
      </trkpt>
      <trkpt lat="59.205009" lon="18.141666">
        <ele>35</ele>
        <time>2020-02-13T16:06:24Z</time>
      </trkpt>
      <trkpt lat="59.205058" lon="18.141632">
        <ele>35</ele>
        <time>2020-02-13T16:06:25Z</time>
      </trkpt>
      <trkpt lat="59.205106" lon="18.141601">
        <ele>35</ele>
        <time>2020-02-13T16:06:27Z</time>
      </trkpt>
      <trkpt lat="59.205153" lon="18.141569">
        <ele>36</ele>
        <time>2020-02-13T16:06:27Z</time>
      </trkpt>
      <trkpt lat="59.205198" lon="18.141535">
        <ele>36</ele>
        <time>2020-02-13T16:06:28Z</time>
      </trkpt>
      <trkpt lat="59.205241" lon="18.141497">
        <ele>36</ele>
        <time>2020-02-13T16:06:29Z</time>
      </trkpt>
      <trkpt lat="59.205282" lon="18.141463">
        <ele>36</ele>
        <time>2020-02-13T16:06:30Z</time>
      </trkpt>
      <trkpt lat="59.205318" lon="18.141433">
        <ele>36</ele>
        <time>2020-02-13T16:06:31Z</time>
      </trkpt>
      <trkpt lat="59.205355" lon="18.141405">
        <ele>37</ele>
        <time>2020-02-13T16:06:32Z</time>
      </trkpt>
      <trkpt lat="59.205392" lon="18.141377">
        <ele>37</ele>
        <time>2020-02-13T16:06:33Z</time>
      </trkpt>
      <trkpt lat="59.205428" lon="18.141348">
        <ele>37</ele>
        <time>2020-02-13T16:06:35Z</time>
      </trkpt>
      <trkpt lat="59.205465" lon="18.141316">
        <ele>37</ele>
        <time>2020-02-13T16:06:35Z</time>
      </trkpt>
      <trkpt lat="59.205506" lon="18.14128">
        <ele>37</ele>
        <time>2020-02-13T16:06:36Z</time>
      </trkpt>
      <trkpt lat="59.205547" lon="18.141243">
        <ele>37</ele>
        <time>2020-02-13T16:06:37Z</time>
      </trkpt>
      <trkpt lat="59.20559" lon="18.141205">
        <ele>38</ele>
        <time>2020-02-13T16:06:39Z</time>
      </trkpt>
      <trkpt lat="59.205634" lon="18.141166">
        <ele>38</ele>
        <time>2020-02-13T16:06:39Z</time>
      </trkpt>
      <trkpt lat="59.205683" lon="18.141125">
        <ele>38</ele>
        <time>2020-02-13T16:06:40Z</time>
      </trkpt>
      <trkpt lat="59.205731" lon="18.141086">
        <ele>38</ele>
        <time>2020-02-13T16:06:41Z</time>
      </trkpt>
      <trkpt lat="59.205781" lon="18.141047">
        <ele>39</ele>
        <time>2020-02-13T16:06:42Z</time>
      </trkpt>
      <trkpt lat="59.205831" lon="18.14101">
        <ele>39</ele>
        <time>2020-02-13T16:06:43Z</time>
      </trkpt>
      <trkpt lat="59.205881" lon="18.140973">
        <ele>39</ele>
        <time>2020-02-13T16:06:44Z</time>
      </trkpt>
      <trkpt lat="59.20593" lon="18.140941">
        <ele>39</ele>
        <time>2020-02-13T16:06:45Z</time>
      </trkpt>
      <trkpt lat="59.205978" lon="18.140912">
        <ele>39</ele>
        <time>2020-02-13T16:06:46Z</time>
      </trkpt>
      <trkpt lat="59.206023" lon="18.140886">
        <ele>39</ele>
        <time>2020-02-13T16:06:48Z</time>
      </trkpt>
      <trkpt lat="59.206072" lon="18.140865">
        <ele>39</ele>
        <time>2020-02-13T16:06:48Z</time>
      </trkpt>
      <trkpt lat="59.206118" lon="18.140839">
        <ele>39</ele>
        <time>2020-02-13T16:06:49Z</time>
      </trkpt>
      <trkpt lat="59.206164" lon="18.140799">
        <ele>39</ele>
        <time>2020-02-13T16:06:50Z</time>
      </trkpt>
      <trkpt lat="59.206201" lon="18.140741">
        <ele>39</ele>
        <time>2020-02-13T16:06:51Z</time>
      </trkpt>
      <trkpt lat="59.206231" lon="18.140672">
        <ele>39</ele>
        <time>2020-02-13T16:06:52Z</time>
      </trkpt>
      <trkpt lat="59.206254" lon="18.140595">
        <ele>39</ele>
        <time>2020-02-13T16:06:54Z</time>
      </trkpt>
      <trkpt lat="59.206281" lon="18.140524">
        <ele>39</ele>
        <time>2020-02-13T16:06:54Z</time>
      </trkpt>
      <trkpt lat="59.206313" lon="18.140469">
        <ele>39</ele>
        <time>2020-02-13T16:06:55Z</time>
      </trkpt>
      <trkpt lat="59.20635" lon="18.140427">
        <ele>39</ele>
        <time>2020-02-13T16:06:56Z</time>
      </trkpt>
      <trkpt lat="59.20639" lon="18.140398">
        <ele>40</ele>
        <time>2020-02-13T16:06:57Z</time>
      </trkpt>
      <trkpt lat="59.206435" lon="18.14038">
        <ele>40</ele>
        <time>2020-02-13T16:06:59Z</time>
      </trkpt>
      <trkpt lat="59.206479" lon="18.140367">
        <ele>40</ele>
        <time>2020-02-13T16:06:59Z</time>
      </trkpt>
      <trkpt lat="59.206523" lon="18.140361">
        <ele>40</ele>
        <time>2020-02-13T16:07:00Z</time>
      </trkpt>
      <trkpt lat="59.206566" lon="18.140357">
        <ele>40</ele>
        <time>2020-02-13T16:07:01Z</time>
      </trkpt>
      <trkpt lat="59.206608" lon="18.140356">
        <ele>40</ele>
        <time>2020-02-13T16:07:02Z</time>
      </trkpt>
      <trkpt lat="59.206649" lon="18.140357">
        <ele>40</ele>
        <time>2020-02-13T16:07:03Z</time>
      </trkpt>
      <trkpt lat="59.206691" lon="18.14036">
        <ele>40</ele>
        <time>2020-02-13T16:07:04Z</time>
      </trkpt>
      <trkpt lat="59.206733" lon="18.140361">
        <ele>40</ele>
        <time>2020-02-13T16:07:05Z</time>
      </trkpt>
      <trkpt lat="59.206774" lon="18.140365">
        <ele>40</ele>
        <time>2020-02-13T16:07:06Z</time>
      </trkpt>
      <trkpt lat="59.206816" lon="18.140371">
        <ele>40</ele>
        <time>2020-02-13T16:07:07Z</time>
      </trkpt>
      <trkpt lat="59.206859" lon="18.14038">
        <ele>40</ele>
        <time>2020-02-13T16:07:08Z</time>
      </trkpt>
      <trkpt lat="59.2069" lon="18.140391">
        <ele>40</ele>
        <time>2020-02-13T16:07:09Z</time>
      </trkpt>
      <trkpt lat="59.20694" lon="18.140402">
        <ele>40</ele>
        <time>2020-02-13T16:07:11Z</time>
      </trkpt>
      <trkpt lat="59.206983" lon="18.14041">
        <ele>40</ele>
        <time>2020-02-13T16:07:11Z</time>
      </trkpt>
      <trkpt lat="59.207024" lon="18.140423">
        <ele>40</ele>
        <time>2020-02-13T16:07:13Z</time>
      </trkpt>
      <trkpt lat="59.207065" lon="18.140439">
        <ele>40</ele>
        <time>2020-02-13T16:07:13Z</time>
      </trkpt>
      <trkpt lat="59.207106" lon="18.140456">
        <ele>40</ele>
        <time>2020-02-13T16:07:14Z</time>
      </trkpt>
      <trkpt lat="59.207149" lon="18.140472">
        <ele>40</ele>
        <time>2020-02-13T16:07:15Z</time>
      </trkpt>
      <trkpt lat="59.207192" lon="18.14049">
        <ele>40</ele>
        <time>2020-02-13T16:07:16Z</time>
      </trkpt>
      <trkpt lat="59.207231" lon="18.140508">
        <ele>41</ele>
        <time>2020-02-13T16:07:17Z</time>
      </trkpt>
      <trkpt lat="59.207269" lon="18.140529">
        <ele>41</ele>
        <time>2020-02-13T16:07:18Z</time>
      </trkpt>
      <trkpt lat="59.207306" lon="18.140553">
        <ele>41</ele>
        <time>2020-02-13T16:07:19Z</time>
      </trkpt>
      <trkpt lat="59.207345" lon="18.140577">
        <ele>41</ele>
        <time>2020-02-13T16:07:20Z</time>
      </trkpt>
      <trkpt lat="59.207386" lon="18.140599">
        <ele>41</ele>
        <time>2020-02-13T16:07:21Z</time>
      </trkpt>
      <trkpt lat="59.207425" lon="18.140621">
        <ele>42</ele>
        <time>2020-02-13T16:07:23Z</time>
      </trkpt>
      <trkpt lat="59.207465" lon="18.140645">
        <ele>42</ele>
        <time>2020-02-13T16:07:23Z</time>
      </trkpt>
      <trkpt lat="59.207505" lon="18.140673">
        <ele>42</ele>
        <time>2020-02-13T16:07:24Z</time>
      </trkpt>
      <trkpt lat="59.207544" lon="18.140703">
        <ele>42</ele>
        <time>2020-02-13T16:07:25Z</time>
      </trkpt>
      <trkpt lat="59.207583" lon="18.140734">
        <ele>42</ele>
        <time>2020-02-13T16:07:26Z</time>
      </trkpt>
      <trkpt lat="59.207623" lon="18.140766">
        <ele>42</ele>
        <time>2020-02-13T16:07:27Z</time>
      </trkpt>
      <trkpt lat="59.207661" lon="18.140801">
        <ele>43</ele>
        <time>2020-02-13T16:07:28Z</time>
      </trkpt>
      <trkpt lat="59.207698" lon="18.140837">
        <ele>43</ele>
        <time>2020-02-13T16:07:29Z</time>
      </trkpt>
      <trkpt lat="59.207734" lon="18.140876">
        <ele>43</ele>
        <time>2020-02-13T16:07:31Z</time>
      </trkpt>
      <trkpt lat="59.20777" lon="18.140917">
        <ele>43</ele>
        <time>2020-02-13T16:07:32Z</time>
      </trkpt>
      <trkpt lat="59.20781" lon="18.140958">
        <ele>43</ele>
        <time>2020-02-13T16:07:32Z</time>
      </trkpt>
      <trkpt lat="59.207851" lon="18.140999">
        <ele>44</ele>
        <time>2020-02-13T16:07:33Z</time>
      </trkpt>
      <trkpt lat="59.207892" lon="18.141041">
        <ele>44</ele>
        <time>2020-02-13T16:07:35Z</time>
      </trkpt>
      <trkpt lat="59.207932" lon="18.141081">
        <ele>44</ele>
        <time>2020-02-13T16:07:35Z</time>
      </trkpt>
      <trkpt lat="59.207969" lon="18.141122">
        <ele>44</ele>
        <time>2020-02-13T16:07:36Z</time>
      </trkpt>
      <trkpt lat="59.208007" lon="18.141162">
        <ele>45</ele>
        <time>2020-02-13T16:07:37Z</time>
      </trkpt>
      <trkpt lat="59.208047" lon="18.141203">
        <ele>45</ele>
        <time>2020-02-13T16:07:38Z</time>
      </trkpt>
      <trkpt lat="59.208084" lon="18.141252">
        <ele>45</ele>
        <time>2020-02-13T16:07:39Z</time>
      </trkpt>
      <trkpt lat="59.208119" lon="18.141305">
        <ele>45</ele>
        <time>2020-02-13T16:07:40Z</time>
      </trkpt>
      <trkpt lat="59.208152" lon="18.141361">
        <ele>45</ele>
        <time>2020-02-13T16:07:41Z</time>
      </trkpt>
      <trkpt lat="59.208184" lon="18.141419">
        <ele>46</ele>
        <time>2020-02-13T16:07:42Z</time>
      </trkpt>
      <trkpt lat="59.208216" lon="18.141474">
        <ele>46</ele>
        <time>2020-02-13T16:07:43Z</time>
      </trkpt>
      <trkpt lat="59.208247" lon="18.141528">
        <ele>46</ele>
        <time>2020-02-13T16:07:44Z</time>
      </trkpt>
      <trkpt lat="59.20828" lon="18.141587">
        <ele>46</ele>
        <time>2020-02-13T16:07:46Z</time>
      </trkpt>
      <trkpt lat="59.208312" lon="18.141644">
        <ele>46</ele>
        <time>2020-02-13T16:07:46Z</time>
      </trkpt>
      <trkpt lat="59.208345" lon="18.141702">
        <ele>46</ele>
        <time>2020-02-13T16:07:47Z</time>
      </trkpt>
      <trkpt lat="59.20838" lon="18.141761">
        <ele>46</ele>
        <time>2020-02-13T16:07:48Z</time>
      </trkpt>
      <trkpt lat="59.208412" lon="18.141824">
        <ele>46</ele>
        <time>2020-02-13T16:07:49Z</time>
      </trkpt>
      <trkpt lat="59.208443" lon="18.141888">
        <ele>46</ele>
        <time>2020-02-13T16:07:51Z</time>
      </trkpt>
      <trkpt lat="59.208476" lon="18.141954">
        <ele>47</ele>
        <time>2020-02-13T16:07:51Z</time>
      </trkpt>
      <trkpt lat="59.208509" lon="18.142018">
        <ele>47</ele>
        <time>2020-02-13T16:07:52Z</time>
      </trkpt>
      <trkpt lat="59.208539" lon="18.14208">
        <ele>47</ele>
        <time>2020-02-13T16:07:53Z</time>
      </trkpt>
      <trkpt lat="59.208568" lon="18.142141">
        <ele>47</ele>
        <time>2020-02-13T16:07:54Z</time>
      </trkpt>
      <trkpt lat="59.208596" lon="18.142205">
        <ele>48</ele>
        <time>2020-02-13T16:07:55Z</time>
      </trkpt>
      <trkpt lat="59.208626" lon="18.14227">
        <ele>48</ele>
        <time>2020-02-13T16:07:57Z</time>
      </trkpt>
      <trkpt lat="59.208655" lon="18.142335">
        <ele>48</ele>
        <time>2020-02-13T16:07:57Z</time>
      </trkpt>
      <trkpt lat="59.208684" lon="18.142406">
        <ele>48</ele>
        <time>2020-02-13T16:07:58Z</time>
      </trkpt>
      <trkpt lat="59.208714" lon="18.142479">
        <ele>48</ele>
        <time>2020-02-13T16:07:59Z</time>
      </trkpt>
      <trkpt lat="59.208744" lon="18.142552">
        <ele>48</ele>
        <time>2020-02-13T16:08:00Z</time>
      </trkpt>
      <trkpt lat="59.208774" lon="18.142627">
        <ele>48</ele>
        <time>2020-02-13T16:08:01Z</time>
      </trkpt>
      <trkpt lat="59.208805" lon="18.142704">
        <ele>48</ele>
        <time>2020-02-13T16:08:02Z</time>
      </trkpt>
      <trkpt lat="59.208836" lon="18.142781">
        <ele>48</ele>
        <time>2020-02-13T16:08:03Z</time>
      </trkpt>
      <trkpt lat="59.208867" lon="18.142858">
        <ele>49</ele>
        <time>2020-02-13T16:08:04Z</time>
      </trkpt>
      <trkpt lat="59.208898" lon="18.142933">
        <ele>49</ele>
        <time>2020-02-13T16:08:05Z</time>
      </trkpt>
      <trkpt lat="59.20893" lon="18.143009">
        <ele>49</ele>
        <time>2020-02-13T16:08:06Z</time>
      </trkpt>
      <trkpt lat="59.208961" lon="18.143087">
        <ele>49</ele>
        <time>2020-02-13T16:08:08Z</time>
      </trkpt>
      <trkpt lat="59.208994" lon="18.143168">
        <ele>49</ele>
        <time>2020-02-13T16:08:08Z</time>
      </trkpt>
      <trkpt lat="59.209027" lon="18.143249">
        <ele>49</ele>
        <time>2020-02-13T16:08:10Z</time>
      </trkpt>
      <trkpt lat="59.209061" lon="18.14333">
        <ele>49</ele>
        <time>2020-02-13T16:08:10Z</time>
      </trkpt>
      <trkpt lat="59.209096" lon="18.143412">
        <ele>49</ele>
        <time>2020-02-13T16:08:11Z</time>
      </trkpt>
      <trkpt lat="59.20913" lon="18.143497">
        <ele>49</ele>
        <time>2020-02-13T16:08:12Z</time>
      </trkpt>
      <trkpt lat="59.209164" lon="18.143583">
        <ele>49</ele>
        <time>2020-02-13T16:08:13Z</time>
      </trkpt>
      <trkpt lat="59.209199" lon="18.143671">
        <ele>49</ele>
        <time>2020-02-13T16:08:14Z</time>
      </trkpt>
      <trkpt lat="59.209236" lon="18.143759">
        <ele>49</ele>
        <time>2020-02-13T16:08:15Z</time>
      </trkpt>
      <trkpt lat="59.209273" lon="18.143848">
        <ele>49</ele>
        <time>2020-02-13T16:08:17Z</time>
      </trkpt>
      <trkpt lat="59.20931" lon="18.143938">
        <ele>49</ele>
        <time>2020-02-13T16:08:17Z</time>
      </trkpt>
      <trkpt lat="59.209347" lon="18.144027">
        <ele>49</ele>
        <time>2020-02-13T16:08:18Z</time>
      </trkpt>
      <trkpt lat="59.209384" lon="18.144119">
        <ele>49</ele>
        <time>2020-02-13T16:08:19Z</time>
      </trkpt>
      <trkpt lat="59.209419" lon="18.144214">
        <ele>49</ele>
        <time>2020-02-13T16:08:20Z</time>
      </trkpt>
      <trkpt lat="59.209449" lon="18.144317">
        <ele>49</ele>
        <time>2020-02-13T16:08:21Z</time>
      </trkpt>
      <trkpt lat="59.209472" lon="18.144427">
        <ele>49</ele>
        <time>2020-02-13T16:08:22Z</time>
      </trkpt>
      <trkpt lat="59.20949" lon="18.144539">
        <ele>49</ele>
        <time>2020-02-13T16:08:23Z</time>
      </trkpt>
      <trkpt lat="59.209501" lon="18.144651">
        <ele>49</ele>
        <time>2020-02-13T16:08:25Z</time>
      </trkpt>
      <trkpt lat="59.20952" lon="18.144757">
        <ele>49</ele>
        <time>2020-02-13T16:08:25Z</time>
      </trkpt>
      <trkpt lat="59.209551" lon="18.144847">
        <ele>49</ele>
        <time>2020-02-13T16:08:26Z</time>
      </trkpt>
      <trkpt lat="59.209591" lon="18.144913">
        <ele>50</ele>
        <time>2020-02-13T16:08:27Z</time>
      </trkpt>
      <trkpt lat="59.20964" lon="18.144955">
        <ele>50</ele>
        <time>2020-02-13T16:08:29Z</time>
      </trkpt>
      <trkpt lat="59.20969" lon="18.144993">
        <ele>50</ele>
        <time>2020-02-13T16:08:29Z</time>
      </trkpt>
      <trkpt lat="59.209737" lon="18.145039">
        <ele>49</ele>
        <time>2020-02-13T16:08:30Z</time>
      </trkpt>
      <trkpt lat="59.209784" lon="18.145095">
        <ele>49</ele>
        <time>2020-02-13T16:08:31Z</time>
      </trkpt>
      <trkpt lat="59.209829" lon="18.145164">
        <ele>49</ele>
        <time>2020-02-13T16:08:32Z</time>
      </trkpt>
      <trkpt lat="59.209868" lon="18.145247">
        <ele>49</ele>
        <time>2020-02-13T16:08:34Z</time>
      </trkpt>
      <trkpt lat="59.209902" lon="18.145343">
        <ele>49</ele>
        <time>2020-02-13T16:08:34Z</time>
      </trkpt>
      <trkpt lat="59.209933" lon="18.145442">
        <ele>49</ele>
        <time>2020-02-13T16:08:35Z</time>
      </trkpt>
      <trkpt lat="59.209968" lon="18.145541">
        <ele>49</ele>
        <time>2020-02-13T16:08:36Z</time>
      </trkpt>
      <trkpt lat="59.210005" lon="18.145639">
        <ele>49</ele>
        <time>2020-02-13T16:08:37Z</time>
      </trkpt>
      <trkpt lat="59.210045" lon="18.145734">
        <ele>49</ele>
        <time>2020-02-13T16:08:38Z</time>
      </trkpt>
      <trkpt lat="59.21009" lon="18.14582">
        <ele>49</ele>
        <time>2020-02-13T16:08:39Z</time>
      </trkpt>
      <trkpt lat="59.210142" lon="18.14589">
        <ele>49</ele>
        <time>2020-02-13T16:08:40Z</time>
      </trkpt>
      <trkpt lat="59.210201" lon="18.145943">
        <ele>49</ele>
        <time>2020-02-13T16:08:42Z</time>
      </trkpt>
      <trkpt lat="59.210266" lon="18.145991">
        <ele>48</ele>
        <time>2020-02-13T16:08:42Z</time>
      </trkpt>
      <trkpt lat="59.210331" lon="18.146048">
        <ele>48</ele>
        <time>2020-02-13T16:08:43Z</time>
      </trkpt>
      <trkpt lat="59.210396" lon="18.146111">
        <ele>48</ele>
        <time>2020-02-13T16:08:44Z</time>
      </trkpt>
      <trkpt lat="59.210464" lon="18.146179">
        <ele>48</ele>
        <time>2020-02-13T16:08:45Z</time>
      </trkpt>
      <trkpt lat="59.210532" lon="18.14625">
        <ele>48</ele>
        <time>2020-02-13T16:08:46Z</time>
      </trkpt>
      <trkpt lat="59.210599" lon="18.146327">
        <ele>48</ele>
        <time>2020-02-13T16:08:48Z</time>
      </trkpt>
      <trkpt lat="59.210669" lon="18.146413">
        <ele>48</ele>
        <time>2020-02-13T16:08:49Z</time>
      </trkpt>
      <trkpt lat="59.21074" lon="18.146494">
        <ele>48</ele>
        <time>2020-02-13T16:08:49Z</time>
      </trkpt>
      <trkpt lat="59.210815" lon="18.146571">
        <ele>48</ele>
        <time>2020-02-13T16:08:50Z</time>
      </trkpt>
      <trkpt lat="59.210896" lon="18.146649">
        <ele>47</ele>
        <time>2020-02-13T16:08:51Z</time>
      </trkpt>
      <trkpt lat="59.210982" lon="18.146727">
        <ele>47</ele>
        <time>2020-02-13T16:08:52Z</time>
      </trkpt>
      <trkpt lat="59.21107" lon="18.146802">
        <ele>46</ele>
        <time>2020-02-13T16:08:54Z</time>
      </trkpt>
      <trkpt lat="59.211158" lon="18.146873">
        <ele>46</ele>
        <time>2020-02-13T16:08:54Z</time>
      </trkpt>
      <trkpt lat="59.211251" lon="18.146934">
        <ele>45</ele>
        <time>2020-02-13T16:08:55Z</time>
      </trkpt>
      <trkpt lat="59.211341" lon="18.146988">
        <ele>44</ele>
        <time>2020-02-13T16:08:56Z</time>
      </trkpt>
      <trkpt lat="59.211432" lon="18.147037">
        <ele>44</ele>
        <time>2020-02-13T16:08:57Z</time>
      </trkpt>
      <trkpt lat="59.211523" lon="18.147081">
        <ele>43</ele>
        <time>2020-02-13T16:08:59Z</time>
      </trkpt>
      <trkpt lat="59.211617" lon="18.147115">
        <ele>43</ele>
        <time>2020-02-13T16:08:59Z</time>
      </trkpt>
      <trkpt lat="59.211712" lon="18.147144">
        <ele>43</ele>
        <time>2020-02-13T16:09:00Z</time>
      </trkpt>
      <trkpt lat="59.21181" lon="18.147169">
        <ele>43</ele>
        <time>2020-02-13T16:09:01Z</time>
      </trkpt>
      <trkpt lat="59.211907" lon="18.147182">
        <ele>43</ele>
        <time>2020-02-13T16:09:02Z</time>
      </trkpt>
      <trkpt lat="59.212008" lon="18.147186">
        <ele>42</ele>
        <time>2020-02-13T16:09:04Z</time>
      </trkpt>
      <trkpt lat="59.21211" lon="18.147189">
        <ele>42</ele>
        <time>2020-02-13T16:09:04Z</time>
      </trkpt>
      <trkpt lat="59.212211" lon="18.147194">
        <ele>41</ele>
        <time>2020-02-13T16:09:05Z</time>
      </trkpt>
      <trkpt lat="59.212316" lon="18.147193">
        <ele>41</ele>
        <time>2020-02-13T16:09:07Z</time>
      </trkpt>
      <trkpt lat="59.212421" lon="18.147187">
        <ele>41</ele>
        <time>2020-02-13T16:09:07Z</time>
      </trkpt>
      <trkpt lat="59.212529" lon="18.147176">
        <ele>40</ele>
        <time>2020-02-13T16:09:09Z</time>
      </trkpt>
      <trkpt lat="59.212634" lon="18.147159">
        <ele>40</ele>
        <time>2020-02-13T16:09:09Z</time>
      </trkpt>
      <trkpt lat="59.212736" lon="18.147138">
        <ele>39</ele>
        <time>2020-02-13T16:09:10Z</time>
      </trkpt>
      <trkpt lat="59.212841" lon="18.147114">
        <ele>39</ele>
        <time>2020-02-13T16:09:11Z</time>
      </trkpt>
      <trkpt lat="59.212948" lon="18.147086">
        <ele>38</ele>
        <time>2020-02-13T16:09:12Z</time>
      </trkpt>
      <trkpt lat="59.213052" lon="18.147048">
        <ele>38</ele>
        <time>2020-02-13T16:09:14Z</time>
      </trkpt>
      <trkpt lat="59.213154" lon="18.147">
        <ele>38</ele>
        <time>2020-02-13T16:09:14Z</time>
      </trkpt>
      <trkpt lat="59.213254" lon="18.146948">
        <ele>37</ele>
        <time>2020-02-13T16:09:15Z</time>
      </trkpt>
      <trkpt lat="59.213354" lon="18.146891">
        <ele>37</ele>
        <time>2020-02-13T16:09:16Z</time>
      </trkpt>
      <trkpt lat="59.213452" lon="18.146829">
        <ele>37</ele>
        <time>2020-02-13T16:09:17Z</time>
      </trkpt>
      <trkpt lat="59.213547" lon="18.146762">
        <ele>36</ele>
        <time>2020-02-13T16:09:19Z</time>
      </trkpt>
      <trkpt lat="59.213641" lon="18.146691">
        <ele>36</ele>
        <time>2020-02-13T16:09:19Z</time>
      </trkpt>
      <trkpt lat="59.21373" lon="18.146611">
        <ele>36</ele>
        <time>2020-02-13T16:09:20Z</time>
      </trkpt>
      <trkpt lat="59.213815" lon="18.146524">
        <ele>35</ele>
        <time>2020-02-13T16:09:21Z</time>
      </trkpt>
      <trkpt lat="59.213896" lon="18.146435">
        <ele>35</ele>
        <time>2020-02-13T16:09:22Z</time>
      </trkpt>
      <trkpt lat="59.213967" lon="18.146343">
        <ele>35</ele>
        <time>2020-02-13T16:09:24Z</time>
      </trkpt>
      <trkpt lat="59.214043" lon="18.146247">
        <ele>34</ele>
        <time>2020-02-13T16:09:24Z</time>
      </trkpt>
      <trkpt lat="59.214119" lon="18.146152">
        <ele>34</ele>
        <time>2020-02-13T16:09:26Z</time>
      </trkpt>
      <trkpt lat="59.214198" lon="18.146057">
        <ele>34</ele>
        <time>2020-02-13T16:09:26Z</time>
      </trkpt>
      <trkpt lat="59.214276" lon="18.145959">
        <ele>33</ele>
        <time>2020-02-13T16:09:27Z</time>
      </trkpt>
      <trkpt lat="59.214358" lon="18.145859">
        <ele>33</ele>
        <time>2020-02-13T16:09:29Z</time>
      </trkpt>
      <trkpt lat="59.214437" lon="18.14576">
        <ele>33</ele>
        <time>2020-02-13T16:09:29Z</time>
      </trkpt>
      <trkpt lat="59.214516" lon="18.145666">
        <ele>33</ele>
        <time>2020-02-13T16:09:30Z</time>
      </trkpt>
      <trkpt lat="59.214595" lon="18.145581">
        <ele>32</ele>
        <time>2020-02-13T16:09:31Z</time>
      </trkpt>
      <trkpt lat="59.214672" lon="18.145496">
        <ele>32</ele>
        <time>2020-02-13T16:09:32Z</time>
      </trkpt>
      <trkpt lat="59.214747" lon="18.145407">
        <ele>32</ele>
        <time>2020-02-13T16:09:33Z</time>
      </trkpt>
      <trkpt lat="59.214822" lon="18.145316">
        <ele>31</ele>
        <time>2020-02-13T16:09:35Z</time>
      </trkpt>
      <trkpt lat="59.214896" lon="18.145224">
        <ele>31</ele>
        <time>2020-02-13T16:09:35Z</time>
      </trkpt>
      <trkpt lat="59.214972" lon="18.145134">
        <ele>31</ele>
        <time>2020-02-13T16:09:36Z</time>
      </trkpt>
      <trkpt lat="59.215044" lon="18.145044">
        <ele>31</ele>
        <time>2020-02-13T16:09:37Z</time>
      </trkpt>
      <trkpt lat="59.215118" lon="18.144953">
        <ele>31</ele>
        <time>2020-02-13T16:09:38Z</time>
      </trkpt>
      <trkpt lat="59.215192" lon="18.144855">
        <ele>31</ele>
        <time>2020-02-13T16:09:39Z</time>
      </trkpt>
      <trkpt lat="59.215264" lon="18.144758">
        <ele>31</ele>
        <time>2020-02-13T16:09:41Z</time>
      </trkpt>
      <trkpt lat="59.215337" lon="18.144661">
        <ele>31</ele>
        <time>2020-02-13T16:09:41Z</time>
      </trkpt>
      <trkpt lat="59.215412" lon="18.144564">
        <ele>31</ele>
        <time>2020-02-13T16:09:42Z</time>
      </trkpt>
      <trkpt lat="59.215486" lon="18.144467">
        <ele>31</ele>
        <time>2020-02-13T16:09:43Z</time>
      </trkpt>
      <trkpt lat="59.215558" lon="18.144367">
        <ele>31</ele>
        <time>2020-02-13T16:09:45Z</time>
      </trkpt>
      <trkpt lat="59.215633" lon="18.144271">
        <ele>31</ele>
        <time>2020-02-13T16:09:46Z</time>
      </trkpt>
      <trkpt lat="59.215708" lon="18.144178">
        <ele>31</ele>
        <time>2020-02-13T16:09:46Z</time>
      </trkpt>
      <trkpt lat="59.215782" lon="18.14409">
        <ele>31</ele>
        <time>2020-02-13T16:09:47Z</time>
      </trkpt>
      <trkpt lat="59.215853" lon="18.144">
        <ele>31</ele>
        <time>2020-02-13T16:09:48Z</time>
      </trkpt>
      <trkpt lat="59.215925" lon="18.14391">
        <ele>31</ele>
        <time>2020-02-13T16:09:49Z</time>
      </trkpt>
      <trkpt lat="59.215994" lon="18.143813">
        <ele>31</ele>
        <time>2020-02-13T16:09:50Z</time>
      </trkpt>
      <trkpt lat="59.21607" lon="18.143725">
        <ele>31</ele>
        <time>2020-02-13T16:09:52Z</time>
      </trkpt>
      <trkpt lat="59.216149" lon="18.143641">
        <ele>30</ele>
        <time>2020-02-13T16:09:52Z</time>
      </trkpt>
      <trkpt lat="59.216226" lon="18.143561">
        <ele>30</ele>
        <time>2020-02-13T16:09:53Z</time>
      </trkpt>
      <trkpt lat="59.2163" lon="18.14348">
        <ele>29</ele>
        <time>2020-02-13T16:09:54Z</time>
      </trkpt>
      <trkpt lat="59.216374" lon="18.1434">
        <ele>29</ele>
        <time>2020-02-13T16:09:55Z</time>
      </trkpt>
      <trkpt lat="59.216448" lon="18.14332">
        <ele>29</ele>
        <time>2020-02-13T16:09:56Z</time>
      </trkpt>
      <trkpt lat="59.21652" lon="18.143238">
        <ele>28</ele>
        <time>2020-02-13T16:09:58Z</time>
      </trkpt>
      <trkpt lat="59.21659" lon="18.143163">
        <ele>28</ele>
        <time>2020-02-13T16:09:58Z</time>
      </trkpt>
      <trkpt lat="59.216664" lon="18.143094">
        <ele>27</ele>
        <time>2020-02-13T16:09:59Z</time>
      </trkpt>
      <trkpt lat="59.216737" lon="18.143024">
        <ele>27</ele>
        <time>2020-02-13T16:10:00Z</time>
      </trkpt>
      <trkpt lat="59.216807" lon="18.142957">
        <ele>26</ele>
        <time>2020-02-13T16:10:01Z</time>
      </trkpt>
      <trkpt lat="59.216874" lon="18.142891">
        <ele>26</ele>
        <time>2020-02-13T16:10:02Z</time>
      </trkpt>
      <trkpt lat="59.216936" lon="18.142826">
        <ele>26</ele>
        <time>2020-02-13T16:10:04Z</time>
      </trkpt>
      <trkpt lat="59.216997" lon="18.14276">
        <ele>26</ele>
        <time>2020-02-13T16:10:05Z</time>
      </trkpt>
      <trkpt lat="59.217053" lon="18.14269">
        <ele>25</ele>
        <time>2020-02-13T16:10:05Z</time>
      </trkpt>
      <trkpt lat="59.217109" lon="18.14262">
        <ele>25</ele>
        <time>2020-02-13T16:10:06Z</time>
      </trkpt>
      <trkpt lat="59.217165" lon="18.142553">
        <ele>24</ele>
        <time>2020-02-13T16:10:07Z</time>
      </trkpt>
      <trkpt lat="59.217218" lon="18.142484">
        <ele>24</ele>
        <time>2020-02-13T16:10:08Z</time>
      </trkpt>
      <trkpt lat="59.21727" lon="18.142416">
        <ele>23</ele>
        <time>2020-02-13T16:10:09Z</time>
      </trkpt>
      <trkpt lat="59.217325" lon="18.142346">
        <ele>23</ele>
        <time>2020-02-13T16:10:10Z</time>
      </trkpt>
      <trkpt lat="59.217378" lon="18.142278">
        <ele>22</ele>
        <time>2020-02-13T16:10:12Z</time>
      </trkpt>
      <trkpt lat="59.217432" lon="18.142212">
        <ele>22</ele>
        <time>2020-02-13T16:10:12Z</time>
      </trkpt>
      <trkpt lat="59.217487" lon="18.142145">
        <ele>22</ele>
        <time>2020-02-13T16:10:13Z</time>
      </trkpt>
      <trkpt lat="59.217543" lon="18.14208">
        <ele>22</ele>
        <time>2020-02-13T16:10:14Z</time>
      </trkpt>
      <trkpt lat="59.217599" lon="18.142016">
        <ele>22</ele>
        <time>2020-02-13T16:10:15Z</time>
      </trkpt>
      <trkpt lat="59.217655" lon="18.141955">
        <ele>22</ele>
        <time>2020-02-13T16:10:16Z</time>
      </trkpt>
      <trkpt lat="59.217711" lon="18.141892">
        <ele>21</ele>
        <time>2020-02-13T16:10:17Z</time>
      </trkpt>
      <trkpt lat="59.217768" lon="18.141832">
        <ele>22</ele>
        <time>2020-02-13T16:10:18Z</time>
      </trkpt>
      <trkpt lat="59.217825" lon="18.14177">
        <ele>22</ele>
        <time>2020-02-13T16:10:20Z</time>
      </trkpt>
      <trkpt lat="59.217882" lon="18.141704">
        <ele>22</ele>
        <time>2020-02-13T16:10:20Z</time>
      </trkpt>
      <trkpt lat="59.217937" lon="18.141638">
        <ele>22</ele>
        <time>2020-02-13T16:10:21Z</time>
      </trkpt>
      <trkpt lat="59.217991" lon="18.141576">
        <ele>22</ele>
        <time>2020-02-13T16:10:23Z</time>
      </trkpt>
      <trkpt lat="59.218048" lon="18.141516">
        <ele>22</ele>
        <time>2020-02-13T16:10:23Z</time>
      </trkpt>
      <trkpt lat="59.218108" lon="18.141468">
        <ele>22</ele>
        <time>2020-02-13T16:10:24Z</time>
      </trkpt>
      <trkpt lat="59.218168" lon="18.141452">
        <ele>22</ele>
        <time>2020-02-13T16:10:25Z</time>
      </trkpt>
      <trkpt lat="59.218221" lon="18.141478">
        <ele>22</ele>
        <time>2020-02-13T16:10:26Z</time>
      </trkpt>
      <trkpt lat="59.218262" lon="18.141528">
        <ele>21</ele>
        <time>2020-02-13T16:10:27Z</time>
      </trkpt>
      <trkpt lat="59.218295" lon="18.141578">
        <ele>21</ele>
        <time>2020-02-13T16:10:29Z</time>
      </trkpt>
      <trkpt lat="59.218334" lon="18.141608">
        <ele>21</ele>
        <time>2020-02-13T16:10:29Z</time>
      </trkpt>
      <trkpt lat="59.218378" lon="18.141602">
        <ele>21</ele>
        <time>2020-02-13T16:10:30Z</time>
      </trkpt>
      <trkpt lat="59.218426" lon="18.14158">
        <ele>22</ele>
        <time>2020-02-13T16:10:31Z</time>
      </trkpt>
      <trkpt lat="59.218475" lon="18.141566">
        <ele>22</ele>
        <time>2020-02-13T16:10:32Z</time>
      </trkpt>
      <trkpt lat="59.218524" lon="18.141554">
        <ele>21</ele>
        <time>2020-02-13T16:10:33Z</time>
      </trkpt>
      <trkpt lat="59.218568" lon="18.14152">
        <ele>21</ele>
        <time>2020-02-13T16:10:34Z</time>
      </trkpt>
      <trkpt lat="59.218603" lon="18.14145">
        <ele>21</ele>
        <time>2020-02-13T16:10:35Z</time>
      </trkpt>
      <trkpt lat="59.218619" lon="18.141352">
        <ele>21</ele>
        <time>2020-02-13T16:10:36Z</time>
      </trkpt>
      <trkpt lat="59.218627" lon="18.141242">
        <ele>21</ele>
        <time>2020-02-13T16:10:37Z</time>
      </trkpt>
      <trkpt lat="59.218638" lon="18.14113">
        <ele>21</ele>
        <time>2020-02-13T16:10:39Z</time>
      </trkpt>
      <trkpt lat="59.218652" lon="18.141018">
        <ele>22</ele>
        <time>2020-02-13T16:10:39Z</time>
      </trkpt>
      <trkpt lat="59.218672" lon="18.140911">
        <ele>22</ele>
        <time>2020-02-13T16:10:40Z</time>
      </trkpt>
      <trkpt lat="59.218703" lon="18.140814">
        <ele>22</ele>
        <time>2020-02-13T16:10:42Z</time>
      </trkpt>
      <trkpt lat="59.218743" lon="18.140729">
        <ele>22</ele>
        <time>2020-02-13T16:10:42Z</time>
      </trkpt>
      <trkpt lat="59.21879" lon="18.140654">
        <ele>22</ele>
        <time>2020-02-13T16:10:43Z</time>
      </trkpt>
      <trkpt lat="59.218841" lon="18.140588">
        <ele>22</ele>
        <time>2020-02-13T16:10:44Z</time>
      </trkpt>
      <trkpt lat="59.218895" lon="18.140526">
        <ele>22</ele>
        <time>2020-02-13T16:10:45Z</time>
      </trkpt>
      <trkpt lat="59.21895" lon="18.140464">
        <ele>22</ele>
        <time>2020-02-13T16:10:47Z</time>
      </trkpt>
      <trkpt lat="59.219003" lon="18.140402">
        <ele>22</ele>
        <time>2020-02-13T16:10:47Z</time>
      </trkpt>
      <trkpt lat="59.219057" lon="18.14034">
        <ele>22</ele>
        <time>2020-02-13T16:10:48Z</time>
      </trkpt>
      <trkpt lat="59.21911" lon="18.140278">
        <ele>22</ele>
        <time>2020-02-13T16:10:49Z</time>
      </trkpt>
      <trkpt lat="59.219163" lon="18.140215">
        <ele>22</ele>
        <time>2020-02-13T16:10:50Z</time>
      </trkpt>
      <trkpt lat="59.219215" lon="18.140152">
        <ele>22</ele>
        <time>2020-02-13T16:10:51Z</time>
      </trkpt>
      <trkpt lat="59.219267" lon="18.14009">
        <ele>22</ele>
        <time>2020-02-13T16:10:52Z</time>
      </trkpt>
      <trkpt lat="59.219318" lon="18.140028">
        <ele>22</ele>
        <time>2020-02-13T16:10:53Z</time>
      </trkpt>
      <trkpt lat="59.21937" lon="18.139966">
        <ele>22</ele>
        <time>2020-02-13T16:10:55Z</time>
      </trkpt>
      <trkpt lat="59.219421" lon="18.139906">
        <ele>22</ele>
        <time>2020-02-13T16:10:55Z</time>
      </trkpt>
      <trkpt lat="59.219472" lon="18.139848">
        <ele>22</ele>
        <time>2020-02-13T16:10:56Z</time>
      </trkpt>
      <trkpt lat="59.219522" lon="18.139792">
        <ele>22</ele>
        <time>2020-02-13T16:10:57Z</time>
      </trkpt>
      <trkpt lat="59.21957" lon="18.139738">
        <ele>23</ele>
        <time>2020-02-13T16:10:58Z</time>
      </trkpt>
      <trkpt lat="59.219618" lon="18.139684">
        <ele>23</ele>
        <time>2020-02-13T16:10:59Z</time>
      </trkpt>
      <trkpt lat="59.219665" lon="18.139633">
        <ele>23</ele>
        <time>2020-02-13T16:11:01Z</time>
      </trkpt>
      <trkpt lat="59.219712" lon="18.139583">
        <ele>23</ele>
        <time>2020-02-13T16:11:01Z</time>
      </trkpt>
      <trkpt lat="59.219756" lon="18.139537">
        <ele>23</ele>
        <time>2020-02-13T16:11:02Z</time>
      </trkpt>
      <trkpt lat="59.2198" lon="18.139486">
        <ele>23</ele>
        <time>2020-02-13T16:11:04Z</time>
      </trkpt>
      <trkpt lat="59.219841" lon="18.139434">
        <ele>23</ele>
        <time>2020-02-13T16:11:04Z</time>
      </trkpt>
      <trkpt lat="59.219882" lon="18.139383">
        <ele>23</ele>
        <time>2020-02-13T16:11:05Z</time>
      </trkpt>
      <trkpt lat="59.21992" lon="18.139333">
        <ele>23</ele>
        <time>2020-02-13T16:11:06Z</time>
      </trkpt>
      <trkpt lat="59.219957" lon="18.139282">
        <ele>23</ele>
        <time>2020-02-13T16:11:07Z</time>
      </trkpt>
      <trkpt lat="59.219994" lon="18.139237">
        <ele>24</ele>
        <time>2020-02-13T16:11:08Z</time>
      </trkpt>
      <trkpt lat="59.220028" lon="18.139188">
        <ele>24</ele>
        <time>2020-02-13T16:11:09Z</time>
      </trkpt>
      <trkpt lat="59.220063" lon="18.139142">
        <ele>24</ele>
        <time>2020-02-13T16:11:10Z</time>
      </trkpt>
      <trkpt lat="59.220097" lon="18.139095">
        <ele>24</ele>
        <time>2020-02-13T16:11:11Z</time>
      </trkpt>
      <trkpt lat="59.22013" lon="18.139051">
        <ele>24</ele>
        <time>2020-02-13T16:11:12Z</time>
      </trkpt>
      <trkpt lat="59.220163" lon="18.13901">
        <ele>24</ele>
        <time>2020-02-13T16:11:13Z</time>
      </trkpt>
      <trkpt lat="59.220198" lon="18.138974">
        <ele>25</ele>
        <time>2020-02-13T16:11:14Z</time>
      </trkpt>
      <trkpt lat="59.220232" lon="18.13893">
        <ele>25</ele>
        <time>2020-02-13T16:11:16Z</time>
      </trkpt>
      <trkpt lat="59.220268" lon="18.13889">
        <ele>25</ele>
        <time>2020-02-13T16:11:16Z</time>
      </trkpt>
      <trkpt lat="59.220303" lon="18.138848">
        <ele>25</ele>
        <time>2020-02-13T16:11:17Z</time>
      </trkpt>
      <trkpt lat="59.220339" lon="18.138811">
        <ele>26</ele>
        <time>2020-02-13T16:11:18Z</time>
      </trkpt>
      <trkpt lat="59.220375" lon="18.138778">
        <ele>26</ele>
        <time>2020-02-13T16:11:20Z</time>
      </trkpt>
      <trkpt lat="59.220413" lon="18.138747">
        <ele>26</ele>
        <time>2020-02-13T16:11:20Z</time>
      </trkpt>
      <trkpt lat="59.22045" lon="18.138718">
        <ele>26</ele>
        <time>2020-02-13T16:11:21Z</time>
      </trkpt>
      <trkpt lat="59.220488" lon="18.138687">
        <ele>27</ele>
        <time>2020-02-13T16:11:22Z</time>
      </trkpt>
      <trkpt lat="59.220524" lon="18.138658">
        <ele>27</ele>
        <time>2020-02-13T16:11:23Z</time>
      </trkpt>
      <trkpt lat="59.220561" lon="18.138633">
        <ele>27</ele>
        <time>2020-02-13T16:11:24Z</time>
      </trkpt>
      <trkpt lat="59.2206" lon="18.138609">
        <ele>27</ele>
        <time>2020-02-13T16:11:25Z</time>
      </trkpt>
      <trkpt lat="59.220637" lon="18.138584">
        <ele>27</ele>
        <time>2020-02-13T16:11:26Z</time>
      </trkpt>
      <trkpt lat="59.220675" lon="18.13856">
        <ele>27</ele>
        <time>2020-02-13T16:11:28Z</time>
      </trkpt>
      <trkpt lat="59.220713" lon="18.13854">
        <ele>28</ele>
        <time>2020-02-13T16:11:28Z</time>
      </trkpt>
      <trkpt lat="59.22075" lon="18.138524">
        <ele>28</ele>
        <time>2020-02-13T16:11:29Z</time>
      </trkpt>
      <trkpt lat="59.220789" lon="18.138508">
        <ele>27</ele>
        <time>2020-02-13T16:11:30Z</time>
      </trkpt>
      <trkpt lat="59.220832" lon="18.138494">
        <ele>27</ele>
        <time>2020-02-13T16:11:31Z</time>
      </trkpt>
      <trkpt lat="59.220876" lon="18.138479">
        <ele>28</ele>
        <time>2020-02-13T16:11:32Z</time>
      </trkpt>
      <trkpt lat="59.220921" lon="18.138464">
        <ele>28</ele>
        <time>2020-02-13T16:11:33Z</time>
      </trkpt>
      <trkpt lat="59.220964" lon="18.138447">
        <ele>28</ele>
        <time>2020-02-13T16:11:34Z</time>
      </trkpt>
      <trkpt lat="59.221009" lon="18.138429">
        <ele>28</ele>
        <time>2020-02-13T16:11:36Z</time>
      </trkpt>
      <trkpt lat="59.221054" lon="18.13841">
        <ele>28</ele>
        <time>2020-02-13T16:11:36Z</time>
      </trkpt>
      <trkpt lat="59.221099" lon="18.13839">
        <ele>28</ele>
        <time>2020-02-13T16:11:37Z</time>
      </trkpt>
      <trkpt lat="59.221144" lon="18.138371">
        <ele>28</ele>
        <time>2020-02-13T16:11:39Z</time>
      </trkpt>
      <trkpt lat="59.221189" lon="18.138355">
        <ele>28</ele>
        <time>2020-02-13T16:11:40Z</time>
      </trkpt>
      <trkpt lat="59.221234" lon="18.138334">
        <ele>28</ele>
        <time>2020-02-13T16:11:40Z</time>
      </trkpt>
      <trkpt lat="59.221278" lon="18.138313">
        <ele>28</ele>
        <time>2020-02-13T16:11:41Z</time>
      </trkpt>
      <trkpt lat="59.221324" lon="18.138295">
        <ele>28</ele>
        <time>2020-02-13T16:11:42Z</time>
      </trkpt>
      <trkpt lat="59.221374" lon="18.138275">
        <ele>28</ele>
        <time>2020-02-13T16:11:43Z</time>
      </trkpt>
      <trkpt lat="59.221422" lon="18.138251">
        <ele>29</ele>
        <time>2020-02-13T16:11:44Z</time>
      </trkpt>
      <trkpt lat="59.221471" lon="18.138229">
        <ele>29</ele>
        <time>2020-02-13T16:11:45Z</time>
      </trkpt>
      <trkpt lat="59.221518" lon="18.13821">
        <ele>29</ele>
        <time>2020-02-13T16:11:46Z</time>
      </trkpt>
      <trkpt lat="59.221565" lon="18.138192">
        <ele>29</ele>
        <time>2020-02-13T16:11:47Z</time>
      </trkpt>
      <trkpt lat="59.221615" lon="18.138172">
        <ele>29</ele>
        <time>2020-02-13T16:11:48Z</time>
      </trkpt>
      <trkpt lat="59.221664" lon="18.13815">
        <ele>29</ele>
        <time>2020-02-13T16:11:50Z</time>
      </trkpt>
      <trkpt lat="59.221714" lon="18.138129">
        <ele>29</ele>
        <time>2020-02-13T16:11:50Z</time>
      </trkpt>
      <trkpt lat="59.221764" lon="18.138108">
        <ele>29</ele>
        <time>2020-02-13T16:11:51Z</time>
      </trkpt>
      <trkpt lat="59.221815" lon="18.138087">
        <ele>29</ele>
        <time>2020-02-13T16:11:52Z</time>
      </trkpt>
      <trkpt lat="59.221866" lon="18.138064">
        <ele>29</ele>
        <time>2020-02-13T16:11:53Z</time>
      </trkpt>
      <trkpt lat="59.221916" lon="18.138044">
        <ele>29</ele>
        <time>2020-02-13T16:11:54Z</time>
      </trkpt>
      <trkpt lat="59.221965" lon="18.138025">
        <ele>30</ele>
        <time>2020-02-13T16:11:55Z</time>
      </trkpt>
      <trkpt lat="59.222014" lon="18.138004">
        <ele>30</ele>
        <time>2020-02-13T16:11:56Z</time>
      </trkpt>
      <trkpt lat="59.222064" lon="18.137982">
        <ele>30</ele>
        <time>2020-02-13T16:11:58Z</time>
      </trkpt>
      <trkpt lat="59.222118" lon="18.137955">
        <ele>30</ele>
        <time>2020-02-13T16:11:59Z</time>
      </trkpt>
      <trkpt lat="59.222175" lon="18.137925">
        <ele>30</ele>
        <time>2020-02-13T16:11:59Z</time>
      </trkpt>
      <trkpt lat="59.222235" lon="18.137892">
        <ele>31</ele>
        <time>2020-02-13T16:12:00Z</time>
      </trkpt>
      <trkpt lat="59.2223" lon="18.137864">
        <ele>31</ele>
        <time>2020-02-13T16:12:01Z</time>
      </trkpt>
      <trkpt lat="59.222363" lon="18.137835">
        <ele>31</ele>
        <time>2020-02-13T16:12:02Z</time>
      </trkpt>
      <trkpt lat="59.222427" lon="18.137805">
        <ele>31</ele>
        <time>2020-02-13T16:12:03Z</time>
      </trkpt>
      <trkpt lat="59.22249" lon="18.137771">
        <ele>31</ele>
        <time>2020-02-13T16:12:04Z</time>
      </trkpt>
      <trkpt lat="59.222554" lon="18.137735">
        <ele>31</ele>
        <time>2020-02-13T16:12:05Z</time>
      </trkpt>
      <trkpt lat="59.222619" lon="18.137696">
        <ele>32</ele>
        <time>2020-02-13T16:12:07Z</time>
      </trkpt>
      <trkpt lat="59.222678" lon="18.137652">
        <ele>32</ele>
        <time>2020-02-13T16:12:07Z</time>
      </trkpt>
      <trkpt lat="59.222735" lon="18.137605">
        <ele>32</ele>
        <time>2020-02-13T16:12:08Z</time>
      </trkpt>
      <trkpt lat="59.222791" lon="18.137558">
        <ele>32</ele>
        <time>2020-02-13T16:12:09Z</time>
      </trkpt>
      <trkpt lat="59.22285" lon="18.137508">
        <ele>32</ele>
        <time>2020-02-13T16:12:10Z</time>
      </trkpt>
      <trkpt lat="59.222907" lon="18.137453">
        <ele>32</ele>
        <time>2020-02-13T16:12:11Z</time>
      </trkpt>
      <trkpt lat="59.222961" lon="18.137396">
        <ele>32</ele>
        <time>2020-02-13T16:12:12Z</time>
      </trkpt>
      <trkpt lat="59.22301" lon="18.137337">
        <ele>31</ele>
        <time>2020-02-13T16:12:13Z</time>
      </trkpt>
      <trkpt lat="59.223059" lon="18.137275">
        <ele>31</ele>
        <time>2020-02-13T16:12:15Z</time>
      </trkpt>
      <trkpt lat="59.22311" lon="18.137206">
        <ele>31</ele>
        <time>2020-02-13T16:12:15Z</time>
      </trkpt>
      <trkpt lat="59.223161" lon="18.137134">
        <ele>31</ele>
        <time>2020-02-13T16:12:17Z</time>
      </trkpt>
      <trkpt lat="59.223211" lon="18.137061">
        <ele>31</ele>
        <time>2020-02-13T16:12:17Z</time>
      </trkpt>
      <trkpt lat="59.223265" lon="18.136981">
        <ele>31</ele>
        <time>2020-02-13T16:12:18Z</time>
      </trkpt>
      <trkpt lat="59.223321" lon="18.136898">
        <ele>31</ele>
        <time>2020-02-13T16:12:19Z</time>
      </trkpt>
      <trkpt lat="59.223374" lon="18.13681">
        <ele>31</ele>
        <time>2020-02-13T16:12:20Z</time>
      </trkpt>
      <trkpt lat="59.223425" lon="18.136719">
        <ele>32</ele>
        <time>2020-02-13T16:12:21Z</time>
      </trkpt>
      <trkpt lat="59.223475" lon="18.136628">
        <ele>32</ele>
        <time>2020-02-13T16:12:23Z</time>
      </trkpt>
      <trkpt lat="59.223524" lon="18.136535">
        <ele>32</ele>
        <time>2020-02-13T16:12:23Z</time>
      </trkpt>
      <trkpt lat="59.223573" lon="18.13644">
        <ele>32</ele>
        <time>2020-02-13T16:12:24Z</time>
      </trkpt>
      <trkpt lat="59.22362" lon="18.136343">
        <ele>32</ele>
        <time>2020-02-13T16:12:25Z</time>
      </trkpt>
      <trkpt lat="59.223666" lon="18.136244">
        <ele>32</ele>
        <time>2020-02-13T16:12:26Z</time>
      </trkpt>
      <trkpt lat="59.22371" lon="18.136141">
        <ele>32</ele>
        <time>2020-02-13T16:12:27Z</time>
      </trkpt>
      <trkpt lat="59.223753" lon="18.136037">
        <ele>32</ele>
        <time>2020-02-13T16:12:28Z</time>
      </trkpt>
      <trkpt lat="59.223796" lon="18.135931">
        <ele>32</ele>
        <time>2020-02-13T16:12:30Z</time>
      </trkpt>
      <trkpt lat="59.223837" lon="18.135826">
        <ele>32</ele>
        <time>2020-02-13T16:12:30Z</time>
      </trkpt>
      <trkpt lat="59.223881" lon="18.13572">
        <ele>32</ele>
        <time>2020-02-13T16:12:31Z</time>
      </trkpt>
      <trkpt lat="59.223924" lon="18.135612">
        <ele>32</ele>
        <time>2020-02-13T16:12:32Z</time>
      </trkpt>
      <trkpt lat="59.223968" lon="18.135501">
        <ele>32</ele>
        <time>2020-02-13T16:12:33Z</time>
      </trkpt>
      <trkpt lat="59.224012" lon="18.13539">
        <ele>32</ele>
        <time>2020-02-13T16:12:34Z</time>
      </trkpt>
      <trkpt lat="59.224058" lon="18.135276">
        <ele>32</ele>
        <time>2020-02-13T16:12:36Z</time>
      </trkpt>
      <trkpt lat="59.224104" lon="18.135161">
        <ele>32</ele>
        <time>2020-02-13T16:12:37Z</time>
      </trkpt>
      <trkpt lat="59.224149" lon="18.135049">
        <ele>32</ele>
        <time>2020-02-13T16:12:37Z</time>
      </trkpt>
      <trkpt lat="59.224193" lon="18.134936">
        <ele>32</ele>
        <time>2020-02-13T16:12:38Z</time>
      </trkpt>
      <trkpt lat="59.224237" lon="18.134821">
        <ele>32</ele>
        <time>2020-02-13T16:12:39Z</time>
      </trkpt>
      <trkpt lat="59.224279" lon="18.134709">
        <ele>32</ele>
        <time>2020-02-13T16:12:40Z</time>
      </trkpt>
      <trkpt lat="59.224323" lon="18.134594">
        <ele>32</ele>
        <time>2020-02-13T16:12:41Z</time>
      </trkpt>
      <trkpt lat="59.224366" lon="18.134476">
        <ele>31</ele>
        <time>2020-02-13T16:12:42Z</time>
      </trkpt>
      <trkpt lat="59.22441" lon="18.134359">
        <ele>31</ele>
        <time>2020-02-13T16:12:44Z</time>
      </trkpt>
      <trkpt lat="59.224452" lon="18.134246">
        <ele>31</ele>
        <time>2020-02-13T16:12:44Z</time>
      </trkpt>
      <trkpt lat="59.224496" lon="18.134138">
        <ele>31</ele>
        <time>2020-02-13T16:12:45Z</time>
      </trkpt>
      <trkpt lat="59.22454" lon="18.13403">
        <ele>31</ele>
        <time>2020-02-13T16:12:46Z</time>
      </trkpt>
      <trkpt lat="59.224582" lon="18.133925">
        <ele>31</ele>
        <time>2020-02-13T16:12:47Z</time>
      </trkpt>
      <trkpt lat="59.224624" lon="18.133823">
        <ele>31</ele>
        <time>2020-02-13T16:12:48Z</time>
      </trkpt>
      <trkpt lat="59.224668" lon="18.133729">
        <ele>31</ele>
        <time>2020-02-13T16:12:49Z</time>
      </trkpt>
      <trkpt lat="59.224709" lon="18.133637">
        <ele>31</ele>
        <time>2020-02-13T16:12:51Z</time>
      </trkpt>
      <trkpt lat="59.224749" lon="18.133547">
        <ele>31</ele>
        <time>2020-02-13T16:12:51Z</time>
      </trkpt>
      <trkpt lat="59.224788" lon="18.133464">
        <ele>32</ele>
        <time>2020-02-13T16:12:52Z</time>
      </trkpt>
      <trkpt lat="59.224826" lon="18.133387">
        <ele>32</ele>
        <time>2020-02-13T16:12:53Z</time>
      </trkpt>
      <trkpt lat="59.224862" lon="18.133317">
        <ele>32</ele>
        <time>2020-02-13T16:12:55Z</time>
      </trkpt>
      <trkpt lat="59.224898" lon="18.133248">
        <ele>32</ele>
        <time>2020-02-13T16:12:55Z</time>
      </trkpt>
      <trkpt lat="59.224933" lon="18.13318">
        <ele>32</ele>
        <time>2020-02-13T16:12:56Z</time>
      </trkpt>
      <trkpt lat="59.224969" lon="18.133117">
        <ele>32</ele>
        <time>2020-02-13T16:12:57Z</time>
      </trkpt>
      <trkpt lat="59.225004" lon="18.133058">
        <ele>32</ele>
        <time>2020-02-13T16:12:58Z</time>
      </trkpt>
      <trkpt lat="59.225041" lon="18.133">
        <ele>32</ele>
        <time>2020-02-13T16:12:59Z</time>
      </trkpt>
      <trkpt lat="59.225077" lon="18.132936">
        <ele>32</ele>
        <time>2020-02-13T16:13:01Z</time>
      </trkpt>
      <trkpt lat="59.225113" lon="18.132872">
        <ele>32</ele>
        <time>2020-02-13T16:13:01Z</time>
      </trkpt>
      <trkpt lat="59.225148" lon="18.132809">
        <ele>33</ele>
        <time>2020-02-13T16:13:02Z</time>
      </trkpt>
      <trkpt lat="59.225182" lon="18.132749">
        <ele>33</ele>
        <time>2020-02-13T16:13:03Z</time>
      </trkpt>
      <trkpt lat="59.225216" lon="18.132691">
        <ele>33</ele>
        <time>2020-02-13T16:13:04Z</time>
      </trkpt>
      <trkpt lat="59.22525" lon="18.132637">
        <ele>34</ele>
        <time>2020-02-13T16:13:05Z</time>
      </trkpt>
      <trkpt lat="59.225285" lon="18.132582">
        <ele>34</ele>
        <time>2020-02-13T16:13:06Z</time>
      </trkpt>
      <trkpt lat="59.225321" lon="18.13253">
        <ele>34</ele>
        <time>2020-02-13T16:13:07Z</time>
      </trkpt>
      <trkpt lat="59.225356" lon="18.132478">
        <ele>34</ele>
        <time>2020-02-13T16:13:08Z</time>
      </trkpt>
      <trkpt lat="59.225392" lon="18.132423">
        <ele>34</ele>
        <time>2020-02-13T16:13:09Z</time>
      </trkpt>
      <trkpt lat="59.225428" lon="18.132372">
        <ele>34</ele>
        <time>2020-02-13T16:13:10Z</time>
      </trkpt>
      <trkpt lat="59.225458" lon="18.132326">
        <ele>34</ele>
        <time>2020-02-13T16:13:12Z</time>
      </trkpt>
      <trkpt lat="59.225484" lon="18.132274">
        <ele>35</ele>
        <time>2020-02-13T16:13:12Z</time>
      </trkpt>
      <trkpt lat="59.225513" lon="18.132208">
        <ele>35</ele>
        <time>2020-02-13T16:13:14Z</time>
      </trkpt>
      <trkpt lat="59.225543" lon="18.132138">
        <ele>35</ele>
        <time>2020-02-13T16:13:14Z</time>
      </trkpt>
      <trkpt lat="59.225578" lon="18.132083">
        <ele>35</ele>
        <time>2020-02-13T16:13:15Z</time>
      </trkpt>
      <trkpt lat="59.225614" lon="18.132032">
        <ele>35</ele>
        <time>2020-02-13T16:13:16Z</time>
      </trkpt>
      <trkpt lat="59.22565" lon="18.131985">
        <ele>35</ele>
        <time>2020-02-13T16:13:17Z</time>
      </trkpt>
      <trkpt lat="59.225683" lon="18.131927">
        <ele>35</ele>
        <time>2020-02-13T16:13:18Z</time>
      </trkpt>
      <trkpt lat="59.225708" lon="18.13185">
        <ele>36</ele>
        <time>2020-02-13T16:13:19Z</time>
      </trkpt>
      <trkpt lat="59.225724" lon="18.13176">
        <ele>36</ele>
        <time>2020-02-13T16:13:20Z</time>
      </trkpt>
      <trkpt lat="59.22574" lon="18.131663">
        <ele>36</ele>
        <time>2020-02-13T16:13:21Z</time>
      </trkpt>
      <trkpt lat="59.225759" lon="18.131569">
        <ele>36</ele>
        <time>2020-02-13T16:13:23Z</time>
      </trkpt>
      <trkpt lat="59.225784" lon="18.131483">
        <ele>36</ele>
        <time>2020-02-13T16:13:23Z</time>
      </trkpt>
      <trkpt lat="59.22582" lon="18.13141">
        <ele>36</ele>
        <time>2020-02-13T16:13:24Z</time>
      </trkpt>
      <trkpt lat="59.225859" lon="18.131345">
        <ele>36</ele>
        <time>2020-02-13T16:13:25Z</time>
      </trkpt>
      <trkpt lat="59.225901" lon="18.131287">
        <ele>36</ele>
        <time>2020-02-13T16:13:26Z</time>
      </trkpt>
      <trkpt lat="59.225942" lon="18.13123">
        <ele>36</ele>
        <time>2020-02-13T16:13:27Z</time>
      </trkpt>
      <trkpt lat="59.225984" lon="18.131175">
        <ele>36</ele>
        <time>2020-02-13T16:13:28Z</time>
      </trkpt>
      <trkpt lat="59.226026" lon="18.131121">
        <ele>37</ele>
        <time>2020-02-13T16:13:29Z</time>
      </trkpt>
      <trkpt lat="59.226066" lon="18.131065">
        <ele>37</ele>
        <time>2020-02-13T16:13:30Z</time>
      </trkpt>
      <trkpt lat="59.226107" lon="18.131008">
        <ele>37</ele>
        <time>2020-02-13T16:13:31Z</time>
      </trkpt>
      <trkpt lat="59.226148" lon="18.13095">
        <ele>0</ele>
        <time>2020-02-13T16:13:32Z</time>
      </trkpt>
      <trkpt lat="59.226189" lon="18.130891">
        <ele>37</ele>
        <time>2020-02-13T16:13:33Z</time>
      </trkpt>
      <trkpt lat="59.226231" lon="18.130832">
        <ele>37</ele>
        <time>2020-02-13T16:13:34Z</time>
      </trkpt>
      <trkpt lat="59.226273" lon="18.130776">
        <ele>37</ele>
        <time>2020-02-13T16:13:35Z</time>
      </trkpt>
      <trkpt lat="59.226316" lon="18.13072">
        <ele>37</ele>
        <time>2020-02-13T16:13:36Z</time>
      </trkpt>
      <trkpt lat="59.226358" lon="18.130664">
        <ele>37</ele>
        <time>2020-02-13T16:13:37Z</time>
      </trkpt>
      <trkpt lat="59.226401" lon="18.130609">
        <ele>37</ele>
        <time>2020-02-13T16:13:38Z</time>
      </trkpt>
      <trkpt lat="59.226441" lon="18.13055">
        <ele>38</ele>
        <time>2020-02-13T16:13:39Z</time>
      </trkpt>
      <trkpt lat="59.226479" lon="18.130489">
        <ele>38</ele>
        <time>2020-02-13T16:13:40Z</time>
      </trkpt>
      <trkpt lat="59.226516" lon="18.130427">
        <ele>38</ele>
        <time>2020-02-13T16:13:41Z</time>
      </trkpt>
      <trkpt lat="59.226551" lon="18.130362">
        <ele>38</ele>
        <time>2020-02-13T16:13:43Z</time>
      </trkpt>
      <trkpt lat="59.226585" lon="18.130293">
        <ele>38</ele>
        <time>2020-02-13T16:13:43Z</time>
      </trkpt>
      <trkpt lat="59.226616" lon="18.130219">
        <ele>38</ele>
        <time>2020-02-13T16:13:44Z</time>
      </trkpt>
      <trkpt lat="59.226643" lon="18.13014">
        <ele>38</ele>
        <time>2020-02-13T16:13:45Z</time>
      </trkpt>
      <trkpt lat="59.226669" lon="18.130059">
        <ele>39</ele>
        <time>2020-02-13T16:13:46Z</time>
      </trkpt>
      <trkpt lat="59.226696" lon="18.129981">
        <ele>39</ele>
        <time>2020-02-13T16:13:47Z</time>
      </trkpt>
      <trkpt lat="59.226723" lon="18.129905">
        <ele>39</ele>
        <time>2020-02-13T16:13:48Z</time>
      </trkpt>
      <trkpt lat="59.22675" lon="18.129832">
        <ele>39</ele>
        <time>2020-02-13T16:13:49Z</time>
      </trkpt>
      <trkpt lat="59.226778" lon="18.129759">
        <ele>39</ele>
        <time>2020-02-13T16:13:50Z</time>
      </trkpt>
      <trkpt lat="59.226805" lon="18.129684">
        <ele>39</ele>
        <time>2020-02-13T16:13:52Z</time>
      </trkpt>
      <trkpt lat="59.226833" lon="18.129609">
        <ele>40</ele>
        <time>2020-02-13T16:13:53Z</time>
      </trkpt>
      <trkpt lat="59.226859" lon="18.129532">
        <ele>40</ele>
        <time>2020-02-13T16:13:53Z</time>
      </trkpt>
      <trkpt lat="59.226884" lon="18.129457">
        <ele>40</ele>
        <time>2020-02-13T16:13:54Z</time>
      </trkpt>
      <trkpt lat="59.226907" lon="18.129381">
        <ele>40</ele>
        <time>2020-02-13T16:13:55Z</time>
      </trkpt>
      <trkpt lat="59.226931" lon="18.129307">
        <ele>40</ele>
        <time>2020-02-13T16:13:56Z</time>
      </trkpt>
      <trkpt lat="59.226956" lon="18.12923">
        <ele>40</ele>
        <time>2020-02-13T16:13:57Z</time>
      </trkpt>
      <trkpt lat="59.226981" lon="18.129154">
        <ele>40</ele>
        <time>2020-02-13T16:13:58Z</time>
      </trkpt>
      <trkpt lat="59.227004" lon="18.129079">
        <ele>40</ele>
        <time>2020-02-13T16:13:59Z</time>
      </trkpt>
      <trkpt lat="59.227026" lon="18.129006">
        <ele>41</ele>
        <time>2020-02-13T16:14:00Z</time>
      </trkpt>
      <trkpt lat="59.227049" lon="18.128935">
        <ele>41</ele>
        <time>2020-02-13T16:14:01Z</time>
      </trkpt>
      <trkpt lat="59.227074" lon="18.128865">
        <ele>41</ele>
        <time>2020-02-13T16:14:02Z</time>
      </trkpt>
      <trkpt lat="59.227101" lon="18.128795">
        <ele>41</ele>
        <time>2020-02-13T16:14:04Z</time>
      </trkpt>
      <trkpt lat="59.227128" lon="18.128718">
        <ele>41</ele>
        <time>2020-02-13T16:14:04Z</time>
      </trkpt>
      <trkpt lat="59.227157" lon="18.128639">
        <ele>42</ele>
        <time>2020-02-13T16:14:05Z</time>
      </trkpt>
      <trkpt lat="59.227184" lon="18.128558">
        <ele>42</ele>
        <time>2020-02-13T16:14:06Z</time>
      </trkpt>
      <trkpt lat="59.227213" lon="18.128472">
        <ele>42</ele>
        <time>2020-02-13T16:14:07Z</time>
      </trkpt>
      <trkpt lat="59.227242" lon="18.128386">
        <ele>42</ele>
        <time>2020-02-13T16:14:08Z</time>
      </trkpt>
      <trkpt lat="59.227271" lon="18.128302">
        <ele>42</ele>
        <time>2020-02-13T16:14:09Z</time>
      </trkpt>
      <trkpt lat="59.227301" lon="18.128218">
        <ele>42</ele>
        <time>2020-02-13T16:14:11Z</time>
      </trkpt>
      <trkpt lat="59.22733" lon="18.128136">
        <ele>42</ele>
        <time>2020-02-13T16:14:11Z</time>
      </trkpt>
      <trkpt lat="59.227357" lon="18.128053">
        <ele>43</ele>
        <time>2020-02-13T16:14:12Z</time>
      </trkpt>
      <trkpt lat="59.227385" lon="18.127974">
        <ele>43</ele>
        <time>2020-02-13T16:14:14Z</time>
      </trkpt>
      <trkpt lat="59.227414" lon="18.127892">
        <ele>43</ele>
        <time>2020-02-13T16:14:14Z</time>
      </trkpt>
      <trkpt lat="59.227443" lon="18.127812">
        <ele>43</ele>
        <time>2020-02-13T16:14:15Z</time>
      </trkpt>
      <trkpt lat="59.227473" lon="18.127733">
        <ele>43</ele>
        <time>2020-02-13T16:14:16Z</time>
      </trkpt>
      <trkpt lat="59.227501" lon="18.127653">
        <ele>43</ele>
        <time>2020-02-13T16:14:17Z</time>
      </trkpt>
      <trkpt lat="59.227531" lon="18.127574">
        <ele>43</ele>
        <time>2020-02-13T16:14:18Z</time>
      </trkpt>
      <trkpt lat="59.227561" lon="18.127497">
        <ele>43</ele>
        <time>2020-02-13T16:14:19Z</time>
      </trkpt>
      <trkpt lat="59.227592" lon="18.127424">
        <ele>44</ele>
        <time>2020-02-13T16:14:20Z</time>
      </trkpt>
      <trkpt lat="59.227624" lon="18.127353">
        <ele>44</ele>
        <time>2020-02-13T16:14:22Z</time>
      </trkpt>
      <trkpt lat="59.227653" lon="18.127279">
        <ele>44</ele>
        <time>2020-02-13T16:14:22Z</time>
      </trkpt>
      <trkpt lat="59.22768" lon="18.127204">
        <ele>44</ele>
        <time>2020-02-13T16:14:24Z</time>
      </trkpt>
      <trkpt lat="59.227705" lon="18.127125">
        <ele>45</ele>
        <time>2020-02-13T16:14:24Z</time>
      </trkpt>
      <trkpt lat="59.227726" lon="18.127046">
        <ele>45</ele>
        <time>2020-02-13T16:14:25Z</time>
      </trkpt>
      <trkpt lat="59.227745" lon="18.126962">
        <ele>45</ele>
        <time>2020-02-13T16:14:26Z</time>
      </trkpt>
      <trkpt lat="59.22776" lon="18.126874">
        <ele>44</ele>
        <time>2020-02-13T16:14:27Z</time>
      </trkpt>
      <trkpt lat="59.227772" lon="18.126781">
        <ele>44</ele>
        <time>2020-02-13T16:14:28Z</time>
      </trkpt>
      <trkpt lat="59.227785" lon="18.126691">
        <ele>44</ele>
        <time>2020-02-13T16:14:30Z</time>
      </trkpt>
      <trkpt lat="59.227803" lon="18.126604">
        <ele>44</ele>
        <time>2020-02-13T16:14:30Z</time>
      </trkpt>
      <trkpt lat="59.227836" lon="18.12654">
        <ele>44</ele>
        <time>2020-02-13T16:14:31Z</time>
      </trkpt>
      <trkpt lat="59.227883" lon="18.126507">
        <ele>44</ele>
        <time>2020-02-13T16:14:32Z</time>
      </trkpt>
      <trkpt lat="59.227933" lon="18.126491">
        <ele>44</ele>
        <time>2020-02-13T16:14:33Z</time>
      </trkpt>
      <trkpt lat="59.227983" lon="18.126481">
        <ele>43</ele>
        <time>2020-02-13T16:14:35Z</time>
      </trkpt>
      <trkpt lat="59.228035" lon="18.126472">
        <ele>43</ele>
        <time>2020-02-13T16:14:35Z</time>
      </trkpt>
      <trkpt lat="59.228088" lon="18.126463">
        <ele>43</ele>
        <time>2020-02-13T16:14:36Z</time>
      </trkpt>
      <trkpt lat="59.228143" lon="18.126454">
        <ele>42</ele>
        <time>2020-02-13T16:14:37Z</time>
      </trkpt>
      <trkpt lat="59.228202" lon="18.126446">
        <ele>42</ele>
        <time>2020-02-13T16:14:38Z</time>
      </trkpt>
      <trkpt lat="59.228262" lon="18.126436">
        <ele>42</ele>
        <time>2020-02-13T16:14:39Z</time>
      </trkpt>
      <trkpt lat="59.228324" lon="18.126428">
        <ele>41</ele>
        <time>2020-02-13T16:14:40Z</time>
      </trkpt>
      <trkpt lat="59.228389" lon="18.126424">
        <ele>41</ele>
        <time>2020-02-13T16:14:41Z</time>
      </trkpt>
      <trkpt lat="59.228458" lon="18.12643">
        <ele>41</ele>
        <time>2020-02-13T16:14:43Z</time>
      </trkpt>
      <trkpt lat="59.228531" lon="18.126424">
        <ele>41</ele>
        <time>2020-02-13T16:14:43Z</time>
      </trkpt>
      <trkpt lat="59.228601" lon="18.126383">
        <ele>41</ele>
        <time>2020-02-13T16:14:44Z</time>
      </trkpt>
      <trkpt lat="59.228662" lon="18.126307">
        <ele>40</ele>
        <time>2020-02-13T16:14:45Z</time>
      </trkpt>
      <trkpt lat="59.228715" lon="18.126207">
        <ele>40</ele>
        <time>2020-02-13T16:14:46Z</time>
      </trkpt>
      <trkpt lat="59.228768" lon="18.126099">
        <ele>40</ele>
        <time>2020-02-13T16:14:47Z</time>
      </trkpt>
      <trkpt lat="59.22882" lon="18.125987">
        <ele>40</ele>
        <time>2020-02-13T16:14:49Z</time>
      </trkpt>
      <trkpt lat="59.228876" lon="18.125869">
        <ele>40</ele>
        <time>2020-02-13T16:14:50Z</time>
      </trkpt>
      <trkpt lat="59.228931" lon="18.125747">
        <ele>40</ele>
        <time>2020-02-13T16:14:50Z</time>
      </trkpt>
      <trkpt lat="59.228986" lon="18.125632">
        <ele>40</ele>
        <time>2020-02-13T16:14:51Z</time>
      </trkpt>
      <trkpt lat="59.22904" lon="18.12552">
        <ele>40</ele>
        <time>2020-02-13T16:14:52Z</time>
      </trkpt>
      <trkpt lat="59.229093" lon="18.125408">
        <ele>40</ele>
        <time>2020-02-13T16:14:53Z</time>
      </trkpt>
      <trkpt lat="59.229143" lon="18.125301">
        <ele>40</ele>
        <time>2020-02-13T16:14:54Z</time>
      </trkpt>
      <trkpt lat="59.22919" lon="18.1252">
        <ele>40</ele>
        <time>2020-02-13T16:14:56Z</time>
      </trkpt>
      <trkpt lat="59.229236" lon="18.125092">
        <ele>39</ele>
        <time>2020-02-13T16:14:56Z</time>
      </trkpt>
      <trkpt lat="59.229274" lon="18.12497">
        <ele>39</ele>
        <time>2020-02-13T16:14:57Z</time>
      </trkpt>
      <trkpt lat="59.229302" lon="18.12486">
        <ele>38</ele>
        <time>2020-02-13T16:14:58Z</time>
      </trkpt>
      <trkpt lat="59.229318" lon="18.124773">
        <ele>38</ele>
        <time>2020-02-13T16:14:59Z</time>
      </trkpt>
      <trkpt lat="59.229336" lon="18.124668">
        <ele>38</ele>
        <time>2020-02-13T16:15:01Z</time>
      </trkpt>
      <trkpt lat="59.229347" lon="18.124544">
        <ele>38</ele>
        <time>2020-02-13T16:15:01Z</time>
      </trkpt>
      <trkpt lat="59.229357" lon="18.124406">
        <ele>38</ele>
        <time>2020-02-13T16:15:02Z</time>
      </trkpt>
      <trkpt lat="59.229375" lon="18.124278">
        <ele>38</ele>
        <time>2020-02-13T16:15:04Z</time>
      </trkpt>
      <trkpt lat="59.229404" lon="18.124165">
        <ele>38</ele>
        <time>2020-02-13T16:15:04Z</time>
      </trkpt>
      <trkpt lat="59.229447" lon="18.124087">
        <ele>38</ele>
        <time>2020-02-13T16:15:05Z</time>
      </trkpt>
      <trkpt lat="59.229496" lon="18.12403">
        <ele>38</ele>
        <time>2020-02-13T16:15:06Z</time>
      </trkpt>
      <trkpt lat="59.229548" lon="18.123972">
        <ele>38</ele>
        <time>2020-02-13T16:15:08Z</time>
      </trkpt>
      <trkpt lat="59.229601" lon="18.123915">
        <ele>38</ele>
        <time>2020-02-13T16:15:08Z</time>
      </trkpt>
      <trkpt lat="59.229655" lon="18.123858">
        <ele>38</ele>
        <time>2020-02-13T16:15:09Z</time>
      </trkpt>
      <trkpt lat="59.229708" lon="18.123801">
        <ele>38</ele>
        <time>2020-02-13T16:15:10Z</time>
      </trkpt>
      <trkpt lat="59.229762" lon="18.123745">
        <ele>37</ele>
        <time>2020-02-13T16:15:12Z</time>
      </trkpt>
      <trkpt lat="59.229817" lon="18.123692">
        <ele>37</ele>
        <time>2020-02-13T16:15:12Z</time>
      </trkpt>
      <trkpt lat="59.229871" lon="18.123637">
        <ele>37</ele>
        <time>2020-02-13T16:15:13Z</time>
      </trkpt>
      <trkpt lat="59.229925" lon="18.12358">
        <ele>37</ele>
        <time>2020-02-13T16:15:14Z</time>
      </trkpt>
      <trkpt lat="59.229978" lon="18.123516">
        <ele>37</ele>
        <time>2020-02-13T16:15:15Z</time>
      </trkpt>
      <trkpt lat="59.230025" lon="18.123433">
        <ele>37</ele>
        <time>2020-02-13T16:15:16Z</time>
      </trkpt>
      <trkpt lat="59.230057" lon="18.123329">
        <ele>36</ele>
        <time>2020-02-13T16:15:17Z</time>
      </trkpt>
      <trkpt lat="59.230071" lon="18.123203">
        <ele>36</ele>
        <time>2020-02-13T16:15:18Z</time>
      </trkpt>
      <trkpt lat="59.230073" lon="18.123069">
        <ele>36</ele>
        <time>2020-02-13T16:15:20Z</time>
      </trkpt>
      <trkpt lat="59.230062" lon="18.122934">
        <ele>36</ele>
        <time>2020-02-13T16:15:20Z</time>
      </trkpt>
      <trkpt lat="59.230037" lon="18.122799">
        <ele>36</ele>
        <time>2020-02-13T16:15:21Z</time>
      </trkpt>
      <trkpt lat="59.230004" lon="18.122671">
        <ele>35</ele>
        <time>2020-02-13T16:15:22Z</time>
      </trkpt>
      <trkpt lat="59.229964" lon="18.122544">
        <ele>35</ele>
        <time>2020-02-13T16:15:23Z</time>
      </trkpt>
      <trkpt lat="59.229921" lon="18.122415">
        <ele>35</ele>
        <time>2020-02-13T16:15:24Z</time>
      </trkpt>
      <trkpt lat="59.229879" lon="18.122286">
        <ele>35</ele>
        <time>2020-02-13T16:15:25Z</time>
      </trkpt>
      <trkpt lat="59.229841" lon="18.122155">
        <ele>0</ele>
        <time>2020-02-13T16:15:26Z</time>
      </trkpt>
      <trkpt lat="59.229808" lon="18.122022">
        <ele>35</ele>
        <time>2020-02-13T16:15:27Z</time>
      </trkpt>
      <trkpt lat="59.229786" lon="18.12189">
        <ele>35</ele>
        <time>2020-02-13T16:15:29Z</time>
      </trkpt>
      <trkpt lat="59.229784" lon="18.121763">
        <ele>35</ele>
        <time>2020-02-13T16:15:29Z</time>
      </trkpt>
      <trkpt lat="59.229803" lon="18.12165">
        <ele>35</ele>
        <time>2020-02-13T16:15:30Z</time>
      </trkpt>
      <trkpt lat="59.229842" lon="18.121563">
        <ele>35</ele>
        <time>2020-02-13T16:15:31Z</time>
      </trkpt>
      <trkpt lat="59.229887" lon="18.121505">
        <ele>35</ele>
        <time>2020-02-13T16:15:32Z</time>
      </trkpt>
      <trkpt lat="59.229934" lon="18.121461">
        <ele>36</ele>
        <time>2020-02-13T16:15:33Z</time>
      </trkpt>
      <trkpt lat="59.229978" lon="18.12142">
        <ele>36</ele>
        <time>2020-02-13T16:15:35Z</time>
      </trkpt>
      <trkpt lat="59.23002" lon="18.121379">
        <ele>36</ele>
        <time>2020-02-13T16:15:35Z</time>
      </trkpt>
      <trkpt lat="59.230057" lon="18.121337">
        <ele>36</ele>
        <time>2020-02-13T16:15:36Z</time>
      </trkpt>
      <trkpt lat="59.23009" lon="18.121294">
        <ele>36</ele>
        <time>2020-02-13T16:15:37Z</time>
      </trkpt>
      <trkpt lat="59.230131" lon="18.121257">
        <ele>36</ele>
        <time>2020-02-13T16:15:38Z</time>
      </trkpt>
      <trkpt lat="59.230177" lon="18.121219">
        <ele>37</ele>
        <time>2020-02-13T16:15:39Z</time>
      </trkpt>
      <trkpt lat="59.230225" lon="18.121189">
        <ele>37</ele>
        <time>2020-02-13T16:15:40Z</time>
      </trkpt>
      <trkpt lat="59.230273" lon="18.121166">
        <ele>37</ele>
        <time>2020-02-13T16:15:41Z</time>
      </trkpt>
      <trkpt lat="59.23032" lon="18.121149">
        <ele>37</ele>
        <time>2020-02-13T16:15:42Z</time>
      </trkpt>
      <trkpt lat="59.230365" lon="18.121141">
        <ele>37</ele>
        <time>2020-02-13T16:15:43Z</time>
      </trkpt>
      <trkpt lat="59.230411" lon="18.121138">
        <ele>37</ele>
        <time>2020-02-13T16:15:44Z</time>
      </trkpt>
      <trkpt lat="59.230455" lon="18.121137">
        <ele>0</ele>
        <time>2020-02-13T16:15:45Z</time>
      </trkpt>
      <trkpt lat="59.2305" lon="18.121136">
        <ele>37</ele>
        <time>2020-02-13T16:15:46Z</time>
      </trkpt>
      <trkpt lat="59.230545" lon="18.121131">
        <ele>37</ele>
        <time>2020-02-13T16:15:47Z</time>
      </trkpt>
      <trkpt lat="59.230589" lon="18.121123">
        <ele>38</ele>
        <time>2020-02-13T16:15:48Z</time>
      </trkpt>
      <trkpt lat="59.230632" lon="18.121112">
        <ele>38</ele>
        <time>2020-02-13T16:15:49Z</time>
      </trkpt>
      <trkpt lat="59.230673" lon="18.121096">
        <ele>38</ele>
        <time>2020-02-13T16:15:50Z</time>
      </trkpt>
      <trkpt lat="59.230715" lon="18.121072">
        <ele>38</ele>
        <time>2020-02-13T16:15:51Z</time>
      </trkpt>
      <trkpt lat="59.230756" lon="18.121044">
        <ele>38</ele>
        <time>2020-02-13T16:15:52Z</time>
      </trkpt>
      <trkpt lat="59.230796" lon="18.121017">
        <ele>38</ele>
        <time>2020-02-13T16:15:53Z</time>
      </trkpt>
      <trkpt lat="59.230838" lon="18.12099">
        <ele>38</ele>
        <time>2020-02-13T16:15:54Z</time>
      </trkpt>
      <trkpt lat="59.230875" lon="18.120961">
        <ele>39</ele>
        <time>2020-02-13T16:15:55Z</time>
      </trkpt>
      <trkpt lat="59.230908" lon="18.120934">
        <ele>39</ele>
        <time>2020-02-13T16:15:56Z</time>
      </trkpt>
      <trkpt lat="59.230939" lon="18.120907">
        <ele>39</ele>
        <time>2020-02-13T16:15:58Z</time>
      </trkpt>
      <trkpt lat="59.230978" lon="18.120882">
        <ele>39</ele>
        <time>2020-02-13T16:15:58Z</time>
      </trkpt>
      <trkpt lat="59.231017" lon="18.120856">
        <ele>39</ele>
        <time>2020-02-13T16:15:59Z</time>
      </trkpt>
      <trkpt lat="59.231059" lon="18.120831">
        <ele>39</ele>
        <time>2020-02-13T16:16:00Z</time>
      </trkpt>
      <trkpt lat="59.2311" lon="18.120805">
        <ele>39</ele>
        <time>2020-02-13T16:16:01Z</time>
      </trkpt>
      <trkpt lat="59.23114" lon="18.120777">
        <ele>40</ele>
        <time>2020-02-13T16:16:02Z</time>
      </trkpt>
      <trkpt lat="59.231181" lon="18.120747">
        <ele>40</ele>
        <time>2020-02-13T16:16:03Z</time>
      </trkpt>
      <trkpt lat="59.231219" lon="18.120721">
        <ele>40</ele>
        <time>2020-02-13T16:16:05Z</time>
      </trkpt>
      <trkpt lat="59.23126" lon="18.120696">
        <ele>40</ele>
        <time>2020-02-13T16:16:05Z</time>
      </trkpt>
      <trkpt lat="59.2313" lon="18.12067">
        <ele>40</ele>
        <time>2020-02-13T16:16:06Z</time>
      </trkpt>
      <trkpt lat="59.231342" lon="18.120642">
        <ele>41</ele>
        <time>2020-02-13T16:16:07Z</time>
      </trkpt>
      <trkpt lat="59.231384" lon="18.120612">
        <ele>41</ele>
        <time>2020-02-13T16:16:09Z</time>
      </trkpt>
      <trkpt lat="59.231425" lon="18.120579">
        <ele>41</ele>
        <time>2020-02-13T16:16:09Z</time>
      </trkpt>
      <trkpt lat="59.231468" lon="18.120546">
        <ele>41</ele>
        <time>2020-02-13T16:16:10Z</time>
      </trkpt>
      <trkpt lat="59.231509" lon="18.120513">
        <ele>41</ele>
        <time>2020-02-13T16:16:11Z</time>
      </trkpt>
      <trkpt lat="59.231554" lon="18.120482">
        <ele>41</ele>
        <time>2020-02-13T16:16:12Z</time>
      </trkpt>
      <trkpt lat="59.231596" lon="18.120457">
        <ele>41</ele>
        <time>2020-02-13T16:16:13Z</time>
      </trkpt>
      <trkpt lat="59.231633" lon="18.12043">
        <ele>41</ele>
        <time>2020-02-13T16:16:14Z</time>
      </trkpt>
      <trkpt lat="59.231668" lon="18.120401">
        <ele>41</ele>
        <time>2020-02-13T16:16:15Z</time>
      </trkpt>
      <trkpt lat="59.231711" lon="18.120373">
        <ele>41</ele>
        <time>2020-02-13T16:16:16Z</time>
      </trkpt>
      <trkpt lat="59.231759" lon="18.120347">
        <ele>41</ele>
        <time>2020-02-13T16:16:17Z</time>
      </trkpt>
      <trkpt lat="59.231812" lon="18.120321">
        <ele>41</ele>
        <time>2020-02-13T16:16:18Z</time>
      </trkpt>
      <trkpt lat="59.231872" lon="18.120299">
        <ele>41</ele>
        <time>2020-02-13T16:16:20Z</time>
      </trkpt>
      <trkpt lat="59.231938" lon="18.120279">
        <ele>41</ele>
        <time>2020-02-13T16:16:20Z</time>
      </trkpt>
      <trkpt lat="59.232006" lon="18.120266">
        <ele>41</ele>
        <time>2020-02-13T16:16:21Z</time>
      </trkpt>
      <trkpt lat="59.232074" lon="18.120258">
        <ele>41</ele>
        <time>2020-02-13T16:16:22Z</time>
      </trkpt>
      <trkpt lat="59.23214" lon="18.120257">
        <ele>41</ele>
        <time>2020-02-13T16:16:24Z</time>
      </trkpt>
      <trkpt lat="59.232207" lon="18.120261">
        <ele>41</ele>
        <time>2020-02-13T16:16:24Z</time>
      </trkpt>
      <trkpt lat="59.232271" lon="18.120279">
        <ele>40</ele>
        <time>2020-02-13T16:16:25Z</time>
      </trkpt>
      <trkpt lat="59.232332" lon="18.120317">
        <ele>40</ele>
        <time>2020-02-13T16:16:26Z</time>
      </trkpt>
      <trkpt lat="59.232372" lon="18.120365">
        <ele>40</ele>
        <time>2020-02-13T16:16:28Z</time>
      </trkpt>
      <trkpt lat="59.232402" lon="18.120428">
        <ele>40</ele>
        <time>2020-02-13T16:16:28Z</time>
      </trkpt>
      <trkpt lat="59.232432" lon="18.120506">
        <ele>40</ele>
        <time>2020-02-13T16:16:29Z</time>
      </trkpt>
      <trkpt lat="59.232458" lon="18.120594">
        <ele>40</ele>
        <time>2020-02-13T16:16:30Z</time>
      </trkpt>
      <trkpt lat="59.232484" lon="18.120688">
        <ele>40</ele>
        <time>2020-02-13T16:16:31Z</time>
      </trkpt>
      <trkpt lat="59.232514" lon="18.120779">
        <ele>40</ele>
        <time>2020-02-13T16:16:32Z</time>
      </trkpt>
      <trkpt lat="59.232546" lon="18.120871">
        <ele>40</ele>
        <time>2020-02-13T16:16:33Z</time>
      </trkpt>
      <trkpt lat="59.232581" lon="18.12096">
        <ele>40</ele>
        <time>2020-02-13T16:16:34Z</time>
      </trkpt>
      <trkpt lat="59.232622" lon="18.121028">
        <ele>40</ele>
        <time>2020-02-13T16:16:35Z</time>
      </trkpt>
      <trkpt lat="59.232671" lon="18.121075">
        <ele>40</ele>
        <time>2020-02-13T16:16:37Z</time>
      </trkpt>
      <trkpt lat="59.232721" lon="18.121125">
        <ele>40</ele>
        <time>2020-02-13T16:16:37Z</time>
      </trkpt>
      <trkpt lat="59.232764" lon="18.121184">
        <ele>40</ele>
        <time>2020-02-13T16:16:38Z</time>
      </trkpt>
      <trkpt lat="59.232806" lon="18.121244">
        <ele>40</ele>
        <time>2020-02-13T16:16:39Z</time>
      </trkpt>
      <trkpt lat="59.232851" lon="18.121297">
        <ele>40</ele>
        <time>2020-02-13T16:16:40Z</time>
      </trkpt>
      <trkpt lat="59.232898" lon="18.121341">
        <ele>40</ele>
        <time>2020-02-13T16:16:41Z</time>
      </trkpt>
      <trkpt lat="59.232948" lon="18.121373">
        <ele>40</ele>
        <time>2020-02-13T16:16:43Z</time>
      </trkpt>
      <trkpt lat="59.233004" lon="18.121387">
        <ele>40</ele>
        <time>2020-02-13T16:16:43Z</time>
      </trkpt>
      <trkpt lat="59.233064" lon="18.121383">
        <ele>40</ele>
        <time>2020-02-13T16:16:44Z</time>
      </trkpt>
      <trkpt lat="59.233124" lon="18.121359">
        <ele>40</ele>
        <time>2020-02-13T16:16:46Z</time>
      </trkpt>
      <trkpt lat="59.233185" lon="18.121317">
        <ele>40</ele>
        <time>2020-02-13T16:16:46Z</time>
      </trkpt>
      <trkpt lat="59.233248" lon="18.121262">
        <ele>40</ele>
        <time>2020-02-13T16:16:47Z</time>
      </trkpt>
      <trkpt lat="59.233314" lon="18.121205">
        <ele>40</ele>
        <time>2020-02-13T16:16:48Z</time>
      </trkpt>
      <trkpt lat="59.233384" lon="18.121153">
        <ele>39</ele>
        <time>2020-02-13T16:16:49Z</time>
      </trkpt>
      <trkpt lat="59.233456" lon="18.121102">
        <ele>39</ele>
        <time>2020-02-13T16:16:50Z</time>
      </trkpt>
      <trkpt lat="59.23353" lon="18.121051">
        <ele>40</ele>
        <time>2020-02-13T16:16:51Z</time>
      </trkpt>
      <trkpt lat="59.233606" lon="18.120995">
        <ele>40</ele>
        <time>2020-02-13T16:16:53Z</time>
      </trkpt>
      <trkpt lat="59.233681" lon="18.120938">
        <ele>40</ele>
        <time>2020-02-13T16:16:53Z</time>
      </trkpt>
      <trkpt lat="59.233761" lon="18.120876">
        <ele>40</ele>
        <time>2020-02-13T16:16:54Z</time>
      </trkpt>
      <trkpt lat="59.233845" lon="18.120814">
        <ele>40</ele>
        <time>2020-02-13T16:16:55Z</time>
      </trkpt>
      <trkpt lat="59.23392" lon="18.12075">
        <ele>40</ele>
        <time>2020-02-13T16:16:56Z</time>
      </trkpt>
      <trkpt lat="59.234002" lon="18.120683">
        <ele>39</ele>
        <time>2020-02-13T16:16:58Z</time>
      </trkpt>
      <trkpt lat="59.2341" lon="18.120625">
        <ele>38</ele>
        <time>2020-02-13T16:16:58Z</time>
      </trkpt>
      <trkpt lat="59.234208" lon="18.120549">
        <ele>38</ele>
        <time>2020-02-13T16:16:59Z</time>
      </trkpt>
      <trkpt lat="59.234315" lon="18.120491">
        <ele>37</ele>
        <time>2020-02-13T16:17:00Z</time>
      </trkpt>
      <trkpt lat="59.234422" lon="18.120439">
        <ele>36</ele>
        <time>2020-02-13T16:17:02Z</time>
      </trkpt>
      <trkpt lat="59.234524" lon="18.120389">
        <ele>35</ele>
        <time>2020-02-13T16:17:03Z</time>
      </trkpt>
      <trkpt lat="59.234624" lon="18.120329">
        <ele>35</ele>
        <time>2020-02-13T16:17:03Z</time>
      </trkpt>
      <trkpt lat="59.234719" lon="18.12027">
        <ele>34</ele>
        <time>2020-02-13T16:17:04Z</time>
      </trkpt>
      <trkpt lat="59.234815" lon="18.120212">
        <ele>34</ele>
        <time>2020-02-13T16:17:05Z</time>
      </trkpt>
      <trkpt lat="59.234912" lon="18.120155">
        <ele>34</ele>
        <time>2020-02-13T16:17:06Z</time>
      </trkpt>
      <trkpt lat="59.235006" lon="18.120106">
        <ele>33</ele>
        <time>2020-02-13T16:17:08Z</time>
      </trkpt>
      <trkpt lat="59.235101" lon="18.120075">
        <ele>33</ele>
        <time>2020-02-13T16:17:08Z</time>
      </trkpt>
      <trkpt lat="59.235194" lon="18.120055">
        <ele>32</ele>
        <time>2020-02-13T16:17:09Z</time>
      </trkpt>
      <trkpt lat="59.235283" lon="18.12003">
        <ele>32</ele>
        <time>2020-02-13T16:17:10Z</time>
      </trkpt>
      <trkpt lat="59.235369" lon="18.119998">
        <ele>32</ele>
        <time>2020-02-13T16:17:11Z</time>
      </trkpt>
      <trkpt lat="59.235452" lon="18.119962">
        <ele>31</ele>
        <time>2020-02-13T16:17:12Z</time>
      </trkpt>
      <trkpt lat="59.235532" lon="18.11992">
        <ele>31</ele>
        <time>2020-02-13T16:17:14Z</time>
      </trkpt>
      <trkpt lat="59.235606" lon="18.11987">
        <ele>31</ele>
        <time>2020-02-13T16:17:14Z</time>
      </trkpt>
      <trkpt lat="59.235678" lon="18.119816">
        <ele>31</ele>
        <time>2020-02-13T16:17:15Z</time>
      </trkpt>
      <trkpt lat="59.23575" lon="18.119765">
        <ele>31</ele>
        <time>2020-02-13T16:17:16Z</time>
      </trkpt>
      <trkpt lat="59.23582" lon="18.11972">
        <ele>30</ele>
        <time>2020-02-13T16:17:17Z</time>
      </trkpt>
      <trkpt lat="59.235893" lon="18.119686">
        <ele>30</ele>
        <time>2020-02-13T16:17:18Z</time>
      </trkpt>
      <trkpt lat="59.235965" lon="18.119663">
        <ele>30</ele>
        <time>2020-02-13T16:17:20Z</time>
      </trkpt>
      <trkpt lat="59.236036" lon="18.119643">
        <ele>29</ele>
        <time>2020-02-13T16:17:21Z</time>
      </trkpt>
      <trkpt lat="59.236105" lon="18.119622">
        <ele>29</ele>
        <time>2020-02-13T16:17:21Z</time>
      </trkpt>
      <trkpt lat="59.236175" lon="18.119604">
        <ele>29</ele>
        <time>2020-02-13T16:17:22Z</time>
      </trkpt>
      <trkpt lat="59.236244" lon="18.119588">
        <ele>29</ele>
        <time>2020-02-13T16:17:23Z</time>
      </trkpt>
      <trkpt lat="59.236314" lon="18.119575">
        <ele>28</ele>
        <time>2020-02-13T16:17:24Z</time>
      </trkpt>
      <trkpt lat="59.236383" lon="18.119564">
        <ele>28</ele>
        <time>2020-02-13T16:17:25Z</time>
      </trkpt>
      <trkpt lat="59.236453" lon="18.119555">
        <ele>28</ele>
        <time>2020-02-13T16:17:27Z</time>
      </trkpt>
      <trkpt lat="59.236521" lon="18.119549">
        <ele>28</ele>
        <time>2020-02-13T16:17:27Z</time>
      </trkpt>
      <trkpt lat="59.236589" lon="18.119547">
        <ele>28</ele>
        <time>2020-02-13T16:17:28Z</time>
      </trkpt>
      <trkpt lat="59.236657" lon="18.119544">
        <ele>28</ele>
        <time>2020-02-13T16:17:29Z</time>
      </trkpt>
      <trkpt lat="59.236724" lon="18.11954">
        <ele>28</ele>
        <time>2020-02-13T16:17:30Z</time>
      </trkpt>
      <trkpt lat="59.236793" lon="18.119541">
        <ele>28</ele>
        <time>2020-02-13T16:17:31Z</time>
      </trkpt>
      <trkpt lat="59.23686" lon="18.119544">
        <ele>28</ele>
        <time>2020-02-13T16:17:32Z</time>
      </trkpt>
      <trkpt lat="59.236927" lon="18.119553">
        <ele>28</ele>
        <time>2020-02-13T16:17:33Z</time>
      </trkpt>
      <trkpt lat="59.236994" lon="18.119561">
        <ele>27</ele>
        <time>2020-02-13T16:17:35Z</time>
      </trkpt>
      <trkpt lat="59.23706" lon="18.11957">
        <ele>27</ele>
        <time>2020-02-13T16:17:35Z</time>
      </trkpt>
      <trkpt lat="59.237128" lon="18.119581">
        <ele>27</ele>
        <time>2020-02-13T16:17:36Z</time>
      </trkpt>
      <trkpt lat="59.237194" lon="18.119589">
        <ele>27</ele>
        <time>2020-02-13T16:17:37Z</time>
      </trkpt>
      <trkpt lat="59.237258" lon="18.119597">
        <ele>27</ele>
        <time>2020-02-13T16:17:38Z</time>
      </trkpt>
      <trkpt lat="59.237323" lon="18.119606">
        <ele>27</ele>
        <time>2020-02-13T16:17:40Z</time>
      </trkpt>
      <trkpt lat="59.237389" lon="18.119618">
        <ele>27</ele>
        <time>2020-02-13T16:17:40Z</time>
      </trkpt>
      <trkpt lat="59.237455" lon="18.119629">
        <ele>27</ele>
        <time>2020-02-13T16:17:42Z</time>
      </trkpt>
      <trkpt lat="59.237521" lon="18.119638">
        <ele>27</ele>
        <time>2020-02-13T16:17:42Z</time>
      </trkpt>
      <trkpt lat="59.237587" lon="18.119649">
        <ele>27</ele>
        <time>2020-02-13T16:17:43Z</time>
      </trkpt>
      <trkpt lat="59.237653" lon="18.119657">
        <ele>27</ele>
        <time>2020-02-13T16:17:44Z</time>
      </trkpt>
      <trkpt lat="59.237718" lon="18.119663">
        <ele>27</ele>
        <time>2020-02-13T16:17:45Z</time>
      </trkpt>
      <trkpt lat="59.237785" lon="18.119673">
        <ele>27</ele>
        <time>2020-02-13T16:17:46Z</time>
      </trkpt>
      <trkpt lat="59.237852" lon="18.119684">
        <ele>27</ele>
        <time>2020-02-13T16:17:47Z</time>
      </trkpt>
      <trkpt lat="59.237919" lon="18.119691">
        <ele>27</ele>
        <time>2020-02-13T16:17:48Z</time>
      </trkpt>
      <trkpt lat="59.237987" lon="18.1197">
        <ele>27</ele>
        <time>2020-02-13T16:17:50Z</time>
      </trkpt>
      <trkpt lat="59.238055" lon="18.119708">
        <ele>27</ele>
        <time>2020-02-13T16:17:50Z</time>
      </trkpt>
      <trkpt lat="59.238124" lon="18.119719">
        <ele>27</ele>
        <time>2020-02-13T16:17:51Z</time>
      </trkpt>
      <trkpt lat="59.238193" lon="18.119728">
        <ele>27</ele>
        <time>2020-02-13T16:17:52Z</time>
      </trkpt>
      <trkpt lat="59.238263" lon="18.119738">
        <ele>27</ele>
        <time>2020-02-13T16:17:53Z</time>
      </trkpt>
      <trkpt lat="59.238332" lon="18.119751">
        <ele>27</ele>
        <time>2020-02-13T16:17:54Z</time>
      </trkpt>
      <trkpt lat="59.238401" lon="18.119762">
        <ele>27</ele>
        <time>2020-02-13T16:17:55Z</time>
      </trkpt>
      <trkpt lat="59.238468" lon="18.119772">
        <ele>27</ele>
        <time>2020-02-13T16:17:57Z</time>
      </trkpt>
      <trkpt lat="59.238535" lon="18.119782">
        <ele>27</ele>
        <time>2020-02-13T16:17:57Z</time>
      </trkpt>
      <trkpt lat="59.238604" lon="18.119796">
        <ele>27</ele>
        <time>2020-02-13T16:17:59Z</time>
      </trkpt>
      <trkpt lat="59.238676" lon="18.119815">
        <ele>27</ele>
        <time>2020-02-13T16:17:59Z</time>
      </trkpt>
      <trkpt lat="59.238746" lon="18.119827">
        <ele>27</ele>
        <time>2020-02-13T16:18:00Z</time>
      </trkpt>
      <trkpt lat="59.238818" lon="18.119833">
        <ele>27</ele>
        <time>2020-02-13T16:18:01Z</time>
      </trkpt>
      <trkpt lat="59.23889" lon="18.119837">
        <ele>26</ele>
        <time>2020-02-13T16:18:02Z</time>
      </trkpt>
      <trkpt lat="59.238962" lon="18.119841">
        <ele>26</ele>
        <time>2020-02-13T16:18:04Z</time>
      </trkpt>
      <trkpt lat="59.239034" lon="18.119842">
        <ele>26</ele>
        <time>2020-02-13T16:18:04Z</time>
      </trkpt>
      <trkpt lat="59.239105" lon="18.119836">
        <ele>26</ele>
        <time>2020-02-13T16:18:05Z</time>
      </trkpt>
      <trkpt lat="59.239176" lon="18.119829">
        <ele>26</ele>
        <time>2020-02-13T16:18:06Z</time>
      </trkpt>
      <trkpt lat="59.239248" lon="18.119819">
        <ele>26</ele>
        <time>2020-02-13T16:18:07Z</time>
      </trkpt>
      <trkpt lat="59.239318" lon="18.119806">
        <ele>26</ele>
        <time>2020-02-13T16:18:08Z</time>
      </trkpt>
      <trkpt lat="59.239388" lon="18.119789">
        <ele>26</ele>
        <time>2020-02-13T16:18:09Z</time>
      </trkpt>
      <trkpt lat="59.239456" lon="18.119762">
        <ele>26</ele>
        <time>2020-02-13T16:18:11Z</time>
      </trkpt>
      <trkpt lat="59.239524" lon="18.119732">
        <ele>26</ele>
        <time>2020-02-13T16:18:11Z</time>
      </trkpt>
      <trkpt lat="59.239593" lon="18.119704">
        <ele>26</ele>
        <time>2020-02-13T16:18:12Z</time>
      </trkpt>
      <trkpt lat="59.239663" lon="18.119677">
        <ele>26</ele>
        <time>2020-02-13T16:18:13Z</time>
      </trkpt>
      <trkpt lat="59.239733" lon="18.11965">
        <ele>26</ele>
        <time>2020-02-13T16:18:14Z</time>
      </trkpt>
      <trkpt lat="59.239803" lon="18.119623">
        <ele>25</ele>
        <time>2020-02-13T16:18:15Z</time>
      </trkpt>
      <trkpt lat="59.239871" lon="18.119592">
        <ele>25</ele>
        <time>2020-02-13T16:18:16Z</time>
      </trkpt>
      <trkpt lat="59.23994" lon="18.119564">
        <ele>0</ele>
        <time>2020-02-13T16:18:17Z</time>
      </trkpt>
      <trkpt lat="59.240009" lon="18.11954">
        <ele>25</ele>
        <time>2020-02-13T16:18:18Z</time>
      </trkpt>
      <trkpt lat="59.240076" lon="18.119514">
        <ele>25</ele>
        <time>2020-02-13T16:18:19Z</time>
      </trkpt>
      <trkpt lat="59.240141" lon="18.119483">
        <ele>25</ele>
        <time>2020-02-13T16:18:20Z</time>
      </trkpt>
      <trkpt lat="59.240205" lon="18.119453">
        <ele>25</ele>
        <time>2020-02-13T16:18:21Z</time>
      </trkpt>
      <trkpt lat="59.240267" lon="18.119426">
        <ele>25</ele>
        <time>2020-02-13T16:18:22Z</time>
      </trkpt>
      <trkpt lat="59.240327" lon="18.119403">
        <ele>25</ele>
        <time>2020-02-13T16:18:23Z</time>
      </trkpt>
      <trkpt lat="59.240387" lon="18.119395">
        <ele>25</ele>
        <time>2020-02-13T16:18:24Z</time>
      </trkpt>
      <trkpt lat="59.240443" lon="18.119418">
        <ele>25</ele>
        <time>2020-02-13T16:18:26Z</time>
      </trkpt>
      <trkpt lat="59.240491" lon="18.119474">
        <ele>25</ele>
        <time>2020-02-13T16:18:26Z</time>
      </trkpt>
      <trkpt lat="59.240537" lon="18.119528">
        <ele>25</ele>
        <time>2020-02-13T16:18:27Z</time>
      </trkpt>
      <trkpt lat="59.240589" lon="18.119549">
        <ele>25</ele>
        <time>2020-02-13T16:18:28Z</time>
      </trkpt>
      <trkpt lat="59.240647" lon="18.119544">
        <ele>24</ele>
        <time>2020-02-13T16:18:29Z</time>
      </trkpt>
      <trkpt lat="59.24071" lon="18.119541">
        <ele>25</ele>
        <time>2020-02-13T16:18:30Z</time>
      </trkpt>
      <trkpt lat="59.24077" lon="18.119553">
        <ele>24</ele>
        <time>2020-02-13T16:18:31Z</time>
      </trkpt>
      <trkpt lat="59.24083" lon="18.119583">
        <ele>24</ele>
        <time>2020-02-13T16:18:32Z</time>
      </trkpt>
      <trkpt lat="59.240887" lon="18.119625">
        <ele>24</ele>
        <time>2020-02-13T16:18:33Z</time>
      </trkpt>
      <trkpt lat="59.240941" lon="18.119676">
        <ele>24</ele>
        <time>2020-02-13T16:18:35Z</time>
      </trkpt>
      <trkpt lat="59.240992" lon="18.119728">
        <ele>24</ele>
        <time>2020-02-13T16:18:35Z</time>
      </trkpt>
      <trkpt lat="59.241039" lon="18.119777">
        <ele>24</ele>
        <time>2020-02-13T16:18:37Z</time>
      </trkpt>
      <trkpt lat="59.241089" lon="18.11983">
        <ele>24</ele>
        <time>2020-02-13T16:18:37Z</time>
      </trkpt>
      <trkpt lat="59.241143" lon="18.119892">
        <ele>25</ele>
        <time>2020-02-13T16:18:38Z</time>
      </trkpt>
      <trkpt lat="59.241195" lon="18.119953">
        <ele>25</ele>
        <time>2020-02-13T16:18:39Z</time>
      </trkpt>
      <trkpt lat="59.241246" lon="18.12">
        <ele>25</ele>
        <time>2020-02-13T16:18:40Z</time>
      </trkpt>
      <trkpt lat="59.241298" lon="18.120032">
        <ele>25</ele>
        <time>2020-02-13T16:18:41Z</time>
      </trkpt>
      <trkpt lat="59.241356" lon="18.120061">
        <ele>25</ele>
        <time>2020-02-13T16:18:43Z</time>
      </trkpt>
      <trkpt lat="59.241407" lon="18.120094">
        <ele>26</ele>
        <time>2020-02-13T16:18:43Z</time>
      </trkpt>
      <trkpt lat="59.24146" lon="18.120126">
        <ele>26</ele>
        <time>2020-02-13T16:18:44Z</time>
      </trkpt>
      <trkpt lat="59.241514" lon="18.120148">
        <ele>26</ele>
        <time>2020-02-13T16:18:45Z</time>
      </trkpt>
      <trkpt lat="59.241563" lon="18.120169">
        <ele>26</ele>
        <time>2020-02-13T16:18:46Z</time>
      </trkpt>
      <trkpt lat="59.241609" lon="18.120184">
        <ele>26</ele>
        <time>2020-02-13T16:18:47Z</time>
      </trkpt>
      <trkpt lat="59.241651" lon="18.120194">
        <ele>26</ele>
        <time>2020-02-13T16:18:48Z</time>
      </trkpt>
      <trkpt lat="59.241693" lon="18.120202">
        <ele>26</ele>
        <time>2020-02-13T16:18:49Z</time>
      </trkpt>
      <trkpt lat="59.241729" lon="18.120187">
        <ele>26</ele>
        <time>2020-02-13T16:18:50Z</time>
      </trkpt>
      <trkpt lat="59.241754" lon="18.120141">
        <ele>26</ele>
        <time>2020-02-13T16:18:51Z</time>
      </trkpt>
      <trkpt lat="59.241773" lon="18.12008">
        <ele>26</ele>
        <time>2020-02-13T16:18:52Z</time>
      </trkpt>
      <trkpt lat="59.241786" lon="18.12001">
        <ele>26</ele>
        <time>2020-02-13T16:18:53Z</time>
      </trkpt>
      <trkpt lat="59.241794" lon="18.119922">
        <ele>26</ele>
        <time>2020-02-13T16:18:55Z</time>
      </trkpt>
      <trkpt lat="59.241804" lon="18.119835">
        <ele>26</ele>
        <time>2020-02-13T16:18:56Z</time>
      </trkpt>
      <trkpt lat="59.241814" lon="18.119743">
        <ele>26</ele>
        <time>2020-02-13T16:18:56Z</time>
      </trkpt>
      <trkpt lat="59.241827" lon="18.119646">
        <ele>26</ele>
        <time>2020-02-13T16:18:57Z</time>
      </trkpt>
      <trkpt lat="59.241846" lon="18.119554">
        <ele>26</ele>
        <time>2020-02-13T16:18:58Z</time>
      </trkpt>
      <trkpt lat="59.241872" lon="18.119467">
        <ele>26</ele>
        <time>2020-02-13T16:18:59Z</time>
      </trkpt>
      <trkpt lat="59.241911" lon="18.119394">
        <ele>27</ele>
        <time>2020-02-13T16:19:00Z</time>
      </trkpt>
      <trkpt lat="59.241957" lon="18.119346">
        <ele>27</ele>
        <time>2020-02-13T16:19:01Z</time>
      </trkpt>
      <trkpt lat="59.242009" lon="18.119312">
        <ele>27</ele>
        <time>2020-02-13T16:19:02Z</time>
      </trkpt>
      <trkpt lat="59.242065" lon="18.119284">
        <ele>26</ele>
        <time>2020-02-13T16:19:04Z</time>
      </trkpt>
      <trkpt lat="59.24212" lon="18.119254">
        <ele>26</ele>
        <time>2020-02-13T16:19:04Z</time>
      </trkpt>
      <trkpt lat="59.242176" lon="18.11922">
        <ele>26</ele>
        <time>2020-02-13T16:19:05Z</time>
      </trkpt>
      <trkpt lat="59.242231" lon="18.119181">
        <ele>26</ele>
        <time>2020-02-13T16:19:06Z</time>
      </trkpt>
      <trkpt lat="59.242285" lon="18.119139">
        <ele>26</ele>
        <time>2020-02-13T16:19:07Z</time>
      </trkpt>
      <trkpt lat="59.242338" lon="18.119088">
        <ele>26</ele>
        <time>2020-02-13T16:19:08Z</time>
      </trkpt>
      <trkpt lat="59.242391" lon="18.11903">
        <ele>26</ele>
        <time>2020-02-13T16:19:09Z</time>
      </trkpt>
      <trkpt lat="59.242442" lon="18.11897">
        <ele>26</ele>
        <time>2020-02-13T16:19:10Z</time>
      </trkpt>
      <trkpt lat="59.242489" lon="18.118895">
        <ele>26</ele>
        <time>2020-02-13T16:19:11Z</time>
      </trkpt>
      <trkpt lat="59.242535" lon="18.118808">
        <ele>25</ele>
        <time>2020-02-13T16:19:13Z</time>
      </trkpt>
      <trkpt lat="59.242577" lon="18.118717">
        <ele>25</ele>
        <time>2020-02-13T16:19:13Z</time>
      </trkpt>
      <trkpt lat="59.242615" lon="18.118621">
        <ele>25</ele>
        <time>2020-02-13T16:19:15Z</time>
      </trkpt>
      <trkpt lat="59.242649" lon="18.118521">
        <ele>26</ele>
        <time>2020-02-13T16:19:15Z</time>
      </trkpt>
      <trkpt lat="59.242681" lon="18.11842">
        <ele>26</ele>
        <time>2020-02-13T16:19:16Z</time>
      </trkpt>
      <trkpt lat="59.242714" lon="18.118325">
        <ele>26</ele>
        <time>2020-02-13T16:19:17Z</time>
      </trkpt>
      <trkpt lat="59.242747" lon="18.118227">
        <ele>26</ele>
        <time>2020-02-13T16:19:18Z</time>
      </trkpt>
      <trkpt lat="59.242778" lon="18.118126">
        <ele>26</ele>
        <time>2020-02-13T16:19:19Z</time>
      </trkpt>
      <trkpt lat="59.242809" lon="18.118024">
        <ele>26</ele>
        <time>2020-02-13T16:19:21Z</time>
      </trkpt>
      <trkpt lat="59.242839" lon="18.117922">
        <ele>26</ele>
        <time>2020-02-13T16:19:21Z</time>
      </trkpt>
      <trkpt lat="59.242871" lon="18.117822">
        <ele>26</ele>
        <time>2020-02-13T16:19:22Z</time>
      </trkpt>
      <trkpt lat="59.242904" lon="18.117723">
        <ele>26</ele>
        <time>2020-02-13T16:19:23Z</time>
      </trkpt>
      <trkpt lat="59.242937" lon="18.117622">
        <ele>26</ele>
        <time>2020-02-13T16:19:24Z</time>
      </trkpt>
      <trkpt lat="59.242967" lon="18.117517">
        <ele>26</ele>
        <time>2020-02-13T16:19:25Z</time>
      </trkpt>
      <trkpt lat="59.242998" lon="18.117416">
        <ele>26</ele>
        <time>2020-02-13T16:19:26Z</time>
      </trkpt>
      <trkpt lat="59.243029" lon="18.117318">
        <ele>26</ele>
        <time>2020-02-13T16:19:27Z</time>
      </trkpt>
      <trkpt lat="59.243059" lon="18.11722">
        <ele>27</ele>
        <time>2020-02-13T16:19:29Z</time>
      </trkpt>
      <trkpt lat="59.243089" lon="18.117122">
        <ele>27</ele>
        <time>2020-02-13T16:19:29Z</time>
      </trkpt>
      <trkpt lat="59.243118" lon="18.117024">
        <ele>27</ele>
        <time>2020-02-13T16:19:30Z</time>
      </trkpt>
      <trkpt lat="59.243147" lon="18.116928">
        <ele>27</ele>
        <time>2020-02-13T16:19:31Z</time>
      </trkpt>
      <trkpt lat="59.243177" lon="18.116833">
        <ele>27</ele>
        <time>2020-02-13T16:19:32Z</time>
      </trkpt>
      <trkpt lat="59.243208" lon="18.116738">
        <ele>27</ele>
        <time>2020-02-13T16:19:34Z</time>
      </trkpt>
      <trkpt lat="59.243239" lon="18.116647">
        <ele>27</ele>
        <time>2020-02-13T16:19:34Z</time>
      </trkpt>
      <trkpt lat="59.243268" lon="18.116555">
        <ele>27</ele>
        <time>2020-02-13T16:19:35Z</time>
      </trkpt>
      <trkpt lat="59.243297" lon="18.116464">
        <ele>27</ele>
        <time>2020-02-13T16:19:36Z</time>
      </trkpt>
      <trkpt lat="59.243328" lon="18.116372">
        <ele>26</ele>
        <time>2020-02-13T16:19:38Z</time>
      </trkpt>
      <trkpt lat="59.243359" lon="18.116281">
        <ele>26</ele>
        <time>2020-02-13T16:19:38Z</time>
      </trkpt>
      <trkpt lat="59.24339" lon="18.11619">
        <ele>26</ele>
        <time>2020-02-13T16:19:39Z</time>
      </trkpt>
      <trkpt lat="59.243419" lon="18.116099">
        <ele>26</ele>
        <time>2020-02-13T16:19:40Z</time>
      </trkpt>
      <trkpt lat="59.243446" lon="18.116009">
        <ele>26</ele>
        <time>2020-02-13T16:19:41Z</time>
      </trkpt>
      <trkpt lat="59.243473" lon="18.115921">
        <ele>26</ele>
        <time>2020-02-13T16:19:42Z</time>
      </trkpt>
      <trkpt lat="59.2435" lon="18.115833">
        <ele>26</ele>
        <time>2020-02-13T16:19:43Z</time>
      </trkpt>
      <trkpt lat="59.243528" lon="18.115745">
        <ele>26</ele>
        <time>2020-02-13T16:19:44Z</time>
      </trkpt>
      <trkpt lat="59.243554" lon="18.115654">
        <ele>26</ele>
        <time>2020-02-13T16:19:45Z</time>
      </trkpt>
      <trkpt lat="59.243575" lon="18.115557">
        <ele>26</ele>
        <time>2020-02-13T16:19:47Z</time>
      </trkpt>
      <trkpt lat="59.243589" lon="18.115456">
        <ele>26</ele>
        <time>2020-02-13T16:19:47Z</time>
      </trkpt>
      <trkpt lat="59.243599" lon="18.115354">
        <ele>26</ele>
        <time>2020-02-13T16:19:48Z</time>
      </trkpt>
      <trkpt lat="59.243605" lon="18.115252">
        <ele>26</ele>
        <time>2020-02-13T16:19:49Z</time>
      </trkpt>
      <trkpt lat="59.24361" lon="18.115152">
        <ele>26</ele>
        <time>2020-02-13T16:19:50Z</time>
      </trkpt>
      <trkpt lat="59.24362" lon="18.115052">
        <ele>26</ele>
        <time>2020-02-13T16:19:51Z</time>
      </trkpt>
      <trkpt lat="59.243633" lon="18.114956">
        <ele>26</ele>
        <time>2020-02-13T16:19:53Z</time>
      </trkpt>
      <trkpt lat="59.243647" lon="18.114858">
        <ele>26</ele>
        <time>2020-02-13T16:19:53Z</time>
      </trkpt>
      <trkpt lat="59.243662" lon="18.114759">
        <ele>26</ele>
        <time>2020-02-13T16:19:54Z</time>
      </trkpt>
      <trkpt lat="59.243679" lon="18.114658">
        <ele>26</ele>
        <time>2020-02-13T16:19:55Z</time>
      </trkpt>
      <trkpt lat="59.243695" lon="18.114559">
        <ele>27</ele>
        <time>2020-02-13T16:19:57Z</time>
      </trkpt>
      <trkpt lat="59.243711" lon="18.114457">
        <ele>27</ele>
        <time>2020-02-13T16:19:57Z</time>
      </trkpt>
      <trkpt lat="59.243726" lon="18.114352">
        <ele>27</ele>
        <time>2020-02-13T16:19:58Z</time>
      </trkpt>
      <trkpt lat="59.24374" lon="18.114247">
        <ele>27</ele>
        <time>2020-02-13T16:19:59Z</time>
      </trkpt>
      <trkpt lat="59.243753" lon="18.114138">
        <ele>27</ele>
        <time>2020-02-13T16:20:00Z</time>
      </trkpt>
      <trkpt lat="59.243767" lon="18.11403">
        <ele>27</ele>
        <time>2020-02-13T16:20:01Z</time>
      </trkpt>
      <trkpt lat="59.24378" lon="18.113922">
        <ele>27</ele>
        <time>2020-02-13T16:20:02Z</time>
      </trkpt>
      <trkpt lat="59.243793" lon="18.113817">
        <ele>27</ele>
        <time>2020-02-13T16:20:03Z</time>
      </trkpt>
      <trkpt lat="59.243804" lon="18.113708">
        <ele>28</ele>
        <time>2020-02-13T16:20:04Z</time>
      </trkpt>
      <trkpt lat="59.243814" lon="18.113599">
        <ele>28</ele>
        <time>2020-02-13T16:20:06Z</time>
      </trkpt>
      <trkpt lat="59.243823" lon="18.113494">
        <ele>28</ele>
        <time>2020-02-13T16:20:06Z</time>
      </trkpt>
      <trkpt lat="59.243833" lon="18.113391">
        <ele>28</ele>
        <time>2020-02-13T16:20:07Z</time>
      </trkpt>
      <trkpt lat="59.243842" lon="18.113284">
        <ele>28</ele>
        <time>2020-02-13T16:20:08Z</time>
      </trkpt>
      <trkpt lat="59.243852" lon="18.113177">
        <ele>28</ele>
        <time>2020-02-13T16:20:09Z</time>
      </trkpt>
      <trkpt lat="59.243862" lon="18.113072">
        <ele>28</ele>
        <time>2020-02-13T16:20:10Z</time>
      </trkpt>
      <trkpt lat="59.243871" lon="18.112966">
        <ele>28</ele>
        <time>2020-02-13T16:20:12Z</time>
      </trkpt>
      <trkpt lat="59.243878" lon="18.11286">
        <ele>28</ele>
        <time>2020-02-13T16:20:12Z</time>
      </trkpt>
      <trkpt lat="59.243885" lon="18.112755">
        <ele>28</ele>
        <time>2020-02-13T16:20:13Z</time>
      </trkpt>
      <trkpt lat="59.24389" lon="18.112652">
        <ele>28</ele>
        <time>2020-02-13T16:20:15Z</time>
      </trkpt>
      <trkpt lat="59.243893" lon="18.112551">
        <ele>28</ele>
        <time>2020-02-13T16:20:15Z</time>
      </trkpt>
      <trkpt lat="59.243895" lon="18.112452">
        <ele>28</ele>
        <time>2020-02-13T16:20:16Z</time>
      </trkpt>
      <trkpt lat="59.243898" lon="18.112352">
        <ele>28</ele>
        <time>2020-02-13T16:20:17Z</time>
      </trkpt>
      <trkpt lat="59.243899" lon="18.112254">
        <ele>28</ele>
        <time>2020-02-13T16:20:18Z</time>
      </trkpt>
      <trkpt lat="59.2439" lon="18.112156">
        <ele>28</ele>
        <time>2020-02-13T16:20:19Z</time>
      </trkpt>
      <trkpt lat="59.243902" lon="18.11206">
        <ele>28</ele>
        <time>2020-02-13T16:20:20Z</time>
      </trkpt>
      <trkpt lat="59.243903" lon="18.111964">
        <ele>28</ele>
        <time>2020-02-13T16:20:21Z</time>
      </trkpt>
      <trkpt lat="59.243903" lon="18.111868">
        <ele>28</ele>
        <time>2020-02-13T16:20:22Z</time>
      </trkpt>
      <trkpt lat="59.243905" lon="18.111771">
        <ele>28</ele>
        <time>2020-02-13T16:20:23Z</time>
      </trkpt>
      <trkpt lat="59.243909" lon="18.111676">
        <ele>28</ele>
        <time>2020-02-13T16:20:25Z</time>
      </trkpt>
      <trkpt lat="59.243912" lon="18.111582">
        <ele>28</ele>
        <time>2020-02-13T16:20:25Z</time>
      </trkpt>
      <trkpt lat="59.243914" lon="18.111488">
        <ele>28</ele>
        <time>2020-02-13T16:20:26Z</time>
      </trkpt>
      <trkpt lat="59.243915" lon="18.111396">
        <ele>28</ele>
        <time>2020-02-13T16:20:27Z</time>
      </trkpt>
      <trkpt lat="59.243917" lon="18.111306">
        <ele>29</ele>
        <time>2020-02-13T16:20:28Z</time>
      </trkpt>
      <trkpt lat="59.243919" lon="18.111218">
        <ele>29</ele>
        <time>2020-02-13T16:20:29Z</time>
      </trkpt>
      <trkpt lat="59.243921" lon="18.111131">
        <ele>29</ele>
        <time>2020-02-13T16:20:31Z</time>
      </trkpt>
      <trkpt lat="59.243921" lon="18.111044">
        <ele>29</ele>
        <time>2020-02-13T16:20:31Z</time>
      </trkpt>
      <trkpt lat="59.243919" lon="18.110958">
        <ele>29</ele>
        <time>2020-02-13T16:20:32Z</time>
      </trkpt>
      <trkpt lat="59.243919" lon="18.110872">
        <ele>29</ele>
        <time>2020-02-13T16:20:33Z</time>
      </trkpt>
      <trkpt lat="59.24392" lon="18.110787">
        <ele>29</ele>
        <time>2020-02-13T16:20:34Z</time>
      </trkpt>
      <trkpt lat="59.243923" lon="18.110703">
        <ele>29</ele>
        <time>2020-02-13T16:20:36Z</time>
      </trkpt>
      <trkpt lat="59.243927" lon="18.110622">
        <ele>30</ele>
        <time>2020-02-13T16:20:36Z</time>
      </trkpt>
      <trkpt lat="59.243932" lon="18.110543">
        <ele>30</ele>
        <time>2020-02-13T16:20:37Z</time>
      </trkpt>
      <trkpt lat="59.243937" lon="18.110462">
        <ele>30</ele>
        <time>2020-02-13T16:20:38Z</time>
      </trkpt>
      <trkpt lat="59.243938" lon="18.110379">
        <ele>30</ele>
        <time>2020-02-13T16:20:39Z</time>
      </trkpt>
      <trkpt lat="59.24394" lon="18.110296">
        <ele>30</ele>
        <time>2020-02-13T16:20:40Z</time>
      </trkpt>
      <trkpt lat="59.243942" lon="18.110214">
        <ele>30</ele>
        <time>2020-02-13T16:20:41Z</time>
      </trkpt>
      <trkpt lat="59.243944" lon="18.110132">
        <ele>30</ele>
        <time>2020-02-13T16:20:42Z</time>
      </trkpt>
      <trkpt lat="59.243947" lon="18.11005">
        <ele>30</ele>
        <time>2020-02-13T16:20:43Z</time>
      </trkpt>
      <trkpt lat="59.243952" lon="18.109966">
        <ele>30</ele>
        <time>2020-02-13T16:20:44Z</time>
      </trkpt>
      <trkpt lat="59.243958" lon="18.109882">
        <ele>30</ele>
        <time>2020-02-13T16:20:45Z</time>
      </trkpt>
      <trkpt lat="59.243965" lon="18.109798">
        <ele>30</ele>
        <time>2020-02-13T16:20:46Z</time>
      </trkpt>
      <trkpt lat="59.243974" lon="18.109714">
        <ele>30</ele>
        <time>2020-02-13T16:20:48Z</time>
      </trkpt>
      <trkpt lat="59.243983" lon="18.109632">
        <ele>30</ele>
        <time>2020-02-13T16:20:48Z</time>
      </trkpt>
      <trkpt lat="59.243993" lon="18.109551">
        <ele>30</ele>
        <time>2020-02-13T16:20:50Z</time>
      </trkpt>
      <trkpt lat="59.244006" lon="18.10947">
        <ele>30</ele>
        <time>2020-02-13T16:20:50Z</time>
      </trkpt>
      <trkpt lat="59.244022" lon="18.109392">
        <ele>30</ele>
        <time>2020-02-13T16:20:51Z</time>
      </trkpt>
      <trkpt lat="59.244041" lon="18.109317">
        <ele>30</ele>
        <time>2020-02-13T16:20:52Z</time>
      </trkpt>
      <trkpt lat="59.244063" lon="18.109243">
        <ele>30</ele>
        <time>2020-02-13T16:20:53Z</time>
      </trkpt>
      <trkpt lat="59.244085" lon="18.10917">
        <ele>30</ele>
        <time>2020-02-13T16:20:54Z</time>
      </trkpt>
      <trkpt lat="59.244111" lon="18.109101">
        <ele>30</ele>
        <time>2020-02-13T16:20:55Z</time>
      </trkpt>
      <trkpt lat="59.244139" lon="18.109035">
        <ele>30</ele>
        <time>2020-02-13T16:20:56Z</time>
      </trkpt>
      <trkpt lat="59.244168" lon="18.108969">
        <ele>30</ele>
        <time>2020-02-13T16:20:57Z</time>
      </trkpt>
      <trkpt lat="59.244198" lon="18.108905">
        <ele>30</ele>
        <time>2020-02-13T16:20:59Z</time>
      </trkpt>
      <trkpt lat="59.244229" lon="18.108843">
        <ele>31</ele>
        <time>2020-02-13T16:20:59Z</time>
      </trkpt>
      <trkpt lat="59.24426" lon="18.108783">
        <ele>31</ele>
        <time>2020-02-13T16:21:00Z</time>
      </trkpt>
      <trkpt lat="59.244291" lon="18.108722">
        <ele>31</ele>
        <time>2020-02-13T16:21:01Z</time>
      </trkpt>
      <trkpt lat="59.244322" lon="18.108662">
        <ele>31</ele>
        <time>2020-02-13T16:21:02Z</time>
      </trkpt>
      <trkpt lat="59.244354" lon="18.108603">
        <ele>31</ele>
        <time>2020-02-13T16:21:03Z</time>
      </trkpt>
      <trkpt lat="59.244386" lon="18.108544">
        <ele>31</ele>
        <time>2020-02-13T16:21:04Z</time>
      </trkpt>
      <trkpt lat="59.244418" lon="18.108486">
        <ele>31</ele>
        <time>2020-02-13T16:21:05Z</time>
      </trkpt>
      <trkpt lat="59.244449" lon="18.108429">
        <ele>31</ele>
        <time>2020-02-13T16:21:06Z</time>
      </trkpt>
      <trkpt lat="59.24448" lon="18.108372">
        <ele>31</ele>
        <time>2020-02-13T16:21:07Z</time>
      </trkpt>
      <trkpt lat="59.244511" lon="18.108317">
        <ele>31</ele>
        <time>2020-02-13T16:21:09Z</time>
      </trkpt>
      <trkpt lat="59.244541" lon="18.108258">
        <ele>31</ele>
        <time>2020-02-13T16:21:09Z</time>
      </trkpt>
      <trkpt lat="59.24457" lon="18.108199">
        <ele>31</ele>
        <time>2020-02-13T16:21:11Z</time>
      </trkpt>
      <trkpt lat="59.244599" lon="18.10814">
        <ele>31</ele>
        <time>2020-02-13T16:21:11Z</time>
      </trkpt>
      <trkpt lat="59.244629" lon="18.108083">
        <ele>32</ele>
        <time>2020-02-13T16:21:12Z</time>
      </trkpt>
      <trkpt lat="59.244659" lon="18.108026">
        <ele>32</ele>
        <time>2020-02-13T16:21:13Z</time>
      </trkpt>
      <trkpt lat="59.244688" lon="18.107969">
        <ele>32</ele>
        <time>2020-02-13T16:21:14Z</time>
      </trkpt>
      <trkpt lat="59.244718" lon="18.10791">
        <ele>32</ele>
        <time>2020-02-13T16:21:15Z</time>
      </trkpt>
      <trkpt lat="59.244749" lon="18.107852">
        <ele>32</ele>
        <time>2020-02-13T16:21:16Z</time>
      </trkpt>
      <trkpt lat="59.24478" lon="18.107793">
        <ele>32</ele>
        <time>2020-02-13T16:21:17Z</time>
      </trkpt>
      <trkpt lat="59.244812" lon="18.107732">
        <ele>32</ele>
        <time>2020-02-13T16:21:18Z</time>
      </trkpt>
      <trkpt lat="59.244845" lon="18.10767">
        <ele>32</ele>
        <time>2020-02-13T16:21:19Z</time>
      </trkpt>
      <trkpt lat="59.244878" lon="18.107606">
        <ele>32</ele>
        <time>2020-02-13T16:21:20Z</time>
      </trkpt>
      <trkpt lat="59.244912" lon="18.107544">
        <ele>32</ele>
        <time>2020-02-13T16:21:22Z</time>
      </trkpt>
      <trkpt lat="59.244949" lon="18.107484">
        <ele>32</ele>
        <time>2020-02-13T16:21:22Z</time>
      </trkpt>
      <trkpt lat="59.244987" lon="18.107425">
        <ele>32</ele>
        <time>2020-02-13T16:21:23Z</time>
      </trkpt>
      <trkpt lat="59.245025" lon="18.107364">
        <ele>32</ele>
        <time>2020-02-13T16:21:24Z</time>
      </trkpt>
      <trkpt lat="59.245064" lon="18.107302">
        <ele>32</ele>
        <time>2020-02-13T16:21:25Z</time>
      </trkpt>
      <trkpt lat="59.245104" lon="18.107237">
        <ele>32</ele>
        <time>2020-02-13T16:21:26Z</time>
      </trkpt>
      <trkpt lat="59.245144" lon="18.107168">
        <ele>32</ele>
        <time>2020-02-13T16:21:28Z</time>
      </trkpt>
      <trkpt lat="59.245185" lon="18.107095">
        <ele>32</ele>
        <time>2020-02-13T16:21:28Z</time>
      </trkpt>
      <trkpt lat="59.245227" lon="18.107019">
        <ele>32</ele>
        <time>2020-02-13T16:21:29Z</time>
      </trkpt>
      <trkpt lat="59.245268" lon="18.106941">
        <ele>32</ele>
        <time>2020-02-13T16:21:30Z</time>
      </trkpt>
      <trkpt lat="59.245311" lon="18.106861">
        <ele>31</ele>
        <time>2020-02-13T16:21:32Z</time>
      </trkpt>
      <trkpt lat="59.245354" lon="18.106781">
        <ele>31</ele>
        <time>2020-02-13T16:21:32Z</time>
      </trkpt>
      <trkpt lat="59.245399" lon="18.106701">
        <ele>31</ele>
        <time>2020-02-13T16:21:33Z</time>
      </trkpt>
      <trkpt lat="59.245446" lon="18.106619">
        <ele>31</ele>
        <time>2020-02-13T16:21:34Z</time>
      </trkpt>
      <trkpt lat="59.245493" lon="18.106536">
        <ele>31</ele>
        <time>2020-02-13T16:21:35Z</time>
      </trkpt>
      <trkpt lat="59.245539" lon="18.106448">
        <ele>30</ele>
        <time>2020-02-13T16:21:36Z</time>
      </trkpt>
      <trkpt lat="59.245587" lon="18.106361">
        <ele>30</ele>
        <time>2020-02-13T16:21:37Z</time>
      </trkpt>
      <trkpt lat="59.24564" lon="18.106277">
        <ele>30</ele>
        <time>2020-02-13T16:21:39Z</time>
      </trkpt>
      <trkpt lat="59.245694" lon="18.106195">
        <ele>30</ele>
        <time>2020-02-13T16:21:39Z</time>
      </trkpt>
      <trkpt lat="59.24575" lon="18.106114">
        <ele>29</ele>
        <time>2020-02-13T16:21:40Z</time>
      </trkpt>
      <trkpt lat="59.245807" lon="18.106028">
        <ele>29</ele>
        <time>2020-02-13T16:21:41Z</time>
      </trkpt>
      <trkpt lat="59.245866" lon="18.105939">
        <ele>29</ele>
        <time>2020-02-13T16:21:42Z</time>
      </trkpt>
      <trkpt lat="59.245926" lon="18.105852">
        <ele>29</ele>
        <time>2020-02-13T16:21:43Z</time>
      </trkpt>
      <trkpt lat="59.245984" lon="18.105765">
        <ele>29</ele>
        <time>2020-02-13T16:21:44Z</time>
      </trkpt>
      <trkpt lat="59.246042" lon="18.105675">
        <ele>29</ele>
        <time>2020-02-13T16:21:46Z</time>
      </trkpt>
      <trkpt lat="59.2461" lon="18.105586">
        <ele>28</ele>
        <time>2020-02-13T16:21:47Z</time>
      </trkpt>
      <trkpt lat="59.24616" lon="18.1055">
        <ele>28</ele>
        <time>2020-02-13T16:21:47Z</time>
      </trkpt>
      <trkpt lat="59.246226" lon="18.10543">
        <ele>28</ele>
        <time>2020-02-13T16:21:48Z</time>
      </trkpt>
      <trkpt lat="59.246298" lon="18.105386">
        <ele>28</ele>
        <time>2020-02-13T16:21:49Z</time>
      </trkpt>
      <trkpt lat="59.246374" lon="18.105361">
        <ele>27</ele>
        <time>2020-02-13T16:21:50Z</time>
      </trkpt>
      <trkpt lat="59.246452" lon="18.105339">
        <ele>27</ele>
        <time>2020-02-13T16:21:51Z</time>
      </trkpt>
      <trkpt lat="59.246529" lon="18.105304">
        <ele>27</ele>
        <time>2020-02-13T16:21:53Z</time>
      </trkpt>
      <trkpt lat="59.246604" lon="18.105239">
        <ele>26</ele>
        <time>2020-02-13T16:21:53Z</time>
      </trkpt>
      <trkpt lat="59.246674" lon="18.105152">
        <ele>26</ele>
        <time>2020-02-13T16:21:54Z</time>
      </trkpt>
      <trkpt lat="59.246744" lon="18.10506">
        <ele>25</ele>
        <time>2020-02-13T16:21:55Z</time>
      </trkpt>
      <trkpt lat="59.246814" lon="18.10497">
        <ele>25</ele>
        <time>2020-02-13T16:21:56Z</time>
      </trkpt>
      <trkpt lat="59.246878" lon="18.104883">
        <ele>25</ele>
        <time>2020-02-13T16:21:57Z</time>
      </trkpt>
      <trkpt lat="59.246929" lon="18.104799">
        <ele>25</ele>
        <time>2020-02-13T16:21:59Z</time>
      </trkpt>
      <trkpt lat="59.246958" lon="18.104704">
        <ele>25</ele>
        <time>2020-02-13T16:21:59Z</time>
      </trkpt>
      <trkpt lat="59.246964" lon="18.104594">
        <ele>25</ele>
        <time>2020-02-13T16:22:00Z</time>
      </trkpt>
      <trkpt lat="59.246959" lon="18.10448">
        <ele>25</ele>
        <time>2020-02-13T16:22:01Z</time>
      </trkpt>
      <trkpt lat="59.246953" lon="18.104362">
        <ele>25</ele>
        <time>2020-02-13T16:22:02Z</time>
      </trkpt>
      <trkpt lat="59.246951" lon="18.104247">
        <ele>25</ele>
        <time>2020-02-13T16:22:03Z</time>
      </trkpt>
      <trkpt lat="59.246958" lon="18.104151">
        <ele>25</ele>
        <time>2020-02-13T16:22:04Z</time>
      </trkpt>
      <trkpt lat="59.246973" lon="18.10405">
        <ele>25</ele>
        <time>2020-02-13T16:22:06Z</time>
      </trkpt>
      <trkpt lat="59.246989" lon="18.103946">
        <ele>25</ele>
        <time>2020-02-13T16:22:06Z</time>
      </trkpt>
      <trkpt lat="59.247009" lon="18.103851">
        <ele>25</ele>
        <time>2020-02-13T16:22:08Z</time>
      </trkpt>
      <trkpt lat="59.24703" lon="18.103761">
        <ele>25</ele>
        <time>2020-02-13T16:22:08Z</time>
      </trkpt>
      <trkpt lat="59.247054" lon="18.103676">
        <ele>26</ele>
        <time>2020-02-13T16:22:09Z</time>
      </trkpt>
      <trkpt lat="59.247082" lon="18.1036">
        <ele>26</ele>
        <time>2020-02-13T16:22:10Z</time>
      </trkpt>
      <trkpt lat="59.247114" lon="18.103533">
        <ele>26</ele>
        <time>2020-02-13T16:22:11Z</time>
      </trkpt>
      <trkpt lat="59.247147" lon="18.103478">
        <ele>26</ele>
        <time>2020-02-13T16:22:12Z</time>
      </trkpt>
      <trkpt lat="59.247181" lon="18.103426">
        <ele>26</ele>
        <time>2020-02-13T16:22:13Z</time>
      </trkpt>
      <trkpt lat="59.247215" lon="18.103374">
        <ele>27</ele>
        <time>2020-02-13T16:22:14Z</time>
      </trkpt>
      <trkpt lat="59.247249" lon="18.103324">
        <ele>27</ele>
        <time>2020-02-13T16:22:15Z</time>
      </trkpt>
      <trkpt lat="59.247283" lon="18.103274">
        <ele>27</ele>
        <time>2020-02-13T16:22:16Z</time>
      </trkpt>
      <trkpt lat="59.247316" lon="18.103223">
        <ele>27</ele>
        <time>2020-02-13T16:22:17Z</time>
      </trkpt>
      <trkpt lat="59.247348" lon="18.103172">
        <ele>27</ele>
        <time>2020-02-13T16:22:19Z</time>
      </trkpt>
      <trkpt lat="59.24738" lon="18.103117">
        <ele>28</ele>
        <time>2020-02-13T16:22:19Z</time>
      </trkpt>
      <trkpt lat="59.24741" lon="18.103064">
        <ele>28</ele>
        <time>2020-02-13T16:22:20Z</time>
      </trkpt>
      <trkpt lat="59.247439" lon="18.103005">
        <ele>28</ele>
        <time>2020-02-13T16:22:21Z</time>
      </trkpt>
      <trkpt lat="59.247465" lon="18.102945">
        <ele>28</ele>
        <time>2020-02-13T16:22:22Z</time>
      </trkpt>
      <trkpt lat="59.247491" lon="18.102884">
        <ele>28</ele>
        <time>2020-02-13T16:22:23Z</time>
      </trkpt>
      <trkpt lat="59.247512" lon="18.102816">
        <ele>29</ele>
        <time>2020-02-13T16:22:25Z</time>
      </trkpt>
      <trkpt lat="59.247532" lon="18.102747">
        <ele>29</ele>
        <time>2020-02-13T16:22:25Z</time>
      </trkpt>
      <trkpt lat="59.247551" lon="18.102679">
        <ele>29</ele>
        <time>2020-02-13T16:22:26Z</time>
      </trkpt>
      <trkpt lat="59.247569" lon="18.10261">
        <ele>30</ele>
        <time>2020-02-13T16:22:27Z</time>
      </trkpt>
      <trkpt lat="59.247585" lon="18.102541">
        <ele>30</ele>
        <time>2020-02-13T16:22:28Z</time>
      </trkpt>
      <trkpt lat="59.247602" lon="18.10247">
        <ele>30</ele>
        <time>2020-02-13T16:22:29Z</time>
      </trkpt>
      <trkpt lat="59.24762" lon="18.102395">
        <ele>30</ele>
        <time>2020-02-13T16:22:31Z</time>
      </trkpt>
      <trkpt lat="59.247641" lon="18.102317">
        <ele>30</ele>
        <time>2020-02-13T16:22:32Z</time>
      </trkpt>
      <trkpt lat="59.247661" lon="18.102236">
        <ele>30</ele>
        <time>2020-02-13T16:22:32Z</time>
      </trkpt>
      <trkpt lat="59.247679" lon="18.102152">
        <ele>30</ele>
        <time>2020-02-13T16:22:33Z</time>
      </trkpt>
      <trkpt lat="59.247699" lon="18.102068">
        <ele>31</ele>
        <time>2020-02-13T16:22:34Z</time>
      </trkpt>
      <trkpt lat="59.247719" lon="18.10198">
        <ele>31</ele>
        <time>2020-02-13T16:22:35Z</time>
      </trkpt>
      <trkpt lat="59.247738" lon="18.10189">
        <ele>31</ele>
        <time>2020-02-13T16:22:36Z</time>
      </trkpt>
      <trkpt lat="59.247758" lon="18.101798">
        <ele>31</ele>
        <time>2020-02-13T16:22:37Z</time>
      </trkpt>
      <trkpt lat="59.247781" lon="18.101707">
        <ele>32</ele>
        <time>2020-02-13T16:22:38Z</time>
      </trkpt>
      <trkpt lat="59.24781" lon="18.101621">
        <ele>32</ele>
        <time>2020-02-13T16:22:39Z</time>
      </trkpt>
      <trkpt lat="59.247844" lon="18.101536">
        <ele>32</ele>
        <time>2020-02-13T16:22:41Z</time>
      </trkpt>
      <trkpt lat="59.247875" lon="18.101446">
        <ele>32</ele>
        <time>2020-02-13T16:22:41Z</time>
      </trkpt>
      <trkpt lat="59.247907" lon="18.10135">
        <ele>32</ele>
        <time>2020-02-13T16:22:42Z</time>
      </trkpt>
      <trkpt lat="59.24794" lon="18.101253">
        <ele>32</ele>
        <time>2020-02-13T16:22:44Z</time>
      </trkpt>
      <trkpt lat="59.247978" lon="18.10116">
        <ele>32</ele>
        <time>2020-02-13T16:22:44Z</time>
      </trkpt>
      <trkpt lat="59.248016" lon="18.101068">
        <ele>32</ele>
        <time>2020-02-13T16:22:45Z</time>
      </trkpt>
      <trkpt lat="59.248054" lon="18.100974">
        <ele>32</ele>
        <time>2020-02-13T16:22:46Z</time>
      </trkpt>
      <trkpt lat="59.248095" lon="18.100881">
        <ele>32</ele>
        <time>2020-02-13T16:22:47Z</time>
      </trkpt>
      <trkpt lat="59.248139" lon="18.100795">
        <ele>31</ele>
        <time>2020-02-13T16:22:48Z</time>
      </trkpt>
      <trkpt lat="59.248188" lon="18.100719">
        <ele>31</ele>
        <time>2020-02-13T16:22:50Z</time>
      </trkpt>
      <trkpt lat="59.248241" lon="18.100653">
        <ele>31</ele>
        <time>2020-02-13T16:22:50Z</time>
      </trkpt>
      <trkpt lat="59.248298" lon="18.100597">
        <ele>30</ele>
        <time>2020-02-13T16:22:51Z</time>
      </trkpt>
      <trkpt lat="59.248357" lon="18.100545">
        <ele>30</ele>
        <time>2020-02-13T16:22:52Z</time>
      </trkpt>
      <trkpt lat="59.248419" lon="18.100491">
        <ele>30</ele>
        <time>2020-02-13T16:22:53Z</time>
      </trkpt>
      <trkpt lat="59.248482" lon="18.100428">
        <ele>30</ele>
        <time>2020-02-13T16:22:54Z</time>
      </trkpt>
      <trkpt lat="59.248542" lon="18.100361">
        <ele>30</ele>
        <time>2020-02-13T16:22:55Z</time>
      </trkpt>
      <trkpt lat="59.248597" lon="18.100286">
        <ele>30</ele>
        <time>2020-02-13T16:22:57Z</time>
      </trkpt>
      <trkpt lat="59.248651" lon="18.100208">
        <ele>30</ele>
        <time>2020-02-13T16:22:57Z</time>
      </trkpt>
      <trkpt lat="59.248702" lon="18.100132">
        <ele>30</ele>
        <time>2020-02-13T16:22:58Z</time>
      </trkpt>
      <trkpt lat="59.248753" lon="18.100059">
        <ele>30</ele>
        <time>2020-02-13T16:22:59Z</time>
      </trkpt>
      <trkpt lat="59.248803" lon="18.099988">
        <ele>29</ele>
        <time>2020-02-13T16:23:00Z</time>
      </trkpt>
      <trkpt lat="59.248855" lon="18.09992">
        <ele>29</ele>
        <time>2020-02-13T16:23:01Z</time>
      </trkpt>
      <trkpt lat="59.248909" lon="18.099856">
        <ele>29</ele>
        <time>2020-02-13T16:23:03Z</time>
      </trkpt>
      <trkpt lat="59.248965" lon="18.099798">
        <ele>29</ele>
        <time>2020-02-13T16:23:03Z</time>
      </trkpt>
      <trkpt lat="59.249023" lon="18.099745">
        <ele>29</ele>
        <time>2020-02-13T16:23:05Z</time>
      </trkpt>
      <trkpt lat="59.249083" lon="18.099698">
        <ele>28</ele>
        <time>2020-02-13T16:23:05Z</time>
      </trkpt>
      <trkpt lat="59.249147" lon="18.099656">
        <ele>28</ele>
        <time>2020-02-13T16:23:06Z</time>
      </trkpt>
      <trkpt lat="59.249212" lon="18.099621">
        <ele>28</ele>
        <time>2020-02-13T16:23:07Z</time>
      </trkpt>
      <trkpt lat="59.249278" lon="18.099591">
        <ele>28</ele>
        <time>2020-02-13T16:23:08Z</time>
      </trkpt>
      <trkpt lat="59.249345" lon="18.099563">
        <ele>28</ele>
        <time>2020-02-13T16:23:09Z</time>
      </trkpt>
      <trkpt lat="59.249412" lon="18.099536">
        <ele>28</ele>
        <time>2020-02-13T16:23:10Z</time>
      </trkpt>
      <trkpt lat="59.249479" lon="18.09951">
        <ele>27</ele>
        <time>2020-02-13T16:23:12Z</time>
      </trkpt>
      <trkpt lat="59.249546" lon="18.099487">
        <ele>27</ele>
        <time>2020-02-13T16:23:12Z</time>
      </trkpt>
      <trkpt lat="59.249614" lon="18.099472">
        <ele>27</ele>
        <time>2020-02-13T16:23:13Z</time>
      </trkpt>
      <trkpt lat="59.249684" lon="18.099471">
        <ele>27</ele>
        <time>2020-02-13T16:23:14Z</time>
      </trkpt>
      <trkpt lat="59.249751" lon="18.099483">
        <ele>27</ele>
        <time>2020-02-13T16:23:15Z</time>
      </trkpt>
      <trkpt lat="59.249814" lon="18.099503">
        <ele>27</ele>
        <time>2020-02-13T16:23:16Z</time>
      </trkpt>
      <trkpt lat="59.249873" lon="18.099526">
        <ele>27</ele>
        <time>2020-02-13T16:23:17Z</time>
      </trkpt>
      <trkpt lat="59.249928" lon="18.099552">
        <ele>27</ele>
        <time>2020-02-13T16:23:18Z</time>
      </trkpt>
      <trkpt lat="59.249981" lon="18.099578">
        <ele>27</ele>
        <time>2020-02-13T16:23:20Z</time>
      </trkpt>
      <trkpt lat="59.250032" lon="18.099602">
        <ele>27</ele>
        <time>2020-02-13T16:23:20Z</time>
      </trkpt>
      <trkpt lat="59.250083" lon="18.099624">
        <ele>27</ele>
        <time>2020-02-13T16:23:22Z</time>
      </trkpt>
      <trkpt lat="59.250133" lon="18.099645">
        <ele>28</ele>
        <time>2020-02-13T16:23:22Z</time>
      </trkpt>
      <trkpt lat="59.250181" lon="18.099666">
        <ele>28</ele>
        <time>2020-02-13T16:23:23Z</time>
      </trkpt>
      <trkpt lat="59.25023" lon="18.099686">
        <ele>28</ele>
        <time>2020-02-13T16:23:24Z</time>
      </trkpt>
      <trkpt lat="59.250277" lon="18.099709">
        <ele>28</ele>
        <time>2020-02-13T16:23:25Z</time>
      </trkpt>
      <trkpt lat="59.250324" lon="18.099734">
        <ele>28</ele>
        <time>2020-02-13T16:23:26Z</time>
      </trkpt>
      <trkpt lat="59.250371" lon="18.099759">
        <ele>28</ele>
        <time>2020-02-13T16:23:27Z</time>
      </trkpt>
      <trkpt lat="59.250417" lon="18.099788">
        <ele>28</ele>
        <time>2020-02-13T16:23:28Z</time>
      </trkpt>
      <trkpt lat="59.250464" lon="18.099822">
        <ele>28</ele>
        <time>2020-02-13T16:23:30Z</time>
      </trkpt>
      <trkpt lat="59.250508" lon="18.099864">
        <ele>28</ele>
        <time>2020-02-13T16:23:30Z</time>
      </trkpt>
      <trkpt lat="59.250549" lon="18.099916">
        <ele>28</ele>
        <time>2020-02-13T16:23:31Z</time>
      </trkpt>
      <trkpt lat="59.250588" lon="18.099971">
        <ele>28</ele>
        <time>2020-02-13T16:23:32Z</time>
      </trkpt>
      <trkpt lat="59.250626" lon="18.100025">
        <ele>28</ele>
        <time>2020-02-13T16:23:33Z</time>
      </trkpt>
      <trkpt lat="59.250661" lon="18.100084">
        <ele>28</ele>
        <time>2020-02-13T16:23:34Z</time>
      </trkpt>
      <trkpt lat="59.250694" lon="18.10015">
        <ele>28</ele>
        <time>2020-02-13T16:23:35Z</time>
      </trkpt>
      <trkpt lat="59.250728" lon="18.100223">
        <ele>28</ele>
        <time>2020-02-13T16:23:36Z</time>
      </trkpt>
      <trkpt lat="59.250761" lon="18.100301">
        <ele>28</ele>
        <time>2020-02-13T16:23:37Z</time>
      </trkpt>
      <trkpt lat="59.250796" lon="18.100383">
        <ele>28</ele>
        <time>2020-02-13T16:23:38Z</time>
      </trkpt>
      <trkpt lat="59.250836" lon="18.100463">
        <ele>28</ele>
        <time>2020-02-13T16:23:40Z</time>
      </trkpt>
      <trkpt lat="59.25088" lon="18.100541">
        <ele>28</ele>
        <time>2020-02-13T16:23:41Z</time>
      </trkpt>
      <trkpt lat="59.250928" lon="18.100615">
        <ele>28</ele>
        <time>2020-02-13T16:23:41Z</time>
      </trkpt>
      <trkpt lat="59.250979" lon="18.100686">
        <ele>28</ele>
        <time>2020-02-13T16:23:42Z</time>
      </trkpt>
      <trkpt lat="59.251035" lon="18.10075">
        <ele>28</ele>
        <time>2020-02-13T16:23:43Z</time>
      </trkpt>
      <trkpt lat="59.251096" lon="18.100808">
        <ele>28</ele>
        <time>2020-02-13T16:23:44Z</time>
      </trkpt>
      <trkpt lat="59.251159" lon="18.100862">
        <ele>28</ele>
        <time>2020-02-13T16:23:45Z</time>
      </trkpt>
      <trkpt lat="59.251226" lon="18.100909">
        <ele>28</ele>
        <time>2020-02-13T16:23:46Z</time>
      </trkpt>
      <trkpt lat="59.251296" lon="18.100945">
        <ele>27</ele>
        <time>2020-02-13T16:23:48Z</time>
      </trkpt>
      <trkpt lat="59.251368" lon="18.100964">
        <ele>27</ele>
        <time>2020-02-13T16:23:48Z</time>
      </trkpt>
      <trkpt lat="59.25144" lon="18.100961">
        <ele>27</ele>
        <time>2020-02-13T16:23:49Z</time>
      </trkpt>
      <trkpt lat="59.251513" lon="18.100936">
        <ele>27</ele>
        <time>2020-02-13T16:23:50Z</time>
      </trkpt>
      <trkpt lat="59.251585" lon="18.100896">
        <ele>26</ele>
        <time>2020-02-13T16:23:51Z</time>
      </trkpt>
      <trkpt lat="59.251657" lon="18.100849">
        <ele>26</ele>
        <time>2020-02-13T16:23:52Z</time>
      </trkpt>
      <trkpt lat="59.251731" lon="18.100803">
        <ele>26</ele>
        <time>2020-02-13T16:23:54Z</time>
      </trkpt>
      <trkpt lat="59.251807" lon="18.100754">
        <ele>26</ele>
        <time>2020-02-13T16:23:54Z</time>
      </trkpt>
      <trkpt lat="59.251885" lon="18.100704">
        <ele>26</ele>
        <time>2020-02-13T16:23:55Z</time>
      </trkpt>
      <trkpt lat="59.251964" lon="18.100653">
        <ele>25</ele>
        <time>2020-02-13T16:23:56Z</time>
      </trkpt>
      <trkpt lat="59.252046" lon="18.100601">
        <ele>25</ele>
        <time>2020-02-13T16:23:57Z</time>
      </trkpt>
      <trkpt lat="59.25213" lon="18.100547">
        <ele>24</ele>
        <time>2020-02-13T16:23:58Z</time>
      </trkpt>
      <trkpt lat="59.252214" lon="18.100491">
        <ele>0</ele>
        <time>2020-02-13T16:23:59Z</time>
      </trkpt>
      <trkpt lat="59.2523" lon="18.100438">
        <ele>24</ele>
        <time>2020-02-13T16:24:00Z</time>
      </trkpt>
      <trkpt lat="59.252388" lon="18.100388">
        <ele>23</ele>
        <time>2020-02-13T16:24:01Z</time>
      </trkpt>
      <trkpt lat="59.252476" lon="18.10034">
        <ele>22</ele>
        <time>2020-02-13T16:24:02Z</time>
      </trkpt>
      <trkpt lat="59.252564" lon="18.100294">
        <ele>22</ele>
        <time>2020-02-13T16:24:03Z</time>
      </trkpt>
      <trkpt lat="59.252651" lon="18.10025">
        <ele>22</ele>
        <time>2020-02-13T16:24:04Z</time>
      </trkpt>
      <trkpt lat="59.252737" lon="18.100214">
        <ele>22</ele>
        <time>2020-02-13T16:24:06Z</time>
      </trkpt>
      <trkpt lat="59.252822" lon="18.100188">
        <ele>22</ele>
        <time>2020-02-13T16:24:06Z</time>
      </trkpt>
      <trkpt lat="59.252906" lon="18.100174">
        <ele>22</ele>
        <time>2020-02-13T16:24:07Z</time>
      </trkpt>
      <trkpt lat="59.252989" lon="18.100166">
        <ele>22</ele>
        <time>2020-02-13T16:24:08Z</time>
      </trkpt>
      <trkpt lat="59.25307" lon="18.100164">
        <ele>22</ele>
        <time>2020-02-13T16:24:09Z</time>
      </trkpt>
      <trkpt lat="59.253148" lon="18.100172">
        <ele>22</ele>
        <time>2020-02-13T16:24:10Z</time>
      </trkpt>
      <trkpt lat="59.253222" lon="18.100196">
        <ele>22</ele>
        <time>2020-02-13T16:24:12Z</time>
      </trkpt>
      <trkpt lat="59.253292" lon="18.100238">
        <ele>22</ele>
        <time>2020-02-13T16:24:12Z</time>
      </trkpt>
      <trkpt lat="59.253357" lon="18.100294">
        <ele>22</ele>
        <time>2020-02-13T16:24:13Z</time>
      </trkpt>
      <trkpt lat="59.253422" lon="18.100349">
        <ele>22</ele>
        <time>2020-02-13T16:24:14Z</time>
      </trkpt>
      <trkpt lat="59.253488" lon="18.100398">
        <ele>22</ele>
        <time>2020-02-13T16:24:15Z</time>
      </trkpt>
      <trkpt lat="59.253555" lon="18.10044">
        <ele>22</ele>
        <time>2020-02-13T16:24:16Z</time>
      </trkpt>
      <trkpt lat="59.253621" lon="18.100478">
        <ele>22</ele>
        <time>2020-02-13T16:24:17Z</time>
      </trkpt>
      <trkpt lat="59.253685" lon="18.100509">
        <ele>0</ele>
        <time>2020-02-13T16:24:18Z</time>
      </trkpt>
      <trkpt lat="59.253749" lon="18.100536">
        <ele>22</ele>
        <time>2020-02-13T16:24:19Z</time>
      </trkpt>
      <trkpt lat="59.253814" lon="18.10056">
        <ele>22</ele>
        <time>2020-02-13T16:24:20Z</time>
      </trkpt>
      <trkpt lat="59.253878" lon="18.100582">
        <ele>22</ele>
        <time>2020-02-13T16:24:21Z</time>
      </trkpt>
      <trkpt lat="59.253938" lon="18.100604">
        <ele>22</ele>
        <time>2020-02-13T16:24:22Z</time>
      </trkpt>
      <trkpt lat="59.253995" lon="18.100624">
        <ele>23</ele>
        <time>2020-02-13T16:24:23Z</time>
      </trkpt>
      <trkpt lat="59.254056" lon="18.100636">
        <ele>23</ele>
        <time>2020-02-13T16:24:24Z</time>
      </trkpt>
      <trkpt lat="59.254118" lon="18.100642">
        <ele>23</ele>
        <time>2020-02-13T16:24:25Z</time>
      </trkpt>
      <trkpt lat="59.254182" lon="18.100649">
        <ele>23</ele>
        <time>2020-02-13T16:24:27Z</time>
      </trkpt>
      <trkpt lat="59.254246" lon="18.10066">
        <ele>23</ele>
        <time>2020-02-13T16:24:27Z</time>
      </trkpt>
      <trkpt lat="59.254309" lon="18.10068">
        <ele>23</ele>
        <time>2020-02-13T16:24:28Z</time>
      </trkpt>
      <trkpt lat="59.254371" lon="18.100703">
        <ele>23</ele>
        <time>2020-02-13T16:24:29Z</time>
      </trkpt>
      <trkpt lat="59.25443" lon="18.100724">
        <ele>23</ele>
        <time>2020-02-13T16:24:30Z</time>
      </trkpt>
      <trkpt lat="59.254488" lon="18.100748">
        <ele>23</ele>
        <time>2020-02-13T16:24:31Z</time>
      </trkpt>
      <trkpt lat="59.254548" lon="18.100768">
        <ele>23</ele>
        <time>2020-02-13T16:24:32Z</time>
      </trkpt>
      <trkpt lat="59.254607" lon="18.100786">
        <ele>23</ele>
        <time>2020-02-13T16:24:33Z</time>
      </trkpt>
      <trkpt lat="59.254667" lon="18.100803">
        <ele>23</ele>
        <time>2020-02-13T16:24:35Z</time>
      </trkpt>
      <trkpt lat="59.254727" lon="18.100824">
        <ele>23</ele>
        <time>2020-02-13T16:24:35Z</time>
      </trkpt>
      <trkpt lat="59.254786" lon="18.100842">
        <ele>24</ele>
        <time>2020-02-13T16:24:36Z</time>
      </trkpt>
      <trkpt lat="59.254844" lon="18.100856">
        <ele>24</ele>
        <time>2020-02-13T16:24:38Z</time>
      </trkpt>
      <trkpt lat="59.254899" lon="18.10087">
        <ele>24</ele>
        <time>2020-02-13T16:24:38Z</time>
      </trkpt>
      <trkpt lat="59.254959" lon="18.100886">
        <ele>24</ele>
        <time>2020-02-13T16:24:39Z</time>
      </trkpt>
      <trkpt lat="59.255019" lon="18.100902">
        <ele>24</ele>
        <time>2020-02-13T16:24:40Z</time>
      </trkpt>
      <trkpt lat="59.255078" lon="18.100914">
        <ele>24</ele>
        <time>2020-02-13T16:24:41Z</time>
      </trkpt>
      <trkpt lat="59.255138" lon="18.100928">
        <ele>24</ele>
        <time>2020-02-13T16:24:42Z</time>
      </trkpt>
      <trkpt lat="59.255198" lon="18.100942">
        <ele>24</ele>
        <time>2020-02-13T16:24:44Z</time>
      </trkpt>
      <trkpt lat="59.255258" lon="18.100954">
        <ele>24</ele>
        <time>2020-02-13T16:24:44Z</time>
      </trkpt>
      <trkpt lat="59.255318" lon="18.100964">
        <ele>24</ele>
        <time>2020-02-13T16:24:45Z</time>
      </trkpt>
      <trkpt lat="59.255379" lon="18.100978">
        <ele>24</ele>
        <time>2020-02-13T16:24:46Z</time>
      </trkpt>
      <trkpt lat="59.255441" lon="18.10099">
        <ele>24</ele>
        <time>2020-02-13T16:24:47Z</time>
      </trkpt>
      <trkpt lat="59.2555" lon="18.101002">
        <ele>24</ele>
        <time>2020-02-13T16:24:48Z</time>
      </trkpt>
      <trkpt lat="59.255559" lon="18.101016">
        <ele>24</ele>
        <time>2020-02-13T16:24:49Z</time>
      </trkpt>
      <trkpt lat="59.255618" lon="18.10103">
        <ele>25</ele>
        <time>2020-02-13T16:24:50Z</time>
      </trkpt>
      <trkpt lat="59.255677" lon="18.101037">
        <ele>25</ele>
        <time>2020-02-13T16:24:52Z</time>
      </trkpt>
      <trkpt lat="59.255733" lon="18.101048">
        <ele>25</ele>
        <time>2020-02-13T16:24:52Z</time>
      </trkpt>
      <trkpt lat="59.25579" lon="18.101058">
        <ele>25</ele>
        <time>2020-02-13T16:24:53Z</time>
      </trkpt>
      <trkpt lat="59.255847" lon="18.101068">
        <ele>25</ele>
        <time>2020-02-13T16:24:54Z</time>
      </trkpt>
      <trkpt lat="59.255905" lon="18.101078">
        <ele>25</ele>
        <time>2020-02-13T16:24:55Z</time>
      </trkpt>
      <trkpt lat="59.255963" lon="18.101086">
        <ele>25</ele>
        <time>2020-02-13T16:24:57Z</time>
      </trkpt>
      <trkpt lat="59.25602" lon="18.101092">
        <ele>25</ele>
        <time>2020-02-13T16:24:57Z</time>
      </trkpt>
      <trkpt lat="59.256077" lon="18.101094">
        <ele>25</ele>
        <time>2020-02-13T16:24:58Z</time>
      </trkpt>
      <trkpt lat="59.256138" lon="18.101098">
        <ele>25</ele>
        <time>2020-02-13T16:24:59Z</time>
      </trkpt>
      <trkpt lat="59.2562" lon="18.101102">
        <ele>25</ele>
        <time>2020-02-13T16:25:01Z</time>
      </trkpt>
      <trkpt lat="59.25626" lon="18.101106">
        <ele>25</ele>
        <time>2020-02-13T16:25:01Z</time>
      </trkpt>
      <trkpt lat="59.256322" lon="18.10111">
        <ele>26</ele>
        <time>2020-02-13T16:25:02Z</time>
      </trkpt>
      <trkpt lat="59.256384" lon="18.101114">
        <ele>25</ele>
        <time>2020-02-13T16:25:03Z</time>
      </trkpt>
      <trkpt lat="59.256448" lon="18.101121">
        <ele>26</ele>
        <time>2020-02-13T16:25:04Z</time>
      </trkpt>
      <trkpt lat="59.256511" lon="18.101127">
        <ele>26</ele>
        <time>2020-02-13T16:25:05Z</time>
      </trkpt>
      <trkpt lat="59.256573" lon="18.10113">
        <ele>26</ele>
        <time>2020-02-13T16:25:06Z</time>
      </trkpt>
      <trkpt lat="59.256632" lon="18.101133">
        <ele>26</ele>
        <time>2020-02-13T16:25:07Z</time>
      </trkpt>
      <trkpt lat="59.25669" lon="18.101135">
        <ele>26</ele>
        <time>2020-02-13T16:25:09Z</time>
      </trkpt>
      <trkpt lat="59.256748" lon="18.101135">
        <ele>26</ele>
        <time>2020-02-13T16:25:09Z</time>
      </trkpt>
      <trkpt lat="59.256806" lon="18.101134">
        <ele>26</ele>
        <time>2020-02-13T16:25:10Z</time>
      </trkpt>
      <trkpt lat="59.256864" lon="18.101128">
        <ele>25</ele>
        <time>2020-02-13T16:25:11Z</time>
      </trkpt>
      <trkpt lat="59.25692" lon="18.101111">
        <ele>25</ele>
        <time>2020-02-13T16:25:12Z</time>
      </trkpt>
      <trkpt lat="59.256967" lon="18.101071">
        <ele>25</ele>
        <time>2020-02-13T16:25:13Z</time>
      </trkpt>
      <trkpt lat="59.257001" lon="18.101">
        <ele>25</ele>
        <time>2020-02-13T16:25:14Z</time>
      </trkpt>
      <trkpt lat="59.257025" lon="18.100909">
        <ele>25</ele>
        <time>2020-02-13T16:25:16Z</time>
      </trkpt>
      <trkpt lat="59.257046" lon="18.100815">
        <ele>25</ele>
        <time>2020-02-13T16:25:16Z</time>
      </trkpt>
      <trkpt lat="59.257068" lon="18.100725">
        <ele>26</ele>
        <time>2020-02-13T16:25:18Z</time>
      </trkpt>
      <trkpt lat="59.25709" lon="18.100635">
        <ele>26</ele>
        <time>2020-02-13T16:25:18Z</time>
      </trkpt>
      <trkpt lat="59.257107" lon="18.100557">
        <ele>26</ele>
        <time>2020-02-13T16:25:19Z</time>
      </trkpt>
      <trkpt lat="59.257116" lon="18.100465">
        <ele>26</ele>
        <time>2020-02-13T16:25:20Z</time>
      </trkpt>
      <trkpt lat="59.257076" lon="18.100272">
        <ele>26</ele>
        <time>2020-02-13T16:25:22Z</time>
      </trkpt>
      <trkpt lat="59.257042" lon="18.100059">
        <ele>26</ele>
        <time>2020-02-13T16:25:23Z</time>
      </trkpt>
      <trkpt lat="59.257112" lon="18.099925">
        <ele>26</ele>
        <time>2020-02-13T16:25:25Z</time>
      </trkpt>
      <trkpt lat="59.257186" lon="18.099807">
        <ele>27</ele>
        <time>2020-02-13T16:25:25Z</time>
      </trkpt>
      <trkpt lat="59.257269" lon="18.099723">
        <ele>27</ele>
        <time>2020-02-13T16:25:26Z</time>
      </trkpt>
      <trkpt lat="59.257324" lon="18.099632">
        <ele>27</ele>
        <time>2020-02-13T16:25:27Z</time>
      </trkpt>
      <trkpt lat="59.257367" lon="18.099551">
        <ele>27</ele>
        <time>2020-02-13T16:25:28Z</time>
      </trkpt>
      <trkpt lat="59.257409" lon="18.099475">
        <ele>28</ele>
        <time>2020-02-13T16:25:29Z</time>
      </trkpt>
      <trkpt lat="59.257446" lon="18.099408">
        <ele>28</ele>
        <time>2020-02-13T16:25:30Z</time>
      </trkpt>
      <trkpt lat="59.257482" lon="18.099351">
        <ele>28</ele>
        <time>2020-02-13T16:25:31Z</time>
      </trkpt>
      <trkpt lat="59.25752" lon="18.099305">
        <ele>28</ele>
        <time>2020-02-13T16:25:33Z</time>
      </trkpt>
      <trkpt lat="59.257559" lon="18.099269">
        <ele>28</ele>
        <time>2020-02-13T16:25:33Z</time>
      </trkpt>
      <trkpt lat="59.2576" lon="18.099242">
        <ele>28</ele>
        <time>2020-02-13T16:25:35Z</time>
      </trkpt>
      <trkpt lat="59.25764" lon="18.09922">
        <ele>28</ele>
        <time>2020-02-13T16:25:35Z</time>
      </trkpt>
      <trkpt lat="59.257684" lon="18.099202">
        <ele>28</ele>
        <time>2020-02-13T16:25:36Z</time>
      </trkpt>
      <trkpt lat="59.257726" lon="18.099193">
        <ele>28</ele>
        <time>2020-02-13T16:25:37Z</time>
      </trkpt>
      <trkpt lat="59.25777" lon="18.099192">
        <ele>28</ele>
        <time>2020-02-13T16:25:38Z</time>
      </trkpt>
      <trkpt lat="59.257814" lon="18.099199">
        <ele>28</ele>
        <time>2020-02-13T16:25:39Z</time>
      </trkpt>
      <trkpt lat="59.257858" lon="18.099209">
        <ele>29</ele>
        <time>2020-02-13T16:25:40Z</time>
      </trkpt>
      <trkpt lat="59.2579" lon="18.099219">
        <ele>29</ele>
        <time>2020-02-13T16:25:41Z</time>
      </trkpt>
      <trkpt lat="59.257935" lon="18.099226">
        <ele>29</ele>
        <time>2020-02-13T16:25:42Z</time>
      </trkpt>
      <trkpt lat="59.257969" lon="18.099232">
        <ele>29</ele>
        <time>2020-02-13T16:25:43Z</time>
      </trkpt>
      <trkpt lat="59.258006" lon="18.099238">
        <ele>30</ele>
        <time>2020-02-13T16:25:44Z</time>
      </trkpt>
      <trkpt lat="59.25805" lon="18.099245">
        <ele>30</ele>
        <time>2020-02-13T16:25:46Z</time>
      </trkpt>
      <trkpt lat="59.258098" lon="18.099247">
        <ele>30</ele>
        <time>2020-02-13T16:25:46Z</time>
      </trkpt>
      <trkpt lat="59.258147" lon="18.099245">
        <ele>30</ele>
        <time>2020-02-13T16:25:47Z</time>
      </trkpt>
      <trkpt lat="59.258197" lon="18.099239">
        <ele>30</ele>
        <time>2020-02-13T16:25:48Z</time>
      </trkpt>
      <trkpt lat="59.258247" lon="18.099236">
        <ele>30</ele>
        <time>2020-02-13T16:25:49Z</time>
      </trkpt>
      <trkpt lat="59.258301" lon="18.099234">
        <ele>30</ele>
        <time>2020-02-13T16:25:50Z</time>
      </trkpt>
      <trkpt lat="59.258354" lon="18.099235">
        <ele>30</ele>
        <time>2020-02-13T16:25:51Z</time>
      </trkpt>
      <trkpt lat="59.25841" lon="18.099243">
        <ele>31</ele>
        <time>2020-02-13T16:25:52Z</time>
      </trkpt>
      <trkpt lat="59.258466" lon="18.099256">
        <ele>31</ele>
        <time>2020-02-13T16:25:54Z</time>
      </trkpt>
      <trkpt lat="59.258523" lon="18.099262">
        <ele>31</ele>
        <time>2020-02-13T16:25:55Z</time>
      </trkpt>
      <trkpt lat="59.258581" lon="18.099257">
        <ele>31</ele>
        <time>2020-02-13T16:25:55Z</time>
      </trkpt>
      <trkpt lat="59.258638" lon="18.099252">
        <ele>31</ele>
        <time>2020-02-13T16:25:56Z</time>
      </trkpt>
      <trkpt lat="59.258697" lon="18.099248">
        <ele>31</ele>
        <time>2020-02-13T16:25:57Z</time>
      </trkpt>
      <trkpt lat="59.258753" lon="18.099239">
        <ele>31</ele>
        <time>2020-02-13T16:25:58Z</time>
      </trkpt>
      <trkpt lat="59.258808" lon="18.099233">
        <ele>31</ele>
        <time>2020-02-13T16:25:59Z</time>
      </trkpt>
      <trkpt lat="59.258864" lon="18.099231">
        <ele>30</ele>
        <time>2020-02-13T16:26:00Z</time>
      </trkpt>
      <trkpt lat="59.258919" lon="18.099228">
        <ele>30</ele>
        <time>2020-02-13T16:26:01Z</time>
      </trkpt>
      <trkpt lat="59.258976" lon="18.099225">
        <ele>30</ele>
        <time>2020-02-13T16:26:02Z</time>
      </trkpt>
      <trkpt lat="59.259037" lon="18.099223">
        <ele>30</ele>
        <time>2020-02-13T16:26:04Z</time>
      </trkpt>
      <trkpt lat="59.259102" lon="18.099221">
        <ele>30</ele>
        <time>2020-02-13T16:26:04Z</time>
      </trkpt>
      <trkpt lat="59.259167" lon="18.099217">
        <ele>29</ele>
        <time>2020-02-13T16:26:06Z</time>
      </trkpt>
      <trkpt lat="59.25923" lon="18.099207">
        <ele>29</ele>
        <time>2020-02-13T16:26:06Z</time>
      </trkpt>
      <trkpt lat="59.259294" lon="18.099179">
        <ele>29</ele>
        <time>2020-02-13T16:26:07Z</time>
      </trkpt>
      <trkpt lat="59.259356" lon="18.099135">
        <ele>29</ele>
        <time>2020-02-13T16:26:08Z</time>
      </trkpt>
      <trkpt lat="59.259415" lon="18.09908">
        <ele>29</ele>
        <time>2020-02-13T16:26:09Z</time>
      </trkpt>
      <trkpt lat="59.259468" lon="18.09901">
        <ele>29</ele>
        <time>2020-02-13T16:26:11Z</time>
      </trkpt>
      <trkpt lat="59.259515" lon="18.098926">
        <ele>29</ele>
        <time>2020-02-13T16:26:11Z</time>
      </trkpt>
      <trkpt lat="59.259556" lon="18.098832">
        <ele>29</ele>
        <time>2020-02-13T16:26:13Z</time>
      </trkpt>
      <trkpt lat="59.25959" lon="18.098731">
        <ele>29</ele>
        <time>2020-02-13T16:26:13Z</time>
      </trkpt>
      <trkpt lat="59.259615" lon="18.098624">
        <ele>30</ele>
        <time>2020-02-13T16:26:14Z</time>
      </trkpt>
      <trkpt lat="59.259633" lon="18.098516">
        <ele>30</ele>
        <time>2020-02-13T16:26:15Z</time>
      </trkpt>
      <trkpt lat="59.259644" lon="18.098408">
        <ele>30</ele>
        <time>2020-02-13T16:26:16Z</time>
      </trkpt>
      <trkpt lat="59.259653" lon="18.098297">
        <ele>30</ele>
        <time>2020-02-13T16:26:17Z</time>
      </trkpt>
      <trkpt lat="59.259659" lon="18.098184">
        <ele>30</ele>
        <time>2020-02-13T16:26:18Z</time>
      </trkpt>
      <trkpt lat="59.259665" lon="18.098076">
        <ele>30</ele>
        <time>2020-02-13T16:26:20Z</time>
      </trkpt>
      <trkpt lat="59.259672" lon="18.09797">
        <ele>31</ele>
        <time>2020-02-13T16:26:20Z</time>
      </trkpt>
      <trkpt lat="59.259682" lon="18.097866">
        <ele>31</ele>
        <time>2020-02-13T16:26:21Z</time>
      </trkpt>
      <trkpt lat="59.259691" lon="18.097765">
        <ele>31</ele>
        <time>2020-02-13T16:26:22Z</time>
      </trkpt>
      <trkpt lat="59.259698" lon="18.097664">
        <ele>31</ele>
        <time>2020-02-13T16:26:23Z</time>
      </trkpt>
      <trkpt lat="59.259704" lon="18.097565">
        <ele>31</ele>
        <time>2020-02-13T16:26:24Z</time>
      </trkpt>
      <trkpt lat="59.259714" lon="18.097472">
        <ele>32</ele>
        <time>2020-02-13T16:26:25Z</time>
      </trkpt>
      <trkpt lat="59.259726" lon="18.097379">
        <ele>32</ele>
        <time>2020-02-13T16:26:26Z</time>
      </trkpt>
      <trkpt lat="59.259743" lon="18.097289">
        <ele>32</ele>
        <time>2020-02-13T16:26:27Z</time>
      </trkpt>
      <trkpt lat="59.259766" lon="18.097203">
        <ele>31</ele>
        <time>2020-02-13T16:26:28Z</time>
      </trkpt>
      <trkpt lat="59.259799" lon="18.097122">
        <ele>31</ele>
        <time>2020-02-13T16:26:30Z</time>
      </trkpt>
      <trkpt lat="59.259838" lon="18.097049">
        <ele>31</ele>
        <time>2020-02-13T16:26:30Z</time>
      </trkpt>
      <trkpt lat="59.259884" lon="18.096983">
        <ele>31</ele>
        <time>2020-02-13T16:26:32Z</time>
      </trkpt>
      <trkpt lat="59.259934" lon="18.09692">
        <ele>31</ele>
        <time>2020-02-13T16:26:32Z</time>
      </trkpt>
      <trkpt lat="59.259989" lon="18.09686">
        <ele>30</ele>
        <time>2020-02-13T16:26:33Z</time>
      </trkpt>
      <trkpt lat="59.260051" lon="18.096806">
        <ele>30</ele>
        <time>2020-02-13T16:26:34Z</time>
      </trkpt>
      <trkpt lat="59.260116" lon="18.096757">
        <ele>30</ele>
        <time>2020-02-13T16:26:35Z</time>
      </trkpt>
      <trkpt lat="59.260181" lon="18.096712">
        <ele>30</ele>
        <time>2020-02-13T16:26:37Z</time>
      </trkpt>
      <trkpt lat="59.260246" lon="18.09667">
        <ele>30</ele>
        <time>2020-02-13T16:26:37Z</time>
      </trkpt>
      <trkpt lat="59.26039" lon="18.096565">
        <ele>30</ele>
        <time>2020-02-13T16:26:39Z</time>
      </trkpt>
      <trkpt lat="59.260541" lon="18.096534">
        <ele>30</ele>
        <time>2020-02-13T16:26:41Z</time>
      </trkpt>
      <trkpt lat="59.2606" lon="18.096534">
        <ele>29</ele>
        <time>2020-02-13T16:26:42Z</time>
      </trkpt>
      <trkpt lat="59.260655" lon="18.096525">
        <ele>29</ele>
        <time>2020-02-13T16:26:43Z</time>
      </trkpt>
      <trkpt lat="59.260708" lon="18.09652">
        <ele>29</ele>
        <time>2020-02-13T16:26:45Z</time>
      </trkpt>
      <trkpt lat="59.260758" lon="18.096511">
        <ele>29</ele>
        <time>2020-02-13T16:26:45Z</time>
      </trkpt>
      <trkpt lat="59.260809" lon="18.096499">
        <ele>29</ele>
        <time>2020-02-13T16:26:46Z</time>
      </trkpt>
      <trkpt lat="59.260858" lon="18.096489">
        <ele>29</ele>
        <time>2020-02-13T16:26:47Z</time>
      </trkpt>
      <trkpt lat="59.260905" lon="18.096483">
        <ele>29</ele>
        <time>2020-02-13T16:26:48Z</time>
      </trkpt>
      <trkpt lat="59.260953" lon="18.09648">
        <ele>29</ele>
        <time>2020-02-13T16:26:49Z</time>
      </trkpt>
      <trkpt lat="59.261001" lon="18.096485">
        <ele>29</ele>
        <time>2020-02-13T16:26:51Z</time>
      </trkpt>
      <trkpt lat="59.261047" lon="18.096499">
        <ele>29</ele>
        <time>2020-02-13T16:26:51Z</time>
      </trkpt>
      <trkpt lat="59.261094" lon="18.09652">
        <ele>29</ele>
        <time>2020-02-13T16:26:52Z</time>
      </trkpt>
      <trkpt lat="59.261142" lon="18.096547">
        <ele>29</ele>
        <time>2020-02-13T16:26:53Z</time>
      </trkpt>
      <trkpt lat="59.261191" lon="18.096579">
        <ele>29</ele>
        <time>2020-02-13T16:26:55Z</time>
      </trkpt>
      <trkpt lat="59.26124" lon="18.096615">
        <ele>29</ele>
        <time>2020-02-13T16:26:55Z</time>
      </trkpt>
      <trkpt lat="59.261289" lon="18.096658">
        <ele>29</ele>
        <time>2020-02-13T16:26:56Z</time>
      </trkpt>
      <trkpt lat="59.261338" lon="18.096703">
        <ele>29</ele>
        <time>2020-02-13T16:26:57Z</time>
      </trkpt>
      <trkpt lat="59.261387" lon="18.096751">
        <ele>29</ele>
        <time>2020-02-13T16:26:58Z</time>
      </trkpt>
      <trkpt lat="59.261434" lon="18.096805">
        <ele>29</ele>
        <time>2020-02-13T16:26:59Z</time>
      </trkpt>
      <trkpt lat="59.26148" lon="18.096865">
        <ele>29</ele>
        <time>2020-02-13T16:27:00Z</time>
      </trkpt>
      <trkpt lat="59.261524" lon="18.09693">
        <ele>29</ele>
        <time>2020-02-13T16:27:01Z</time>
      </trkpt>
      <trkpt lat="59.261567" lon="18.096997">
        <ele>29</ele>
        <time>2020-02-13T16:27:02Z</time>
      </trkpt>
      <trkpt lat="59.261609" lon="18.097065">
        <ele>29</ele>
        <time>2020-02-13T16:27:04Z</time>
      </trkpt>
      <trkpt lat="59.26165" lon="18.097134">
        <ele>29</ele>
        <time>2020-02-13T16:27:04Z</time>
      </trkpt>
      <trkpt lat="59.261691" lon="18.097205">
        <ele>29</ele>
        <time>2020-02-13T16:27:05Z</time>
      </trkpt>
      <trkpt lat="59.261732" lon="18.097274">
        <ele>29</ele>
        <time>2020-02-13T16:27:06Z</time>
      </trkpt>
      <trkpt lat="59.261773" lon="18.097343">
        <ele>29</ele>
        <time>2020-02-13T16:27:07Z</time>
      </trkpt>
      <trkpt lat="59.261813" lon="18.09741">
        <ele>28</ele>
        <time>2020-02-13T16:27:08Z</time>
      </trkpt>
      <trkpt lat="59.261854" lon="18.097476">
        <ele>29</ele>
        <time>2020-02-13T16:27:10Z</time>
      </trkpt>
      <trkpt lat="59.261894" lon="18.097543">
        <ele>28</ele>
        <time>2020-02-13T16:27:10Z</time>
      </trkpt>
      <trkpt lat="59.261935" lon="18.097611">
        <ele>28</ele>
        <time>2020-02-13T16:27:11Z</time>
      </trkpt>
      <trkpt lat="59.261977" lon="18.097679">
        <ele>28</ele>
        <time>2020-02-13T16:27:12Z</time>
      </trkpt>
      <trkpt lat="59.26202" lon="18.097744">
        <ele>28</ele>
        <time>2020-02-13T16:27:14Z</time>
      </trkpt>
      <trkpt lat="59.262063" lon="18.097809">
        <ele>28</ele>
        <time>2020-02-13T16:27:14Z</time>
      </trkpt>
      <trkpt lat="59.262105" lon="18.097874">
        <ele>28</ele>
        <time>2020-02-13T16:27:15Z</time>
      </trkpt>
      <trkpt lat="59.262148" lon="18.097936">
        <ele>29</ele>
        <time>2020-02-13T16:27:16Z</time>
      </trkpt>
      <trkpt lat="59.262191" lon="18.097994">
        <ele>29</ele>
        <time>2020-02-13T16:27:17Z</time>
      </trkpt>
      <trkpt lat="59.262235" lon="18.098045">
        <ele>29</ele>
        <time>2020-02-13T16:27:18Z</time>
      </trkpt>
      <trkpt lat="59.26228" lon="18.098089">
        <ele>29</ele>
        <time>2020-02-13T16:27:19Z</time>
      </trkpt>
      <trkpt lat="59.262327" lon="18.098123">
        <ele>29</ele>
        <time>2020-02-13T16:27:20Z</time>
      </trkpt>
      <trkpt lat="59.262376" lon="18.098145">
        <ele>29</ele>
        <time>2020-02-13T16:27:21Z</time>
      </trkpt>
      <trkpt lat="59.262426" lon="18.09816">
        <ele>29</ele>
        <time>2020-02-13T16:27:23Z</time>
      </trkpt>
      <trkpt lat="59.262474" lon="18.098168">
        <ele>29</ele>
        <time>2020-02-13T16:27:23Z</time>
      </trkpt>
      <trkpt lat="59.262521" lon="18.098175">
        <ele>29</ele>
        <time>2020-02-13T16:27:24Z</time>
      </trkpt>
      <trkpt lat="59.262568" lon="18.098181">
        <ele>29</ele>
        <time>2020-02-13T16:27:25Z</time>
      </trkpt>
      <trkpt lat="59.262615" lon="18.098184">
        <ele>30</ele>
        <time>2020-02-13T16:27:26Z</time>
      </trkpt>
      <trkpt lat="59.262663" lon="18.098182">
        <ele>30</ele>
        <time>2020-02-13T16:27:27Z</time>
      </trkpt>
      <trkpt lat="59.26271" lon="18.09818">
        <ele>30</ele>
        <time>2020-02-13T16:27:29Z</time>
      </trkpt>
      <trkpt lat="59.262757" lon="18.098177">
        <ele>30</ele>
        <time>2020-02-13T16:27:29Z</time>
      </trkpt>
      <trkpt lat="59.262805" lon="18.098176">
        <ele>30</ele>
        <time>2020-02-13T16:27:30Z</time>
      </trkpt>
      <trkpt lat="59.262853" lon="18.098174">
        <ele>30</ele>
        <time>2020-02-13T16:27:31Z</time>
      </trkpt>
      <trkpt lat="59.262899" lon="18.098174">
        <ele>30</ele>
        <time>2020-02-13T16:27:32Z</time>
      </trkpt>
      <trkpt lat="59.262941" lon="18.098175">
        <ele>31</ele>
        <time>2020-02-13T16:27:34Z</time>
      </trkpt>
      <trkpt lat="59.262987" lon="18.098174">
        <ele>31</ele>
        <time>2020-02-13T16:27:34Z</time>
      </trkpt>
      <trkpt lat="59.263033" lon="18.098169">
        <ele>31</ele>
        <time>2020-02-13T16:27:35Z</time>
      </trkpt>
      <trkpt lat="59.26308" lon="18.098163">
        <ele>31</ele>
        <time>2020-02-13T16:27:36Z</time>
      </trkpt>
      <trkpt lat="59.263127" lon="18.098157">
        <ele>31</ele>
        <time>2020-02-13T16:27:37Z</time>
      </trkpt>
      <trkpt lat="59.26317" lon="18.098148">
        <ele>31</ele>
        <time>2020-02-13T16:27:38Z</time>
      </trkpt>
      <trkpt lat="59.263204" lon="18.098138">
        <ele>32</ele>
        <time>2020-02-13T16:27:39Z</time>
      </trkpt>
      <trkpt lat="59.263244" lon="18.098127">
        <ele>32</ele>
        <time>2020-02-13T16:27:40Z</time>
      </trkpt>
      <trkpt lat="59.26328" lon="18.098116">
        <ele>32</ele>
        <time>2020-02-13T16:27:41Z</time>
      </trkpt>
      <trkpt lat="59.263313" lon="18.098104">
        <ele>32</ele>
        <time>2020-02-13T16:27:42Z</time>
      </trkpt>
      <trkpt lat="59.263345" lon="18.098092">
        <ele>32</ele>
        <time>2020-02-13T16:27:43Z</time>
      </trkpt>
      <trkpt lat="59.263381" lon="18.098084">
        <ele>32</ele>
        <time>2020-02-13T16:27:44Z</time>
      </trkpt>
      <trkpt lat="59.263418" lon="18.098075">
        <ele>33</ele>
        <time>2020-02-13T16:27:45Z</time>
      </trkpt>
      <trkpt lat="59.263456" lon="18.098064">
        <ele>33</ele>
        <time>2020-02-13T16:27:47Z</time>
      </trkpt>
      <trkpt lat="59.263498" lon="18.098051">
        <ele>33</ele>
        <time>2020-02-13T16:27:48Z</time>
      </trkpt>
      <trkpt lat="59.263534" lon="18.098037">
        <ele>33</ele>
        <time>2020-02-13T16:27:48Z</time>
      </trkpt>
      <trkpt lat="59.263568" lon="18.098025">
        <ele>34</ele>
        <time>2020-02-13T16:27:49Z</time>
      </trkpt>
      <trkpt lat="59.263594" lon="18.098013">
        <ele>34</ele>
        <time>2020-02-13T16:27:50Z</time>
      </trkpt>
      <trkpt lat="59.263629" lon="18.097996">
        <ele>34</ele>
        <time>2020-02-13T16:27:51Z</time>
      </trkpt>
      <trkpt lat="59.263666" lon="18.097986">
        <ele>34</ele>
        <time>2020-02-13T16:27:52Z</time>
      </trkpt>
      <trkpt lat="59.263703" lon="18.097975">
        <ele>35</ele>
        <time>2020-02-13T16:27:53Z</time>
      </trkpt>
      <trkpt lat="59.263745" lon="18.097957">
        <ele>35</ele>
        <time>2020-02-13T16:27:54Z</time>
      </trkpt>
      <trkpt lat="59.263789" lon="18.097937">
        <ele>35</ele>
        <time>2020-02-13T16:27:55Z</time>
      </trkpt>
      <trkpt lat="59.263834" lon="18.097917">
        <ele>35</ele>
        <time>2020-02-13T16:27:56Z</time>
      </trkpt>
      <trkpt lat="59.263877" lon="18.097894">
        <ele>35</ele>
        <time>2020-02-13T16:27:57Z</time>
      </trkpt>
      <trkpt lat="59.263922" lon="18.097878">
        <ele>35</ele>
        <time>2020-02-13T16:27:59Z</time>
      </trkpt>
      <trkpt lat="59.263964" lon="18.097867">
        <ele>36</ele>
        <time>2020-02-13T16:27:59Z</time>
      </trkpt>
      <trkpt lat="59.264012" lon="18.097859">
        <ele>36</ele>
        <time>2020-02-13T16:28:00Z</time>
      </trkpt>
      <trkpt lat="59.264058" lon="18.097846">
        <ele>36</ele>
        <time>2020-02-13T16:28:01Z</time>
      </trkpt>
      <trkpt lat="59.264103" lon="18.097829">
        <ele>36</ele>
        <time>2020-02-13T16:28:02Z</time>
      </trkpt>
      <trkpt lat="59.264148" lon="18.097812">
        <ele>37</ele>
        <time>2020-02-13T16:28:03Z</time>
      </trkpt>
      <trkpt lat="59.26419" lon="18.097795">
        <ele>37</ele>
        <time>2020-02-13T16:28:04Z</time>
      </trkpt>
      <trkpt lat="59.264232" lon="18.097777">
        <ele>37</ele>
        <time>2020-02-13T16:28:05Z</time>
      </trkpt>
      <trkpt lat="59.264276" lon="18.097759">
        <ele>37</ele>
        <time>2020-02-13T16:28:07Z</time>
      </trkpt>
      <trkpt lat="59.26432" lon="18.097739">
        <ele>37</ele>
        <time>2020-02-13T16:28:07Z</time>
      </trkpt>
      <trkpt lat="59.264362" lon="18.097719">
        <ele>37</ele>
        <time>2020-02-13T16:28:08Z</time>
      </trkpt>
      <trkpt lat="59.264408" lon="18.097699">
        <ele>37</ele>
        <time>2020-02-13T16:28:10Z</time>
      </trkpt>
      <trkpt lat="59.264454" lon="18.097678">
        <ele>37</ele>
        <time>2020-02-13T16:28:10Z</time>
      </trkpt>
      <trkpt lat="59.264502" lon="18.097655">
        <ele>37</ele>
        <time>2020-02-13T16:28:11Z</time>
      </trkpt>
      <trkpt lat="59.264553" lon="18.097632">
        <ele>37</ele>
        <time>2020-02-13T16:28:12Z</time>
      </trkpt>
      <trkpt lat="59.264607" lon="18.097607">
        <ele>37</ele>
        <time>2020-02-13T16:28:13Z</time>
      </trkpt>
      <trkpt lat="59.264661" lon="18.09758">
        <ele>38</ele>
        <time>2020-02-13T16:28:14Z</time>
      </trkpt>
      <trkpt lat="59.264717" lon="18.097553">
        <ele>38</ele>
        <time>2020-02-13T16:28:15Z</time>
      </trkpt>
      <trkpt lat="59.264775" lon="18.097527">
        <ele>38</ele>
        <time>2020-02-13T16:28:16Z</time>
      </trkpt>
      <trkpt lat="59.264834" lon="18.097499">
        <ele>38</ele>
        <time>2020-02-13T16:28:18Z</time>
      </trkpt>
      <trkpt lat="59.264895" lon="18.097465">
        <ele>38</ele>
        <time>2020-02-13T16:28:19Z</time>
      </trkpt>
      <trkpt lat="59.264956" lon="18.097431">
        <ele>38</ele>
        <time>2020-02-13T16:28:19Z</time>
      </trkpt>
      <trkpt lat="59.265019" lon="18.097399">
        <ele>38</ele>
        <time>2020-02-13T16:28:20Z</time>
      </trkpt>
      <trkpt lat="59.265083" lon="18.09737">
        <ele>38</ele>
        <time>2020-02-13T16:28:21Z</time>
      </trkpt>
      <trkpt lat="59.265148" lon="18.097344">
        <ele>38</ele>
        <time>2020-02-13T16:28:22Z</time>
      </trkpt>
      <trkpt lat="59.265211" lon="18.097325">
        <ele>37</ele>
        <time>2020-02-13T16:28:23Z</time>
      </trkpt>
      <trkpt lat="59.26527" lon="18.097334">
        <ele>37</ele>
        <time>2020-02-13T16:28:24Z</time>
      </trkpt>
      <trkpt lat="59.265312" lon="18.097384">
        <ele>37</ele>
        <time>2020-02-13T16:28:26Z</time>
      </trkpt>
      <trkpt lat="59.265332" lon="18.097465">
        <ele>37</ele>
        <time>2020-02-13T16:28:27Z</time>
      </trkpt>
      <trkpt lat="59.265347" lon="18.097562">
        <ele>37</ele>
        <time>2020-02-13T16:28:27Z</time>
      </trkpt>
      <trkpt lat="59.265357" lon="18.097657">
        <ele>37</ele>
        <time>2020-02-13T16:28:28Z</time>
      </trkpt>
      <trkpt lat="59.265368" lon="18.097739">
        <ele>37</ele>
        <time>2020-02-13T16:28:29Z</time>
      </trkpt>
      <trkpt lat="59.265405" lon="18.097912">
        <ele>37</ele>
        <time>2020-02-13T16:28:31Z</time>
      </trkpt>
      <trkpt lat="59.265444" lon="18.098088">
        <ele>37</ele>
        <time>2020-02-13T16:28:32Z</time>
      </trkpt>
      <trkpt lat="59.265581" lon="18.098174">
        <ele>37</ele>
        <time>2020-02-13T16:28:35Z</time>
      </trkpt>
      <trkpt lat="59.265616" lon="18.098149">
        <ele>36</ele>
        <time>2020-02-13T16:28:37Z</time>
      </trkpt>
      <trkpt lat="59.265651" lon="18.098119">
        <ele>36</ele>
        <time>2020-02-13T16:28:37Z</time>
      </trkpt>
      <trkpt lat="59.265686" lon="18.098092">
        <ele>36</ele>
        <time>2020-02-13T16:28:38Z</time>
      </trkpt>
      <trkpt lat="59.265725" lon="18.098066">
        <ele>36</ele>
        <time>2020-02-13T16:28:39Z</time>
      </trkpt>
      <trkpt lat="59.265763" lon="18.098039">
        <ele>36</ele>
        <time>2020-02-13T16:28:40Z</time>
      </trkpt>
      <trkpt lat="59.265804" lon="18.098011">
        <ele>36</ele>
        <time>2020-02-13T16:28:41Z</time>
      </trkpt>
      <trkpt lat="59.265842" lon="18.097984">
        <ele>36</ele>
        <time>2020-02-13T16:28:42Z</time>
      </trkpt>
      <trkpt lat="59.265882" lon="18.09796">
        <ele>36</ele>
        <time>2020-02-13T16:28:43Z</time>
      </trkpt>
      <trkpt lat="59.265922" lon="18.097937">
        <ele>36</ele>
        <time>2020-02-13T16:28:45Z</time>
      </trkpt>
      <trkpt lat="59.265961" lon="18.097912">
        <ele>36</ele>
        <time>2020-02-13T16:28:45Z</time>
      </trkpt>
      <trkpt lat="59.266" lon="18.097886">
        <ele>36</ele>
        <time>2020-02-13T16:28:46Z</time>
      </trkpt>
      <trkpt lat="59.266037" lon="18.097858">
        <ele>36</ele>
        <time>2020-02-13T16:28:47Z</time>
      </trkpt>
      <trkpt lat="59.266073" lon="18.097832">
        <ele>36</ele>
        <time>2020-02-13T16:28:48Z</time>
      </trkpt>
      <trkpt lat="59.266108" lon="18.097825">
        <ele>36</ele>
        <time>2020-02-13T16:28:50Z</time>
      </trkpt>
      <trkpt lat="59.266137" lon="18.097845">
        <ele>36</ele>
        <time>2020-02-13T16:28:50Z</time>
      </trkpt>
      <trkpt lat="59.266153" lon="18.097876">
        <ele>36</ele>
        <time>2020-02-13T16:28:51Z</time>
      </trkpt>
      <trkpt lat="59.26616" lon="18.097909">
        <ele>36</ele>
        <time>2020-02-13T16:28:52Z</time>
      </trkpt>
      <trkpt lat="59.266169" lon="18.097949">
        <ele>36</ele>
        <time>2020-02-13T16:28:53Z</time>
      </trkpt>
      <trkpt lat="59.266187" lon="18.097995">
        <ele>36</ele>
        <time>2020-02-13T16:28:54Z</time>
      </trkpt>
      <trkpt lat="59.266212" lon="18.098028">
        <ele>36</ele>
        <time>2020-02-13T16:28:55Z</time>
      </trkpt>
      <trkpt lat="59.266244" lon="18.098031">
        <ele>36</ele>
        <time>2020-02-13T16:28:56Z</time>
      </trkpt>
      <trkpt lat="59.266279" lon="18.098012">
        <ele>36</ele>
        <time>2020-02-13T16:28:57Z</time>
      </trkpt>
      <trkpt lat="59.266319" lon="18.09799">
        <ele>36</ele>
        <time>2020-02-13T16:28:58Z</time>
      </trkpt>
      <trkpt lat="59.266362" lon="18.097973">
        <ele>36</ele>
        <time>2020-02-13T16:28:59Z</time>
      </trkpt>
      <trkpt lat="59.266408" lon="18.097962">
        <ele>36</ele>
        <time>2020-02-13T16:29:00Z</time>
      </trkpt>
      <trkpt lat="59.266455" lon="18.097948">
        <ele>36</ele>
        <time>2020-02-13T16:29:01Z</time>
      </trkpt>
      <trkpt lat="59.266501" lon="18.097928">
        <ele>36</ele>
        <time>2020-02-13T16:29:02Z</time>
      </trkpt>
      <trkpt lat="59.266548" lon="18.097904">
        <ele>0</ele>
        <time>2020-02-13T16:29:03Z</time>
      </trkpt>
      <trkpt lat="59.266596" lon="18.097879">
        <ele>36</ele>
        <time>2020-02-13T16:29:04Z</time>
      </trkpt>
      <trkpt lat="59.266644" lon="18.097855">
        <ele>36</ele>
        <time>2020-02-13T16:29:05Z</time>
      </trkpt>
      <trkpt lat="59.266692" lon="18.097829">
        <ele>36</ele>
        <time>2020-02-13T16:29:06Z</time>
      </trkpt>
      <trkpt lat="59.266741" lon="18.0978">
        <ele>36</ele>
        <time>2020-02-13T16:29:07Z</time>
      </trkpt>
      <trkpt lat="59.26679" lon="18.097771">
        <ele>36</ele>
        <time>2020-02-13T16:29:08Z</time>
      </trkpt>
      <trkpt lat="59.266841" lon="18.097742">
        <ele>36</ele>
        <time>2020-02-13T16:29:09Z</time>
      </trkpt>
      <trkpt lat="59.26689" lon="18.09771">
        <ele>36</ele>
        <time>2020-02-13T16:29:10Z</time>
      </trkpt>
      <trkpt lat="59.266941" lon="18.097678">
        <ele>36</ele>
        <time>2020-02-13T16:29:11Z</time>
      </trkpt>
      <trkpt lat="59.266992" lon="18.097647">
        <ele>37</ele>
        <time>2020-02-13T16:29:13Z</time>
      </trkpt>
      <trkpt lat="59.267045" lon="18.097613">
        <ele>37</ele>
        <time>2020-02-13T16:29:13Z</time>
      </trkpt>
      <trkpt lat="59.267097" lon="18.097577">
        <ele>37</ele>
        <time>2020-02-13T16:29:14Z</time>
      </trkpt>
      <trkpt lat="59.26715" lon="18.097542">
        <ele>37</ele>
        <time>2020-02-13T16:29:15Z</time>
      </trkpt>
      <trkpt lat="59.267205" lon="18.097506">
        <ele>37</ele>
        <time>2020-02-13T16:29:16Z</time>
      </trkpt>
      <trkpt lat="59.267259" lon="18.097472">
        <ele>37</ele>
        <time>2020-02-13T16:29:17Z</time>
      </trkpt>
      <trkpt lat="59.267312" lon="18.097433">
        <ele>37</ele>
        <time>2020-02-13T16:29:18Z</time>
      </trkpt>
      <trkpt lat="59.267363" lon="18.097394">
        <ele>37</ele>
        <time>2020-02-13T16:29:19Z</time>
      </trkpt>
      <trkpt lat="59.267416" lon="18.097355">
        <ele>37</ele>
        <time>2020-02-13T16:29:20Z</time>
      </trkpt>
      <trkpt lat="59.267469" lon="18.097316">
        <ele>37</ele>
        <time>2020-02-13T16:29:22Z</time>
      </trkpt>
      <trkpt lat="59.267522" lon="18.097278">
        <ele>37</ele>
        <time>2020-02-13T16:29:23Z</time>
      </trkpt>
      <trkpt lat="59.267577" lon="18.097243">
        <ele>37</ele>
        <time>2020-02-13T16:29:23Z</time>
      </trkpt>
      <trkpt lat="59.267631" lon="18.097207">
        <ele>37</ele>
        <time>2020-02-13T16:29:24Z</time>
      </trkpt>
      <trkpt lat="59.267685" lon="18.097173">
        <ele>37</ele>
        <time>2020-02-13T16:29:25Z</time>
      </trkpt>
      <trkpt lat="59.267739" lon="18.09714">
        <ele>37</ele>
        <time>2020-02-13T16:29:26Z</time>
      </trkpt>
      <trkpt lat="59.267794" lon="18.09711">
        <ele>37</ele>
        <time>2020-02-13T16:29:27Z</time>
      </trkpt>
      <trkpt lat="59.267849" lon="18.097087">
        <ele>37</ele>
        <time>2020-02-13T16:29:28Z</time>
      </trkpt>
      <trkpt lat="59.267904" lon="18.097066">
        <ele>37</ele>
        <time>2020-02-13T16:29:29Z</time>
      </trkpt>
      <trkpt lat="59.267958" lon="18.097043">
        <ele>37</ele>
        <time>2020-02-13T16:29:31Z</time>
      </trkpt>
      <trkpt lat="59.268011" lon="18.097018">
        <ele>37</ele>
        <time>2020-02-13T16:29:31Z</time>
      </trkpt>
      <trkpt lat="59.268063" lon="18.096993">
        <ele>37</ele>
        <time>2020-02-13T16:29:32Z</time>
      </trkpt>
      <trkpt lat="59.268114" lon="18.096964">
        <ele>37</ele>
        <time>2020-02-13T16:29:33Z</time>
      </trkpt>
      <trkpt lat="59.268165" lon="18.096931">
        <ele>37</ele>
        <time>2020-02-13T16:29:34Z</time>
      </trkpt>
      <trkpt lat="59.268214" lon="18.096894">
        <ele>37</ele>
        <time>2020-02-13T16:29:35Z</time>
      </trkpt>
      <trkpt lat="59.268262" lon="18.096856">
        <ele>37</ele>
        <time>2020-02-13T16:29:36Z</time>
      </trkpt>
      <trkpt lat="59.268312" lon="18.096818">
        <ele>37</ele>
        <time>2020-02-13T16:29:37Z</time>
      </trkpt>
      <trkpt lat="59.268361" lon="18.09678">
        <ele>37</ele>
        <time>2020-02-13T16:29:38Z</time>
      </trkpt>
      <trkpt lat="59.26841" lon="18.096743">
        <ele>38</ele>
        <time>2020-02-13T16:29:40Z</time>
      </trkpt>
      <trkpt lat="59.26846" lon="18.096709">
        <ele>38</ele>
        <time>2020-02-13T16:29:40Z</time>
      </trkpt>
      <trkpt lat="59.268513" lon="18.096675">
        <ele>38</ele>
        <time>2020-02-13T16:29:42Z</time>
      </trkpt>
      <trkpt lat="59.268565" lon="18.09664">
        <ele>38</ele>
        <time>2020-02-13T16:29:42Z</time>
      </trkpt>
      <trkpt lat="59.268616" lon="18.096604">
        <ele>38</ele>
        <time>2020-02-13T16:29:43Z</time>
      </trkpt>
      <trkpt lat="59.268667" lon="18.096567">
        <ele>38</ele>
        <time>2020-02-13T16:29:44Z</time>
      </trkpt>
      <trkpt lat="59.268716" lon="18.096529">
        <ele>38</ele>
        <time>2020-02-13T16:29:45Z</time>
      </trkpt>
      <trkpt lat="59.268767" lon="18.096493">
        <ele>38</ele>
        <time>2020-02-13T16:29:46Z</time>
      </trkpt>
      <trkpt lat="59.268818" lon="18.096458">
        <ele>38</ele>
        <time>2020-02-13T16:29:47Z</time>
      </trkpt>
      <trkpt lat="59.268869" lon="18.096426">
        <ele>38</ele>
        <time>2020-02-13T16:29:48Z</time>
      </trkpt>
      <trkpt lat="59.268921" lon="18.096398">
        <ele>38</ele>
        <time>2020-02-13T16:29:50Z</time>
      </trkpt>
      <trkpt lat="59.268975" lon="18.096379">
        <ele>38</ele>
        <time>2020-02-13T16:29:50Z</time>
      </trkpt>
      <trkpt lat="59.269028" lon="18.096365">
        <ele>38</ele>
        <time>2020-02-13T16:29:51Z</time>
      </trkpt>
      <trkpt lat="59.269081" lon="18.096347">
        <ele>38</ele>
        <time>2020-02-13T16:29:52Z</time>
      </trkpt>
      <trkpt lat="59.269132" lon="18.096323">
        <ele>38</ele>
        <time>2020-02-13T16:29:53Z</time>
      </trkpt>
      <trkpt lat="59.269183" lon="18.096297">
        <ele>38</ele>
        <time>2020-02-13T16:29:54Z</time>
      </trkpt>
      <trkpt lat="59.269232" lon="18.09627">
        <ele>38</ele>
        <time>2020-02-13T16:29:55Z</time>
      </trkpt>
      <trkpt lat="59.269281" lon="18.09624">
        <ele>38</ele>
        <time>2020-02-13T16:29:56Z</time>
      </trkpt>
      <trkpt lat="59.269331" lon="18.096211">
        <ele>38</ele>
        <time>2020-02-13T16:29:57Z</time>
      </trkpt>
      <trkpt lat="59.269383" lon="18.096185">
        <ele>38</ele>
        <time>2020-02-13T16:29:59Z</time>
      </trkpt>
      <trkpt lat="59.269433" lon="18.09616">
        <ele>38</ele>
        <time>2020-02-13T16:29:59Z</time>
      </trkpt>
      <trkpt lat="59.269484" lon="18.096135">
        <ele>38</ele>
        <time>2020-02-13T16:30:01Z</time>
      </trkpt>
      <trkpt lat="59.269535" lon="18.09611">
        <ele>38</ele>
        <time>2020-02-13T16:30:01Z</time>
      </trkpt>
      <trkpt lat="59.269586" lon="18.096083">
        <ele>38</ele>
        <time>2020-02-13T16:30:02Z</time>
      </trkpt>
      <trkpt lat="59.269636" lon="18.096057">
        <ele>38</ele>
        <time>2020-02-13T16:30:03Z</time>
      </trkpt>
      <trkpt lat="59.269688" lon="18.096022">
        <ele>38</ele>
        <time>2020-02-13T16:30:04Z</time>
      </trkpt>
      <trkpt lat="59.269739" lon="18.095986">
        <ele>39</ele>
        <time>2020-02-13T16:30:06Z</time>
      </trkpt>
      <trkpt lat="59.269791" lon="18.095951">
        <ele>39</ele>
        <time>2020-02-13T16:30:06Z</time>
      </trkpt>
      <trkpt lat="59.269843" lon="18.095915">
        <ele>39</ele>
        <time>2020-02-13T16:30:07Z</time>
      </trkpt>
      <trkpt lat="59.269897" lon="18.09588">
        <ele>39</ele>
        <time>2020-02-13T16:30:09Z</time>
      </trkpt>
      <trkpt lat="59.269951" lon="18.095844">
        <ele>39</ele>
        <time>2020-02-13T16:30:09Z</time>
      </trkpt>
      <trkpt lat="59.270007" lon="18.095807">
        <ele>39</ele>
        <time>2020-02-13T16:30:10Z</time>
      </trkpt>
      <trkpt lat="59.270061" lon="18.095767">
        <ele>40</ele>
        <time>2020-02-13T16:30:11Z</time>
      </trkpt>
      <trkpt lat="59.270115" lon="18.095729">
        <ele>40</ele>
        <time>2020-02-13T16:30:12Z</time>
      </trkpt>
      <trkpt lat="59.270171" lon="18.095698">
        <ele>40</ele>
        <time>2020-02-13T16:30:13Z</time>
      </trkpt>
      <trkpt lat="59.270227" lon="18.095672">
        <ele>40</ele>
        <time>2020-02-13T16:30:14Z</time>
      </trkpt>
      <trkpt lat="59.270282" lon="18.095649">
        <ele>40</ele>
        <time>2020-02-13T16:30:15Z</time>
      </trkpt>
      <trkpt lat="59.270339" lon="18.09563">
        <ele>40</ele>
        <time>2020-02-13T16:30:17Z</time>
      </trkpt>
      <trkpt lat="59.270397" lon="18.09561">
        <ele>40</ele>
        <time>2020-02-13T16:30:17Z</time>
      </trkpt>
      <trkpt lat="59.270455" lon="18.095591">
        <ele>40</ele>
        <time>2020-02-13T16:30:18Z</time>
      </trkpt>
      <trkpt lat="59.270512" lon="18.095572">
        <ele>40</ele>
        <time>2020-02-13T16:30:20Z</time>
      </trkpt>
      <trkpt lat="59.270567" lon="18.095553">
        <ele>40</ele>
        <time>2020-02-13T16:30:20Z</time>
      </trkpt>
      <trkpt lat="59.270618" lon="18.095525">
        <ele>40</ele>
        <time>2020-02-13T16:30:21Z</time>
      </trkpt>
      <trkpt lat="59.270668" lon="18.095489">
        <ele>40</ele>
        <time>2020-02-13T16:30:22Z</time>
      </trkpt>
      <trkpt lat="59.270721" lon="18.095453">
        <ele>40</ele>
        <time>2020-02-13T16:30:23Z</time>
      </trkpt>
      <trkpt lat="59.270774" lon="18.095415">
        <ele>40</ele>
        <time>2020-02-13T16:30:24Z</time>
      </trkpt>
      <trkpt lat="59.270832" lon="18.095374">
        <ele>40</ele>
        <time>2020-02-13T16:30:26Z</time>
      </trkpt>
      <trkpt lat="59.270894" lon="18.095336">
        <ele>40</ele>
        <time>2020-02-13T16:30:26Z</time>
      </trkpt>
      <trkpt lat="59.270955" lon="18.095302">
        <ele>40</ele>
        <time>2020-02-13T16:30:27Z</time>
      </trkpt>
      <trkpt lat="59.271017" lon="18.095269">
        <ele>40</ele>
        <time>2020-02-13T16:30:28Z</time>
      </trkpt>
      <trkpt lat="59.271076" lon="18.095235">
        <ele>40</ele>
        <time>2020-02-13T16:30:29Z</time>
      </trkpt>
      <trkpt lat="59.271133" lon="18.095199">
        <ele>40</ele>
        <time>2020-02-13T16:30:30Z</time>
      </trkpt>
      <trkpt lat="59.271189" lon="18.095162">
        <ele>39</ele>
        <time>2020-02-13T16:30:31Z</time>
      </trkpt>
      <trkpt lat="59.271244" lon="18.09513">
        <ele>39</ele>
        <time>2020-02-13T16:30:32Z</time>
      </trkpt>
      <trkpt lat="59.2713" lon="18.095107">
        <ele>39</ele>
        <time>2020-02-13T16:30:34Z</time>
      </trkpt>
      <trkpt lat="59.271358" lon="18.095096">
        <ele>39</ele>
        <time>2020-02-13T16:30:34Z</time>
      </trkpt>
      <trkpt lat="59.271412" lon="18.095085">
        <ele>39</ele>
        <time>2020-02-13T16:30:35Z</time>
      </trkpt>
      <trkpt lat="59.271463" lon="18.095072">
        <ele>39</ele>
        <time>2020-02-13T16:30:36Z</time>
      </trkpt>
      <trkpt lat="59.271511" lon="18.095055">
        <ele>39</ele>
        <time>2020-02-13T16:30:37Z</time>
      </trkpt>
      <trkpt lat="59.27156" lon="18.095035">
        <ele>39</ele>
        <time>2020-02-13T16:30:39Z</time>
      </trkpt>
      <trkpt lat="59.271607" lon="18.095019">
        <ele>39</ele>
        <time>2020-02-13T16:30:39Z</time>
      </trkpt>
      <trkpt lat="59.271656" lon="18.095002">
        <ele>39</ele>
        <time>2020-02-13T16:30:40Z</time>
      </trkpt>
      <trkpt lat="59.271704" lon="18.094981">
        <ele>39</ele>
        <time>2020-02-13T16:30:41Z</time>
      </trkpt>
      <trkpt lat="59.271754" lon="18.094958">
        <ele>39</ele>
        <time>2020-02-13T16:30:42Z</time>
      </trkpt>
      <trkpt lat="59.271804" lon="18.09493">
        <ele>39</ele>
        <time>2020-02-13T16:30:44Z</time>
      </trkpt>
      <trkpt lat="59.271851" lon="18.094893">
        <ele>39</ele>
        <time>2020-02-13T16:30:44Z</time>
      </trkpt>
      <trkpt lat="59.271899" lon="18.09485">
        <ele>40</ele>
        <time>2020-02-13T16:30:45Z</time>
      </trkpt>
      <trkpt lat="59.27195" lon="18.094815">
        <ele>40</ele>
        <time>2020-02-13T16:30:46Z</time>
      </trkpt>
      <trkpt lat="59.272005" lon="18.09479">
        <ele>40</ele>
        <time>2020-02-13T16:30:47Z</time>
      </trkpt>
      <trkpt lat="59.272058" lon="18.094772">
        <ele>40</ele>
        <time>2020-02-13T16:30:48Z</time>
      </trkpt>
      <trkpt lat="59.27211" lon="18.094757">
        <ele>40</ele>
        <time>2020-02-13T16:30:49Z</time>
      </trkpt>
      <trkpt lat="59.272162" lon="18.094743">
        <ele>40</ele>
        <time>2020-02-13T16:30:50Z</time>
      </trkpt>
      <trkpt lat="59.272214" lon="18.094731">
        <ele>40</ele>
        <time>2020-02-13T16:30:52Z</time>
      </trkpt>
      <trkpt lat="59.272267" lon="18.094719">
        <ele>40</ele>
        <time>2020-02-13T16:30:53Z</time>
      </trkpt>
      <trkpt lat="59.272319" lon="18.094708">
        <ele>40</ele>
        <time>2020-02-13T16:30:53Z</time>
      </trkpt>
      <trkpt lat="59.272372" lon="18.094697">
        <ele>41</ele>
        <time>2020-02-13T16:30:54Z</time>
      </trkpt>
      <trkpt lat="59.272424" lon="18.094686">
        <ele>41</ele>
        <time>2020-02-13T16:30:55Z</time>
      </trkpt>
      <trkpt lat="59.272475" lon="18.094673">
        <ele>41</ele>
        <time>2020-02-13T16:30:56Z</time>
      </trkpt>
      <trkpt lat="59.272527" lon="18.094661">
        <ele>41</ele>
        <time>2020-02-13T16:30:58Z</time>
      </trkpt>
      <trkpt lat="59.272577" lon="18.094646">
        <ele>41</ele>
        <time>2020-02-13T16:30:58Z</time>
      </trkpt>
      <trkpt lat="59.272628" lon="18.094633">
        <ele>41</ele>
        <time>2020-02-13T16:30:59Z</time>
      </trkpt>
      <trkpt lat="59.272678" lon="18.09462">
        <ele>42</ele>
        <time>2020-02-13T16:31:00Z</time>
      </trkpt>
      <trkpt lat="59.272727" lon="18.094604">
        <ele>42</ele>
        <time>2020-02-13T16:31:01Z</time>
      </trkpt>
      <trkpt lat="59.272777" lon="18.094586">
        <ele>42</ele>
        <time>2020-02-13T16:31:03Z</time>
      </trkpt>
      <trkpt lat="59.272824" lon="18.094568">
        <ele>42</ele>
        <time>2020-02-13T16:31:03Z</time>
      </trkpt>
      <trkpt lat="59.272873" lon="18.094546">
        <ele>42</ele>
        <time>2020-02-13T16:31:04Z</time>
      </trkpt>
      <trkpt lat="59.272924" lon="18.094523">
        <ele>42</ele>
        <time>2020-02-13T16:31:05Z</time>
      </trkpt>
      <trkpt lat="59.272974" lon="18.094503">
        <ele>42</ele>
        <time>2020-02-13T16:31:06Z</time>
      </trkpt>
      <trkpt lat="59.273026" lon="18.094484">
        <ele>42</ele>
        <time>2020-02-13T16:31:07Z</time>
      </trkpt>
      <trkpt lat="59.273078" lon="18.094466">
        <ele>42</ele>
        <time>2020-02-13T16:31:08Z</time>
      </trkpt>
      <trkpt lat="59.273132" lon="18.094447">
        <ele>42</ele>
        <time>2020-02-13T16:31:09Z</time>
      </trkpt>
      <trkpt lat="59.27319" lon="18.09443">
        <ele>42</ele>
        <time>2020-02-13T16:31:10Z</time>
      </trkpt>
      <trkpt lat="59.273248" lon="18.094416">
        <ele>41</ele>
        <time>2020-02-13T16:31:12Z</time>
      </trkpt>
      <trkpt lat="59.273311" lon="18.0944">
        <ele>41</ele>
        <time>2020-02-13T16:31:12Z</time>
      </trkpt>
      <trkpt lat="59.273376" lon="18.094382">
        <ele>41</ele>
        <time>2020-02-13T16:31:13Z</time>
      </trkpt>
      <trkpt lat="59.273442" lon="18.094357">
        <ele>41</ele>
        <time>2020-02-13T16:31:14Z</time>
      </trkpt>
      <trkpt lat="59.273508" lon="18.094326">
        <ele>41</ele>
        <time>2020-02-13T16:31:15Z</time>
      </trkpt>
      <trkpt lat="59.273575" lon="18.094288">
        <ele>40</ele>
        <time>2020-02-13T16:31:17Z</time>
      </trkpt>
      <trkpt lat="59.273644" lon="18.094238">
        <ele>40</ele>
        <time>2020-02-13T16:31:17Z</time>
      </trkpt>
      <trkpt lat="59.273714" lon="18.094184">
        <ele>40</ele>
        <time>2020-02-13T16:31:19Z</time>
      </trkpt>
      <trkpt lat="59.273785" lon="18.094134">
        <ele>39</ele>
        <time>2020-02-13T16:31:19Z</time>
      </trkpt>
      <trkpt lat="59.273861" lon="18.094095">
        <ele>39</ele>
        <time>2020-02-13T16:31:20Z</time>
      </trkpt>
      <trkpt lat="59.273937" lon="18.094056">
        <ele>39</ele>
        <time>2020-02-13T16:31:21Z</time>
      </trkpt>
      <trkpt lat="59.274018" lon="18.094021">
        <ele>38</ele>
        <time>2020-02-13T16:31:22Z</time>
      </trkpt>
      <trkpt lat="59.274098" lon="18.093986">
        <ele>38</ele>
        <time>2020-02-13T16:31:23Z</time>
      </trkpt>
      <trkpt lat="59.27418" lon="18.093953">
        <ele>38</ele>
        <time>2020-02-13T16:31:24Z</time>
      </trkpt>
      <trkpt lat="59.274264" lon="18.093918">
        <ele>37</ele>
        <time>2020-02-13T16:31:26Z</time>
      </trkpt>
      <trkpt lat="59.274348" lon="18.093882">
        <ele>37</ele>
        <time>2020-02-13T16:31:26Z</time>
      </trkpt>
      <trkpt lat="59.274432" lon="18.093847">
        <ele>37</ele>
        <time>2020-02-13T16:31:27Z</time>
      </trkpt>
      <trkpt lat="59.274516" lon="18.093812">
        <ele>37</ele>
        <time>2020-02-13T16:31:28Z</time>
      </trkpt>
      <trkpt lat="59.274598" lon="18.09378">
        <ele>37</ele>
        <time>2020-02-13T16:31:29Z</time>
      </trkpt>
      <trkpt lat="59.274682" lon="18.093746">
        <ele>37</ele>
        <time>2020-02-13T16:31:31Z</time>
      </trkpt>
      <trkpt lat="59.274761" lon="18.093711">
        <ele>37</ele>
        <time>2020-02-13T16:31:31Z</time>
      </trkpt>
      <trkpt lat="59.27484" lon="18.09368">
        <ele>37</ele>
        <time>2020-02-13T16:31:32Z</time>
      </trkpt>
      <trkpt lat="59.274918" lon="18.09365">
        <ele>37</ele>
        <time>2020-02-13T16:31:33Z</time>
      </trkpt>
      <trkpt lat="59.274996" lon="18.093626">
        <ele>36</ele>
        <time>2020-02-13T16:31:34Z</time>
      </trkpt>
      <trkpt lat="59.275072" lon="18.093602">
        <ele>36</ele>
        <time>2020-02-13T16:31:36Z</time>
      </trkpt>
      <trkpt lat="59.275148" lon="18.093576">
        <ele>36</ele>
        <time>2020-02-13T16:31:36Z</time>
      </trkpt>
      <trkpt lat="59.275224" lon="18.093549">
        <ele>36</ele>
        <time>2020-02-13T16:31:38Z</time>
      </trkpt>
      <trkpt lat="59.275298" lon="18.093523">
        <ele>36</ele>
        <time>2020-02-13T16:31:38Z</time>
      </trkpt>
      <trkpt lat="59.27537" lon="18.0935">
        <ele>36</ele>
        <time>2020-02-13T16:31:39Z</time>
      </trkpt>
      <trkpt lat="59.275443" lon="18.09348">
        <ele>36</ele>
        <time>2020-02-13T16:31:40Z</time>
      </trkpt>
      <trkpt lat="59.275514" lon="18.093465">
        <ele>36</ele>
        <time>2020-02-13T16:31:41Z</time>
      </trkpt>
      <trkpt lat="59.275586" lon="18.093446">
        <ele>36</ele>
        <time>2020-02-13T16:31:42Z</time>
      </trkpt>
      <trkpt lat="59.275656" lon="18.093424">
        <ele>36</ele>
        <time>2020-02-13T16:31:43Z</time>
      </trkpt>
      <trkpt lat="59.275727" lon="18.093404">
        <ele>36</ele>
        <time>2020-02-13T16:31:45Z</time>
      </trkpt>
      <trkpt lat="59.275797" lon="18.093384">
        <ele>36</ele>
        <time>2020-02-13T16:31:45Z</time>
      </trkpt>
      <trkpt lat="59.275868" lon="18.093362">
        <ele>36</ele>
        <time>2020-02-13T16:31:46Z</time>
      </trkpt>
      <trkpt lat="59.275936" lon="18.093344">
        <ele>36</ele>
        <time>2020-02-13T16:31:47Z</time>
      </trkpt>
      <trkpt lat="59.276006" lon="18.093324">
        <ele>36</ele>
        <time>2020-02-13T16:31:48Z</time>
      </trkpt>
      <trkpt lat="59.276074" lon="18.093308">
        <ele>35</ele>
        <time>2020-02-13T16:31:49Z</time>
      </trkpt>
      <trkpt lat="59.276142" lon="18.093294">
        <ele>35</ele>
        <time>2020-02-13T16:31:50Z</time>
      </trkpt>
      <trkpt lat="59.27621" lon="18.093288">
        <ele>35</ele>
        <time>2020-02-13T16:31:52Z</time>
      </trkpt>
      <trkpt lat="59.276278" lon="18.093278">
        <ele>35</ele>
        <time>2020-02-13T16:31:52Z</time>
      </trkpt>
      <trkpt lat="59.276344" lon="18.093268">
        <ele>35</ele>
        <time>2020-02-13T16:31:53Z</time>
      </trkpt>
      <trkpt lat="59.276411" lon="18.093256">
        <ele>35</ele>
        <time>2020-02-13T16:31:55Z</time>
      </trkpt>
      <trkpt lat="59.276478" lon="18.093246">
        <ele>35</ele>
        <time>2020-02-13T16:31:55Z</time>
      </trkpt>
      <trkpt lat="59.276545" lon="18.093234">
        <ele>35</ele>
        <time>2020-02-13T16:31:56Z</time>
      </trkpt>
      <trkpt lat="59.27661" lon="18.093224">
        <ele>35</ele>
        <time>2020-02-13T16:31:57Z</time>
      </trkpt>
      <trkpt lat="59.276678" lon="18.093212">
        <ele>35</ele>
        <time>2020-02-13T16:31:59Z</time>
      </trkpt>
      <trkpt lat="59.276745" lon="18.093199">
        <ele>35</ele>
        <time>2020-02-13T16:31:59Z</time>
      </trkpt>
      <trkpt lat="59.276812" lon="18.093186">
        <ele>35</ele>
        <time>2020-02-13T16:32:00Z</time>
      </trkpt>
      <trkpt lat="59.27688" lon="18.093173">
        <ele>35</ele>
        <time>2020-02-13T16:32:01Z</time>
      </trkpt>
      <trkpt lat="59.276948" lon="18.093159">
        <ele>35</ele>
        <time>2020-02-13T16:32:02Z</time>
      </trkpt>
      <trkpt lat="59.277016" lon="18.093142">
        <ele>35</ele>
        <time>2020-02-13T16:32:03Z</time>
      </trkpt>
      <trkpt lat="59.277084" lon="18.093122">
        <ele>35</ele>
        <time>2020-02-13T16:32:04Z</time>
      </trkpt>
      <trkpt lat="59.277153" lon="18.093103">
        <ele>35</ele>
        <time>2020-02-13T16:32:05Z</time>
      </trkpt>
      <trkpt lat="59.277221" lon="18.09308">
        <ele>34</ele>
        <time>2020-02-13T16:32:07Z</time>
      </trkpt>
      <trkpt lat="59.277288" lon="18.093054">
        <ele>34</ele>
        <time>2020-02-13T16:32:07Z</time>
      </trkpt>
      <trkpt lat="59.277355" lon="18.093027">
        <ele>34</ele>
        <time>2020-02-13T16:32:08Z</time>
      </trkpt>
      <trkpt lat="59.277422" lon="18.093001">
        <ele>34</ele>
        <time>2020-02-13T16:32:09Z</time>
      </trkpt>
      <trkpt lat="59.277489" lon="18.092978">
        <ele>34</ele>
        <time>2020-02-13T16:32:10Z</time>
      </trkpt>
      <trkpt lat="59.277555" lon="18.092954">
        <ele>34</ele>
        <time>2020-02-13T16:32:11Z</time>
      </trkpt>
      <trkpt lat="59.277621" lon="18.092929">
        <ele>34</ele>
        <time>2020-02-13T16:32:12Z</time>
      </trkpt>
      <trkpt lat="59.277687" lon="18.092904">
        <ele>0</ele>
        <time>2020-02-13T16:32:13Z</time>
      </trkpt>
      <trkpt lat="59.277754" lon="18.092879">
        <ele>34</ele>
        <time>2020-02-13T16:32:14Z</time>
      </trkpt>
      <trkpt lat="59.277821" lon="18.092851">
        <ele>34</ele>
        <time>2020-02-13T16:32:15Z</time>
      </trkpt>
      <trkpt lat="59.277888" lon="18.092824">
        <ele>34</ele>
        <time>2020-02-13T16:32:16Z</time>
      </trkpt>
      <trkpt lat="59.277954" lon="18.092795">
        <ele>34</ele>
        <time>2020-02-13T16:32:17Z</time>
      </trkpt>
      <trkpt lat="59.278021" lon="18.092766">
        <ele>34</ele>
        <time>2020-02-13T16:32:18Z</time>
      </trkpt>
      <trkpt lat="59.278087" lon="18.092738">
        <ele>34</ele>
        <time>2020-02-13T16:32:19Z</time>
      </trkpt>
      <trkpt lat="59.278153" lon="18.092709">
        <ele>34</ele>
        <time>2020-02-13T16:32:21Z</time>
      </trkpt>
      <trkpt lat="59.27822" lon="18.092683">
        <ele>34</ele>
        <time>2020-02-13T16:32:21Z</time>
      </trkpt>
      <trkpt lat="59.278286" lon="18.092655">
        <ele>34</ele>
        <time>2020-02-13T16:32:22Z</time>
      </trkpt>
      <trkpt lat="59.278351" lon="18.092627">
        <ele>34</ele>
        <time>2020-02-13T16:32:23Z</time>
      </trkpt>
      <trkpt lat="59.278417" lon="18.092605">
        <ele>34</ele>
        <time>2020-02-13T16:32:24Z</time>
      </trkpt>
      <trkpt lat="59.278482" lon="18.092582">
        <ele>34</ele>
        <time>2020-02-13T16:32:25Z</time>
      </trkpt>
      <trkpt lat="59.278547" lon="18.092553">
        <ele>33</ele>
        <time>2020-02-13T16:32:26Z</time>
      </trkpt>
      <trkpt lat="59.278611" lon="18.092521">
        <ele>33</ele>
        <time>2020-02-13T16:32:27Z</time>
      </trkpt>
      <trkpt lat="59.278675" lon="18.092493">
        <ele>33</ele>
        <time>2020-02-13T16:32:29Z</time>
      </trkpt>
      <trkpt lat="59.27874" lon="18.092465">
        <ele>33</ele>
        <time>2020-02-13T16:32:29Z</time>
      </trkpt>
      <trkpt lat="59.278804" lon="18.092437">
        <ele>33</ele>
        <time>2020-02-13T16:32:30Z</time>
      </trkpt>
      <trkpt lat="59.278868" lon="18.092411">
        <ele>33</ele>
        <time>2020-02-13T16:32:31Z</time>
      </trkpt>
      <trkpt lat="59.278932" lon="18.092387">
        <ele>33</ele>
        <time>2020-02-13T16:32:33Z</time>
      </trkpt>
      <trkpt lat="59.278993" lon="18.092362">
        <ele>33</ele>
        <time>2020-02-13T16:32:33Z</time>
      </trkpt>
      <trkpt lat="59.27905" lon="18.092337">
        <ele>33</ele>
        <time>2020-02-13T16:32:34Z</time>
      </trkpt>
      <trkpt lat="59.279103" lon="18.092317">
        <ele>33</ele>
        <time>2020-02-13T16:32:35Z</time>
      </trkpt>
      <trkpt lat="59.279149" lon="18.092303">
        <ele>33</ele>
        <time>2020-02-13T16:32:37Z</time>
      </trkpt>
      <trkpt lat="59.279186" lon="18.092294">
        <ele>33</ele>
        <time>2020-02-13T16:32:37Z</time>
      </trkpt>
      <trkpt lat="59.279218" lon="18.092295">
        <ele>33</ele>
        <time>2020-02-13T16:32:38Z</time>
      </trkpt>
      <trkpt lat="59.279241" lon="18.092301">
        <ele>33</ele>
        <time>2020-02-13T16:32:39Z</time>
      </trkpt>
      <trkpt lat="59.279266" lon="18.092301">
        <ele>33</ele>
        <time>2020-02-13T16:32:41Z</time>
      </trkpt>
      <trkpt lat="59.279265" lon="18.0923">
        <ele>0</ele>
        <time>2020-02-13T16:32:44Z</time>
      </trkpt>
      <trkpt lat="59.279301" lon="18.092286">
        <ele>32</ele>
        <time>2020-02-13T16:32:52Z</time>
      </trkpt>
      <trkpt lat="59.27932" lon="18.09228">
        <ele>33</ele>
        <time>2020-02-13T16:32:52Z</time>
      </trkpt>
      <trkpt lat="59.279342" lon="18.092278">
        <ele>33</ele>
        <time>2020-02-13T16:32:54Z</time>
      </trkpt>
      <trkpt lat="59.279345" lon="18.09228">
        <ele>0</ele>
        <time>2020-02-13T16:32:58Z</time>
      </trkpt>
      <trkpt lat="59.279374" lon="18.092259">
        <ele>32</ele>
        <time>2020-02-13T16:33:04Z</time>
      </trkpt>
      <trkpt lat="59.279402" lon="18.092247">
        <ele>32</ele>
        <time>2020-02-13T16:33:04Z</time>
      </trkpt>
      <trkpt lat="59.279439" lon="18.092229">
        <ele>32</ele>
        <time>2020-02-13T16:33:05Z</time>
      </trkpt>
      <trkpt lat="59.27948" lon="18.092207">
        <ele>32</ele>
        <time>2020-02-13T16:33:06Z</time>
      </trkpt>
      <trkpt lat="59.279523" lon="18.092182">
        <ele>32</ele>
        <time>2020-02-13T16:33:07Z</time>
      </trkpt>
      <trkpt lat="59.279568" lon="18.092157">
        <ele>32</ele>
        <time>2020-02-13T16:33:08Z</time>
      </trkpt>
      <trkpt lat="59.279615" lon="18.092134">
        <ele>33</ele>
        <time>2020-02-13T16:33:09Z</time>
      </trkpt>
      <trkpt lat="59.279665" lon="18.092111">
        <ele>33</ele>
        <time>2020-02-13T16:33:10Z</time>
      </trkpt>
      <trkpt lat="59.279716" lon="18.092082">
        <ele>33</ele>
        <time>2020-02-13T16:33:11Z</time>
      </trkpt>
      <trkpt lat="59.279769" lon="18.092049">
        <ele>33</ele>
        <time>2020-02-13T16:33:13Z</time>
      </trkpt>
      <trkpt lat="59.279824" lon="18.09202">
        <ele>33</ele>
        <time>2020-02-13T16:33:13Z</time>
      </trkpt>
      <trkpt lat="59.27988" lon="18.091997">
        <ele>33</ele>
        <time>2020-02-13T16:33:14Z</time>
      </trkpt>
      <trkpt lat="59.279938" lon="18.091977">
        <ele>33</ele>
        <time>2020-02-13T16:33:15Z</time>
      </trkpt>
      <trkpt lat="59.279995" lon="18.091961">
        <ele>33</ele>
        <time>2020-02-13T16:33:16Z</time>
      </trkpt>
      <trkpt lat="59.280054" lon="18.091944">
        <ele>32</ele>
        <time>2020-02-13T16:33:17Z</time>
      </trkpt>
      <trkpt lat="59.280112" lon="18.091928">
        <ele>32</ele>
        <time>2020-02-13T16:33:18Z</time>
      </trkpt>
      <trkpt lat="59.280171" lon="18.09191">
        <ele>32</ele>
        <time>2020-02-13T16:33:19Z</time>
      </trkpt>
      <trkpt lat="59.280231" lon="18.09189">
        <ele>32</ele>
        <time>2020-02-13T16:33:21Z</time>
      </trkpt>
      <trkpt lat="59.280291" lon="18.091866">
        <ele>32</ele>
        <time>2020-02-13T16:33:21Z</time>
      </trkpt>
      <trkpt lat="59.280351" lon="18.091841">
        <ele>32</ele>
        <time>2020-02-13T16:33:23Z</time>
      </trkpt>
      <trkpt lat="59.28041" lon="18.091819">
        <ele>32</ele>
        <time>2020-02-13T16:33:23Z</time>
      </trkpt>
      <trkpt lat="59.28047" lon="18.0918">
        <ele>32</ele>
        <time>2020-02-13T16:33:24Z</time>
      </trkpt>
      <trkpt lat="59.28053" lon="18.091781">
        <ele>32</ele>
        <time>2020-02-13T16:33:25Z</time>
      </trkpt>
      <trkpt lat="59.28059" lon="18.091759">
        <ele>32</ele>
        <time>2020-02-13T16:33:26Z</time>
      </trkpt>
      <trkpt lat="59.280651" lon="18.091738">
        <ele>32</ele>
        <time>2020-02-13T16:33:27Z</time>
      </trkpt>
      <trkpt lat="59.280712" lon="18.091717">
        <ele>32</ele>
        <time>2020-02-13T16:33:29Z</time>
      </trkpt>
      <trkpt lat="59.280774" lon="18.091696">
        <ele>32</ele>
        <time>2020-02-13T16:33:29Z</time>
      </trkpt>
      <trkpt lat="59.280835" lon="18.091672">
        <ele>32</ele>
        <time>2020-02-13T16:33:30Z</time>
      </trkpt>
      <trkpt lat="59.280896" lon="18.091651">
        <ele>32</ele>
        <time>2020-02-13T16:33:31Z</time>
      </trkpt>
      <trkpt lat="59.280957" lon="18.09163">
        <ele>32</ele>
        <time>2020-02-13T16:33:32Z</time>
      </trkpt>
      <trkpt lat="59.28102" lon="18.091612">
        <ele>32</ele>
        <time>2020-02-13T16:33:33Z</time>
      </trkpt>
      <trkpt lat="59.281083" lon="18.091593">
        <ele>32</ele>
        <time>2020-02-13T16:33:34Z</time>
      </trkpt>
      <trkpt lat="59.281147" lon="18.091573">
        <ele>32</ele>
        <time>2020-02-13T16:33:35Z</time>
      </trkpt>
      <trkpt lat="59.281211" lon="18.091551">
        <ele>32</ele>
        <time>2020-02-13T16:33:37Z</time>
      </trkpt>
      <trkpt lat="59.281275" lon="18.091528">
        <ele>32</ele>
        <time>2020-02-13T16:33:37Z</time>
      </trkpt>
      <trkpt lat="59.281339" lon="18.091508">
        <ele>32</ele>
        <time>2020-02-13T16:33:38Z</time>
      </trkpt>
      <trkpt lat="59.281402" lon="18.091488">
        <ele>32</ele>
        <time>2020-02-13T16:33:39Z</time>
      </trkpt>
      <trkpt lat="59.281466" lon="18.091468">
        <ele>32</ele>
        <time>2020-02-13T16:33:40Z</time>
      </trkpt>
      <trkpt lat="59.281531" lon="18.091449">
        <ele>32</ele>
        <time>2020-02-13T16:33:42Z</time>
      </trkpt>
      <trkpt lat="59.281595" lon="18.091427">
        <ele>32</ele>
        <time>2020-02-13T16:33:42Z</time>
      </trkpt>
      <trkpt lat="59.281659" lon="18.091407">
        <ele>32</ele>
        <time>2020-02-13T16:33:43Z</time>
      </trkpt>
      <trkpt lat="59.281723" lon="18.091389">
        <ele>32</ele>
        <time>2020-02-13T16:33:45Z</time>
      </trkpt>
      <trkpt lat="59.281787" lon="18.091367">
        <ele>32</ele>
        <time>2020-02-13T16:33:45Z</time>
      </trkpt>
      <trkpt lat="59.28185" lon="18.091344">
        <ele>32</ele>
        <time>2020-02-13T16:33:46Z</time>
      </trkpt>
      <trkpt lat="59.281914" lon="18.091319">
        <ele>32</ele>
        <time>2020-02-13T16:33:47Z</time>
      </trkpt>
      <trkpt lat="59.281978" lon="18.091297">
        <ele>32</ele>
        <time>2020-02-13T16:33:48Z</time>
      </trkpt>
      <trkpt lat="59.282042" lon="18.091279">
        <ele>32</ele>
        <time>2020-02-13T16:33:49Z</time>
      </trkpt>
      <trkpt lat="59.282106" lon="18.091258">
        <ele>32</ele>
        <time>2020-02-13T16:33:50Z</time>
      </trkpt>
      <trkpt lat="59.282168" lon="18.091237">
        <ele>32</ele>
        <time>2020-02-13T16:33:51Z</time>
      </trkpt>
      <trkpt lat="59.282231" lon="18.091218">
        <ele>32</ele>
        <time>2020-02-13T16:33:53Z</time>
      </trkpt>
      <trkpt lat="59.282293" lon="18.091196">
        <ele>32</ele>
        <time>2020-02-13T16:33:53Z</time>
      </trkpt>
      <trkpt lat="59.282355" lon="18.091169">
        <ele>32</ele>
        <time>2020-02-13T16:33:54Z</time>
      </trkpt>
      <trkpt lat="59.282415" lon="18.091139">
        <ele>33</ele>
        <time>2020-02-13T16:33:55Z</time>
      </trkpt>
      <trkpt lat="59.282472" lon="18.091105">
        <ele>33</ele>
        <time>2020-02-13T16:33:56Z</time>
      </trkpt>
      <trkpt lat="59.28253" lon="18.091074">
        <ele>33</ele>
        <time>2020-02-13T16:33:57Z</time>
      </trkpt>
      <trkpt lat="59.28259" lon="18.091046">
        <ele>33</ele>
        <time>2020-02-13T16:33:58Z</time>
      </trkpt>
      <trkpt lat="59.28265" lon="18.091016">
        <ele>33</ele>
        <time>2020-02-13T16:33:59Z</time>
      </trkpt>
      <trkpt lat="59.28271" lon="18.090984">
        <ele>33</ele>
        <time>2020-02-13T16:34:01Z</time>
      </trkpt>
      <trkpt lat="59.282771" lon="18.090954">
        <ele>33</ele>
        <time>2020-02-13T16:34:01Z</time>
      </trkpt>
      <trkpt lat="59.282832" lon="18.090927">
        <ele>33</ele>
        <time>2020-02-13T16:34:02Z</time>
      </trkpt>
      <trkpt lat="59.282894" lon="18.090896">
        <ele>33</ele>
        <time>2020-02-13T16:34:03Z</time>
      </trkpt>
      <trkpt lat="59.282954" lon="18.090861">
        <ele>33</ele>
        <time>2020-02-13T16:34:04Z</time>
      </trkpt>
      <trkpt lat="59.283014" lon="18.090826">
        <ele>33</ele>
        <time>2020-02-13T16:34:05Z</time>
      </trkpt>
      <trkpt lat="59.283075" lon="18.090798">
        <ele>33</ele>
        <time>2020-02-13T16:34:06Z</time>
      </trkpt>
      <trkpt lat="59.283137" lon="18.090766">
        <ele>33</ele>
        <time>2020-02-13T16:34:07Z</time>
      </trkpt>
      <trkpt lat="59.283198" lon="18.090739">
        <ele>33</ele>
        <time>2020-02-13T16:34:09Z</time>
      </trkpt>
      <trkpt lat="59.28326" lon="18.090712">
        <ele>33</ele>
        <time>2020-02-13T16:34:09Z</time>
      </trkpt>
      <trkpt lat="59.28332" lon="18.090682">
        <ele>33</ele>
        <time>2020-02-13T16:34:10Z</time>
      </trkpt>
      <trkpt lat="59.283379" lon="18.090656">
        <ele>33</ele>
        <time>2020-02-13T16:34:11Z</time>
      </trkpt>
      <trkpt lat="59.283438" lon="18.090628">
        <ele>33</ele>
        <time>2020-02-13T16:34:12Z</time>
      </trkpt>
      <trkpt lat="59.2835" lon="18.090602">
        <ele>33</ele>
        <time>2020-02-13T16:34:13Z</time>
      </trkpt>
      <trkpt lat="59.283559" lon="18.09057">
        <ele>33</ele>
        <time>2020-02-13T16:34:14Z</time>
      </trkpt>
      <trkpt lat="59.28362" lon="18.090542">
        <ele>33</ele>
        <time>2020-02-13T16:34:15Z</time>
      </trkpt>
      <trkpt lat="59.283681" lon="18.090514">
        <ele>33</ele>
        <time>2020-02-13T16:34:17Z</time>
      </trkpt>
      <trkpt lat="59.283744" lon="18.090486">
        <ele>33</ele>
        <time>2020-02-13T16:34:17Z</time>
      </trkpt>
      <trkpt lat="59.283804" lon="18.090456">
        <ele>33</ele>
        <time>2020-02-13T16:34:18Z</time>
      </trkpt>
      <trkpt lat="59.283864" lon="18.090428">
        <ele>33</ele>
        <time>2020-02-13T16:34:20Z</time>
      </trkpt>
      <trkpt lat="59.283926" lon="18.090403">
        <ele>33</ele>
        <time>2020-02-13T16:34:20Z</time>
      </trkpt>
      <trkpt lat="59.283986" lon="18.090374">
        <ele>33</ele>
        <time>2020-02-13T16:34:21Z</time>
      </trkpt>
      <trkpt lat="59.284048" lon="18.090347">
        <ele>33</ele>
        <time>2020-02-13T16:34:22Z</time>
      </trkpt>
      <trkpt lat="59.284106" lon="18.090316">
        <ele>33</ele>
        <time>2020-02-13T16:34:23Z</time>
      </trkpt>
      <trkpt lat="59.284166" lon="18.090286">
        <ele>33</ele>
        <time>2020-02-13T16:34:25Z</time>
      </trkpt>
      <trkpt lat="59.284226" lon="18.09026">
        <ele>33</ele>
        <time>2020-02-13T16:34:25Z</time>
      </trkpt>
      <trkpt lat="59.284285" lon="18.090232">
        <ele>33</ele>
        <time>2020-02-13T16:34:26Z</time>
      </trkpt>
      <trkpt lat="59.284342" lon="18.090202">
        <ele>33</ele>
        <time>2020-02-13T16:34:27Z</time>
      </trkpt>
      <trkpt lat="59.2844" lon="18.09017">
        <ele>33</ele>
        <time>2020-02-13T16:34:28Z</time>
      </trkpt>
      <trkpt lat="59.284456" lon="18.090138">
        <ele>33</ele>
        <time>2020-02-13T16:34:29Z</time>
      </trkpt>
      <trkpt lat="59.284511" lon="18.090108">
        <ele>33</ele>
        <time>2020-02-13T16:34:30Z</time>
      </trkpt>
      <trkpt lat="59.284567" lon="18.090082">
        <ele>33</ele>
        <time>2020-02-13T16:34:31Z</time>
      </trkpt>
      <trkpt lat="59.284626" lon="18.090056">
        <ele>33</ele>
        <time>2020-02-13T16:34:33Z</time>
      </trkpt>
      <trkpt lat="59.284684" lon="18.09003">
        <ele>33</ele>
        <time>2020-02-13T16:34:33Z</time>
      </trkpt>
      <trkpt lat="59.284741" lon="18.090002">
        <ele>33</ele>
        <time>2020-02-13T16:34:34Z</time>
      </trkpt>
      <trkpt lat="59.2848" lon="18.089972">
        <ele>33</ele>
        <time>2020-02-13T16:34:35Z</time>
      </trkpt>
      <trkpt lat="59.284859" lon="18.089942">
        <ele>33</ele>
        <time>2020-02-13T16:34:36Z</time>
      </trkpt>
      <trkpt lat="59.284919" lon="18.089908">
        <ele>33</ele>
        <time>2020-02-13T16:34:37Z</time>
      </trkpt>
      <trkpt lat="59.28498" lon="18.089881">
        <ele>33</ele>
        <time>2020-02-13T16:34:39Z</time>
      </trkpt>
      <trkpt lat="59.28504" lon="18.089849">
        <ele>33</ele>
        <time>2020-02-13T16:34:39Z</time>
      </trkpt>
      <trkpt lat="59.2851" lon="18.089818">
        <ele>33</ele>
        <time>2020-02-13T16:34:41Z</time>
      </trkpt>
      <trkpt lat="59.285163" lon="18.089795">
        <ele>33</ele>
        <time>2020-02-13T16:34:41Z</time>
      </trkpt>
      <trkpt lat="59.285227" lon="18.089772">
        <ele>32</ele>
        <time>2020-02-13T16:34:42Z</time>
      </trkpt>
      <trkpt lat="59.28529" lon="18.089747">
        <ele>32</ele>
        <time>2020-02-13T16:34:43Z</time>
      </trkpt>
      <trkpt lat="59.28535" lon="18.08972">
        <ele>32</ele>
        <time>2020-02-13T16:34:44Z</time>
      </trkpt>
      <trkpt lat="59.285409" lon="18.08969">
        <ele>32</ele>
        <time>2020-02-13T16:34:45Z</time>
      </trkpt>
      <trkpt lat="59.285471" lon="18.08966">
        <ele>32</ele>
        <time>2020-02-13T16:34:46Z</time>
      </trkpt>
      <trkpt lat="59.28553" lon="18.089634">
        <ele>32</ele>
        <time>2020-02-13T16:34:47Z</time>
      </trkpt>
      <trkpt lat="59.28559" lon="18.089609">
        <ele>32</ele>
        <time>2020-02-13T16:34:49Z</time>
      </trkpt>
      <trkpt lat="59.28565" lon="18.089583">
        <ele>32</ele>
        <time>2020-02-13T16:34:49Z</time>
      </trkpt>
      <trkpt lat="59.285708" lon="18.089554">
        <ele>32</ele>
        <time>2020-02-13T16:34:50Z</time>
      </trkpt>
      <trkpt lat="59.285768" lon="18.089526">
        <ele>32</ele>
        <time>2020-02-13T16:34:51Z</time>
      </trkpt>
      <trkpt lat="59.285826" lon="18.089502">
        <ele>32</ele>
        <time>2020-02-13T16:34:52Z</time>
      </trkpt>
      <trkpt lat="59.285884" lon="18.08948">
        <ele>32</ele>
        <time>2020-02-13T16:34:53Z</time>
      </trkpt>
      <trkpt lat="59.28594" lon="18.089454">
        <ele>32</ele>
        <time>2020-02-13T16:34:54Z</time>
      </trkpt>
      <trkpt lat="59.285996" lon="18.089424">
        <ele>32</ele>
        <time>2020-02-13T16:34:55Z</time>
      </trkpt>
      <trkpt lat="59.286052" lon="18.089396">
        <ele>32</ele>
        <time>2020-02-13T16:34:56Z</time>
      </trkpt>
      <trkpt lat="59.286108" lon="18.089368">
        <ele>0</ele>
        <time>2020-02-13T16:34:57Z</time>
      </trkpt>
      <trkpt lat="59.286164" lon="18.089339">
        <ele>32</ele>
        <time>2020-02-13T16:34:58Z</time>
      </trkpt>
      <trkpt lat="59.28622" lon="18.08931">
        <ele>32</ele>
        <time>2020-02-13T16:35:00Z</time>
      </trkpt>
      <trkpt lat="59.286277" lon="18.089282">
        <ele>32</ele>
        <time>2020-02-13T16:35:00Z</time>
      </trkpt>
      <trkpt lat="59.286334" lon="18.089256">
        <ele>32</ele>
        <time>2020-02-13T16:35:01Z</time>
      </trkpt>
      <trkpt lat="59.28639" lon="18.089231">
        <ele>32</ele>
        <time>2020-02-13T16:35:02Z</time>
      </trkpt>
      <trkpt lat="59.286448" lon="18.08921">
        <ele>32</ele>
        <time>2020-02-13T16:35:03Z</time>
      </trkpt>
      <trkpt lat="59.286507" lon="18.08919">
        <ele>32</ele>
        <time>2020-02-13T16:35:04Z</time>
      </trkpt>
      <trkpt lat="59.286566" lon="18.089171">
        <ele>32</ele>
        <time>2020-02-13T16:35:06Z</time>
      </trkpt>
      <trkpt lat="59.286625" lon="18.089151">
        <ele>32</ele>
        <time>2020-02-13T16:35:06Z</time>
      </trkpt>
      <trkpt lat="59.286684" lon="18.089127">
        <ele>32</ele>
        <time>2020-02-13T16:35:07Z</time>
      </trkpt>
      <trkpt lat="59.286743" lon="18.089106">
        <ele>32</ele>
        <time>2020-02-13T16:35:08Z</time>
      </trkpt>
      <trkpt lat="59.286801" lon="18.089082">
        <ele>32</ele>
        <time>2020-02-13T16:35:09Z</time>
      </trkpt>
      <trkpt lat="59.286859" lon="18.089057">
        <ele>32</ele>
        <time>2020-02-13T16:35:10Z</time>
      </trkpt>
      <trkpt lat="59.286916" lon="18.089032">
        <ele>32</ele>
        <time>2020-02-13T16:35:11Z</time>
      </trkpt>
      <trkpt lat="59.286972" lon="18.089001">
        <ele>32</ele>
        <time>2020-02-13T16:35:12Z</time>
      </trkpt>
      <trkpt lat="59.287027" lon="18.088966">
        <ele>32</ele>
        <time>2020-02-13T16:35:13Z</time>
      </trkpt>
      <trkpt lat="59.28708" lon="18.088931">
        <ele>32</ele>
        <time>2020-02-13T16:35:15Z</time>
      </trkpt>
      <trkpt lat="59.287132" lon="18.088897">
        <ele>32</ele>
        <time>2020-02-13T16:35:15Z</time>
      </trkpt>
      <trkpt lat="59.287183" lon="18.088866">
        <ele>33</ele>
        <time>2020-02-13T16:35:17Z</time>
      </trkpt>
      <trkpt lat="59.287235" lon="18.088837">
        <ele>33</ele>
        <time>2020-02-13T16:35:17Z</time>
      </trkpt>
      <trkpt lat="59.287287" lon="18.088813">
        <ele>33</ele>
        <time>2020-02-13T16:35:18Z</time>
      </trkpt>
      <trkpt lat="59.287339" lon="18.088787">
        <ele>33</ele>
        <time>2020-02-13T16:35:19Z</time>
      </trkpt>
      <trkpt lat="59.287389" lon="18.088764">
        <ele>33</ele>
        <time>2020-02-13T16:35:20Z</time>
      </trkpt>
      <trkpt lat="59.287439" lon="18.088766">
        <ele>33</ele>
        <time>2020-02-13T16:35:21Z</time>
      </trkpt>
      <trkpt lat="59.287484" lon="18.088809">
        <ele>33</ele>
        <time>2020-02-13T16:35:22Z</time>
      </trkpt>
      <trkpt lat="59.287516" lon="18.088888">
        <ele>33</ele>
        <time>2020-02-13T16:35:24Z</time>
      </trkpt>
      <trkpt lat="59.287543" lon="18.088975">
        <ele>33</ele>
        <time>2020-02-13T16:35:24Z</time>
      </trkpt>
      <trkpt lat="59.287575" lon="18.089052">
        <ele>33</ele>
        <time>2020-02-13T16:35:25Z</time>
      </trkpt>
      <trkpt lat="59.287618" lon="18.08911">
        <ele>34</ele>
        <time>2020-02-13T16:35:26Z</time>
      </trkpt>
      <trkpt lat="59.287662" lon="18.08914">
        <ele>34</ele>
        <time>2020-02-13T16:35:27Z</time>
      </trkpt>
      <trkpt lat="59.287711" lon="18.089156">
        <ele>34</ele>
        <time>2020-02-13T16:35:28Z</time>
      </trkpt>
      <trkpt lat="59.287765" lon="18.089163">
        <ele>34</ele>
        <time>2020-02-13T16:35:29Z</time>
      </trkpt>
      <trkpt lat="59.287821" lon="18.089166">
        <ele>34</ele>
        <time>2020-02-13T16:35:30Z</time>
      </trkpt>
      <trkpt lat="59.287876" lon="18.089154">
        <ele>34</ele>
        <time>2020-02-13T16:35:31Z</time>
      </trkpt>
      <trkpt lat="59.287931" lon="18.089132">
        <ele>34</ele>
        <time>2020-02-13T16:35:32Z</time>
      </trkpt>
      <trkpt lat="59.287985" lon="18.089104">
        <ele>35</ele>
        <time>2020-02-13T16:35:34Z</time>
      </trkpt>
      <trkpt lat="59.288037" lon="18.089074">
        <ele>35</ele>
        <time>2020-02-13T16:35:34Z</time>
      </trkpt>
      <trkpt lat="59.288086" lon="18.089046">
        <ele>36</ele>
        <time>2020-02-13T16:35:36Z</time>
      </trkpt>
      <trkpt lat="59.288133" lon="18.089019">
        <ele>36</ele>
        <time>2020-02-13T16:35:36Z</time>
      </trkpt>
      <trkpt lat="59.288179" lon="18.088988">
        <ele>37</ele>
        <time>2020-02-13T16:35:37Z</time>
      </trkpt>
      <trkpt lat="59.288224" lon="18.088957">
        <ele>37</ele>
        <time>2020-02-13T16:35:39Z</time>
      </trkpt>
      <trkpt lat="59.288272" lon="18.088932">
        <ele>38</ele>
        <time>2020-02-13T16:35:39Z</time>
      </trkpt>
      <trkpt lat="59.28832" lon="18.088908">
        <ele>38</ele>
        <time>2020-02-13T16:35:40Z</time>
      </trkpt>
      <trkpt lat="59.28837" lon="18.088885">
        <ele>38</ele>
        <time>2020-02-13T16:35:41Z</time>
      </trkpt>
      <trkpt lat="59.288416" lon="18.088864">
        <ele>38</ele>
        <time>2020-02-13T16:35:42Z</time>
      </trkpt>
      <trkpt lat="59.288452" lon="18.088847">
        <ele>38</ele>
        <time>2020-02-13T16:35:44Z</time>
      </trkpt>
      <trkpt lat="59.288486" lon="18.088832">
        <ele>38</ele>
        <time>2020-02-13T16:35:44Z</time>
      </trkpt>
      <trkpt lat="59.288512" lon="18.088818">
        <ele>38</ele>
        <time>2020-02-13T16:35:45Z</time>
      </trkpt>
      <trkpt lat="59.288532" lon="18.088809">
        <ele>38</ele>
        <time>2020-02-13T16:35:46Z</time>
      </trkpt>
      <trkpt lat="59.288566" lon="18.088802">
        <ele>38</ele>
        <time>2020-02-13T16:35:48Z</time>
      </trkpt>
      <trkpt lat="59.288585" lon="18.088807">
        <ele>38</ele>
        <time>2020-02-13T16:35:50Z</time>
      </trkpt>
      <trkpt lat="59.288585" lon="18.088807">
        <ele>0</ele>
        <time>2020-02-13T16:35:54Z</time>
      </trkpt>
      <trkpt lat="59.288639" lon="18.088785">
        <ele>37</ele>
        <time>2020-02-13T16:36:02Z</time>
      </trkpt>
      <trkpt lat="59.288668" lon="18.088769">
        <ele>37</ele>
        <time>2020-02-13T16:36:02Z</time>
      </trkpt>
      <trkpt lat="59.288699" lon="18.088754">
        <ele>37</ele>
        <time>2020-02-13T16:36:03Z</time>
      </trkpt>
      <trkpt lat="59.288737" lon="18.088736">
        <ele>37</ele>
        <time>2020-02-13T16:36:04Z</time>
      </trkpt>
      <trkpt lat="59.288772" lon="18.088696">
        <ele>37</ele>
        <time>2020-02-13T16:36:05Z</time>
      </trkpt>
      <trkpt lat="59.288789" lon="18.088625">
        <ele>37</ele>
        <time>2020-02-13T16:36:06Z</time>
      </trkpt>
      <trkpt lat="59.288789" lon="18.088542">
        <ele>37</ele>
        <time>2020-02-13T16:36:07Z</time>
      </trkpt>
      <trkpt lat="59.288796" lon="18.088458">
        <ele>37</ele>
        <time>2020-02-13T16:36:08Z</time>
      </trkpt>
      <trkpt lat="59.288819" lon="18.088381">
        <ele>37</ele>
        <time>2020-02-13T16:36:09Z</time>
      </trkpt>
      <trkpt lat="59.288857" lon="18.088323">
        <ele>37</ele>
        <time>2020-02-13T16:36:10Z</time>
      </trkpt>
      <trkpt lat="59.288907" lon="18.088288">
        <ele>37</ele>
        <time>2020-02-13T16:36:12Z</time>
      </trkpt>
      <trkpt lat="59.288961" lon="18.088264">
        <ele>37</ele>
        <time>2020-02-13T16:36:12Z</time>
      </trkpt>
      <trkpt lat="59.289017" lon="18.088239">
        <ele>37</ele>
        <time>2020-02-13T16:36:13Z</time>
      </trkpt>
      <trkpt lat="59.289072" lon="18.088213">
        <ele>37</ele>
        <time>2020-02-13T16:36:14Z</time>
      </trkpt>
      <trkpt lat="59.289128" lon="18.088184">
        <ele>36</ele>
        <time>2020-02-13T16:36:15Z</time>
      </trkpt>
      <trkpt lat="59.289185" lon="18.088154">
        <ele>36</ele>
        <time>2020-02-13T16:36:16Z</time>
      </trkpt>
      <trkpt lat="59.289243" lon="18.088126">
        <ele>37</ele>
        <time>2020-02-13T16:36:17Z</time>
      </trkpt>
      <trkpt lat="59.289301" lon="18.088096">
        <ele>37</ele>
        <time>2020-02-13T16:36:18Z</time>
      </trkpt>
      <trkpt lat="59.289357" lon="18.088066">
        <ele>37</ele>
        <time>2020-02-13T16:36:20Z</time>
      </trkpt>
      <trkpt lat="59.289414" lon="18.088038">
        <ele>37</ele>
        <time>2020-02-13T16:36:21Z</time>
      </trkpt>
      <trkpt lat="59.289471" lon="18.088011">
        <ele>36</ele>
        <time>2020-02-13T16:36:21Z</time>
      </trkpt>
      <trkpt lat="59.289528" lon="18.087984">
        <ele>36</ele>
        <time>2020-02-13T16:36:22Z</time>
      </trkpt>
      <trkpt lat="59.289584" lon="18.087957">
        <ele>36</ele>
        <time>2020-02-13T16:36:23Z</time>
      </trkpt>
      <trkpt lat="59.289639" lon="18.087928">
        <ele>36</ele>
        <time>2020-02-13T16:36:24Z</time>
      </trkpt>
      <trkpt lat="59.289693" lon="18.087899">
        <ele>36</ele>
        <time>2020-02-13T16:36:25Z</time>
      </trkpt>
      <trkpt lat="59.289748" lon="18.087872">
        <ele>36</ele>
        <time>2020-02-13T16:36:26Z</time>
      </trkpt>
      <trkpt lat="59.289802" lon="18.087844">
        <ele>36</ele>
        <time>2020-02-13T16:36:27Z</time>
      </trkpt>
      <trkpt lat="59.289855" lon="18.087817">
        <ele>36</ele>
        <time>2020-02-13T16:36:29Z</time>
      </trkpt>
      <trkpt lat="59.289908" lon="18.087786">
        <ele>36</ele>
        <time>2020-02-13T16:36:29Z</time>
      </trkpt>
      <trkpt lat="59.289958" lon="18.087748">
        <ele>37</ele>
        <time>2020-02-13T16:36:30Z</time>
      </trkpt>
      <trkpt lat="59.290006" lon="18.087701">
        <ele>37</ele>
        <time>2020-02-13T16:36:31Z</time>
      </trkpt>
      <trkpt lat="59.290053" lon="18.087651">
        <ele>37</ele>
        <time>2020-02-13T16:36:32Z</time>
      </trkpt>
      <trkpt lat="59.290101" lon="18.087603">
        <ele>37</ele>
        <time>2020-02-13T16:36:33Z</time>
      </trkpt>
      <trkpt lat="59.29015" lon="18.087559">
        <ele>37</ele>
        <time>2020-02-13T16:36:34Z</time>
      </trkpt>
      <trkpt lat="59.2902" lon="18.087517">
        <ele>37</ele>
        <time>2020-02-13T16:36:35Z</time>
      </trkpt>
      <trkpt lat="59.290249" lon="18.087478">
        <ele>37</ele>
        <time>2020-02-13T16:36:36Z</time>
      </trkpt>
      <trkpt lat="59.290299" lon="18.087441">
        <ele>37</ele>
        <time>2020-02-13T16:36:38Z</time>
      </trkpt>
      <trkpt lat="59.290348" lon="18.087404">
        <ele>37</ele>
        <time>2020-02-13T16:36:38Z</time>
      </trkpt>
      <trkpt lat="59.290397" lon="18.087366">
        <ele>37</ele>
        <time>2020-02-13T16:36:40Z</time>
      </trkpt>
      <trkpt lat="59.290447" lon="18.087329">
        <ele>37</ele>
        <time>2020-02-13T16:36:40Z</time>
      </trkpt>
      <trkpt lat="59.290497" lon="18.087295">
        <ele>37</ele>
        <time>2020-02-13T16:36:41Z</time>
      </trkpt>
      <trkpt lat="59.290547" lon="18.087264">
        <ele>37</ele>
        <time>2020-02-13T16:36:42Z</time>
      </trkpt>
      <trkpt lat="59.290597" lon="18.087234">
        <ele>38</ele>
        <time>2020-02-13T16:36:43Z</time>
      </trkpt>
      <trkpt lat="59.290647" lon="18.087202">
        <ele>38</ele>
        <time>2020-02-13T16:36:44Z</time>
      </trkpt>
      <trkpt lat="59.290697" lon="18.087171">
        <ele>38</ele>
        <time>2020-02-13T16:36:45Z</time>
      </trkpt>
      <trkpt lat="59.290747" lon="18.087143">
        <ele>38</ele>
        <time>2020-02-13T16:36:46Z</time>
      </trkpt>
      <trkpt lat="59.290797" lon="18.087118">
        <ele>38</ele>
        <time>2020-02-13T16:36:48Z</time>
      </trkpt>
      <trkpt lat="59.290846" lon="18.087092">
        <ele>38</ele>
        <time>2020-02-13T16:36:48Z</time>
      </trkpt>
      <trkpt lat="59.290894" lon="18.087065">
        <ele>38</ele>
        <time>2020-02-13T16:36:49Z</time>
      </trkpt>
      <trkpt lat="59.290941" lon="18.087039">
        <ele>38</ele>
        <time>2020-02-13T16:36:50Z</time>
      </trkpt>
      <trkpt lat="59.290988" lon="18.087017">
        <ele>38</ele>
        <time>2020-02-13T16:36:51Z</time>
      </trkpt>
      <trkpt lat="59.291035" lon="18.086998">
        <ele>39</ele>
        <time>2020-02-13T16:36:52Z</time>
      </trkpt>
      <trkpt lat="59.291081" lon="18.086981">
        <ele>39</ele>
        <time>2020-02-13T16:36:53Z</time>
      </trkpt>
      <trkpt lat="59.291127" lon="18.086963">
        <ele>39</ele>
        <time>2020-02-13T16:36:54Z</time>
      </trkpt>
      <trkpt lat="59.291171" lon="18.08694">
        <ele>40</ele>
        <time>2020-02-13T16:36:56Z</time>
      </trkpt>
      <trkpt lat="59.291214" lon="18.08691">
        <ele>40</ele>
        <time>2020-02-13T16:36:56Z</time>
      </trkpt>
      <trkpt lat="59.291257" lon="18.086886">
        <ele>40</ele>
        <time>2020-02-13T16:36:58Z</time>
      </trkpt>
      <trkpt lat="59.291298" lon="18.086863">
        <ele>40</ele>
        <time>2020-02-13T16:36:59Z</time>
      </trkpt>
      <trkpt lat="59.291341" lon="18.086841">
        <ele>41</ele>
        <time>2020-02-13T16:36:59Z</time>
      </trkpt>
      <trkpt lat="59.291385" lon="18.086823">
        <ele>41</ele>
        <time>2020-02-13T16:37:00Z</time>
      </trkpt>
      <trkpt lat="59.291429" lon="18.086804">
        <ele>41</ele>
        <time>2020-02-13T16:37:01Z</time>
      </trkpt>
      <trkpt lat="59.291472" lon="18.086784">
        <ele>41</ele>
        <time>2020-02-13T16:37:02Z</time>
      </trkpt>
      <trkpt lat="59.291516" lon="18.086766">
        <ele>41</ele>
        <time>2020-02-13T16:37:03Z</time>
      </trkpt>
      <trkpt lat="59.291558" lon="18.086747">
        <ele>41</ele>
        <time>2020-02-13T16:37:04Z</time>
      </trkpt>
      <trkpt lat="59.291597" lon="18.086723">
        <ele>42</ele>
        <time>2020-02-13T16:37:05Z</time>
      </trkpt>
      <trkpt lat="59.291637" lon="18.086698">
        <ele>42</ele>
        <time>2020-02-13T16:37:06Z</time>
      </trkpt>
      <trkpt lat="59.291678" lon="18.086677">
        <ele>42</ele>
        <time>2020-02-13T16:37:07Z</time>
      </trkpt>
      <trkpt lat="59.291715" lon="18.086651">
        <ele>42</ele>
        <time>2020-02-13T16:37:08Z</time>
      </trkpt>
      <trkpt lat="59.291755" lon="18.086628">
        <ele>43</ele>
        <time>2020-02-13T16:37:10Z</time>
      </trkpt>
      <trkpt lat="59.291798" lon="18.086602">
        <ele>43</ele>
        <time>2020-02-13T16:37:10Z</time>
      </trkpt>
      <trkpt lat="59.291841" lon="18.08658">
        <ele>43</ele>
        <time>2020-02-13T16:37:11Z</time>
      </trkpt>
      <trkpt lat="59.291883" lon="18.086558">
        <ele>43</ele>
        <time>2020-02-13T16:37:12Z</time>
      </trkpt>
      <trkpt lat="59.291924" lon="18.086534">
        <ele>43</ele>
        <time>2020-02-13T16:37:13Z</time>
      </trkpt>
      <trkpt lat="59.291968" lon="18.086519">
        <ele>44</ele>
        <time>2020-02-13T16:37:14Z</time>
      </trkpt>
      <trkpt lat="59.292012" lon="18.0865">
        <ele>44</ele>
        <time>2020-02-13T16:37:15Z</time>
      </trkpt>
      <trkpt lat="59.29205" lon="18.086472">
        <ele>44</ele>
        <time>2020-02-13T16:37:16Z</time>
      </trkpt>
      <trkpt lat="59.292091" lon="18.086449">
        <ele>44</ele>
        <time>2020-02-13T16:37:18Z</time>
      </trkpt>
      <trkpt lat="59.292128" lon="18.086422">
        <ele>44</ele>
        <time>2020-02-13T16:37:18Z</time>
      </trkpt>
      <trkpt lat="59.292165" lon="18.086397">
        <ele>44</ele>
        <time>2020-02-13T16:37:19Z</time>
      </trkpt>
      <trkpt lat="59.292208" lon="18.086379">
        <ele>44</ele>
        <time>2020-02-13T16:37:20Z</time>
      </trkpt>
      <trkpt lat="59.292252" lon="18.086356">
        <ele>45</ele>
        <time>2020-02-13T16:37:22Z</time>
      </trkpt>
      <trkpt lat="59.292297" lon="18.086332">
        <ele>45</ele>
        <time>2020-02-13T16:37:22Z</time>
      </trkpt>
      <trkpt lat="59.292341" lon="18.08631">
        <ele>45</ele>
        <time>2020-02-13T16:37:23Z</time>
      </trkpt>
      <trkpt lat="59.292388" lon="18.086288">
        <ele>45</ele>
        <time>2020-02-13T16:37:24Z</time>
      </trkpt>
      <trkpt lat="59.292431" lon="18.08626">
        <ele>46</ele>
        <time>2020-02-13T16:37:25Z</time>
      </trkpt>
      <trkpt lat="59.292479" lon="18.086236">
        <ele>46</ele>
        <time>2020-02-13T16:37:26Z</time>
      </trkpt>
      <trkpt lat="59.292528" lon="18.086213">
        <ele>46</ele>
        <time>2020-02-13T16:37:27Z</time>
      </trkpt>
      <trkpt lat="59.292572" lon="18.086183">
        <ele>46</ele>
        <time>2020-02-13T16:37:28Z</time>
      </trkpt>
      <trkpt lat="59.292615" lon="18.086153">
        <ele>47</ele>
        <time>2020-02-13T16:37:29Z</time>
      </trkpt>
      <trkpt lat="59.292662" lon="18.086128">
        <ele>47</ele>
        <time>2020-02-13T16:37:31Z</time>
      </trkpt>
      <trkpt lat="59.292712" lon="18.086106">
        <ele>47</ele>
        <time>2020-02-13T16:37:32Z</time>
      </trkpt>
      <trkpt lat="59.292762" lon="18.086083">
        <ele>47</ele>
        <time>2020-02-13T16:37:32Z</time>
      </trkpt>
      <trkpt lat="59.292813" lon="18.086062">
        <ele>47</ele>
        <time>2020-02-13T16:37:33Z</time>
      </trkpt>
      <trkpt lat="59.292865" lon="18.08604">
        <ele>48</ele>
        <time>2020-02-13T16:37:34Z</time>
      </trkpt>
      <trkpt lat="59.29292" lon="18.086011">
        <ele>48</ele>
        <time>2020-02-13T16:37:35Z</time>
      </trkpt>
      <trkpt lat="59.292975" lon="18.085987">
        <ele>48</ele>
        <time>2020-02-13T16:37:37Z</time>
      </trkpt>
      <trkpt lat="59.293028" lon="18.085968">
        <ele>48</ele>
        <time>2020-02-13T16:37:37Z</time>
      </trkpt>
      <trkpt lat="59.293076" lon="18.085941">
        <ele>48</ele>
        <time>2020-02-13T16:37:38Z</time>
      </trkpt>
      <trkpt lat="59.293128" lon="18.085914">
        <ele>48</ele>
        <time>2020-02-13T16:37:39Z</time>
      </trkpt>
      <trkpt lat="59.293178" lon="18.085882">
        <ele>48</ele>
        <time>2020-02-13T16:37:40Z</time>
      </trkpt>
      <trkpt lat="59.293228" lon="18.085854">
        <ele>48</ele>
        <time>2020-02-13T16:37:42Z</time>
      </trkpt>
      <trkpt lat="59.293279" lon="18.085822">
        <ele>48</ele>
        <time>2020-02-13T16:37:42Z</time>
      </trkpt>
      <trkpt lat="59.29333" lon="18.08579">
        <ele>48</ele>
        <time>2020-02-13T16:37:43Z</time>
      </trkpt>
      <trkpt lat="59.29338" lon="18.085757">
        <ele>48</ele>
        <time>2020-02-13T16:37:44Z</time>
      </trkpt>
      <trkpt lat="59.29343" lon="18.085724">
        <ele>48</ele>
        <time>2020-02-13T16:37:45Z</time>
      </trkpt>
      <trkpt lat="59.293482" lon="18.085699">
        <ele>48</ele>
        <time>2020-02-13T16:37:46Z</time>
      </trkpt>
      <trkpt lat="59.293533" lon="18.085671">
        <ele>48</ele>
        <time>2020-02-13T16:37:47Z</time>
      </trkpt>
      <trkpt lat="59.293585" lon="18.08565">
        <ele>48</ele>
        <time>2020-02-13T16:37:48Z</time>
      </trkpt>
      <trkpt lat="59.293636" lon="18.085632">
        <ele>48</ele>
        <time>2020-02-13T16:37:49Z</time>
      </trkpt>
      <trkpt lat="59.293685" lon="18.085607">
        <ele>48</ele>
        <time>2020-02-13T16:37:50Z</time>
      </trkpt>
      <trkpt lat="59.293778" lon="18.085555">
        <ele>47</ele>
        <time>2020-02-13T16:37:52Z</time>
      </trkpt>
      <trkpt lat="59.293873" lon="18.085496">
        <ele>47</ele>
        <time>2020-02-13T16:37:54Z</time>
      </trkpt>
      <trkpt lat="59.293926" lon="18.08546">
        <ele>47</ele>
        <time>2020-02-13T16:37:56Z</time>
      </trkpt>
      <trkpt lat="59.293981" lon="18.085422">
        <ele>47</ele>
        <time>2020-02-13T16:37:56Z</time>
      </trkpt>
      <trkpt lat="59.294033" lon="18.08539">
        <ele>47</ele>
        <time>2020-02-13T16:37:57Z</time>
      </trkpt>
      <trkpt lat="59.294084" lon="18.085356">
        <ele>47</ele>
        <time>2020-02-13T16:37:58Z</time>
      </trkpt>
      <trkpt lat="59.294135" lon="18.085323">
        <ele>47</ele>
        <time>2020-02-13T16:38:00Z</time>
      </trkpt>
      <trkpt lat="59.294187" lon="18.085293">
        <ele>47</ele>
        <time>2020-02-13T16:38:00Z</time>
      </trkpt>
      <trkpt lat="59.294237" lon="18.085257">
        <ele>47</ele>
        <time>2020-02-13T16:38:01Z</time>
      </trkpt>
      <trkpt lat="59.294284" lon="18.085224">
        <ele>47</ele>
        <time>2020-02-13T16:38:02Z</time>
      </trkpt>
      <trkpt lat="59.294341" lon="18.08515">
        <ele>47</ele>
        <time>2020-02-13T16:38:03Z</time>
      </trkpt>
      <trkpt lat="59.294442" lon="18.085053">
        <ele>47</ele>
        <time>2020-02-13T16:38:05Z</time>
      </trkpt>
      <trkpt lat="59.294558" lon="18.084928">
        <ele>46</ele>
        <time>2020-02-13T16:38:07Z</time>
      </trkpt>
      <trkpt lat="59.294717" lon="18.084948">
        <ele>46</ele>
        <time>2020-02-13T16:38:09Z</time>
      </trkpt>
      <trkpt lat="59.294795" lon="18.085034">
        <ele>46</ele>
        <time>2020-02-13T16:38:10Z</time>
      </trkpt>
      <trkpt lat="59.294847" lon="18.085033">
        <ele>45</ele>
        <time>2020-02-13T16:38:11Z</time>
      </trkpt>
      <trkpt lat="59.294898" lon="18.085015">
        <ele>45</ele>
        <time>2020-02-13T16:38:12Z</time>
      </trkpt>
      <trkpt lat="59.29495" lon="18.084991">
        <ele>45</ele>
        <time>2020-02-13T16:38:13Z</time>
      </trkpt>
      <trkpt lat="59.294998" lon="18.084963">
        <ele>46</ele>
        <time>2020-02-13T16:38:15Z</time>
      </trkpt>
      <trkpt lat="59.295047" lon="18.084933">
        <ele>46</ele>
        <time>2020-02-13T16:38:15Z</time>
      </trkpt>
      <trkpt lat="59.295098" lon="18.084902">
        <ele>46</ele>
        <time>2020-02-13T16:38:17Z</time>
      </trkpt>
      <trkpt lat="59.295148" lon="18.084872">
        <ele>46</ele>
        <time>2020-02-13T16:38:17Z</time>
      </trkpt>
      <trkpt lat="59.295199" lon="18.084843">
        <ele>46</ele>
        <time>2020-02-13T16:38:18Z</time>
      </trkpt>
      <trkpt lat="59.295248" lon="18.084813">
        <ele>46</ele>
        <time>2020-02-13T16:38:19Z</time>
      </trkpt>
      <trkpt lat="59.295292" lon="18.084779">
        <ele>46</ele>
        <time>2020-02-13T16:38:20Z</time>
      </trkpt>
      <trkpt lat="59.29533" lon="18.084732">
        <ele>46</ele>
        <time>2020-02-13T16:38:21Z</time>
      </trkpt>
      <trkpt lat="59.295374" lon="18.0847">
        <ele>46</ele>
        <time>2020-02-13T16:38:22Z</time>
      </trkpt>
      <trkpt lat="59.295419" lon="18.084671">
        <ele>45</ele>
        <time>2020-02-13T16:38:23Z</time>
      </trkpt>
      <trkpt lat="59.295463" lon="18.084645">
        <ele>45</ele>
        <time>2020-02-13T16:38:25Z</time>
      </trkpt>
      <trkpt lat="59.295505" lon="18.084613">
        <ele>45</ele>
        <time>2020-02-13T16:38:25Z</time>
      </trkpt>
      <trkpt lat="59.295553" lon="18.084585">
        <ele>45</ele>
        <time>2020-02-13T16:38:27Z</time>
      </trkpt>
      <trkpt lat="59.2956" lon="18.084552">
        <ele>45</ele>
        <time>2020-02-13T16:38:27Z</time>
      </trkpt>
      <trkpt lat="59.295645" lon="18.084521">
        <ele>45</ele>
        <time>2020-02-13T16:38:28Z</time>
      </trkpt>
      <trkpt lat="59.295692" lon="18.08449">
        <ele>45</ele>
        <time>2020-02-13T16:38:29Z</time>
      </trkpt>
      <trkpt lat="59.295739" lon="18.084462">
        <ele>45</ele>
        <time>2020-02-13T16:38:30Z</time>
      </trkpt>
      <trkpt lat="59.295787" lon="18.084435">
        <ele>45</ele>
        <time>2020-02-13T16:38:31Z</time>
      </trkpt>
      <trkpt lat="59.295835" lon="18.084404">
        <ele>45</ele>
        <time>2020-02-13T16:38:32Z</time>
      </trkpt>
      <trkpt lat="59.295884" lon="18.084375">
        <ele>45</ele>
        <time>2020-02-13T16:38:34Z</time>
      </trkpt>
      <trkpt lat="59.295934" lon="18.084343">
        <ele>45</ele>
        <time>2020-02-13T16:38:34Z</time>
      </trkpt>
      <trkpt lat="59.295984" lon="18.084312">
        <ele>45</ele>
        <time>2020-02-13T16:38:35Z</time>
      </trkpt>
      <trkpt lat="59.296035" lon="18.084279">
        <ele>45</ele>
        <time>2020-02-13T16:38:37Z</time>
      </trkpt>
      <trkpt lat="59.296088" lon="18.084246">
        <ele>45</ele>
        <time>2020-02-13T16:38:37Z</time>
      </trkpt>
      <trkpt lat="59.296141" lon="18.084215">
        <ele>44</ele>
        <time>2020-02-13T16:38:38Z</time>
      </trkpt>
      <trkpt lat="59.296195" lon="18.084186">
        <ele>44</ele>
        <time>2020-02-13T16:38:39Z</time>
      </trkpt>
      <trkpt lat="59.296249" lon="18.084165">
        <ele>44</ele>
        <time>2020-02-13T16:38:40Z</time>
      </trkpt>
      <trkpt lat="59.296304" lon="18.08416">
        <ele>44</ele>
        <time>2020-02-13T16:38:41Z</time>
      </trkpt>
      <trkpt lat="59.296357" lon="18.084186">
        <ele>44</ele>
        <time>2020-02-13T16:38:42Z</time>
      </trkpt>
      <trkpt lat="59.296401" lon="18.08425">
        <ele>44</ele>
        <time>2020-02-13T16:38:43Z</time>
      </trkpt>
      <trkpt lat="59.296433" lon="18.084346">
        <ele>44</ele>
        <time>2020-02-13T16:38:44Z</time>
      </trkpt>
      <trkpt lat="59.296457" lon="18.084447">
        <ele>44</ele>
        <time>2020-02-13T16:38:46Z</time>
      </trkpt>
      <trkpt lat="59.296481" lon="18.084539">
        <ele>44</ele>
        <time>2020-02-13T16:38:46Z</time>
      </trkpt>
      <trkpt lat="59.296511" lon="18.084612">
        <ele>44</ele>
        <time>2020-02-13T16:38:47Z</time>
      </trkpt>
      <trkpt lat="59.29655" lon="18.084659">
        <ele>45</ele>
        <time>2020-02-13T16:38:48Z</time>
      </trkpt>
      <trkpt lat="59.296595" lon="18.084681">
        <ele>45</ele>
        <time>2020-02-13T16:38:49Z</time>
      </trkpt>
      <trkpt lat="59.29664" lon="18.084686">
        <ele>45</ele>
        <time>2020-02-13T16:38:50Z</time>
      </trkpt>
      <trkpt lat="59.296685" lon="18.084685">
        <ele>45</ele>
        <time>2020-02-13T16:38:51Z</time>
      </trkpt>
      <trkpt lat="59.296728" lon="18.084687">
        <ele>45</ele>
        <time>2020-02-13T16:38:53Z</time>
      </trkpt>
      <trkpt lat="59.296769" lon="18.084685">
        <ele>45</ele>
        <time>2020-02-13T16:38:53Z</time>
      </trkpt>
      <trkpt lat="59.29681" lon="18.084682">
        <ele>45</ele>
        <time>2020-02-13T16:38:54Z</time>
      </trkpt>
      <trkpt lat="59.296852" lon="18.084682">
        <ele>45</ele>
        <time>2020-02-13T16:38:55Z</time>
      </trkpt>
      <trkpt lat="59.296896" lon="18.084683">
        <ele>44</ele>
        <time>2020-02-13T16:38:57Z</time>
      </trkpt>
      <trkpt lat="59.296942" lon="18.084683">
        <ele>44</ele>
        <time>2020-02-13T16:38:57Z</time>
      </trkpt>
      <trkpt lat="59.29699" lon="18.08468">
        <ele>44</ele>
        <time>2020-02-13T16:38:58Z</time>
      </trkpt>
      <trkpt lat="59.297041" lon="18.084669">
        <ele>44</ele>
        <time>2020-02-13T16:38:59Z</time>
      </trkpt>
      <trkpt lat="59.29709" lon="18.084634">
        <ele>44</ele>
        <time>2020-02-13T16:39:00Z</time>
      </trkpt>
      <trkpt lat="59.297133" lon="18.084576">
        <ele>44</ele>
        <time>2020-02-13T16:39:01Z</time>
      </trkpt>
      <trkpt lat="59.297168" lon="18.084512">
        <ele>43</ele>
        <time>2020-02-13T16:39:02Z</time>
      </trkpt>
      <trkpt lat="59.297199" lon="18.084449">
        <ele>43</ele>
        <time>2020-02-13T16:39:03Z</time>
      </trkpt>
      <trkpt lat="59.297225" lon="18.084373">
        <ele>43</ele>
        <time>2020-02-13T16:39:04Z</time>
      </trkpt>
      <trkpt lat="59.297245" lon="18.084276">
        <ele>43</ele>
        <time>2020-02-13T16:39:05Z</time>
      </trkpt>
      <trkpt lat="59.297261" lon="18.084169">
        <ele>43</ele>
        <time>2020-02-13T16:39:07Z</time>
      </trkpt>
      <trkpt lat="59.297271" lon="18.084054">
        <ele>43</ele>
        <time>2020-02-13T16:39:07Z</time>
      </trkpt>
      <trkpt lat="59.297275" lon="18.083933">
        <ele>43</ele>
        <time>2020-02-13T16:39:08Z</time>
      </trkpt>
      <trkpt lat="59.297271" lon="18.083811">
        <ele>43</ele>
        <time>2020-02-13T16:39:09Z</time>
      </trkpt>
      <trkpt lat="59.297264" lon="18.083692">
        <ele>43</ele>
        <time>2020-02-13T16:39:10Z</time>
      </trkpt>
      <trkpt lat="59.297261" lon="18.083582">
        <ele>43</ele>
        <time>2020-02-13T16:39:12Z</time>
      </trkpt>
      <trkpt lat="59.29727" lon="18.083481">
        <ele>43</ele>
        <time>2020-02-13T16:39:12Z</time>
      </trkpt>
      <trkpt lat="59.297291" lon="18.083394">
        <ele>43</ele>
        <time>2020-02-13T16:39:13Z</time>
      </trkpt>
      <trkpt lat="59.297323" lon="18.083326">
        <ele>44</ele>
        <time>2020-02-13T16:39:14Z</time>
      </trkpt>
      <trkpt lat="59.297369" lon="18.083277">
        <ele>43</ele>
        <time>2020-02-13T16:39:16Z</time>
      </trkpt>
      <trkpt lat="59.297422" lon="18.083241">
        <ele>43</ele>
        <time>2020-02-13T16:39:16Z</time>
      </trkpt>
      <trkpt lat="59.297478" lon="18.083206">
        <ele>43</ele>
        <time>2020-02-13T16:39:17Z</time>
      </trkpt>
      <trkpt lat="59.297535" lon="18.083169">
        <ele>43</ele>
        <time>2020-02-13T16:39:18Z</time>
      </trkpt>
      <trkpt lat="59.297595" lon="18.083132">
        <ele>43</ele>
        <time>2020-02-13T16:39:19Z</time>
      </trkpt>
      <trkpt lat="59.297656" lon="18.083095">
        <ele>43</ele>
        <time>2020-02-13T16:39:20Z</time>
      </trkpt>
      <trkpt lat="59.297719" lon="18.083067">
        <ele>43</ele>
        <time>2020-02-13T16:39:21Z</time>
      </trkpt>
      <trkpt lat="59.297783" lon="18.083053">
        <ele>43</ele>
        <time>2020-02-13T16:39:22Z</time>
      </trkpt>
      <trkpt lat="59.297849" lon="18.083048">
        <ele>42</ele>
        <time>2020-02-13T16:39:24Z</time>
      </trkpt>
      <trkpt lat="59.297916" lon="18.083039">
        <ele>42</ele>
        <time>2020-02-13T16:39:24Z</time>
      </trkpt>
      <trkpt lat="59.297984" lon="18.083021">
        <ele>42</ele>
        <time>2020-02-13T16:39:25Z</time>
      </trkpt>
      <trkpt lat="59.298053" lon="18.082992">
        <ele>42</ele>
        <time>2020-02-13T16:39:26Z</time>
      </trkpt>
      <trkpt lat="59.298121" lon="18.082955">
        <ele>41</ele>
        <time>2020-02-13T16:39:27Z</time>
      </trkpt>
      <trkpt lat="59.298191" lon="18.082911">
        <ele>41</ele>
        <time>2020-02-13T16:39:28Z</time>
      </trkpt>
      <trkpt lat="59.29826" lon="18.082861">
        <ele>41</ele>
        <time>2020-02-13T16:39:29Z</time>
      </trkpt>
      <trkpt lat="59.298328" lon="18.082804">
        <ele>0</ele>
        <time>2020-02-13T16:39:30Z</time>
      </trkpt>
      <trkpt lat="59.298393" lon="18.082742">
        <ele>41</ele>
        <time>2020-02-13T16:39:31Z</time>
      </trkpt>
      <trkpt lat="59.298458" lon="18.082679">
        <ele>41</ele>
        <time>2020-02-13T16:39:33Z</time>
      </trkpt>
      <trkpt lat="59.298522" lon="18.082615">
        <ele>41</ele>
        <time>2020-02-13T16:39:33Z</time>
      </trkpt>
      <trkpt lat="59.298585" lon="18.082557">
        <ele>41</ele>
        <time>2020-02-13T16:39:34Z</time>
      </trkpt>
      <trkpt lat="59.298652" lon="18.082507">
        <ele>40</ele>
        <time>2020-02-13T16:39:35Z</time>
      </trkpt>
      <trkpt lat="59.29872" lon="18.082462">
        <ele>40</ele>
        <time>2020-02-13T16:39:36Z</time>
      </trkpt>
      <trkpt lat="59.298788" lon="18.082419">
        <ele>40</ele>
        <time>2020-02-13T16:39:38Z</time>
      </trkpt>
      <trkpt lat="59.298856" lon="18.082375">
        <ele>40</ele>
        <time>2020-02-13T16:39:38Z</time>
      </trkpt>
      <trkpt lat="59.298924" lon="18.082331">
        <ele>40</ele>
        <time>2020-02-13T16:39:39Z</time>
      </trkpt>
      <trkpt lat="59.298992" lon="18.08229">
        <ele>40</ele>
        <time>2020-02-13T16:39:40Z</time>
      </trkpt>
      <trkpt lat="59.299062" lon="18.08226">
        <ele>40</ele>
        <time>2020-02-13T16:39:41Z</time>
      </trkpt>
      <trkpt lat="59.299131" lon="18.082241">
        <ele>40</ele>
        <time>2020-02-13T16:39:42Z</time>
      </trkpt>
      <trkpt lat="59.299194" lon="18.08223">
        <ele>40</ele>
        <time>2020-02-13T16:39:43Z</time>
      </trkpt>
      <trkpt lat="59.299258" lon="18.082227">
        <ele>40</ele>
        <time>2020-02-13T16:39:45Z</time>
      </trkpt>
      <trkpt lat="59.299319" lon="18.082237">
        <ele>40</ele>
        <time>2020-02-13T16:39:45Z</time>
      </trkpt>
      <trkpt lat="59.299379" lon="18.082248">
        <ele>40</ele>
        <time>2020-02-13T16:39:46Z</time>
      </trkpt>
      <trkpt lat="59.299438" lon="18.082229">
        <ele>40</ele>
        <time>2020-02-13T16:39:47Z</time>
      </trkpt>
      <trkpt lat="59.299497" lon="18.082202">
        <ele>40</ele>
        <time>2020-02-13T16:39:48Z</time>
      </trkpt>
      <trkpt lat="59.299562" lon="18.082169">
        <ele>40</ele>
        <time>2020-02-13T16:39:50Z</time>
      </trkpt>
      <trkpt lat="59.299637" lon="18.082126">
        <ele>40</ele>
        <time>2020-02-13T16:39:50Z</time>
      </trkpt>
      <trkpt lat="59.299714" lon="18.08209">
        <ele>40</ele>
        <time>2020-02-13T16:39:51Z</time>
      </trkpt>
      <trkpt lat="59.299785" lon="18.08205">
        <ele>40</ele>
        <time>2020-02-13T16:39:53Z</time>
      </trkpt>
      <trkpt lat="59.299852" lon="18.082001">
        <ele>40</ele>
        <time>2020-02-13T16:39:53Z</time>
      </trkpt>
      <trkpt lat="59.299919" lon="18.081947">
        <ele>40</ele>
        <time>2020-02-13T16:39:54Z</time>
      </trkpt>
      <trkpt lat="59.299987" lon="18.081889">
        <ele>40</ele>
        <time>2020-02-13T16:39:55Z</time>
      </trkpt>
      <trkpt lat="59.300053" lon="18.081831">
        <ele>40</ele>
        <time>2020-02-13T16:39:56Z</time>
      </trkpt>
      <trkpt lat="59.30012" lon="18.081783">
        <ele>40</ele>
        <time>2020-02-13T16:39:57Z</time>
      </trkpt>
      <trkpt lat="59.300191" lon="18.081742">
        <ele>40</ele>
        <time>2020-02-13T16:39:59Z</time>
      </trkpt>
      <trkpt lat="59.300261" lon="18.081704">
        <ele>40</ele>
        <time>2020-02-13T16:39:59Z</time>
      </trkpt>
      <trkpt lat="59.300333" lon="18.081665">
        <ele>40</ele>
        <time>2020-02-13T16:40:00Z</time>
      </trkpt>
      <trkpt lat="59.300403" lon="18.081626">
        <ele>40</ele>
        <time>2020-02-13T16:40:01Z</time>
      </trkpt>
      <trkpt lat="59.300472" lon="18.081588">
        <ele>40</ele>
        <time>2020-02-13T16:40:02Z</time>
      </trkpt>
      <trkpt lat="59.300543" lon="18.081545">
        <ele>40</ele>
        <time>2020-02-13T16:40:03Z</time>
      </trkpt>
      <trkpt lat="59.300611" lon="18.081496">
        <ele>40</ele>
        <time>2020-02-13T16:40:04Z</time>
      </trkpt>
      <trkpt lat="59.30068" lon="18.08144">
        <ele>40</ele>
        <time>2020-02-13T16:40:06Z</time>
      </trkpt>
      <trkpt lat="59.300748" lon="18.08138">
        <ele>40</ele>
        <time>2020-02-13T16:40:06Z</time>
      </trkpt>
      <trkpt lat="59.300814" lon="18.081319">
        <ele>41</ele>
        <time>2020-02-13T16:40:07Z</time>
      </trkpt>
      <trkpt lat="59.300878" lon="18.081254">
        <ele>41</ele>
        <time>2020-02-13T16:40:09Z</time>
      </trkpt>
      <trkpt lat="59.300943" lon="18.081187">
        <ele>41</ele>
        <time>2020-02-13T16:40:09Z</time>
      </trkpt>
      <trkpt lat="59.30101" lon="18.081119">
        <ele>41</ele>
        <time>2020-02-13T16:40:10Z</time>
      </trkpt>
      <trkpt lat="59.301079" lon="18.081048">
        <ele>41</ele>
        <time>2020-02-13T16:40:11Z</time>
      </trkpt>
      <trkpt lat="59.301149" lon="18.080975">
        <ele>41</ele>
        <time>2020-02-13T16:40:13Z</time>
      </trkpt>
      <trkpt lat="59.301219" lon="18.080905">
        <ele>41</ele>
        <time>2020-02-13T16:40:13Z</time>
      </trkpt>
      <trkpt lat="59.301285" lon="18.080841">
        <ele>41</ele>
        <time>2020-02-13T16:40:14Z</time>
      </trkpt>
      <trkpt lat="59.301356" lon="18.08078">
        <ele>41</ele>
        <time>2020-02-13T16:40:15Z</time>
      </trkpt>
      <trkpt lat="59.301423" lon="18.080716">
        <ele>41</ele>
        <time>2020-02-13T16:40:16Z</time>
      </trkpt>
      <trkpt lat="59.30149" lon="18.080658">
        <ele>41</ele>
        <time>2020-02-13T16:40:17Z</time>
      </trkpt>
      <trkpt lat="59.301559" lon="18.080604">
        <ele>41</ele>
        <time>2020-02-13T16:40:19Z</time>
      </trkpt>
      <trkpt lat="59.301625" lon="18.080551">
        <ele>40</ele>
        <time>2020-02-13T16:40:19Z</time>
      </trkpt>
      <trkpt lat="59.301694" lon="18.080502">
        <ele>40</ele>
        <time>2020-02-13T16:40:20Z</time>
      </trkpt>
      <trkpt lat="59.301763" lon="18.080454">
        <ele>40</ele>
        <time>2020-02-13T16:40:21Z</time>
      </trkpt>
      <trkpt lat="59.301833" lon="18.080406">
        <ele>40</ele>
        <time>2020-02-13T16:40:22Z</time>
      </trkpt>
      <trkpt lat="59.301903" lon="18.080358">
        <ele>40</ele>
        <time>2020-02-13T16:40:23Z</time>
      </trkpt>
      <trkpt lat="59.301973" lon="18.08031">
        <ele>40</ele>
        <time>2020-02-13T16:40:24Z</time>
      </trkpt>
      <trkpt lat="59.302041" lon="18.080263">
        <ele>40</ele>
        <time>2020-02-13T16:40:26Z</time>
      </trkpt>
      <trkpt lat="59.302111" lon="18.080217">
        <ele>40</ele>
        <time>2020-02-13T16:40:26Z</time>
      </trkpt>
      <trkpt lat="59.302181" lon="18.080172">
        <ele>40</ele>
        <time>2020-02-13T16:40:28Z</time>
      </trkpt>
      <trkpt lat="59.302252" lon="18.080126">
        <ele>39</ele>
        <time>2020-02-13T16:40:28Z</time>
      </trkpt>
      <trkpt lat="59.302325" lon="18.080079">
        <ele>39</ele>
        <time>2020-02-13T16:40:29Z</time>
      </trkpt>
      <trkpt lat="59.302398" lon="18.080034">
        <ele>39</ele>
        <time>2020-02-13T16:40:30Z</time>
      </trkpt>
      <trkpt lat="59.302473" lon="18.07999">
        <ele>39</ele>
        <time>2020-02-13T16:40:31Z</time>
      </trkpt>
      <trkpt lat="59.302549" lon="18.079944">
        <ele>39</ele>
        <time>2020-02-13T16:40:33Z</time>
      </trkpt>
      <trkpt lat="59.302625" lon="18.079899">
        <ele>38</ele>
        <time>2020-02-13T16:40:33Z</time>
      </trkpt>
      <trkpt lat="59.302701" lon="18.079853">
        <ele>38</ele>
        <time>2020-02-13T16:40:34Z</time>
      </trkpt>
      <trkpt lat="59.302777" lon="18.079805">
        <ele>38</ele>
        <time>2020-02-13T16:40:35Z</time>
      </trkpt>
      <trkpt lat="59.302853" lon="18.079758">
        <ele>38</ele>
        <time>2020-02-13T16:40:36Z</time>
      </trkpt>
      <trkpt lat="59.30293" lon="18.079712">
        <ele>38</ele>
        <time>2020-02-13T16:40:37Z</time>
      </trkpt>
      <trkpt lat="59.303006" lon="18.079665">
        <ele>38</ele>
        <time>2020-02-13T16:40:39Z</time>
      </trkpt>
      <trkpt lat="59.303083" lon="18.079618">
        <ele>38</ele>
        <time>2020-02-13T16:40:39Z</time>
      </trkpt>
      <trkpt lat="59.30316" lon="18.07957">
        <ele>38</ele>
        <time>2020-02-13T16:40:40Z</time>
      </trkpt>
      <trkpt lat="59.303238" lon="18.079522">
        <ele>38</ele>
        <time>2020-02-13T16:40:41Z</time>
      </trkpt>
      <trkpt lat="59.303315" lon="18.079474">
        <ele>37</ele>
        <time>2020-02-13T16:40:42Z</time>
      </trkpt>
      <trkpt lat="59.303391" lon="18.079428">
        <ele>37</ele>
        <time>2020-02-13T16:40:43Z</time>
      </trkpt>
      <trkpt lat="59.303469" lon="18.079381">
        <ele>37</ele>
        <time>2020-02-13T16:40:45Z</time>
      </trkpt>
      <trkpt lat="59.303545" lon="18.079331">
        <ele>37</ele>
        <time>2020-02-13T16:40:45Z</time>
      </trkpt>
      <trkpt lat="59.303623" lon="18.079281">
        <ele>36</ele>
        <time>2020-02-13T16:40:47Z</time>
      </trkpt>
      <trkpt lat="59.303701" lon="18.079231">
        <ele>36</ele>
        <time>2020-02-13T16:40:47Z</time>
      </trkpt>
      <trkpt lat="59.303781" lon="18.079181">
        <ele>36</ele>
        <time>2020-02-13T16:40:48Z</time>
      </trkpt>
      <trkpt lat="59.303861" lon="18.07913">
        <ele>35</ele>
        <time>2020-02-13T16:40:49Z</time>
      </trkpt>
      <trkpt lat="59.303942" lon="18.079077">
        <ele>35</ele>
        <time>2020-02-13T16:40:51Z</time>
      </trkpt>
      <trkpt lat="59.304024" lon="18.079024">
        <ele>35</ele>
        <time>2020-02-13T16:40:51Z</time>
      </trkpt>
      <trkpt lat="59.304108" lon="18.078973">
        <ele>34</ele>
        <time>2020-02-13T16:40:52Z</time>
      </trkpt>
      <trkpt lat="59.304192" lon="18.078921">
        <ele>34</ele>
        <time>2020-02-13T16:40:53Z</time>
      </trkpt>
      <trkpt lat="59.304277" lon="18.078868">
        <ele>33</ele>
        <time>2020-02-13T16:40:54Z</time>
      </trkpt>
      <trkpt lat="59.304362" lon="18.078814">
        <ele>33</ele>
        <time>2020-02-13T16:40:55Z</time>
      </trkpt>
      <trkpt lat="59.304449" lon="18.078759">
        <ele>32</ele>
        <time>2020-02-13T16:40:57Z</time>
      </trkpt>
      <trkpt lat="59.304536" lon="18.078703">
        <ele>32</ele>
        <time>2020-02-13T16:40:57Z</time>
      </trkpt>
      <trkpt lat="59.304624" lon="18.078646">
        <ele>31</ele>
        <time>2020-02-13T16:40:58Z</time>
      </trkpt>
      <trkpt lat="59.304713" lon="18.07859">
        <ele>31</ele>
        <time>2020-02-13T16:40:59Z</time>
      </trkpt>
      <trkpt lat="59.304803" lon="18.078535">
        <ele>30</ele>
        <time>2020-02-13T16:41:00Z</time>
      </trkpt>
      <trkpt lat="59.304894" lon="18.078482">
        <ele>30</ele>
        <time>2020-02-13T16:41:02Z</time>
      </trkpt>
      <trkpt lat="59.304986" lon="18.078428">
        <ele>29</ele>
        <time>2020-02-13T16:41:02Z</time>
      </trkpt>
      <trkpt lat="59.305079" lon="18.078371">
        <ele>29</ele>
        <time>2020-02-13T16:41:03Z</time>
      </trkpt>
      <trkpt lat="59.305173" lon="18.078312">
        <ele>28</ele>
        <time>2020-02-13T16:41:04Z</time>
      </trkpt>
      <trkpt lat="59.305266" lon="18.078253">
        <ele>28</ele>
        <time>2020-02-13T16:41:06Z</time>
      </trkpt>
      <trkpt lat="59.305359" lon="18.078194">
        <ele>27</ele>
        <time>2020-02-13T16:41:07Z</time>
      </trkpt>
      <trkpt lat="59.305452" lon="18.078136">
        <ele>27</ele>
        <time>2020-02-13T16:41:07Z</time>
      </trkpt>
      <trkpt lat="59.305544" lon="18.078077">
        <ele>27</ele>
        <time>2020-02-13T16:41:08Z</time>
      </trkpt>
      <trkpt lat="59.305637" lon="18.078019">
        <ele>26</ele>
        <time>2020-02-13T16:41:09Z</time>
      </trkpt>
      <trkpt lat="59.30573" lon="18.077961">
        <ele>26</ele>
        <time>2020-02-13T16:41:10Z</time>
      </trkpt>
      <trkpt lat="59.305823" lon="18.077903">
        <ele>25</ele>
        <time>2020-02-13T16:41:12Z</time>
      </trkpt>
      <trkpt lat="59.305914" lon="18.077843">
        <ele>25</ele>
        <time>2020-02-13T16:41:12Z</time>
      </trkpt>
      <trkpt lat="59.306006" lon="18.077785">
        <ele>25</ele>
        <time>2020-02-13T16:41:13Z</time>
      </trkpt>
      <trkpt lat="59.306096" lon="18.077727">
        <ele>24</ele>
        <time>2020-02-13T16:41:14Z</time>
      </trkpt>
      <trkpt lat="59.306185" lon="18.077669">
        <ele>24</ele>
        <time>2020-02-13T16:41:15Z</time>
      </trkpt>
      <trkpt lat="59.306273" lon="18.07761">
        <ele>24</ele>
        <time>2020-02-13T16:41:16Z</time>
      </trkpt>
      <trkpt lat="59.306357" lon="18.077546">
        <ele>24</ele>
        <time>2020-02-13T16:41:18Z</time>
      </trkpt>
      <trkpt lat="59.30644" lon="18.077479">
        <ele>23</ele>
        <time>2020-02-13T16:41:18Z</time>
      </trkpt>
      <trkpt lat="59.306522" lon="18.077414">
        <ele>23</ele>
        <time>2020-02-13T16:41:19Z</time>
      </trkpt>
      <trkpt lat="59.306604" lon="18.077357">
        <ele>23</ele>
        <time>2020-02-13T16:41:20Z</time>
      </trkpt>
      <trkpt lat="59.306684" lon="18.077306">
        <ele>23</ele>
        <time>2020-02-13T16:41:21Z</time>
      </trkpt>
      <trkpt lat="59.306763" lon="18.077264">
        <ele>24</ele>
        <time>2020-02-13T16:41:22Z</time>
      </trkpt>
      <trkpt lat="59.30684" lon="18.077225">
        <ele>23</ele>
        <time>2020-02-13T16:41:24Z</time>
      </trkpt>
      <trkpt lat="59.306916" lon="18.077187">
        <ele>24</ele>
        <time>2020-02-13T16:41:25Z</time>
      </trkpt>
      <trkpt lat="59.306991" lon="18.077148">
        <ele>24</ele>
        <time>2020-02-13T16:41:25Z</time>
      </trkpt>
      <trkpt lat="59.307061" lon="18.077097">
        <ele>24</ele>
        <time>2020-02-13T16:41:26Z</time>
      </trkpt>
      <trkpt lat="59.307129" lon="18.077052">
        <ele>24</ele>
        <time>2020-02-13T16:41:27Z</time>
      </trkpt>
      <trkpt lat="59.307194" lon="18.07701">
        <ele>24</ele>
        <time>2020-02-13T16:41:28Z</time>
      </trkpt>
      <trkpt lat="59.307259" lon="18.076983">
        <ele>24</ele>
        <time>2020-02-13T16:41:29Z</time>
      </trkpt>
      <trkpt lat="59.307323" lon="18.076951">
        <ele>24</ele>
        <time>2020-02-13T16:41:31Z</time>
      </trkpt>
      <trkpt lat="59.307385" lon="18.076908">
        <ele>24</ele>
        <time>2020-02-13T16:41:31Z</time>
      </trkpt>
      <trkpt lat="59.307445" lon="18.076866">
        <ele>24</ele>
        <time>2020-02-13T16:41:32Z</time>
      </trkpt>
      <trkpt lat="59.307505" lon="18.076828">
        <ele>24</ele>
        <time>2020-02-13T16:41:33Z</time>
      </trkpt>
      <trkpt lat="59.307568" lon="18.076789">
        <ele>24</ele>
        <time>2020-02-13T16:41:34Z</time>
      </trkpt>
      <trkpt lat="59.307632" lon="18.076749">
        <ele>25</ele>
        <time>2020-02-13T16:41:35Z</time>
      </trkpt>
      <trkpt lat="59.30768" lon="18.076665">
        <ele>25</ele>
        <time>2020-02-13T16:41:36Z</time>
      </trkpt>
      <trkpt lat="59.307738" lon="18.076616">
        <ele>26</ele>
        <time>2020-02-13T16:41:38Z</time>
      </trkpt>
      <trkpt lat="59.307794" lon="18.076566">
        <ele>26</ele>
        <time>2020-02-13T16:41:38Z</time>
      </trkpt>
      <trkpt lat="59.307854" lon="18.076526">
        <ele>26</ele>
        <time>2020-02-13T16:41:39Z</time>
      </trkpt>
      <trkpt lat="59.307915" lon="18.076487">
        <ele>26</ele>
        <time>2020-02-13T16:41:40Z</time>
      </trkpt>
      <trkpt lat="59.307978" lon="18.076454">
        <ele>27</ele>
        <time>2020-02-13T16:41:41Z</time>
      </trkpt>
      <trkpt lat="59.308037" lon="18.076424">
        <ele>27</ele>
        <time>2020-02-13T16:41:42Z</time>
      </trkpt>
      <trkpt lat="59.308102" lon="18.076388">
        <ele>28</ele>
        <time>2020-02-13T16:41:44Z</time>
      </trkpt>
      <trkpt lat="59.308169" lon="18.076346">
        <ele>28</ele>
        <time>2020-02-13T16:41:44Z</time>
      </trkpt>
      <trkpt lat="59.308238" lon="18.076309">
        <ele>29</ele>
        <time>2020-02-13T16:41:46Z</time>
      </trkpt>
      <trkpt lat="59.308308" lon="18.076275">
        <ele>29</ele>
        <time>2020-02-13T16:41:46Z</time>
      </trkpt>
      <trkpt lat="59.308378" lon="18.076242">
        <ele>30</ele>
        <time>2020-02-13T16:41:47Z</time>
      </trkpt>
      <trkpt lat="59.308452" lon="18.076205">
        <ele>30</ele>
        <time>2020-02-13T16:41:48Z</time>
      </trkpt>
      <trkpt lat="59.308524" lon="18.07618">
        <ele>30</ele>
        <time>2020-02-13T16:41:49Z</time>
      </trkpt>
      <trkpt lat="59.308595" lon="18.076162">
        <ele>31</ele>
        <time>2020-02-13T16:41:50Z</time>
      </trkpt>
      <trkpt lat="59.308664" lon="18.07613">
        <ele>31</ele>
        <time>2020-02-13T16:41:51Z</time>
      </trkpt>
      <trkpt lat="59.308735" lon="18.076081">
        <ele>32</ele>
        <time>2020-02-13T16:41:53Z</time>
      </trkpt>
      <trkpt lat="59.308804" lon="18.076045">
        <ele>32</ele>
        <time>2020-02-13T16:41:53Z</time>
      </trkpt>
      <trkpt lat="59.308876" lon="18.07601">
        <ele>33</ele>
        <time>2020-02-13T16:41:54Z</time>
      </trkpt>
      <trkpt lat="59.308938" lon="18.075979">
        <ele>32</ele>
        <time>2020-02-13T16:41:55Z</time>
      </trkpt>
      <trkpt lat="59.309005" lon="18.075949">
        <ele>33</ele>
        <time>2020-02-13T16:41:56Z</time>
      </trkpt>
      <trkpt lat="59.309063" lon="18.07592">
        <ele>33</ele>
        <time>2020-02-13T16:41:57Z</time>
      </trkpt>
      <trkpt lat="59.309116" lon="18.075893">
        <ele>33</ele>
        <time>2020-02-13T16:41:58Z</time>
      </trkpt>
      <trkpt lat="59.309166" lon="18.075869">
        <ele>33</ele>
        <time>2020-02-13T16:41:59Z</time>
      </trkpt>
      <trkpt lat="59.309214" lon="18.075851">
        <ele>34</ele>
        <time>2020-02-13T16:42:01Z</time>
      </trkpt>
      <trkpt lat="59.309257" lon="18.075832">
        <ele>34</ele>
        <time>2020-02-13T16:42:01Z</time>
      </trkpt>
      <trkpt lat="59.309293" lon="18.075814">
        <ele>34</ele>
        <time>2020-02-13T16:42:03Z</time>
      </trkpt>
      <trkpt lat="59.309325" lon="18.075789">
        <ele>35</ele>
        <time>2020-02-13T16:42:03Z</time>
      </trkpt>
      <trkpt lat="59.309371" lon="18.075759">
        <ele>35</ele>
        <time>2020-02-13T16:42:04Z</time>
      </trkpt>
      <trkpt lat="59.309417" lon="18.075722">
        <ele>36</ele>
        <time>2020-02-13T16:42:05Z</time>
      </trkpt>
      <trkpt lat="59.309461" lon="18.075681">
        <ele>37</ele>
        <time>2020-02-13T16:42:06Z</time>
      </trkpt>
      <trkpt lat="59.309509" lon="18.075642">
        <ele>37</ele>
        <time>2020-02-13T16:42:07Z</time>
      </trkpt>
      <trkpt lat="59.309587" lon="18.075601">
        <ele>37</ele>
        <time>2020-02-13T16:42:08Z</time>
      </trkpt>
      <trkpt lat="59.309656" lon="18.075567">
        <ele>37</ele>
        <time>2020-02-13T16:42:10Z</time>
      </trkpt>
      <trkpt lat="59.309721" lon="18.075532">
        <ele>38</ele>
        <time>2020-02-13T16:42:10Z</time>
      </trkpt>
      <trkpt lat="59.309783" lon="18.075501">
        <ele>38</ele>
        <time>2020-02-13T16:42:11Z</time>
      </trkpt>
      <trkpt lat="59.309842" lon="18.075477">
        <ele>38</ele>
        <time>2020-02-13T16:42:12Z</time>
      </trkpt>
      <trkpt lat="59.3099" lon="18.07545">
        <ele>38</ele>
        <time>2020-02-13T16:42:13Z</time>
      </trkpt>
      <trkpt lat="59.309957" lon="18.075422">
        <ele>39</ele>
        <time>2020-02-13T16:42:14Z</time>
      </trkpt>
      <trkpt lat="59.310013" lon="18.075393">
        <ele>39</ele>
        <time>2020-02-13T16:42:15Z</time>
      </trkpt>
      <trkpt lat="59.310073" lon="18.075364">
        <ele>40</ele>
        <time>2020-02-13T16:42:16Z</time>
      </trkpt>
      <trkpt lat="59.310134" lon="18.07533">
        <ele>41</ele>
        <time>2020-02-13T16:42:18Z</time>
      </trkpt>
      <trkpt lat="59.310198" lon="18.075292">
        <ele>40</ele>
        <time>2020-02-13T16:42:18Z</time>
      </trkpt>
      <trkpt lat="59.310286" lon="18.075238">
        <ele>40</ele>
        <time>2020-02-13T16:42:19Z</time>
      </trkpt>
      <trkpt lat="59.310359" lon="18.075195">
        <ele>40</ele>
        <time>2020-02-13T16:42:20Z</time>
      </trkpt>
      <trkpt lat="59.310432" lon="18.075161">
        <ele>39</ele>
        <time>2020-02-13T16:42:22Z</time>
      </trkpt>
      <trkpt lat="59.31051" lon="18.075148">
        <ele>39</ele>
        <time>2020-02-13T16:42:22Z</time>
      </trkpt>
      <trkpt lat="59.31058" lon="18.075125">
        <ele>39</ele>
        <time>2020-02-13T16:42:23Z</time>
      </trkpt>
      <trkpt lat="59.310644" lon="18.075086">
        <ele>39</ele>
        <time>2020-02-13T16:42:25Z</time>
      </trkpt>
      <trkpt lat="59.310712" lon="18.075056">
        <ele>38</ele>
        <time>2020-02-13T16:42:25Z</time>
      </trkpt>
      <trkpt lat="59.310781" lon="18.075027">
        <ele>39</ele>
        <time>2020-02-13T16:42:26Z</time>
      </trkpt>
      <trkpt lat="59.310852" lon="18.074998">
        <ele>39</ele>
        <time>2020-02-13T16:42:27Z</time>
      </trkpt>
      <trkpt lat="59.31092" lon="18.074971">
        <ele>39</ele>
        <time>2020-02-13T16:42:28Z</time>
      </trkpt>
      <trkpt lat="59.310989" lon="18.074942">
        <ele>39</ele>
        <time>2020-02-13T16:42:29Z</time>
      </trkpt>
      <trkpt lat="59.31106" lon="18.074916">
        <ele>39</ele>
        <time>2020-02-13T16:42:30Z</time>
      </trkpt>
      <trkpt lat="59.311132" lon="18.074893">
        <ele>39</ele>
        <time>2020-02-13T16:42:32Z</time>
      </trkpt>
      <trkpt lat="59.311201" lon="18.074867">
        <ele>39</ele>
        <time>2020-02-13T16:42:32Z</time>
      </trkpt>
      <trkpt lat="59.311263" lon="18.074835">
        <ele>39</ele>
        <time>2020-02-13T16:42:33Z</time>
      </trkpt>
      <trkpt lat="59.311327" lon="18.074805">
        <ele>39</ele>
        <time>2020-02-13T16:42:34Z</time>
      </trkpt>
      <trkpt lat="59.311393" lon="18.074774">
        <ele>39</ele>
        <time>2020-02-13T16:42:35Z</time>
      </trkpt>
      <trkpt lat="59.311454" lon="18.074741">
        <ele>39</ele>
        <time>2020-02-13T16:42:36Z</time>
      </trkpt>
      <trkpt lat="59.311513" lon="18.074708">
        <ele>40</ele>
        <time>2020-02-13T16:42:37Z</time>
      </trkpt>
      <trkpt lat="59.31156" lon="18.074659">
        <ele>40</ele>
        <time>2020-02-13T16:42:38Z</time>
      </trkpt>
      <trkpt lat="59.311607" lon="18.074626">
        <ele>40</ele>
        <time>2020-02-13T16:42:40Z</time>
      </trkpt>
      <trkpt lat="59.311654" lon="18.074603">
        <ele>40</ele>
        <time>2020-02-13T16:42:41Z</time>
      </trkpt>
      <trkpt lat="59.311696" lon="18.074585">
        <ele>40</ele>
        <time>2020-02-13T16:42:41Z</time>
      </trkpt>
      <trkpt lat="59.311733" lon="18.074566">
        <ele>41</ele>
        <time>2020-02-13T16:42:42Z</time>
      </trkpt>
      <trkpt lat="59.311775" lon="18.074545">
        <ele>41</ele>
        <time>2020-02-13T16:42:43Z</time>
      </trkpt>
      <trkpt lat="59.311819" lon="18.074527">
        <ele>41</ele>
        <time>2020-02-13T16:42:44Z</time>
      </trkpt>
      <trkpt lat="59.311862" lon="18.07451">
        <ele>41</ele>
        <time>2020-02-13T16:42:45Z</time>
      </trkpt>
      <trkpt lat="59.311899" lon="18.074486">
        <ele>42</ele>
        <time>2020-02-13T16:42:46Z</time>
      </trkpt>
      <trkpt lat="59.311928" lon="18.074449">
        <ele>44</ele>
        <time>2020-02-13T16:42:48Z</time>
      </trkpt>
      <trkpt lat="59.311959" lon="18.074417">
        <ele>45</ele>
        <time>2020-02-13T16:42:48Z</time>
      </trkpt>
      <trkpt lat="59.31199" lon="18.074378">
        <ele>45</ele>
        <time>2020-02-13T16:42:49Z</time>
      </trkpt>
      <trkpt lat="59.312036" lon="18.074336">
        <ele>45</ele>
        <time>2020-02-13T16:42:50Z</time>
      </trkpt>
      <trkpt lat="59.312082" lon="18.074295">
        <ele>45</ele>
        <time>2020-02-13T16:42:52Z</time>
      </trkpt>
      <trkpt lat="59.312122" lon="18.07426">
        <ele>45</ele>
        <time>2020-02-13T16:42:52Z</time>
      </trkpt>
      <trkpt lat="59.312176" lon="18.074242">
        <ele>44</ele>
        <time>2020-02-13T16:42:53Z</time>
      </trkpt>
      <trkpt lat="59.312224" lon="18.074222">
        <ele>44</ele>
        <time>2020-02-13T16:42:54Z</time>
      </trkpt>
      <trkpt lat="59.312271" lon="18.074202">
        <ele>44</ele>
        <time>2020-02-13T16:42:55Z</time>
      </trkpt>
      <trkpt lat="59.312316" lon="18.074182">
        <ele>45</ele>
        <time>2020-02-13T16:42:56Z</time>
      </trkpt>
      <trkpt lat="59.312363" lon="18.074152">
        <ele>45</ele>
        <time>2020-02-13T16:42:57Z</time>
      </trkpt>
      <trkpt lat="59.312406" lon="18.07413">
        <ele>45</ele>
        <time>2020-02-13T16:42:58Z</time>
      </trkpt>
      <trkpt lat="59.312446" lon="18.074112">
        <ele>45</ele>
        <time>2020-02-13T16:43:00Z</time>
      </trkpt>
      <trkpt lat="59.312476" lon="18.074097">
        <ele>45</ele>
        <time>2020-02-13T16:43:00Z</time>
      </trkpt>
      <trkpt lat="59.312507" lon="18.074087">
        <ele>46</ele>
        <time>2020-02-13T16:43:01Z</time>
      </trkpt>
      <trkpt lat="59.312533" lon="18.074076">
        <ele>46</ele>
        <time>2020-02-13T16:43:02Z</time>
      </trkpt>
      <trkpt lat="59.312557" lon="18.074066">
        <ele>46</ele>
        <time>2020-02-13T16:43:03Z</time>
      </trkpt>
      <trkpt lat="59.312588" lon="18.074052">
        <ele>46</ele>
        <time>2020-02-13T16:43:05Z</time>
      </trkpt>
      <trkpt lat="59.312617" lon="18.074033">
        <ele>46</ele>
        <time>2020-02-13T16:43:05Z</time>
      </trkpt>
      <trkpt lat="59.312654" lon="18.074013">
        <ele>46</ele>
        <time>2020-02-13T16:43:06Z</time>
      </trkpt>
      <trkpt lat="59.312693" lon="18.07399">
        <ele>46</ele>
        <time>2020-02-13T16:43:07Z</time>
      </trkpt>
      <trkpt lat="59.312738" lon="18.073974">
        <ele>46</ele>
        <time>2020-02-13T16:43:08Z</time>
      </trkpt>
      <trkpt lat="59.312787" lon="18.073956">
        <ele>46</ele>
        <time>2020-02-13T16:43:09Z</time>
      </trkpt>
      <trkpt lat="59.312842" lon="18.073934">
        <ele>46</ele>
        <time>2020-02-13T16:43:10Z</time>
      </trkpt>
      <trkpt lat="59.312907" lon="18.073908">
        <ele>45</ele>
        <time>2020-02-13T16:43:11Z</time>
      </trkpt>
      <trkpt lat="59.31299" lon="18.073896">
        <ele>45</ele>
        <time>2020-02-13T16:43:12Z</time>
      </trkpt>
      <trkpt lat="59.313067" lon="18.07388">
        <ele>44</ele>
        <time>2020-02-13T16:43:14Z</time>
      </trkpt>
      <trkpt lat="59.313137" lon="18.073863">
        <ele>44</ele>
        <time>2020-02-13T16:43:14Z</time>
      </trkpt>
      <trkpt lat="59.313202" lon="18.073844">
        <ele>44</ele>
        <time>2020-02-13T16:43:15Z</time>
      </trkpt>
      <trkpt lat="59.313262" lon="18.073824">
        <ele>43</ele>
        <time>2020-02-13T16:43:16Z</time>
      </trkpt>
      <trkpt lat="59.313318" lon="18.073808">
        <ele>43</ele>
        <time>2020-02-13T16:43:17Z</time>
      </trkpt>
      <trkpt lat="59.313372" lon="18.073791">
        <ele>43</ele>
        <time>2020-02-13T16:43:19Z</time>
      </trkpt>
      <trkpt lat="59.313422" lon="18.07377">
        <ele>43</ele>
        <time>2020-02-13T16:43:19Z</time>
      </trkpt>
      <trkpt lat="59.313467" lon="18.073756">
        <ele>43</ele>
        <time>2020-02-13T16:43:20Z</time>
      </trkpt>
      <trkpt lat="59.313511" lon="18.073743">
        <ele>43</ele>
        <time>2020-02-13T16:43:21Z</time>
      </trkpt>
      <trkpt lat="59.313549" lon="18.073723">
        <ele>43</ele>
        <time>2020-02-13T16:43:23Z</time>
      </trkpt>
      <trkpt lat="59.313581" lon="18.073698">
        <ele>43</ele>
        <time>2020-02-13T16:43:23Z</time>
      </trkpt>
      <trkpt lat="59.313616" lon="18.073672">
        <ele>44</ele>
        <time>2020-02-13T16:43:24Z</time>
      </trkpt>
      <trkpt lat="59.313654" lon="18.073645">
        <ele>44</ele>
        <time>2020-02-13T16:43:25Z</time>
      </trkpt>
      <trkpt lat="59.313692" lon="18.073617">
        <ele>45</ele>
        <time>2020-02-13T16:43:26Z</time>
      </trkpt>
      <trkpt lat="59.31373" lon="18.07359">
        <ele>45</ele>
        <time>2020-02-13T16:43:27Z</time>
      </trkpt>
      <trkpt lat="59.313767" lon="18.073569">
        <ele>46</ele>
        <time>2020-02-13T16:43:28Z</time>
      </trkpt>
      <trkpt lat="59.313793" lon="18.073544">
        <ele>46</ele>
        <time>2020-02-13T16:43:29Z</time>
      </trkpt>
      <trkpt lat="59.31382" lon="18.073527">
        <ele>47</ele>
        <time>2020-02-13T16:43:30Z</time>
      </trkpt>
      <trkpt lat="59.313841" lon="18.073514">
        <ele>47</ele>
        <time>2020-02-13T16:43:31Z</time>
      </trkpt>
      <trkpt lat="59.313864" lon="18.073502">
        <ele>47</ele>
        <time>2020-02-13T16:43:32Z</time>
      </trkpt>
      <trkpt lat="59.313883" lon="18.073486">
        <ele>49</ele>
        <time>2020-02-13T16:43:34Z</time>
      </trkpt>
      <trkpt lat="59.313903" lon="18.073477">
        <ele>49</ele>
        <time>2020-02-13T16:43:35Z</time>
      </trkpt>
      <trkpt lat="59.313923" lon="18.073466">
        <ele>50</ele>
        <time>2020-02-13T16:43:36Z</time>
      </trkpt>
      <trkpt lat="59.313961" lon="18.073404">
        <ele>50</ele>
        <time>2020-02-13T16:43:38Z</time>
      </trkpt>
      <trkpt lat="59.313977" lon="18.073349">
        <ele>51</ele>
        <time>2020-02-13T16:43:40Z</time>
      </trkpt>
      <trkpt lat="59.313986" lon="18.073316">
        <ele>51</ele>
        <time>2020-02-13T16:43:42Z</time>
      </trkpt>
      <trkpt lat="59.313989" lon="18.073293">
        <ele>0</ele>
        <time>2020-02-13T16:43:48Z</time>
      </trkpt>
      <trkpt lat="59.314042" lon="18.073271">
        <ele>51</ele>
        <time>2020-02-13T16:43:58Z</time>
      </trkpt>
      <trkpt lat="59.314076" lon="18.073278">
        <ele>51</ele>
        <time>2020-02-13T16:43:59Z</time>
      </trkpt>
      <trkpt lat="59.314122" lon="18.073293">
        <ele>50</ele>
        <time>2020-02-13T16:43:59Z</time>
      </trkpt>
      <trkpt lat="59.314169" lon="18.073302">
        <ele>50</ele>
        <time>2020-02-13T16:44:00Z</time>
      </trkpt>
      <trkpt lat="59.314205" lon="18.0733">
        <ele>50</ele>
        <time>2020-02-13T16:44:01Z</time>
      </trkpt>
      <trkpt lat="59.314243" lon="18.073295">
        <ele>50</ele>
        <time>2020-02-13T16:44:02Z</time>
      </trkpt>
      <trkpt lat="59.314278" lon="18.073291">
        <ele>51</ele>
        <time>2020-02-13T16:44:03Z</time>
      </trkpt>
      <trkpt lat="59.31431" lon="18.073283">
        <ele>51</ele>
        <time>2020-02-13T16:44:05Z</time>
      </trkpt>
      <trkpt lat="59.314332" lon="18.07328">
        <ele>52</ele>
        <time>2020-02-13T16:44:06Z</time>
      </trkpt>
      <trkpt lat="59.314366" lon="18.07327">
        <ele>52</ele>
        <time>2020-02-13T16:44:07Z</time>
      </trkpt>
      <trkpt lat="59.314413" lon="18.073248">
        <ele>52</ele>
        <time>2020-02-13T16:44:08Z</time>
      </trkpt>
      <trkpt lat="59.314494" lon="18.0732">
        <ele>51</ele>
        <time>2020-02-13T16:44:09Z</time>
      </trkpt>
      <trkpt lat="59.314558" lon="18.073171">
        <ele>51</ele>
        <time>2020-02-13T16:44:10Z</time>
      </trkpt>
      <trkpt lat="59.314592" lon="18.073154">
        <ele>51</ele>
        <time>2020-02-13T16:44:12Z</time>
      </trkpt>
      <trkpt lat="59.314616" lon="18.073129">
        <ele>51</ele>
        <time>2020-02-13T16:44:12Z</time>
      </trkpt>
      <trkpt lat="59.314639" lon="18.073104">
        <ele>51</ele>
        <time>2020-02-13T16:44:13Z</time>
      </trkpt>
      <trkpt lat="59.314667" lon="18.073076">
        <ele>51</ele>
        <time>2020-02-13T16:44:14Z</time>
      </trkpt>
      <trkpt lat="59.314749" lon="18.073054">
        <ele>50</ele>
        <time>2020-02-13T16:44:17Z</time>
      </trkpt>
      <trkpt lat="59.314799" lon="18.073038">
        <ele>50</ele>
        <time>2020-02-13T16:44:17Z</time>
      </trkpt>
      <trkpt lat="59.314859" lon="18.073022">
        <ele>49</ele>
        <time>2020-02-13T16:44:18Z</time>
      </trkpt>
      <trkpt lat="59.314918" lon="18.073011">
        <ele>48</ele>
        <time>2020-02-13T16:44:19Z</time>
      </trkpt>
      <trkpt lat="59.314981" lon="18.072995">
        <ele>47</ele>
        <time>2020-02-13T16:44:20Z</time>
      </trkpt>
      <trkpt lat="59.315044" lon="18.072981">
        <ele>47</ele>
        <time>2020-02-13T16:44:22Z</time>
      </trkpt>
      <trkpt lat="59.315104" lon="18.072966">
        <ele>46</ele>
        <time>2020-02-13T16:44:22Z</time>
      </trkpt>
      <trkpt lat="59.315155" lon="18.072946">
        <ele>46</ele>
        <time>2020-02-13T16:44:23Z</time>
      </trkpt>
      <trkpt lat="59.315205" lon="18.072925">
        <ele>45</ele>
        <time>2020-02-13T16:44:24Z</time>
      </trkpt>
      <trkpt lat="59.315254" lon="18.072906">
        <ele>45</ele>
        <time>2020-02-13T16:44:25Z</time>
      </trkpt>
      <trkpt lat="59.315308" lon="18.072885">
        <ele>44</ele>
        <time>2020-02-13T16:44:26Z</time>
      </trkpt>
      <trkpt lat="59.315365" lon="18.072857">
        <ele>44</ele>
        <time>2020-02-13T16:44:27Z</time>
      </trkpt>
      <trkpt lat="59.315419" lon="18.07282">
        <ele>43</ele>
        <time>2020-02-13T16:44:28Z</time>
      </trkpt>
      <trkpt lat="59.315472" lon="18.072782">
        <ele>43</ele>
        <time>2020-02-13T16:44:29Z</time>
      </trkpt>
      <trkpt lat="59.315524" lon="18.072741">
        <ele>42</ele>
        <time>2020-02-13T16:44:31Z</time>
      </trkpt>
      <trkpt lat="59.315573" lon="18.072694">
        <ele>42</ele>
        <time>2020-02-13T16:44:31Z</time>
      </trkpt>
      <trkpt lat="59.315616" lon="18.072634">
        <ele>42</ele>
        <time>2020-02-13T16:44:32Z</time>
      </trkpt>
      <trkpt lat="59.315657" lon="18.072569">
        <ele>42</ele>
        <time>2020-02-13T16:44:33Z</time>
      </trkpt>
      <trkpt lat="59.315699" lon="18.072519">
        <ele>42</ele>
        <time>2020-02-13T16:44:34Z</time>
      </trkpt>
      <trkpt lat="59.315746" lon="18.072477">
        <ele>42</ele>
        <time>2020-02-13T16:44:36Z</time>
      </trkpt>
      <trkpt lat="59.315795" lon="18.072451">
        <ele>42</ele>
        <time>2020-02-13T16:44:36Z</time>
      </trkpt>
      <trkpt lat="59.315848" lon="18.072426">
        <ele>42</ele>
        <time>2020-02-13T16:44:37Z</time>
      </trkpt>
      <trkpt lat="59.315903" lon="18.072401">
        <ele>42</ele>
        <time>2020-02-13T16:44:38Z</time>
      </trkpt>
      <trkpt lat="59.315966" lon="18.072374">
        <ele>43</ele>
        <time>2020-02-13T16:44:40Z</time>
      </trkpt>
      <trkpt lat="59.316022" lon="18.072348">
        <ele>43</ele>
        <time>2020-02-13T16:44:40Z</time>
      </trkpt>
      <trkpt lat="59.316079" lon="18.072318">
        <ele>43</ele>
        <time>2020-02-13T16:44:41Z</time>
      </trkpt>
      <trkpt lat="59.316131" lon="18.072287">
        <ele>43</ele>
        <time>2020-02-13T16:44:42Z</time>
      </trkpt>
      <trkpt lat="59.316176" lon="18.072258">
        <ele>43</ele>
        <time>2020-02-13T16:44:43Z</time>
      </trkpt>
      <trkpt lat="59.316224" lon="18.072233">
        <ele>43</ele>
        <time>2020-02-13T16:44:44Z</time>
      </trkpt>
      <trkpt lat="59.316269" lon="18.072201">
        <ele>43</ele>
        <time>2020-02-13T16:44:45Z</time>
      </trkpt>
      <trkpt lat="59.316315" lon="18.072178">
        <ele>43</ele>
        <time>2020-02-13T16:44:46Z</time>
      </trkpt>
      <trkpt lat="59.316357" lon="18.072155">
        <ele>43</ele>
        <time>2020-02-13T16:44:47Z</time>
      </trkpt>
      <trkpt lat="59.316397" lon="18.072137">
        <ele>43</ele>
        <time>2020-02-13T16:44:48Z</time>
      </trkpt>
      <trkpt lat="59.316437" lon="18.07212">
        <ele>43</ele>
        <time>2020-02-13T16:44:49Z</time>
      </trkpt>
      <trkpt lat="59.316479" lon="18.0721">
        <ele>43</ele>
        <time>2020-02-13T16:44:51Z</time>
      </trkpt>
      <trkpt lat="59.316515" lon="18.072074">
        <ele>43</ele>
        <time>2020-02-13T16:44:51Z</time>
      </trkpt>
      <trkpt lat="59.316559" lon="18.072049">
        <ele>43</ele>
        <time>2020-02-13T16:44:52Z</time>
      </trkpt>
      <trkpt lat="59.3166" lon="18.072029">
        <ele>43</ele>
        <time>2020-02-13T16:44:53Z</time>
      </trkpt>
      <trkpt lat="59.316643" lon="18.072015">
        <ele>44</ele>
        <time>2020-02-13T16:44:55Z</time>
      </trkpt>
      <trkpt lat="59.316685" lon="18.072004">
        <ele>44</ele>
        <time>2020-02-13T16:44:55Z</time>
      </trkpt>
      <trkpt lat="59.316726" lon="18.071993">
        <ele>44</ele>
        <time>2020-02-13T16:44:56Z</time>
      </trkpt>
      <trkpt lat="59.316765" lon="18.071983">
        <ele>44</ele>
        <time>2020-02-13T16:44:57Z</time>
      </trkpt>
      <trkpt lat="59.316798" lon="18.071971">
        <ele>44</ele>
        <time>2020-02-13T16:44:58Z</time>
      </trkpt>
      <trkpt lat="59.316832" lon="18.071952">
        <ele>44</ele>
        <time>2020-02-13T16:44:59Z</time>
      </trkpt>
      <trkpt lat="59.316866" lon="18.071931">
        <ele>44</ele>
        <time>2020-02-13T16:45:01Z</time>
      </trkpt>
      <trkpt lat="59.3169" lon="18.071906">
        <ele>45</ele>
        <time>2020-02-13T16:45:01Z</time>
      </trkpt>
      <trkpt lat="59.316928" lon="18.071889">
        <ele>45</ele>
        <time>2020-02-13T16:45:02Z</time>
      </trkpt>
      <trkpt lat="59.316958" lon="18.071877">
        <ele>45</ele>
        <time>2020-02-13T16:45:04Z</time>
      </trkpt>
      <trkpt lat="59.316994" lon="18.071871">
        <ele>45</ele>
        <time>2020-02-13T16:45:04Z</time>
      </trkpt>
      <trkpt lat="59.317143" lon="18.071861">
        <ele>46</ele>
        <time>2020-02-13T16:45:06Z</time>
      </trkpt>
      <trkpt lat="59.31722" lon="18.071784">
        <ele>47</ele>
        <time>2020-02-13T16:45:08Z</time>
      </trkpt>
      <trkpt lat="59.317262" lon="18.071761">
        <ele>47</ele>
        <time>2020-02-13T16:45:09Z</time>
      </trkpt>
      <trkpt lat="59.317309" lon="18.07174">
        <ele>46</ele>
        <time>2020-02-13T16:45:10Z</time>
      </trkpt>
      <trkpt lat="59.317347" lon="18.071726">
        <ele>47</ele>
        <time>2020-02-13T16:45:12Z</time>
      </trkpt>
      <trkpt lat="59.317381" lon="18.071711">
        <ele>47</ele>
        <time>2020-02-13T16:45:12Z</time>
      </trkpt>
      <trkpt lat="59.317417" lon="18.07169">
        <ele>47</ele>
        <time>2020-02-13T16:45:14Z</time>
      </trkpt>
      <trkpt lat="59.317455" lon="18.071677">
        <ele>47</ele>
        <time>2020-02-13T16:45:15Z</time>
      </trkpt>
      <trkpt lat="59.317492" lon="18.071667">
        <ele>47</ele>
        <time>2020-02-13T16:45:15Z</time>
      </trkpt>
      <trkpt lat="59.317533" lon="18.071655">
        <ele>46</ele>
        <time>2020-02-13T16:45:16Z</time>
      </trkpt>
      <trkpt lat="59.31758" lon="18.071636">
        <ele>46</ele>
        <time>2020-02-13T16:45:17Z</time>
      </trkpt>
      <trkpt lat="59.317624" lon="18.071611">
        <ele>45</ele>
        <time>2020-02-13T16:45:18Z</time>
      </trkpt>
      <trkpt lat="59.317669" lon="18.071581">
        <ele>45</ele>
        <time>2020-02-13T16:45:19Z</time>
      </trkpt>
      <trkpt lat="59.317708" lon="18.071555">
        <ele>45</ele>
        <time>2020-02-13T16:45:20Z</time>
      </trkpt>
      <trkpt lat="59.317745" lon="18.071534">
        <ele>46</ele>
        <time>2020-02-13T16:45:21Z</time>
      </trkpt>
      <trkpt lat="59.317781" lon="18.071524">
        <ele>45</ele>
        <time>2020-02-13T16:45:22Z</time>
      </trkpt>
      <trkpt lat="59.31782" lon="18.071522">
        <ele>45</ele>
        <time>2020-02-13T16:45:23Z</time>
      </trkpt>
      <trkpt lat="59.31785" lon="18.071505">
        <ele>46</ele>
        <time>2020-02-13T16:45:24Z</time>
      </trkpt>
      <trkpt lat="59.317874" lon="18.071484">
        <ele>46</ele>
        <time>2020-02-13T16:45:26Z</time>
      </trkpt>
      <trkpt lat="59.317898" lon="18.071457">
        <ele>47</ele>
        <time>2020-02-13T16:45:26Z</time>
      </trkpt>
      <trkpt lat="59.317928" lon="18.071435">
        <ele>47</ele>
        <time>2020-02-13T16:45:28Z</time>
      </trkpt>
      <trkpt lat="59.317955" lon="18.071416">
        <ele>47</ele>
        <time>2020-02-13T16:45:28Z</time>
      </trkpt>
      <trkpt lat="59.317983" lon="18.071397">
        <ele>47</ele>
        <time>2020-02-13T16:45:29Z</time>
      </trkpt>
      <trkpt lat="59.318015" lon="18.071382">
        <ele>47</ele>
        <time>2020-02-13T16:45:30Z</time>
      </trkpt>
      <trkpt lat="59.318059" lon="18.071366">
        <ele>47</ele>
        <time>2020-02-13T16:45:31Z</time>
      </trkpt>
      <trkpt lat="59.318106" lon="18.071348">
        <ele>47</ele>
        <time>2020-02-13T16:45:33Z</time>
      </trkpt>
      <trkpt lat="59.318149" lon="18.071331">
        <ele>47</ele>
        <time>2020-02-13T16:45:33Z</time>
      </trkpt>
      <trkpt lat="59.318191" lon="18.071315">
        <ele>47</ele>
        <time>2020-02-13T16:45:34Z</time>
      </trkpt>
      <trkpt lat="59.318233" lon="18.071298">
        <ele>47</ele>
        <time>2020-02-13T16:45:35Z</time>
      </trkpt>
      <trkpt lat="59.318273" lon="18.071279">
        <ele>47</ele>
        <time>2020-02-13T16:45:36Z</time>
      </trkpt>
      <trkpt lat="59.318304" lon="18.071256">
        <ele>48</ele>
        <time>2020-02-13T16:45:37Z</time>
      </trkpt>
      <trkpt lat="59.318332" lon="18.071235">
        <ele>48</ele>
        <time>2020-02-13T16:45:38Z</time>
      </trkpt>
      <trkpt lat="59.318357" lon="18.071214">
        <ele>48</ele>
        <time>2020-02-13T16:45:39Z</time>
      </trkpt>
      <trkpt lat="59.318381" lon="18.071193">
        <ele>48</ele>
        <time>2020-02-13T16:45:40Z</time>
      </trkpt>
      <trkpt lat="59.318422" lon="18.071171">
        <ele>47</ele>
        <time>2020-02-13T16:45:42Z</time>
      </trkpt>
      <trkpt lat="59.318474" lon="18.071152">
        <ele>46</ele>
        <time>2020-02-13T16:45:42Z</time>
      </trkpt>
      <trkpt lat="59.318535" lon="18.071122">
        <ele>46</ele>
        <time>2020-02-13T16:45:43Z</time>
      </trkpt>
      <trkpt lat="59.318603" lon="18.071086">
        <ele>46</ele>
        <time>2020-02-13T16:45:44Z</time>
      </trkpt>
      <trkpt lat="59.318681" lon="18.071059">
        <ele>44</ele>
        <time>2020-02-13T16:45:45Z</time>
      </trkpt>
      <trkpt lat="59.318776" lon="18.07103">
        <ele>43</ele>
        <time>2020-02-13T16:45:46Z</time>
      </trkpt>
      <trkpt lat="59.318861" lon="18.070998">
        <ele>43</ele>
        <time>2020-02-13T16:45:48Z</time>
      </trkpt>
      <trkpt lat="59.318928" lon="18.070974">
        <ele>42</ele>
        <time>2020-02-13T16:45:48Z</time>
      </trkpt>
      <trkpt lat="59.318995" lon="18.070953">
        <ele>42</ele>
        <time>2020-02-13T16:45:49Z</time>
      </trkpt>
      <trkpt lat="59.319068" lon="18.070929">
        <ele>42</ele>
        <time>2020-02-13T16:45:50Z</time>
      </trkpt>
      <trkpt lat="59.319138" lon="18.070899">
        <ele>41</ele>
        <time>2020-02-13T16:45:52Z</time>
      </trkpt>
      <trkpt lat="59.319218" lon="18.070856">
        <ele>41</ele>
        <time>2020-02-13T16:45:52Z</time>
      </trkpt>
      <trkpt lat="59.319281" lon="18.070818">
        <ele>39</ele>
        <time>2020-02-13T16:45:53Z</time>
      </trkpt>
      <trkpt lat="59.319353" lon="18.070783">
        <ele>38</ele>
        <time>2020-02-13T16:45:55Z</time>
      </trkpt>
      <trkpt lat="59.319404" lon="18.070742">
        <ele>38</ele>
        <time>2020-02-13T16:45:55Z</time>
      </trkpt>
      <trkpt lat="59.319462" lon="18.070707">
        <ele>38</ele>
        <time>2020-02-13T16:45:56Z</time>
      </trkpt>
      <trkpt lat="59.319524" lon="18.070678">
        <ele>38</ele>
        <time>2020-02-13T16:45:57Z</time>
      </trkpt>
      <trkpt lat="59.319577" lon="18.070644">
        <ele>37</ele>
        <time>2020-02-13T16:45:58Z</time>
      </trkpt>
      <trkpt lat="59.319631" lon="18.070602">
        <ele>37</ele>
        <time>2020-02-13T16:45:59Z</time>
      </trkpt>
      <trkpt lat="59.319684" lon="18.070554">
        <ele>37</ele>
        <time>2020-02-13T16:46:00Z</time>
      </trkpt>
      <trkpt lat="59.319733" lon="18.070505">
        <ele>36</ele>
        <time>2020-02-13T16:46:01Z</time>
      </trkpt>
      <trkpt lat="59.319769" lon="18.070468">
        <ele>35</ele>
        <time>2020-02-13T16:46:02Z</time>
      </trkpt>
      <trkpt lat="59.319817" lon="18.070458">
        <ele>35</ele>
        <time>2020-02-13T16:46:03Z</time>
      </trkpt>
      <trkpt lat="59.31985" lon="18.070461">
        <ele>34</ele>
        <time>2020-02-13T16:46:05Z</time>
      </trkpt>
      <trkpt lat="59.319882" lon="18.070471">
        <ele>32</ele>
        <time>2020-02-13T16:46:09Z</time>
      </trkpt>
      <trkpt lat="59.319913" lon="18.070474">
        <ele>31</ele>
        <time>2020-02-13T16:46:12Z</time>
      </trkpt>
      <trkpt lat="59.319937" lon="18.070501">
        <ele>31</ele>
        <time>2020-02-13T16:46:13Z</time>
      </trkpt>
      <trkpt lat="59.319964" lon="18.070552">
        <ele>31</ele>
        <time>2020-02-13T16:46:14Z</time>
      </trkpt>
      <trkpt lat="59.319999" lon="18.070619">
        <ele>30</ele>
        <time>2020-02-13T16:46:15Z</time>
      </trkpt>
      <trkpt lat="59.320053" lon="18.070692">
        <ele>30</ele>
        <time>2020-02-13T16:46:16Z</time>
      </trkpt>
      <trkpt lat="59.320097" lon="18.070761">
        <ele>29</ele>
        <time>2020-02-13T16:46:17Z</time>
      </trkpt>
      <trkpt lat="59.320142" lon="18.070824">
        <ele>29</ele>
        <time>2020-02-13T16:46:18Z</time>
      </trkpt>
      <trkpt lat="59.320208" lon="18.070881">
        <ele>28</ele>
        <time>2020-02-13T16:46:19Z</time>
      </trkpt>
      <trkpt lat="59.320279" lon="18.070937">
        <ele>28</ele>
        <time>2020-02-13T16:46:21Z</time>
      </trkpt>
      <trkpt lat="59.320351" lon="18.070995">
        <ele>27</ele>
        <time>2020-02-13T16:46:21Z</time>
      </trkpt>
      <trkpt lat="59.32042" lon="18.071054">
        <ele>27</ele>
        <time>2020-02-13T16:46:22Z</time>
      </trkpt>
      <trkpt lat="59.320489" lon="18.071113">
        <ele>26</ele>
        <time>2020-02-13T16:46:23Z</time>
      </trkpt>
      <trkpt lat="59.320559" lon="18.071168">
        <ele>26</ele>
        <time>2020-02-13T16:46:24Z</time>
      </trkpt>
      <trkpt lat="59.320628" lon="18.071216">
        <ele>25</ele>
        <time>2020-02-13T16:46:25Z</time>
      </trkpt>
      <trkpt lat="59.320697" lon="18.071255">
        <ele>25</ele>
        <time>2020-02-13T16:46:27Z</time>
      </trkpt>
      <trkpt lat="59.320762" lon="18.0713">
        <ele>24</ele>
        <time>2020-02-13T16:46:27Z</time>
      </trkpt>
      <trkpt lat="59.320823" lon="18.071368">
        <ele>23</ele>
        <time>2020-02-13T16:46:28Z</time>
      </trkpt>
      <trkpt lat="59.320878" lon="18.071458">
        <ele>22</ele>
        <time>2020-02-13T16:46:30Z</time>
      </trkpt>
      <trkpt lat="59.320925" lon="18.071561">
        <ele>22</ele>
        <time>2020-02-13T16:46:30Z</time>
      </trkpt>
      <trkpt lat="59.320963" lon="18.071669">
        <ele>20</ele>
        <time>2020-02-13T16:46:31Z</time>
      </trkpt>
      <trkpt lat="59.320984" lon="18.071777">
        <ele>19</ele>
        <time>2020-02-13T16:46:32Z</time>
      </trkpt>
      <trkpt lat="59.321009" lon="18.071878">
        <ele>18</ele>
        <time>2020-02-13T16:46:33Z</time>
      </trkpt>
      <trkpt lat="59.321041" lon="18.071965">
        <ele>18</ele>
        <time>2020-02-13T16:46:35Z</time>
      </trkpt>
      <trkpt lat="59.321081" lon="18.072036">
        <ele>17</ele>
        <time>2020-02-13T16:46:35Z</time>
      </trkpt>
      <trkpt lat="59.321124" lon="18.07209">
        <ele>17</ele>
        <time>2020-02-13T16:46:36Z</time>
      </trkpt>
      <trkpt lat="59.321166" lon="18.07213">
        <ele>17</ele>
        <time>2020-02-13T16:46:37Z</time>
      </trkpt>
      <trkpt lat="59.321206" lon="18.072167">
        <ele>16</ele>
        <time>2020-02-13T16:46:38Z</time>
      </trkpt>
      <trkpt lat="59.321245" lon="18.072201">
        <ele>16</ele>
        <time>2020-02-13T16:46:39Z</time>
      </trkpt>
      <trkpt lat="59.321281" lon="18.072234">
        <ele>16</ele>
        <time>2020-02-13T16:46:40Z</time>
      </trkpt>
      <trkpt lat="59.321315" lon="18.072265">
        <ele>15</ele>
        <time>2020-02-13T16:46:41Z</time>
      </trkpt>
      <trkpt lat="59.321343" lon="18.072292">
        <ele>15</ele>
        <time>2020-02-13T16:46:42Z</time>
      </trkpt>
      <trkpt lat="59.321368" lon="18.072315">
        <ele>15</ele>
        <time>2020-02-13T16:46:43Z</time>
      </trkpt>
      <trkpt lat="59.321388" lon="18.072338">
        <ele>14</ele>
        <time>2020-02-13T16:46:44Z</time>
      </trkpt>
      <trkpt lat="59.32141" lon="18.072363">
        <ele>14</ele>
        <time>2020-02-13T16:46:45Z</time>
      </trkpt>
      <trkpt lat="59.321437" lon="18.072388">
        <ele>14</ele>
        <time>2020-02-13T16:46:46Z</time>
      </trkpt>
      <trkpt lat="59.321467" lon="18.072414">
        <ele>13</ele>
        <time>2020-02-13T16:46:47Z</time>
      </trkpt>
      <trkpt lat="59.321499" lon="18.072444">
        <ele>0</ele>
        <time>2020-02-13T16:46:48Z</time>
      </trkpt>
      <trkpt lat="59.321534" lon="18.072473">
        <ele>13</ele>
        <time>2020-02-13T16:46:49Z</time>
      </trkpt>
      <trkpt lat="59.321568" lon="18.072498">
        <ele>12</ele>
        <time>2020-02-13T16:46:50Z</time>
      </trkpt>
      <trkpt lat="59.321598" lon="18.07252">
        <ele>12</ele>
        <time>2020-02-13T16:46:51Z</time>
      </trkpt>
      <trkpt lat="59.321628" lon="18.072541">
        <ele>12</ele>
        <time>2020-02-13T16:46:52Z</time>
      </trkpt>
      <trkpt lat="59.32166" lon="18.072562">
        <ele>12</ele>
        <time>2020-02-13T16:46:53Z</time>
      </trkpt>
      <trkpt lat="59.321693" lon="18.072581">
        <ele>11</ele>
        <time>2020-02-13T16:46:54Z</time>
      </trkpt>
      <trkpt lat="59.321727" lon="18.072599">
        <ele>11</ele>
        <time>2020-02-13T16:46:55Z</time>
      </trkpt>
      <trkpt lat="59.321758" lon="18.072617">
        <ele>11</ele>
        <time>2020-02-13T16:46:56Z</time>
      </trkpt>
      <trkpt lat="59.321781" lon="18.072641">
        <ele>11</ele>
        <time>2020-02-13T16:46:57Z</time>
      </trkpt>
      <trkpt lat="59.321793" lon="18.072673">
        <ele>11</ele>
        <time>2020-02-13T16:46:58Z</time>
      </trkpt>
      <trkpt lat="59.321796" lon="18.072713">
        <ele>10</ele>
        <time>2020-02-13T16:47:00Z</time>
      </trkpt>
      <trkpt lat="59.321801" lon="18.072748">
        <ele>10</ele>
        <time>2020-02-13T16:47:03Z</time>
      </trkpt>
      <trkpt lat="59.321834" lon="18.072797">
        <ele>10</ele>
        <time>2020-02-13T16:47:05Z</time>
      </trkpt>
      <trkpt lat="59.321866" lon="18.072818">
        <ele>10</ele>
        <time>2020-02-13T16:47:06Z</time>
      </trkpt>
      <trkpt lat="59.321901" lon="18.072851">
        <ele>10</ele>
        <time>2020-02-13T16:47:08Z</time>
      </trkpt>
      <trkpt lat="59.321926" lon="18.072907">
        <ele>9</ele>
        <time>2020-02-13T16:47:09Z</time>
      </trkpt>
      <trkpt lat="59.321945" lon="18.072979">
        <ele>9</ele>
        <time>2020-02-13T16:47:09Z</time>
      </trkpt>
      <trkpt lat="59.321952" lon="18.073061">
        <ele>9</ele>
        <time>2020-02-13T16:47:10Z</time>
      </trkpt>
      <trkpt lat="59.321946" lon="18.073152">
        <ele>9</ele>
        <time>2020-02-13T16:47:11Z</time>
      </trkpt>
      <trkpt lat="59.321932" lon="18.073246">
        <ele>9</ele>
        <time>2020-02-13T16:47:12Z</time>
      </trkpt>
      <trkpt lat="59.321916" lon="18.073345">
        <ele>9</ele>
        <time>2020-02-13T16:47:13Z</time>
      </trkpt>
      <trkpt lat="59.3219" lon="18.073446">
        <ele>9</ele>
        <time>2020-02-13T16:47:14Z</time>
      </trkpt>
      <trkpt lat="59.321884" lon="18.073546">
        <ele>10</ele>
        <time>2020-02-13T16:47:15Z</time>
      </trkpt>
      <trkpt lat="59.321873" lon="18.073646">
        <ele>10</ele>
        <time>2020-02-13T16:47:16Z</time>
      </trkpt>
      <trkpt lat="59.321862" lon="18.073741">
        <ele>9</ele>
        <time>2020-02-13T16:47:17Z</time>
      </trkpt>
      <trkpt lat="59.32187" lon="18.073835">
        <ele>9</ele>
        <time>2020-02-13T16:47:19Z</time>
      </trkpt>
      <trkpt lat="59.321887" lon="18.073926">
        <ele>9</ele>
        <time>2020-02-13T16:47:19Z</time>
      </trkpt>
      <trkpt lat="59.32191" lon="18.074013">
        <ele>9</ele>
        <time>2020-02-13T16:47:20Z</time>
      </trkpt>
      <trkpt lat="59.321938" lon="18.07409">
        <ele>9</ele>
        <time>2020-02-13T16:47:21Z</time>
      </trkpt>
      <trkpt lat="59.321972" lon="18.074148">
        <ele>9</ele>
        <time>2020-02-13T16:47:22Z</time>
      </trkpt>
      <trkpt lat="59.322024" lon="18.074199">
        <ele>9</ele>
        <time>2020-02-13T16:47:23Z</time>
      </trkpt>
      <trkpt lat="59.32208" lon="18.074242">
        <ele>9</ele>
        <time>2020-02-13T16:47:24Z</time>
      </trkpt>
      <trkpt lat="59.322142" lon="18.074283">
        <ele>9</ele>
        <time>2020-02-13T16:47:25Z</time>
      </trkpt>
      <trkpt lat="59.322206" lon="18.074326">
        <ele>9</ele>
        <time>2020-02-13T16:47:27Z</time>
      </trkpt>
      <trkpt lat="59.322272" lon="18.074374">
        <ele>9</ele>
        <time>2020-02-13T16:47:28Z</time>
      </trkpt>
      <trkpt lat="59.322342" lon="18.074427">
        <ele>8</ele>
        <time>2020-02-13T16:47:28Z</time>
      </trkpt>
      <trkpt lat="59.322412" lon="18.074483">
        <ele>8</ele>
        <time>2020-02-13T16:47:29Z</time>
      </trkpt>
      <trkpt lat="59.322484" lon="18.074548">
        <ele>8</ele>
        <time>2020-02-13T16:47:30Z</time>
      </trkpt>
      <trkpt lat="59.322556" lon="18.074622">
        <ele>8</ele>
        <time>2020-02-13T16:47:31Z</time>
      </trkpt>
      <trkpt lat="59.322624" lon="18.074707">
        <ele>8</ele>
        <time>2020-02-13T16:47:32Z</time>
      </trkpt>
      <trkpt lat="59.32269" lon="18.074796">
        <ele>8</ele>
        <time>2020-02-13T16:47:34Z</time>
      </trkpt>
      <trkpt lat="59.322758" lon="18.074881">
        <ele>8</ele>
        <time>2020-02-13T16:47:34Z</time>
      </trkpt>
      <trkpt lat="59.32283" lon="18.074961">
        <ele>7</ele>
        <time>2020-02-13T16:47:35Z</time>
      </trkpt>
      <trkpt lat="59.322902" lon="18.075032">
        <ele>7</ele>
        <time>2020-02-13T16:47:36Z</time>
      </trkpt>
      <trkpt lat="59.322974" lon="18.075086">
        <ele>8</ele>
        <time>2020-02-13T16:47:37Z</time>
      </trkpt>
      <trkpt lat="59.323048" lon="18.075124">
        <ele>8</ele>
        <time>2020-02-13T16:47:38Z</time>
      </trkpt>
      <trkpt lat="59.323124" lon="18.075165">
        <ele>7</ele>
        <time>2020-02-13T16:47:40Z</time>
      </trkpt>
      <trkpt lat="59.323199" lon="18.075215">
        <ele>8</ele>
        <time>2020-02-13T16:47:40Z</time>
      </trkpt>
      <trkpt lat="59.323272" lon="18.075262">
        <ele>8</ele>
        <time>2020-02-13T16:47:41Z</time>
      </trkpt>
      <trkpt lat="59.323346" lon="18.075302">
        <ele>8</ele>
        <time>2020-02-13T16:47:42Z</time>
      </trkpt>
      <trkpt lat="59.323423" lon="18.075335">
        <ele>8</ele>
        <time>2020-02-13T16:47:43Z</time>
      </trkpt>
      <trkpt lat="59.323496" lon="18.075364">
        <ele>8</ele>
        <time>2020-02-13T16:47:44Z</time>
      </trkpt>
      <trkpt lat="59.323572" lon="18.075392">
        <ele>8</ele>
        <time>2020-02-13T16:47:46Z</time>
      </trkpt>
      <trkpt lat="59.323643" lon="18.075419">
        <ele>8</ele>
        <time>2020-02-13T16:47:47Z</time>
      </trkpt>
      <trkpt lat="59.323716" lon="18.075445">
        <ele>8</ele>
        <time>2020-02-13T16:47:47Z</time>
      </trkpt>
      <trkpt lat="59.323788" lon="18.075474">
        <ele>8</ele>
        <time>2020-02-13T16:47:48Z</time>
      </trkpt>
      <trkpt lat="59.323862" lon="18.075502">
        <ele>8</ele>
        <time>2020-02-13T16:47:49Z</time>
      </trkpt>
      <trkpt lat="59.323935" lon="18.075531">
        <ele>8</ele>
        <time>2020-02-13T16:47:50Z</time>
      </trkpt>
      <trkpt lat="59.324007" lon="18.075559">
        <ele>8</ele>
        <time>2020-02-13T16:47:51Z</time>
      </trkpt>
      <trkpt lat="59.32408" lon="18.075586">
        <ele>8</ele>
        <time>2020-02-13T16:47:53Z</time>
      </trkpt>
      <trkpt lat="59.32415" lon="18.075614">
        <ele>8</ele>
        <time>2020-02-13T16:47:53Z</time>
      </trkpt>
      <trkpt lat="59.324221" lon="18.075642">
        <ele>8</ele>
        <time>2020-02-13T16:47:54Z</time>
      </trkpt>
      <trkpt lat="59.324291" lon="18.075667">
        <ele>7</ele>
        <time>2020-02-13T16:47:55Z</time>
      </trkpt>
      <trkpt lat="59.324364" lon="18.075689">
        <ele>7</ele>
        <time>2020-02-13T16:47:56Z</time>
      </trkpt>
      <trkpt lat="59.324436" lon="18.07571">
        <ele>7</ele>
        <time>2020-02-13T16:47:57Z</time>
      </trkpt>
      <trkpt lat="59.324504" lon="18.075732">
        <ele>7</ele>
        <time>2020-02-13T16:47:58Z</time>
      </trkpt>
      <trkpt lat="59.324572" lon="18.075757">
        <ele>6</ele>
        <time>2020-02-13T16:47:59Z</time>
      </trkpt>
      <trkpt lat="59.32464" lon="18.075781">
        <ele>6</ele>
        <time>2020-02-13T16:48:01Z</time>
      </trkpt>
      <trkpt lat="59.324707" lon="18.075804">
        <ele>6</ele>
        <time>2020-02-13T16:48:01Z</time>
      </trkpt>
      <trkpt lat="59.324772" lon="18.075822">
        <ele>6</ele>
        <time>2020-02-13T16:48:02Z</time>
      </trkpt>
      <trkpt lat="59.324838" lon="18.075835">
        <ele>6</ele>
        <time>2020-02-13T16:48:03Z</time>
      </trkpt>
      <trkpt lat="59.324902" lon="18.075842">
        <ele>6</ele>
        <time>2020-02-13T16:48:05Z</time>
      </trkpt>
      <trkpt lat="59.324963" lon="18.075847">
        <ele>6</ele>
        <time>2020-02-13T16:48:05Z</time>
      </trkpt>
      <trkpt lat="59.325022" lon="18.075855">
        <ele>6</ele>
        <time>2020-02-13T16:48:06Z</time>
      </trkpt>
      <trkpt lat="59.325081" lon="18.07586">
        <ele>6</ele>
        <time>2020-02-13T16:48:08Z</time>
      </trkpt>
      <trkpt lat="59.325141" lon="18.075856">
        <ele>6</ele>
        <time>2020-02-13T16:48:08Z</time>
      </trkpt>
      <trkpt lat="59.325198" lon="18.075844">
        <ele>6</ele>
        <time>2020-02-13T16:48:09Z</time>
      </trkpt>
      <trkpt lat="59.325258" lon="18.075831">
        <ele>6</ele>
        <time>2020-02-13T16:48:10Z</time>
      </trkpt>
      <trkpt lat="59.325317" lon="18.075818">
        <ele>6</ele>
        <time>2020-02-13T16:48:11Z</time>
      </trkpt>
      <trkpt lat="59.325378" lon="18.07581">
        <ele>6</ele>
        <time>2020-02-13T16:48:12Z</time>
      </trkpt>
      <trkpt lat="59.32544" lon="18.075804">
        <ele>6</ele>
        <time>2020-02-13T16:48:13Z</time>
      </trkpt>
      <trkpt lat="59.325501" lon="18.075794">
        <ele>6</ele>
        <time>2020-02-13T16:48:14Z</time>
      </trkpt>
      <trkpt lat="59.325563" lon="18.075782">
        <ele>6</ele>
        <time>2020-02-13T16:48:15Z</time>
      </trkpt>
      <trkpt lat="59.325625" lon="18.075768">
        <ele>6</ele>
        <time>2020-02-13T16:48:17Z</time>
      </trkpt>
      <trkpt lat="59.325687" lon="18.075746">
        <ele>6</ele>
        <time>2020-02-13T16:48:17Z</time>
      </trkpt>
      <trkpt lat="59.325748" lon="18.075719">
        <ele>6</ele>
        <time>2020-02-13T16:48:18Z</time>
      </trkpt>
      <trkpt lat="59.325806" lon="18.075686">
        <ele>6</ele>
        <time>2020-02-13T16:48:19Z</time>
      </trkpt>
      <trkpt lat="59.325864" lon="18.075648">
        <ele>6</ele>
        <time>2020-02-13T16:48:20Z</time>
      </trkpt>
      <trkpt lat="59.32592" lon="18.075605">
        <ele>6</ele>
        <time>2020-02-13T16:48:21Z</time>
      </trkpt>
      <trkpt lat="59.325975" lon="18.075558">
        <ele>6</ele>
        <time>2020-02-13T16:48:22Z</time>
      </trkpt>
      <trkpt lat="59.326029" lon="18.075506">
        <ele>6</ele>
        <time>2020-02-13T16:48:24Z</time>
      </trkpt>
      <trkpt lat="59.326083" lon="18.075449">
        <ele>6</ele>
        <time>2020-02-13T16:48:25Z</time>
      </trkpt>
      <trkpt lat="59.326134" lon="18.075388">
        <ele>6</ele>
        <time>2020-02-13T16:48:25Z</time>
      </trkpt>
      <trkpt lat="59.32618" lon="18.075323">
        <ele>6</ele>
        <time>2020-02-13T16:48:26Z</time>
      </trkpt>
      <trkpt lat="59.326225" lon="18.075256">
        <ele>6</ele>
        <time>2020-02-13T16:48:27Z</time>
      </trkpt>
      <trkpt lat="59.32627" lon="18.07519">
        <ele>6</ele>
        <time>2020-02-13T16:48:28Z</time>
      </trkpt>
      <trkpt lat="59.326317" lon="18.075126">
        <ele>6</ele>
        <time>2020-02-13T16:48:29Z</time>
      </trkpt>
      <trkpt lat="59.326364" lon="18.075066">
        <ele>6</ele>
        <time>2020-02-13T16:48:30Z</time>
      </trkpt>
      <trkpt lat="59.32641" lon="18.075004">
        <ele>6</ele>
        <time>2020-02-13T16:48:31Z</time>
      </trkpt>
      <trkpt lat="59.326458" lon="18.074945">
        <ele>6</ele>
        <time>2020-02-13T16:48:32Z</time>
      </trkpt>
      <trkpt lat="59.326507" lon="18.07489">
        <ele>6</ele>
        <time>2020-02-13T16:48:34Z</time>
      </trkpt>
      <trkpt lat="59.326556" lon="18.07484">
        <ele>6</ele>
        <time>2020-02-13T16:48:34Z</time>
      </trkpt>
      <trkpt lat="59.326607" lon="18.074794">
        <ele>6</ele>
        <time>2020-02-13T16:48:35Z</time>
      </trkpt>
      <trkpt lat="59.326658" lon="18.07475">
        <ele>6</ele>
        <time>2020-02-13T16:48:36Z</time>
      </trkpt>
      <trkpt lat="59.326709" lon="18.074706">
        <ele>5</ele>
        <time>2020-02-13T16:48:37Z</time>
      </trkpt>
      <trkpt lat="59.326761" lon="18.074663">
        <ele>5</ele>
        <time>2020-02-13T16:48:38Z</time>
      </trkpt>
      <trkpt lat="59.326813" lon="18.074618">
        <ele>5</ele>
        <time>2020-02-13T16:48:39Z</time>
      </trkpt>
      <trkpt lat="59.326862" lon="18.074564">
        <ele>5</ele>
        <time>2020-02-13T16:48:40Z</time>
      </trkpt>
      <trkpt lat="59.326906" lon="18.074494">
        <ele>5</ele>
        <time>2020-02-13T16:48:41Z</time>
      </trkpt>
      <trkpt lat="59.326949" lon="18.074421">
        <ele>0</ele>
        <time>2020-02-13T16:48:42Z</time>
      </trkpt>
      <trkpt lat="59.326996" lon="18.074355">
        <ele>5</ele>
        <time>2020-02-13T16:48:43Z</time>
      </trkpt>
      <trkpt lat="59.327045" lon="18.074294">
        <ele>5</ele>
        <time>2020-02-13T16:48:44Z</time>
      </trkpt>
      <trkpt lat="59.327096" lon="18.074236">
        <ele>5</ele>
        <time>2020-02-13T16:48:45Z</time>
      </trkpt>
      <trkpt lat="59.327148" lon="18.074178">
        <ele>5</ele>
        <time>2020-02-13T16:48:46Z</time>
      </trkpt>
      <trkpt lat="59.327201" lon="18.074118">
        <ele>5</ele>
        <time>2020-02-13T16:48:47Z</time>
      </trkpt>
      <trkpt lat="59.327253" lon="18.074056">
        <ele>5</ele>
        <time>2020-02-13T16:48:48Z</time>
      </trkpt>
      <trkpt lat="59.327306" lon="18.073994">
        <ele>5</ele>
        <time>2020-02-13T16:48:49Z</time>
      </trkpt>
      <trkpt lat="59.327359" lon="18.073931">
        <ele>4</ele>
        <time>2020-02-13T16:48:51Z</time>
      </trkpt>
      <trkpt lat="59.327412" lon="18.073868">
        <ele>4</ele>
        <time>2020-02-13T16:48:51Z</time>
      </trkpt>
      <trkpt lat="59.327465" lon="18.073805">
        <ele>4</ele>
        <time>2020-02-13T16:48:52Z</time>
      </trkpt>
      <trkpt lat="59.327518" lon="18.07374">
        <ele>4</ele>
        <time>2020-02-13T16:48:53Z</time>
      </trkpt>
      <trkpt lat="59.32757" lon="18.073677">
        <ele>4</ele>
        <time>2020-02-13T16:48:54Z</time>
      </trkpt>
      <trkpt lat="59.327621" lon="18.073617">
        <ele>4</ele>
        <time>2020-02-13T16:48:55Z</time>
      </trkpt>
      <trkpt lat="59.327673" lon="18.073556">
        <ele>4</ele>
        <time>2020-02-13T16:48:56Z</time>
      </trkpt>
      <trkpt lat="59.327723" lon="18.073497">
        <ele>4</ele>
        <time>2020-02-13T16:48:57Z</time>
      </trkpt>
      <trkpt lat="59.327773" lon="18.073437">
        <ele>4</ele>
        <time>2020-02-13T16:48:59Z</time>
      </trkpt>
      <trkpt lat="59.327824" lon="18.073379">
        <ele>4</ele>
        <time>2020-02-13T16:48:59Z</time>
      </trkpt>
      <trkpt lat="59.327876" lon="18.073323">
        <ele>4</ele>
        <time>2020-02-13T16:49:00Z</time>
      </trkpt>
      <trkpt lat="59.327929" lon="18.073269">
        <ele>4</ele>
        <time>2020-02-13T16:49:02Z</time>
      </trkpt>
      <trkpt lat="59.327982" lon="18.073219">
        <ele>4</ele>
        <time>2020-02-13T16:49:02Z</time>
      </trkpt>
      <trkpt lat="59.328037" lon="18.073176">
        <ele>4</ele>
        <time>2020-02-13T16:49:03Z</time>
      </trkpt>
      <trkpt lat="59.328093" lon="18.07314">
        <ele>4</ele>
        <time>2020-02-13T16:49:04Z</time>
      </trkpt>
      <trkpt lat="59.32815" lon="18.073109">
        <ele>4</ele>
        <time>2020-02-13T16:49:05Z</time>
      </trkpt>
      <trkpt lat="59.328208" lon="18.073089">
        <ele>4</ele>
        <time>2020-02-13T16:49:06Z</time>
      </trkpt>
      <trkpt lat="59.328267" lon="18.073083">
        <ele>4</ele>
        <time>2020-02-13T16:49:08Z</time>
      </trkpt>
      <trkpt lat="59.328325" lon="18.073088">
        <ele>4</ele>
        <time>2020-02-13T16:49:08Z</time>
      </trkpt>
      <trkpt lat="59.328382" lon="18.0731">
        <ele>4</ele>
        <time>2020-02-13T16:49:09Z</time>
      </trkpt>
      <trkpt lat="59.328439" lon="18.073113">
        <ele>4</ele>
        <time>2020-02-13T16:49:10Z</time>
      </trkpt>
      <trkpt lat="59.328496" lon="18.073128">
        <ele>4</ele>
        <time>2020-02-13T16:49:11Z</time>
      </trkpt>
      <trkpt lat="59.328553" lon="18.073144">
        <ele>4</ele>
        <time>2020-02-13T16:49:12Z</time>
      </trkpt>
      <trkpt lat="59.32861" lon="18.073157">
        <ele>4</ele>
        <time>2020-02-13T16:49:13Z</time>
      </trkpt>
      <trkpt lat="59.328667" lon="18.073171">
        <ele>4</ele>
        <time>2020-02-13T16:49:14Z</time>
      </trkpt>
      <trkpt lat="59.328724" lon="18.073184">
        <ele>4</ele>
        <time>2020-02-13T16:49:16Z</time>
      </trkpt>
      <trkpt lat="59.32878" lon="18.073197">
        <ele>3</ele>
        <time>2020-02-13T16:49:16Z</time>
      </trkpt>
      <trkpt lat="59.328837" lon="18.073212">
        <ele>3</ele>
        <time>2020-02-13T16:49:17Z</time>
      </trkpt>
      <trkpt lat="59.328894" lon="18.073227">
        <ele>3</ele>
        <time>2020-02-13T16:49:18Z</time>
      </trkpt>
      <trkpt lat="59.328952" lon="18.07324">
        <ele>3</ele>
        <time>2020-02-13T16:49:19Z</time>
      </trkpt>
      <trkpt lat="59.329009" lon="18.073253">
        <ele>3</ele>
        <time>2020-02-13T16:49:21Z</time>
      </trkpt>
      <trkpt lat="59.329065" lon="18.073267">
        <ele>3</ele>
        <time>2020-02-13T16:49:21Z</time>
      </trkpt>
      <trkpt lat="59.32912" lon="18.07328">
        <ele>3</ele>
        <time>2020-02-13T16:49:22Z</time>
      </trkpt>
      <trkpt lat="59.329175" lon="18.073292">
        <ele>3</ele>
        <time>2020-02-13T16:49:23Z</time>
      </trkpt>
      <trkpt lat="59.32923" lon="18.0733">
        <ele>3</ele>
        <time>2020-02-13T16:49:25Z</time>
      </trkpt>
      <trkpt lat="59.329285" lon="18.073309">
        <ele>3</ele>
        <time>2020-02-13T16:49:25Z</time>
      </trkpt>
      <trkpt lat="59.32934" lon="18.073324">
        <ele>2</ele>
        <time>2020-02-13T16:49:26Z</time>
      </trkpt>
      <trkpt lat="59.329397" lon="18.073341">
        <ele>2</ele>
        <time>2020-02-13T16:49:27Z</time>
      </trkpt>
      <trkpt lat="59.329453" lon="18.073364">
        <ele>2</ele>
        <time>2020-02-13T16:49:28Z</time>
      </trkpt>
      <trkpt lat="59.329505" lon="18.07341">
        <ele>2</ele>
        <time>2020-02-13T16:49:29Z</time>
      </trkpt>
      <trkpt lat="59.329547" lon="18.073474">
        <ele>2</ele>
        <time>2020-02-13T16:49:30Z</time>
      </trkpt>
      <trkpt lat="59.329583" lon="18.073549">
        <ele>2</ele>
        <time>2020-02-13T16:49:31Z</time>
      </trkpt>
      <trkpt lat="59.329613" lon="18.073637">
        <ele>2</ele>
        <time>2020-02-13T16:49:32Z</time>
      </trkpt>
      <trkpt lat="59.329639" lon="18.073737">
        <ele>2</ele>
        <time>2020-02-13T16:49:34Z</time>
      </trkpt>
      <trkpt lat="59.329662" lon="18.073847">
        <ele>2</ele>
        <time>2020-02-13T16:49:34Z</time>
      </trkpt>
      <trkpt lat="59.32968" lon="18.073965">
        <ele>2</ele>
        <time>2020-02-13T16:49:35Z</time>
      </trkpt>
      <trkpt lat="59.329696" lon="18.074086">
        <ele>2</ele>
        <time>2020-02-13T16:49:36Z</time>
      </trkpt>
      <trkpt lat="59.329711" lon="18.074211">
        <ele>2</ele>
        <time>2020-02-13T16:49:37Z</time>
      </trkpt>
      <trkpt lat="59.329725" lon="18.074337">
        <ele>2</ele>
        <time>2020-02-13T16:49:38Z</time>
      </trkpt>
      <trkpt lat="59.32974" lon="18.074462">
        <ele>2</ele>
        <time>2020-02-13T16:49:40Z</time>
      </trkpt>
      <trkpt lat="59.329763" lon="18.074583">
        <ele>2</ele>
        <time>2020-02-13T16:49:40Z</time>
      </trkpt>
      <trkpt lat="59.329798" lon="18.074694">
        <ele>2</ele>
        <time>2020-02-13T16:49:42Z</time>
      </trkpt>
      <trkpt lat="59.329841" lon="18.074792">
        <ele>2</ele>
        <time>2020-02-13T16:49:42Z</time>
      </trkpt>
      <trkpt lat="59.329889" lon="18.074878">
        <ele>3</ele>
        <time>2020-02-13T16:49:43Z</time>
      </trkpt>
      <trkpt lat="59.329935" lon="18.074958">
        <ele>3</ele>
        <time>2020-02-13T16:49:44Z</time>
      </trkpt>
      <trkpt lat="59.329983" lon="18.075032">
        <ele>3</ele>
        <time>2020-02-13T16:49:45Z</time>
      </trkpt>
      <trkpt lat="59.330031" lon="18.075103">
        <ele>3</ele>
        <time>2020-02-13T16:49:46Z</time>
      </trkpt>
      <trkpt lat="59.330078" lon="18.075174">
        <ele>4</ele>
        <time>2020-02-13T16:49:47Z</time>
      </trkpt>
      <trkpt lat="59.330123" lon="18.075241">
        <ele>4</ele>
        <time>2020-02-13T16:49:48Z</time>
      </trkpt>
      <trkpt lat="59.330167" lon="18.075298">
        <ele>4</ele>
        <time>2020-02-13T16:49:50Z</time>
      </trkpt>
      <trkpt lat="59.33021" lon="18.075356">
        <ele>5</ele>
        <time>2020-02-13T16:49:50Z</time>
      </trkpt>
      <trkpt lat="59.33025" lon="18.075414">
        <ele>5</ele>
        <time>2020-02-13T16:49:51Z</time>
      </trkpt>
      <trkpt lat="59.330285" lon="18.075468">
        <ele>5</ele>
        <time>2020-02-13T16:49:52Z</time>
      </trkpt>
      <trkpt lat="59.330315" lon="18.075518">
        <ele>5</ele>
        <time>2020-02-13T16:49:53Z</time>
      </trkpt>
      <trkpt lat="59.330347" lon="18.075571">
        <ele>6</ele>
        <time>2020-02-13T16:49:54Z</time>
      </trkpt>
      <trkpt lat="59.330375" lon="18.075639">
        <ele>6</ele>
        <time>2020-02-13T16:49:55Z</time>
      </trkpt>
      <trkpt lat="59.330413" lon="18.075698">
        <ele>6</ele>
        <time>2020-02-13T16:49:56Z</time>
      </trkpt>
      <trkpt lat="59.330455" lon="18.075732">
        <ele>6</ele>
        <time>2020-02-13T16:49:57Z</time>
      </trkpt>
      <trkpt lat="59.330493" lon="18.07577">
        <ele>7</ele>
        <time>2020-02-13T16:49:59Z</time>
      </trkpt>
      <trkpt lat="59.330523" lon="18.07583">
        <ele>7</ele>
        <time>2020-02-13T16:49:59Z</time>
      </trkpt>
      <trkpt lat="59.330561" lon="18.075905">
        <ele>7</ele>
        <time>2020-02-13T16:50:01Z</time>
      </trkpt>
      <trkpt lat="59.330598" lon="18.07598">
        <ele>7</ele>
        <time>2020-02-13T16:50:01Z</time>
      </trkpt>
      <trkpt lat="59.330641" lon="18.076058">
        <ele>8</ele>
        <time>2020-02-13T16:50:02Z</time>
      </trkpt>
      <trkpt lat="59.33069" lon="18.076134">
        <ele>8</ele>
        <time>2020-02-13T16:50:03Z</time>
      </trkpt>
      <trkpt lat="59.330742" lon="18.076219">
        <ele>8</ele>
        <time>2020-02-13T16:50:04Z</time>
      </trkpt>
      <trkpt lat="59.330872" lon="18.076398">
        <ele>8</ele>
        <time>2020-02-13T16:50:06Z</time>
      </trkpt>
      <trkpt lat="59.330962" lon="18.076494">
        <ele>8</ele>
        <time>2020-02-13T16:50:08Z</time>
      </trkpt>
      <trkpt lat="59.331045" lon="18.076576">
        <ele>8</ele>
        <time>2020-02-13T16:50:08Z</time>
      </trkpt>
      <trkpt lat="59.331122" lon="18.07664">
        <ele>8</ele>
        <time>2020-02-13T16:50:09Z</time>
      </trkpt>
      <trkpt lat="59.331196" lon="18.076636">
        <ele>8</ele>
        <time>2020-02-13T16:50:10Z</time>
      </trkpt>
      <trkpt lat="59.331255" lon="18.076582">
        <ele>8</ele>
        <time>2020-02-13T16:50:11Z</time>
      </trkpt>
      <trkpt lat="59.331313" lon="18.076497">
        <ele>8</ele>
        <time>2020-02-13T16:50:12Z</time>
      </trkpt>
      <trkpt lat="59.331365" lon="18.07641">
        <ele>8</ele>
        <time>2020-02-13T16:50:13Z</time>
      </trkpt>
      <trkpt lat="59.331419" lon="18.076326">
        <ele>7</ele>
        <time>2020-02-13T16:50:15Z</time>
      </trkpt>
      <trkpt lat="59.331475" lon="18.076254">
        <ele>7</ele>
        <time>2020-02-13T16:50:15Z</time>
      </trkpt>
      <trkpt lat="59.331527" lon="18.076197">
        <ele>7</ele>
        <time>2020-02-13T16:50:16Z</time>
      </trkpt>
      <trkpt lat="59.331576" lon="18.076144">
        <ele>7</ele>
        <time>2020-02-13T16:50:18Z</time>
      </trkpt>
      <trkpt lat="59.331627" lon="18.076111">
        <ele>7</ele>
        <time>2020-02-13T16:50:18Z</time>
      </trkpt>
      <trkpt lat="59.331682" lon="18.076094">
        <ele>7</ele>
        <time>2020-02-13T16:50:19Z</time>
      </trkpt>
      <trkpt lat="59.331734" lon="18.076089">
        <ele>7</ele>
        <time>2020-02-13T16:50:20Z</time>
      </trkpt>
      <trkpt lat="59.331785" lon="18.076096">
        <ele>6</ele>
        <time>2020-02-13T16:50:21Z</time>
      </trkpt>
      <trkpt lat="59.331828" lon="18.076105">
        <ele>6</ele>
        <time>2020-02-13T16:50:22Z</time>
      </trkpt>
      <trkpt lat="59.331865" lon="18.076118">
        <ele>6</ele>
        <time>2020-02-13T16:50:24Z</time>
      </trkpt>
      <trkpt lat="59.331897" lon="18.076136">
        <ele>5</ele>
        <time>2020-02-13T16:50:24Z</time>
      </trkpt>
      <trkpt lat="59.331931" lon="18.076149">
        <ele>5</ele>
        <time>2020-02-13T16:50:25Z</time>
      </trkpt>
      <trkpt lat="59.331966" lon="18.076151">
        <ele>5</ele>
        <time>2020-02-13T16:50:26Z</time>
      </trkpt>
      <trkpt lat="59.332005" lon="18.076156">
        <ele>5</ele>
        <time>2020-02-13T16:50:27Z</time>
      </trkpt>
      <trkpt lat="59.332049" lon="18.076173">
        <ele>5</ele>
        <time>2020-02-13T16:50:28Z</time>
      </trkpt>
      <trkpt lat="59.332093" lon="18.076202">
        <ele>5</ele>
        <time>2020-02-13T16:50:29Z</time>
      </trkpt>
      <trkpt lat="59.332138" lon="18.076244">
        <ele>5</ele>
        <time>2020-02-13T16:50:30Z</time>
      </trkpt>
      <trkpt lat="59.332175" lon="18.076296">
        <ele>4</ele>
        <time>2020-02-13T16:50:31Z</time>
      </trkpt>
      <trkpt lat="59.332205" lon="18.076348">
        <ele>4</ele>
        <time>2020-02-13T16:50:32Z</time>
      </trkpt>
      <trkpt lat="59.33223" lon="18.076398">
        <ele>4</ele>
        <time>2020-02-13T16:50:33Z</time>
      </trkpt>
      <trkpt lat="59.332254" lon="18.076446">
        <ele>4</ele>
        <time>2020-02-13T16:50:34Z</time>
      </trkpt>
      <trkpt lat="59.332275" lon="18.076494">
        <ele>4</ele>
        <time>2020-02-13T16:50:35Z</time>
      </trkpt>
      <trkpt lat="59.332294" lon="18.076547">
        <ele>0</ele>
        <time>2020-02-13T16:50:36Z</time>
      </trkpt>
      <trkpt lat="59.332311" lon="18.076598">
        <ele>4</ele>
        <time>2020-02-13T16:50:37Z</time>
      </trkpt>
      <trkpt lat="59.332325" lon="18.076648">
        <ele>4</ele>
        <time>2020-02-13T16:50:38Z</time>
      </trkpt>
      <trkpt lat="59.332335" lon="18.076688">
        <ele>3</ele>
        <time>2020-02-13T16:50:39Z</time>
      </trkpt>
      <trkpt lat="59.332344" lon="18.076719">
        <ele>3</ele>
        <time>2020-02-13T16:50:40Z</time>
      </trkpt>
      <trkpt lat="59.332364" lon="18.076777">
        <ele>3</ele>
        <time>2020-02-13T16:50:42Z</time>
      </trkpt>
      <trkpt lat="59.332376" lon="18.076809">
        <ele>3</ele>
        <time>2020-02-13T16:50:43Z</time>
      </trkpt>
      <trkpt lat="59.332388" lon="18.076848">
        <ele>3</ele>
        <time>2020-02-13T16:50:44Z</time>
      </trkpt>
      <trkpt lat="59.332401" lon="18.07689">
        <ele>3</ele>
        <time>2020-02-13T16:50:45Z</time>
      </trkpt>
      <trkpt lat="59.332418" lon="18.076932">
        <ele>3</ele>
        <time>2020-02-13T16:50:46Z</time>
      </trkpt>
      <trkpt lat="59.332436" lon="18.076979">
        <ele>3</ele>
        <time>2020-02-13T16:50:47Z</time>
      </trkpt>
      <trkpt lat="59.332454" lon="18.077031">
        <ele>3</ele>
        <time>2020-02-13T16:50:48Z</time>
      </trkpt>
      <trkpt lat="59.332478" lon="18.077086">
        <ele>3</ele>
        <time>2020-02-13T16:50:49Z</time>
      </trkpt>
      <trkpt lat="59.332509" lon="18.077139">
        <ele>3</ele>
        <time>2020-02-13T16:50:50Z</time>
      </trkpt>
      <trkpt lat="59.332548" lon="18.077187">
        <ele>3</ele>
        <time>2020-02-13T16:50:51Z</time>
      </trkpt>
      <trkpt lat="59.332594" lon="18.077227">
        <ele>3</ele>
        <time>2020-02-13T16:50:53Z</time>
      </trkpt>
      <trkpt lat="59.332643" lon="18.077264">
        <ele>3</ele>
        <time>2020-02-13T16:50:53Z</time>
      </trkpt>
      <trkpt lat="59.332693" lon="18.077297">
        <ele>3</ele>
        <time>2020-02-13T16:50:54Z</time>
      </trkpt>
      <trkpt lat="59.332745" lon="18.077329">
        <ele>3</ele>
        <time>2020-02-13T16:50:56Z</time>
      </trkpt>
      <trkpt lat="59.332797" lon="18.07736">
        <ele>3</ele>
        <time>2020-02-13T16:50:56Z</time>
      </trkpt>
      <trkpt lat="59.33285" lon="18.077386">
        <ele>4</ele>
        <time>2020-02-13T16:50:57Z</time>
      </trkpt>
      <trkpt lat="59.332903" lon="18.077419">
        <ele>4</ele>
        <time>2020-02-13T16:50:58Z</time>
      </trkpt>
      <trkpt lat="59.332957" lon="18.077455">
        <ele>4</ele>
        <time>2020-02-13T16:50:59Z</time>
      </trkpt>
      <trkpt lat="59.333011" lon="18.077485">
        <ele>4</ele>
        <time>2020-02-13T16:51:00Z</time>
      </trkpt>
      <trkpt lat="59.333065" lon="18.077509">
        <ele>4</ele>
        <time>2020-02-13T16:51:01Z</time>
      </trkpt>
      <trkpt lat="59.33312" lon="18.077534">
        <ele>5</ele>
        <time>2020-02-13T16:51:03Z</time>
      </trkpt>
      <trkpt lat="59.333174" lon="18.077568">
        <ele>5</ele>
        <time>2020-02-13T16:51:03Z</time>
      </trkpt>
      <trkpt lat="59.333226" lon="18.077605">
        <ele>5</ele>
        <time>2020-02-13T16:51:04Z</time>
      </trkpt>
      <trkpt lat="59.333276" lon="18.077642">
        <ele>6</ele>
        <time>2020-02-13T16:51:05Z</time>
      </trkpt>
      <trkpt lat="59.333324" lon="18.077674">
        <ele>6</ele>
        <time>2020-02-13T16:51:06Z</time>
      </trkpt>
      <trkpt lat="59.333369" lon="18.077702">
        <ele>6</ele>
        <time>2020-02-13T16:51:07Z</time>
      </trkpt>
      <trkpt lat="59.333413" lon="18.07773">
        <ele>6</ele>
        <time>2020-02-13T16:51:08Z</time>
      </trkpt>
      <trkpt lat="59.333451" lon="18.077755">
        <ele>7</ele>
        <time>2020-02-13T16:51:09Z</time>
      </trkpt>
      <trkpt lat="59.333497" lon="18.077786">
        <ele>7</ele>
        <time>2020-02-13T16:51:10Z</time>
      </trkpt>
      <trkpt lat="59.333544" lon="18.077816">
        <ele>7</ele>
        <time>2020-02-13T16:51:11Z</time>
      </trkpt>
      <trkpt lat="59.333591" lon="18.07785">
        <ele>7</ele>
        <time>2020-02-13T16:51:13Z</time>
      </trkpt>
      <trkpt lat="59.333635" lon="18.077888">
        <ele>8</ele>
        <time>2020-02-13T16:51:13Z</time>
      </trkpt>
      <trkpt lat="59.333681" lon="18.077926">
        <ele>8</ele>
        <time>2020-02-13T16:51:15Z</time>
      </trkpt>
      <trkpt lat="59.333725" lon="18.077954">
        <ele>8</ele>
        <time>2020-02-13T16:51:15Z</time>
      </trkpt>
      <trkpt lat="59.333766" lon="18.077982">
        <ele>8</ele>
        <time>2020-02-13T16:51:16Z</time>
      </trkpt>
      <trkpt lat="59.333805" lon="18.078008">
        <ele>9</ele>
        <time>2020-02-13T16:51:17Z</time>
      </trkpt>
      <trkpt lat="59.333842" lon="18.078038">
        <ele>9</ele>
        <time>2020-02-13T16:51:18Z</time>
      </trkpt>
      <trkpt lat="59.33387" lon="18.078058">
        <ele>9</ele>
        <time>2020-02-13T16:51:19Z</time>
      </trkpt>
      <trkpt lat="59.3339" lon="18.07806">
        <ele>9</ele>
        <time>2020-02-13T16:51:20Z</time>
      </trkpt>
      <trkpt lat="59.333922" lon="18.078072">
        <ele>9</ele>
        <time>2020-02-13T16:51:21Z</time>
      </trkpt>
      <trkpt lat="59.333954" lon="18.078069">
        <ele>10</ele>
        <time>2020-02-13T16:51:23Z</time>
      </trkpt>
      <trkpt lat="59.333972" lon="18.078078">
        <ele>11</ele>
        <time>2020-02-13T16:51:27Z</time>
      </trkpt>
      <trkpt lat="59.333997" lon="18.078094">
        <ele>11</ele>
        <time>2020-02-13T16:51:28Z</time>
      </trkpt>
      <trkpt lat="59.334025" lon="18.078117">
        <ele>12</ele>
        <time>2020-02-13T16:51:29Z</time>
      </trkpt>
      <trkpt lat="59.334056" lon="18.078144">
        <ele>12</ele>
        <time>2020-02-13T16:51:31Z</time>
      </trkpt>
      <trkpt lat="59.334089" lon="18.078178">
        <ele>12</ele>
        <time>2020-02-13T16:51:31Z</time>
      </trkpt>
      <trkpt lat="59.334118" lon="18.078218">
        <ele>12</ele>
        <time>2020-02-13T16:51:32Z</time>
      </trkpt>
      <trkpt lat="59.33415" lon="18.078261">
        <ele>13</ele>
        <time>2020-02-13T16:51:34Z</time>
      </trkpt>
      <trkpt lat="59.334176" lon="18.078298">
        <ele>13</ele>
        <time>2020-02-13T16:51:34Z</time>
      </trkpt>
      <trkpt lat="59.334204" lon="18.078338">
        <ele>13</ele>
        <time>2020-02-13T16:51:35Z</time>
      </trkpt>
      <trkpt lat="59.33424" lon="18.078382">
        <ele>13</ele>
        <time>2020-02-13T16:51:36Z</time>
      </trkpt>
      <trkpt lat="59.334278" lon="18.07843">
        <ele>13</ele>
        <time>2020-02-13T16:51:37Z</time>
      </trkpt>
      <trkpt lat="59.334327" lon="18.07848">
        <ele>14</ele>
        <time>2020-02-13T16:51:38Z</time>
      </trkpt>
      <trkpt lat="59.334437" lon="18.078566">
        <ele>14</ele>
        <time>2020-02-13T16:51:40Z</time>
      </trkpt>
      <trkpt lat="59.334489" lon="18.078608">
        <ele>14</ele>
        <time>2020-02-13T16:51:42Z</time>
      </trkpt>
      <trkpt lat="59.334542" lon="18.07865">
        <ele>15</ele>
        <time>2020-02-13T16:51:42Z</time>
      </trkpt>
      <trkpt lat="59.334596" lon="18.078686">
        <ele>15</ele>
        <time>2020-02-13T16:51:43Z</time>
      </trkpt>
      <trkpt lat="59.33465" lon="18.078714">
        <ele>15</ele>
        <time>2020-02-13T16:51:44Z</time>
      </trkpt>
      <trkpt lat="59.334704" lon="18.078739">
        <ele>15</ele>
        <time>2020-02-13T16:51:45Z</time>
      </trkpt>
      <trkpt lat="59.334756" lon="18.078774">
        <ele>15</ele>
        <time>2020-02-13T16:51:46Z</time>
      </trkpt>
      <trkpt lat="59.334808" lon="18.078819">
        <ele>16</ele>
        <time>2020-02-13T16:51:47Z</time>
      </trkpt>
      <trkpt lat="59.334861" lon="18.07887">
        <ele>16</ele>
        <time>2020-02-13T16:51:48Z</time>
      </trkpt>
      <trkpt lat="59.334913" lon="18.078926">
        <ele>16</ele>
        <time>2020-02-13T16:51:50Z</time>
      </trkpt>
      <trkpt lat="59.334965" lon="18.078978">
        <ele>16</ele>
        <time>2020-02-13T16:51:50Z</time>
      </trkpt>
      <trkpt lat="59.335017" lon="18.079022">
        <ele>16</ele>
        <time>2020-02-13T16:51:51Z</time>
      </trkpt>
      <trkpt lat="59.335068" lon="18.079064">
        <ele>16</ele>
        <time>2020-02-13T16:51:53Z</time>
      </trkpt>
      <trkpt lat="59.335115" lon="18.079108">
        <ele>17</ele>
        <time>2020-02-13T16:51:53Z</time>
      </trkpt>
      <trkpt lat="59.335162" lon="18.079149">
        <ele>17</ele>
        <time>2020-02-13T16:51:54Z</time>
      </trkpt>
      <trkpt lat="59.33521" lon="18.07919">
        <ele>17</ele>
        <time>2020-02-13T16:51:55Z</time>
      </trkpt>
      <trkpt lat="59.335257" lon="18.079228">
        <ele>17</ele>
        <time>2020-02-13T16:51:56Z</time>
      </trkpt>
      <trkpt lat="59.335301" lon="18.07927">
        <ele>17</ele>
        <time>2020-02-13T16:51:57Z</time>
      </trkpt>
      <trkpt lat="59.335343" lon="18.079312">
        <ele>17</ele>
        <time>2020-02-13T16:51:58Z</time>
      </trkpt>
      <trkpt lat="59.335379" lon="18.07935">
        <ele>17</ele>
        <time>2020-02-13T16:51:59Z</time>
      </trkpt>
      <trkpt lat="59.335418" lon="18.079377">
        <ele>18</ele>
        <time>2020-02-13T16:52:01Z</time>
      </trkpt>
      <trkpt lat="59.33546" lon="18.079405">
        <ele>18</ele>
        <time>2020-02-13T16:52:01Z</time>
      </trkpt>
      <trkpt lat="59.335498" lon="18.079443">
        <ele>18</ele>
        <time>2020-02-13T16:52:02Z</time>
      </trkpt>
      <trkpt lat="59.335537" lon="18.079484">
        <ele>19</ele>
        <time>2020-02-13T16:52:03Z</time>
      </trkpt>
      <trkpt lat="59.335563" lon="18.079545">
        <ele>20</ele>
        <time>2020-02-13T16:52:04Z</time>
      </trkpt>
      <trkpt lat="59.3356" lon="18.07959">
        <ele>20</ele>
        <time>2020-02-13T16:52:05Z</time>
      </trkpt>
      <trkpt lat="59.335637" lon="18.079633">
        <ele>20</ele>
        <time>2020-02-13T16:52:06Z</time>
      </trkpt>
      <trkpt lat="59.335675" lon="18.079671">
        <ele>20</ele>
        <time>2020-02-13T16:52:07Z</time>
      </trkpt>
      <trkpt lat="59.335715" lon="18.079705">
        <ele>20</ele>
        <time>2020-02-13T16:52:08Z</time>
      </trkpt>
      <trkpt lat="59.335754" lon="18.079738">
        <ele>20</ele>
        <time>2020-02-13T16:52:09Z</time>
      </trkpt>
      <trkpt lat="59.335795" lon="18.07977">
        <ele>20</ele>
        <time>2020-02-13T16:52:10Z</time>
      </trkpt>
      <trkpt lat="59.335837" lon="18.079802">
        <ele>0</ele>
        <time>2020-02-13T16:52:11Z</time>
      </trkpt>
      <trkpt lat="59.335878" lon="18.079832">
        <ele>20</ele>
        <time>2020-02-13T16:52:12Z</time>
      </trkpt>
      <trkpt lat="59.33592" lon="18.079857">
        <ele>20</ele>
        <time>2020-02-13T16:52:14Z</time>
      </trkpt>
      <trkpt lat="59.335956" lon="18.079873">
        <ele>21</ele>
        <time>2020-02-13T16:52:14Z</time>
      </trkpt>
      <trkpt lat="59.335999" lon="18.079905">
        <ele>21</ele>
        <time>2020-02-13T16:52:15Z</time>
      </trkpt>
      <trkpt lat="59.336047" lon="18.079941">
        <ele>21</ele>
        <time>2020-02-13T16:52:17Z</time>
      </trkpt>
      <trkpt lat="59.336094" lon="18.079975">
        <ele>21</ele>
        <time>2020-02-13T16:52:17Z</time>
      </trkpt>
      <trkpt lat="59.336144" lon="18.080014">
        <ele>21</ele>
        <time>2020-02-13T16:52:18Z</time>
      </trkpt>
      <trkpt lat="59.336197" lon="18.080048">
        <ele>21</ele>
        <time>2020-02-13T16:52:20Z</time>
      </trkpt>
      <trkpt lat="59.336255" lon="18.080086">
        <ele>22</ele>
        <time>2020-02-13T16:52:20Z</time>
      </trkpt>
      <trkpt lat="59.336308" lon="18.080132">
        <ele>22</ele>
        <time>2020-02-13T16:52:22Z</time>
      </trkpt>
      <trkpt lat="59.336356" lon="18.080166">
        <ele>22</ele>
        <time>2020-02-13T16:52:22Z</time>
      </trkpt>
      <trkpt lat="59.336407" lon="18.080194">
        <ele>22</ele>
        <time>2020-02-13T16:52:23Z</time>
      </trkpt>
      <trkpt lat="59.336456" lon="18.080202">
        <ele>22</ele>
        <time>2020-02-13T16:52:24Z</time>
      </trkpt>
      <trkpt lat="59.336505" lon="18.080214">
        <ele>22</ele>
        <time>2020-02-13T16:52:25Z</time>
      </trkpt>
      <trkpt lat="59.336554" lon="18.080234">
        <ele>22</ele>
        <time>2020-02-13T16:52:26Z</time>
      </trkpt>
      <trkpt lat="59.336601" lon="18.080264">
        <ele>22</ele>
        <time>2020-02-13T16:52:27Z</time>
      </trkpt>
      <trkpt lat="59.336648" lon="18.080295">
        <ele>22</ele>
        <time>2020-02-13T16:52:28Z</time>
      </trkpt>
      <trkpt lat="59.336692" lon="18.080317">
        <ele>23</ele>
        <time>2020-02-13T16:52:29Z</time>
      </trkpt>
      <trkpt lat="59.336736" lon="18.08034">
        <ele>23</ele>
        <time>2020-02-13T16:52:31Z</time>
      </trkpt>
      <trkpt lat="59.336778" lon="18.080355">
        <ele>23</ele>
        <time>2020-02-13T16:52:32Z</time>
      </trkpt>
      <trkpt lat="59.336815" lon="18.080382">
        <ele>23</ele>
        <time>2020-02-13T16:52:32Z</time>
      </trkpt>
      <trkpt lat="59.336851" lon="18.080398">
        <ele>23</ele>
        <time>2020-02-13T16:52:33Z</time>
      </trkpt>
      <trkpt lat="59.336884" lon="18.080399">
        <ele>23</ele>
        <time>2020-02-13T16:52:34Z</time>
      </trkpt>
      <trkpt lat="59.336907" lon="18.080429">
        <ele>23</ele>
        <time>2020-02-13T16:52:35Z</time>
      </trkpt>
      <trkpt lat="59.336928" lon="18.080457">
        <ele>24</ele>
        <time>2020-02-13T16:52:36Z</time>
      </trkpt>
      <trkpt lat="59.336949" lon="18.08047">
        <ele>23</ele>
        <time>2020-02-13T16:52:37Z</time>
      </trkpt>
      <trkpt lat="59.336977" lon="18.080485">
        <ele>23</ele>
        <time>2020-02-13T16:52:38Z</time>
      </trkpt>
      <trkpt lat="59.337008" lon="18.0805">
        <ele>23</ele>
        <time>2020-02-13T16:52:39Z</time>
      </trkpt>
      <trkpt lat="59.337035" lon="18.080572">
        <ele>23</ele>
        <time>2020-02-13T16:52:40Z</time>
      </trkpt>
      <trkpt lat="59.337063" lon="18.080637">
        <ele>23</ele>
        <time>2020-02-13T16:52:41Z</time>
      </trkpt>
      <trkpt lat="59.337094" lon="18.080703">
        <ele>23</ele>
        <time>2020-02-13T16:52:42Z</time>
      </trkpt>
      <trkpt lat="59.33713" lon="18.080753">
        <ele>23</ele>
        <time>2020-02-13T16:52:43Z</time>
      </trkpt>
      <trkpt lat="59.337163" lon="18.080791">
        <ele>23</ele>
        <time>2020-02-13T16:52:44Z</time>
      </trkpt>
      <trkpt lat="59.337194" lon="18.080839">
        <ele>23</ele>
        <time>2020-02-13T16:52:46Z</time>
      </trkpt>
      <trkpt lat="59.337225" lon="18.080897">
        <ele>23</ele>
        <time>2020-02-13T16:52:46Z</time>
      </trkpt>
      <trkpt lat="59.337264" lon="18.080933">
        <ele>24</ele>
        <time>2020-02-13T16:52:47Z</time>
      </trkpt>
      <trkpt lat="59.337301" lon="18.080957">
        <ele>24</ele>
        <time>2020-02-13T16:52:48Z</time>
      </trkpt>
      <trkpt lat="59.337344" lon="18.080979">
        <ele>24</ele>
        <time>2020-02-13T16:52:50Z</time>
      </trkpt>
      <trkpt lat="59.337384" lon="18.081015">
        <ele>25</ele>
        <time>2020-02-13T16:52:50Z</time>
      </trkpt>
      <trkpt lat="59.337501" lon="18.081087">
        <ele>25</ele>
        <time>2020-02-13T16:52:52Z</time>
      </trkpt>
      <trkpt lat="59.337554" lon="18.081125">
        <ele>26</ele>
        <time>2020-02-13T16:52:53Z</time>
      </trkpt>
      <trkpt lat="59.337619" lon="18.081162">
        <ele>26</ele>
        <time>2020-02-13T16:52:54Z</time>
      </trkpt>
      <trkpt lat="59.337676" lon="18.081203">
        <ele>26</ele>
        <time>2020-02-13T16:52:56Z</time>
      </trkpt>
      <trkpt lat="59.337733" lon="18.081249">
        <ele>27</ele>
        <time>2020-02-13T16:52:56Z</time>
      </trkpt>
      <trkpt lat="59.337788" lon="18.081289">
        <ele>27</ele>
        <time>2020-02-13T16:52:57Z</time>
      </trkpt>
      <trkpt lat="59.337838" lon="18.081336">
        <ele>27</ele>
        <time>2020-02-13T16:52:58Z</time>
      </trkpt>
      <trkpt lat="59.337891" lon="18.08138">
        <ele>27</ele>
        <time>2020-02-13T16:52:59Z</time>
      </trkpt>
      <trkpt lat="59.337988" lon="18.081495">
        <ele>27</ele>
        <time>2020-02-13T16:53:01Z</time>
      </trkpt>
      <trkpt lat="59.338113" lon="18.081566">
        <ele>26</ele>
        <time>2020-02-13T16:53:04Z</time>
      </trkpt>
      <trkpt lat="59.338175" lon="18.081636">
        <ele>26</ele>
        <time>2020-02-13T16:53:04Z</time>
      </trkpt>
      <trkpt lat="59.338225" lon="18.081708">
        <ele>27</ele>
        <time>2020-02-13T16:53:05Z</time>
      </trkpt>
      <trkpt lat="59.338275" lon="18.081759">
        <ele>27</ele>
        <time>2020-02-13T16:53:06Z</time>
      </trkpt>
      <trkpt lat="59.338318" lon="18.081807">
        <ele>27</ele>
        <time>2020-02-13T16:53:07Z</time>
      </trkpt>
      <trkpt lat="59.33836" lon="18.081857">
        <ele>28</ele>
        <time>2020-02-13T16:53:09Z</time>
      </trkpt>
      <trkpt lat="59.338406" lon="18.081895">
        <ele>29</ele>
        <time>2020-02-13T16:53:09Z</time>
      </trkpt>
      <trkpt lat="59.338455" lon="18.081922">
        <ele>29</ele>
        <time>2020-02-13T16:53:10Z</time>
      </trkpt>
      <trkpt lat="59.338504" lon="18.081949">
        <ele>30</ele>
        <time>2020-02-13T16:53:11Z</time>
      </trkpt>
      <trkpt lat="59.338557" lon="18.081977">
        <ele>30</ele>
        <time>2020-02-13T16:53:13Z</time>
      </trkpt>
      <trkpt lat="59.338609" lon="18.08201">
        <ele>31</ele>
        <time>2020-02-13T16:53:13Z</time>
      </trkpt>
      <trkpt lat="59.338662" lon="18.082051">
        <ele>31</ele>
        <time>2020-02-13T16:53:14Z</time>
      </trkpt>
      <trkpt lat="59.338716" lon="18.082095">
        <ele>31</ele>
        <time>2020-02-13T16:53:15Z</time>
      </trkpt>
      <trkpt lat="59.33877" lon="18.082132">
        <ele>32</ele>
        <time>2020-02-13T16:53:16Z</time>
      </trkpt>
      <trkpt lat="59.338824" lon="18.082165">
        <ele>32</ele>
        <time>2020-02-13T16:53:17Z</time>
      </trkpt>
      <trkpt lat="59.338874" lon="18.082197">
        <ele>32</ele>
        <time>2020-02-13T16:53:18Z</time>
      </trkpt>
      <trkpt lat="59.338932" lon="18.082216">
        <ele>31</ele>
        <time>2020-02-13T16:53:19Z</time>
      </trkpt>
      <trkpt lat="59.33899" lon="18.082268">
        <ele>30</ele>
        <time>2020-02-13T16:53:20Z</time>
      </trkpt>
      <trkpt lat="59.339041" lon="18.082331">
        <ele>30</ele>
        <time>2020-02-13T16:53:22Z</time>
      </trkpt>
      <trkpt lat="59.339095" lon="18.082389">
        <ele>29</ele>
        <time>2020-02-13T16:53:22Z</time>
      </trkpt>
      <trkpt lat="59.339144" lon="18.082448">
        <ele>29</ele>
        <time>2020-02-13T16:53:23Z</time>
      </trkpt>
      <trkpt lat="59.339193" lon="18.082503">
        <ele>29</ele>
        <time>2020-02-13T16:53:24Z</time>
      </trkpt>
      <trkpt lat="59.339236" lon="18.082548">
        <ele>29</ele>
        <time>2020-02-13T16:53:25Z</time>
      </trkpt>
      <trkpt lat="59.339272" lon="18.082598">
        <ele>29</ele>
        <time>2020-02-13T16:53:26Z</time>
      </trkpt>
      <trkpt lat="59.339306" lon="18.082642">
        <ele>28</ele>
        <time>2020-02-13T16:53:28Z</time>
      </trkpt>
      <trkpt lat="59.339343" lon="18.082673">
        <ele>28</ele>
        <time>2020-02-13T16:53:28Z</time>
      </trkpt>
      <trkpt lat="59.339386" lon="18.0827">
        <ele>28</ele>
        <time>2020-02-13T16:53:29Z</time>
      </trkpt>
      <trkpt lat="59.339435" lon="18.082738">
        <ele>29</ele>
        <time>2020-02-13T16:53:30Z</time>
      </trkpt>
      <trkpt lat="59.339484" lon="18.082776">
        <ele>29</ele>
        <time>2020-02-13T16:53:32Z</time>
      </trkpt>
      <trkpt lat="59.339538" lon="18.08281">
        <ele>29</ele>
        <time>2020-02-13T16:53:32Z</time>
      </trkpt>
      <trkpt lat="59.339593" lon="18.082846">
        <ele>29</ele>
        <time>2020-02-13T16:53:33Z</time>
      </trkpt>
      <trkpt lat="59.33965" lon="18.082873">
        <ele>29</ele>
        <time>2020-02-13T16:53:34Z</time>
      </trkpt>
      <trkpt lat="59.339709" lon="18.082902">
        <ele>30</ele>
        <time>2020-02-13T16:53:35Z</time>
      </trkpt>
      <trkpt lat="59.339768" lon="18.082933">
        <ele>30</ele>
        <time>2020-02-13T16:53:36Z</time>
      </trkpt>
      <trkpt lat="59.339829" lon="18.082973">
        <ele>30</ele>
        <time>2020-02-13T16:53:37Z</time>
      </trkpt>
      <trkpt lat="59.339884" lon="18.083048">
        <ele>30</ele>
        <time>2020-02-13T16:53:38Z</time>
      </trkpt>
      <trkpt lat="59.339945" lon="18.083099">
        <ele>30</ele>
        <time>2020-02-13T16:53:40Z</time>
      </trkpt>
      <trkpt lat="59.340003" lon="18.08315">
        <ele>30</ele>
        <time>2020-02-13T16:53:40Z</time>
      </trkpt>
      <trkpt lat="59.34006" lon="18.083192">
        <ele>30</ele>
        <time>2020-02-13T16:53:41Z</time>
      </trkpt>
      <trkpt lat="59.340116" lon="18.083228">
        <ele>30</ele>
        <time>2020-02-13T16:53:42Z</time>
      </trkpt>
      <trkpt lat="59.340171" lon="18.083274">
        <ele>30</ele>
        <time>2020-02-13T16:53:43Z</time>
      </trkpt>
      <trkpt lat="59.340225" lon="18.083326">
        <ele>30</ele>
        <time>2020-02-13T16:53:44Z</time>
      </trkpt>
      <trkpt lat="59.340275" lon="18.083368">
        <ele>30</ele>
        <time>2020-02-13T16:53:45Z</time>
      </trkpt>
      <trkpt lat="59.340316" lon="18.083403">
        <ele>30</ele>
        <time>2020-02-13T16:53:47Z</time>
      </trkpt>
      <trkpt lat="59.340355" lon="18.083444">
        <ele>30</ele>
        <time>2020-02-13T16:53:47Z</time>
      </trkpt>
      <trkpt lat="59.340398" lon="18.083485">
        <ele>30</ele>
        <time>2020-02-13T16:53:49Z</time>
      </trkpt>
      <trkpt lat="59.340444" lon="18.083523">
        <ele>30</ele>
        <time>2020-02-13T16:53:49Z</time>
      </trkpt>
      <trkpt lat="59.340487" lon="18.08357">
        <ele>30</ele>
        <time>2020-02-13T16:53:50Z</time>
      </trkpt>
      <trkpt lat="59.340514" lon="18.083648">
        <ele>30</ele>
        <time>2020-02-13T16:53:51Z</time>
      </trkpt>
      <trkpt lat="59.340528" lon="18.083769">
        <ele>30</ele>
        <time>2020-02-13T16:53:52Z</time>
      </trkpt>
      <trkpt lat="59.340529" lon="18.083886">
        <ele>30</ele>
        <time>2020-02-13T16:53:53Z</time>
      </trkpt>
      <trkpt lat="59.340523" lon="18.083983">
        <ele>30</ele>
        <time>2020-02-13T16:53:54Z</time>
      </trkpt>
      <trkpt lat="59.340516" lon="18.084079">
        <ele>30</ele>
        <time>2020-02-13T16:53:55Z</time>
      </trkpt>
      <trkpt lat="59.340504" lon="18.084179">
        <ele>30</ele>
        <time>2020-02-13T16:53:56Z</time>
      </trkpt>
      <trkpt lat="59.340496" lon="18.084275">
        <ele>30</ele>
        <time>2020-02-13T16:53:57Z</time>
      </trkpt>
      <trkpt lat="59.340489" lon="18.084367">
        <ele>30</ele>
        <time>2020-02-13T16:53:59Z</time>
      </trkpt>
      <trkpt lat="59.340488" lon="18.08445">
        <ele>30</ele>
        <time>2020-02-13T16:53:59Z</time>
      </trkpt>
      <trkpt lat="59.340478" lon="18.084528">
        <ele>30</ele>
        <time>2020-02-13T16:54:00Z</time>
      </trkpt>
      <trkpt lat="59.340476" lon="18.084603">
        <ele>30</ele>
        <time>2020-02-13T16:54:01Z</time>
      </trkpt>
      <trkpt lat="59.340471" lon="18.08468">
        <ele>30</ele>
        <time>2020-02-13T16:54:02Z</time>
      </trkpt>
      <trkpt lat="59.340464" lon="18.084751">
        <ele>30</ele>
        <time>2020-02-13T16:54:03Z</time>
      </trkpt>
      <trkpt lat="59.340435" lon="18.084815">
        <ele>30</ele>
        <time>2020-02-13T16:54:04Z</time>
      </trkpt>
      <trkpt lat="59.340427" lon="18.084865">
        <ele>30</ele>
        <time>2020-02-13T16:54:06Z</time>
      </trkpt>
      <trkpt lat="59.340421" lon="18.084912">
        <ele>30</ele>
        <time>2020-02-13T16:54:06Z</time>
      </trkpt>
      <trkpt lat="59.340435" lon="18.084943">
        <ele>30</ele>
        <time>2020-02-13T16:54:07Z</time>
      </trkpt>
      <trkpt lat="59.340434" lon="18.085002">
        <ele>30</ele>
        <time>2020-02-13T16:54:09Z</time>
      </trkpt>
      <trkpt lat="59.340432" lon="18.085042">
        <ele>31</ele>
        <time>2020-02-13T16:54:10Z</time>
      </trkpt>
      <trkpt lat="59.340413" lon="18.085123">
        <ele>0</ele>
        <time>2020-02-13T16:54:12Z</time>
      </trkpt>
    </trkseg>
  </trk>
</gpx>